<?xml version="1.0" encoding="UTF-8" standalone="no" ?>
<gpx xmlns="http://www.topografix.com/GPX/1/1" xmlns:xsi="http://www.w3.org/2001/XMLSchema-instance" xsi:schemaLocation="http://www.topografix.com/GPX/1/1 http://www.topografix.com/GPX/1/1/gpx.xsd" version="1.1" creator="VisuGPX - https://www.visugpx.com">
  <metadata>
    <name>les ferres-nice</name>
    <desc><![CDATA[traces de ferres à nice]]></desc>
  </metadata>
  <trk>
    <name><![CDATA[CY4788 J7 V3]]></name>
    <trkseg>
      <trkpt lat="43.84694" lon="7.09234">
        <ele>-1</ele>
        <time>1970-01-01T00:00:00Z</time>
      </trkpt>
      <trkpt lat="43.84671" lon="7.09238">
        <ele>-1</ele>
        <time>1970-01-01T00:00:00Z</time>
      </trkpt>
      <trkpt lat="43.84666" lon="7.09256">
        <ele>-1</ele>
        <time>1970-01-01T00:00:00Z</time>
      </trkpt>
      <trkpt lat="43.84665" lon="7.09281">
        <ele>-1</ele>
        <time>1970-01-01T00:00:00Z</time>
      </trkpt>
      <trkpt lat="43.84673" lon="7.093">
        <ele>-1</ele>
        <time>1970-01-01T00:00:00Z</time>
      </trkpt>
      <trkpt lat="43.84681" lon="7.09326">
        <ele>-1</ele>
        <time>1970-01-01T00:00:00Z</time>
      </trkpt>
      <trkpt lat="43.84685" lon="7.09345">
        <ele>-1</ele>
        <time>1970-01-01T00:00:00Z</time>
      </trkpt>
      <trkpt lat="43.84702" lon="7.09359">
        <ele>-1</ele>
        <time>1970-01-01T00:00:00Z</time>
      </trkpt>
      <trkpt lat="43.84706" lon="7.09378">
        <ele>-1</ele>
        <time>1970-01-01T00:00:00Z</time>
      </trkpt>
      <trkpt lat="43.84709" lon="7.09403">
        <ele>-1</ele>
        <time>1970-01-01T00:00:00Z</time>
      </trkpt>
      <trkpt lat="43.84691" lon="7.09408">
        <ele>-1</ele>
        <time>1970-01-01T00:00:00Z</time>
      </trkpt>
      <trkpt lat="43.84674" lon="7.09394">
        <ele>-1</ele>
        <time>1970-01-01T00:00:00Z</time>
      </trkpt>
      <trkpt lat="43.84661" lon="7.09368">
        <ele>-1</ele>
        <time>1970-01-01T00:00:00Z</time>
      </trkpt>
      <trkpt lat="43.84648" lon="7.0936">
        <ele>-1</ele>
        <time>1970-01-01T00:00:00Z</time>
      </trkpt>
      <trkpt lat="43.84635" lon="7.09341">
        <ele>-1</ele>
        <time>1970-01-01T00:00:00Z</time>
      </trkpt>
      <trkpt lat="43.84618" lon="7.09327">
        <ele>-1</ele>
        <time>1970-01-01T00:00:00Z</time>
      </trkpt>
      <trkpt lat="43.84605" lon="7.09313">
        <ele>-1</ele>
        <time>1970-01-01T00:00:00Z</time>
      </trkpt>
      <trkpt lat="43.84592" lon="7.093">
        <ele>-1</ele>
        <time>1970-01-01T00:00:00Z</time>
      </trkpt>
      <trkpt lat="43.84579" lon="7.09292">
        <ele>-1</ele>
        <time>1970-01-01T00:00:00Z</time>
      </trkpt>
      <trkpt lat="43.84561" lon="7.09285">
        <ele>-1</ele>
        <time>1970-01-01T00:00:00Z</time>
      </trkpt>
      <trkpt lat="43.84543" lon="7.09283">
        <ele>-1</ele>
        <time>1970-01-01T00:00:00Z</time>
      </trkpt>
      <trkpt lat="43.84529" lon="7.09301">
        <ele>-1</ele>
        <time>1970-01-01T00:00:00Z</time>
      </trkpt>
      <trkpt lat="43.84515" lon="7.09312">
        <ele>-1</ele>
        <time>1970-01-01T00:00:00Z</time>
      </trkpt>
      <trkpt lat="43.8451" lon="7.0933">
        <ele>-1</ele>
        <time>1970-01-01T00:00:00Z</time>
      </trkpt>
      <trkpt lat="43.845" lon="7.09354">
        <ele>-1</ele>
        <time>1970-01-01T00:00:00Z</time>
      </trkpt>
      <trkpt lat="43.84499" lon="7.09379">
        <ele>-1</ele>
        <time>1970-01-01T00:00:00Z</time>
      </trkpt>
      <trkpt lat="43.84498" lon="7.09404">
        <ele>-1</ele>
        <time>1970-01-01T00:00:00Z</time>
      </trkpt>
      <trkpt lat="43.84492" lon="7.09428">
        <ele>-1</ele>
        <time>1970-01-01T00:00:00Z</time>
      </trkpt>
      <trkpt lat="43.84491" lon="7.09453">
        <ele>-1</ele>
        <time>1970-01-01T00:00:00Z</time>
      </trkpt>
      <trkpt lat="43.8449" lon="7.09478">
        <ele>-1</ele>
        <time>1970-01-01T00:00:00Z</time>
      </trkpt>
      <trkpt lat="43.84485" lon="7.09496">
        <ele>-1</ele>
        <time>1970-01-01T00:00:00Z</time>
      </trkpt>
      <trkpt lat="43.84483" lon="7.09527">
        <ele>-1</ele>
        <time>1970-01-01T00:00:00Z</time>
      </trkpt>
      <trkpt lat="43.84478" lon="7.09551">
        <ele>-1</ele>
        <time>1970-01-01T00:00:00Z</time>
      </trkpt>
      <trkpt lat="43.84468" lon="7.09575">
        <ele>-1</ele>
        <time>1970-01-01T00:00:00Z</time>
      </trkpt>
      <trkpt lat="43.84453" lon="7.09599">
        <ele>-1</ele>
        <time>1970-01-01T00:00:00Z</time>
      </trkpt>
      <trkpt lat="43.84452" lon="7.09624">
        <ele>-1</ele>
        <time>1970-01-01T00:00:00Z</time>
      </trkpt>
      <trkpt lat="43.84451" lon="7.09649">
        <ele>-1</ele>
        <time>1970-01-01T00:00:00Z</time>
      </trkpt>
      <trkpt lat="43.84459" lon="7.09668">
        <ele>-1</ele>
        <time>1970-01-01T00:00:00Z</time>
      </trkpt>
      <trkpt lat="43.84471" lon="7.09694">
        <ele>-1</ele>
        <time>1970-01-01T00:00:00Z</time>
      </trkpt>
      <trkpt lat="43.84484" lon="7.09714">
        <ele>-1</ele>
        <time>1970-01-01T00:00:00Z</time>
      </trkpt>
      <trkpt lat="43.84492" lon="7.09733">
        <ele>-1</ele>
        <time>1970-01-01T00:00:00Z</time>
      </trkpt>
      <trkpt lat="43.845" lon="7.09759">
        <ele>-1</ele>
        <time>1970-01-01T00:00:00Z</time>
      </trkpt>
      <trkpt lat="43.84508" lon="7.09784">
        <ele>-1</ele>
        <time>1970-01-01T00:00:00Z</time>
      </trkpt>
      <trkpt lat="43.84507" lon="7.09809">
        <ele>-1</ele>
        <time>1970-01-01T00:00:00Z</time>
      </trkpt>
      <trkpt lat="43.84506" lon="7.09834">
        <ele>-1</ele>
        <time>1970-01-01T00:00:00Z</time>
      </trkpt>
      <trkpt lat="43.845" lon="7.09858">
        <ele>-1</ele>
        <time>1970-01-01T00:00:00Z</time>
      </trkpt>
      <trkpt lat="43.84495" lon="7.09883">
        <ele>-1</ele>
        <time>1970-01-01T00:00:00Z</time>
      </trkpt>
      <trkpt lat="43.8448" lon="7.099">
        <ele>-1</ele>
        <time>1970-01-01T00:00:00Z</time>
      </trkpt>
      <trkpt lat="43.84475" lon="7.09918">
        <ele>-1</ele>
        <time>1970-01-01T00:00:00Z</time>
      </trkpt>
      <trkpt lat="43.84483" lon="7.09938">
        <ele>-1</ele>
        <time>1970-01-01T00:00:00Z</time>
      </trkpt>
      <trkpt lat="43.84491" lon="7.09957">
        <ele>-1</ele>
        <time>1970-01-01T00:00:00Z</time>
      </trkpt>
      <trkpt lat="43.84499" lon="7.09982">
        <ele>-1</ele>
        <time>1970-01-01T00:00:00Z</time>
      </trkpt>
      <trkpt lat="43.84507" lon="7.10002">
        <ele>-1</ele>
        <time>1970-01-01T00:00:00Z</time>
      </trkpt>
      <trkpt lat="43.8452" lon="7.10021">
        <ele>-1</ele>
        <time>1970-01-01T00:00:00Z</time>
      </trkpt>
      <trkpt lat="43.84528" lon="7.10041">
        <ele>-1</ele>
        <time>1970-01-01T00:00:00Z</time>
      </trkpt>
      <trkpt lat="43.84536" lon="7.1006">
        <ele>-1</ele>
        <time>1970-01-01T00:00:00Z</time>
      </trkpt>
      <trkpt lat="43.84549" lon="7.10086">
        <ele>-1</ele>
        <time>1970-01-01T00:00:00Z</time>
      </trkpt>
      <trkpt lat="43.84561" lon="7.10112">
        <ele>-1</ele>
        <time>1970-01-01T00:00:00Z</time>
      </trkpt>
      <trkpt lat="43.84565" lon="7.10131">
        <ele>-1</ele>
        <time>1970-01-01T00:00:00Z</time>
      </trkpt>
      <trkpt lat="43.84568" lon="7.1015">
        <ele>-1</ele>
        <time>1970-01-01T00:00:00Z</time>
      </trkpt>
      <trkpt lat="43.84567" lon="7.10175">
        <ele>-1</ele>
        <time>1970-01-01T00:00:00Z</time>
      </trkpt>
      <trkpt lat="43.84566" lon="7.102">
        <ele>-1</ele>
        <time>1970-01-01T00:00:00Z</time>
      </trkpt>
      <trkpt lat="43.84556" lon="7.10224">
        <ele>-1</ele>
        <time>1970-01-01T00:00:00Z</time>
      </trkpt>
      <trkpt lat="43.84542" lon="7.10235">
        <ele>-1</ele>
        <time>1970-01-01T00:00:00Z</time>
      </trkpt>
      <trkpt lat="43.84546" lon="7.10254">
        <ele>-1</ele>
        <time>1970-01-01T00:00:00Z</time>
      </trkpt>
      <trkpt lat="43.84564" lon="7.10249">
        <ele>-1</ele>
        <time>1970-01-01T00:00:00Z</time>
      </trkpt>
      <trkpt lat="43.84577" lon="7.10269">
        <ele>-1</ele>
        <time>1970-01-01T00:00:00Z</time>
      </trkpt>
      <trkpt lat="43.8458" lon="7.10288">
        <ele>-1</ele>
        <time>1970-01-01T00:00:00Z</time>
      </trkpt>
      <trkpt lat="43.84567" lon="7.10293">
        <ele>-1</ele>
        <time>1970-01-01T00:00:00Z</time>
      </trkpt>
      <trkpt lat="43.84548" lon="7.10298">
        <ele>-1</ele>
        <time>1970-01-01T00:00:00Z</time>
      </trkpt>
      <trkpt lat="43.84543" lon="7.10316">
        <ele>-1</ele>
        <time>1970-01-01T00:00:00Z</time>
      </trkpt>
      <trkpt lat="43.84542" lon="7.10341">
        <ele>-1</ele>
        <time>1970-01-01T00:00:00Z</time>
      </trkpt>
      <trkpt lat="43.84541" lon="7.10372">
        <ele>-1</ele>
        <time>1970-01-01T00:00:00Z</time>
      </trkpt>
      <trkpt lat="43.84549" lon="7.10397">
        <ele>-1</ele>
        <time>1970-01-01T00:00:00Z</time>
      </trkpt>
      <trkpt lat="43.84562" lon="7.10404">
        <ele>-1</ele>
        <time>1970-01-01T00:00:00Z</time>
      </trkpt>
      <trkpt lat="43.84579" lon="7.10418">
        <ele>-1</ele>
        <time>1970-01-01T00:00:00Z</time>
      </trkpt>
      <trkpt lat="43.84592" lon="7.10444">
        <ele>-1</ele>
        <time>1970-01-01T00:00:00Z</time>
      </trkpt>
      <trkpt lat="43.8459" lon="7.10469">
        <ele>-1</ele>
        <time>1970-01-01T00:00:00Z</time>
      </trkpt>
      <trkpt lat="43.84585" lon="7.10493">
        <ele>-1</ele>
        <time>1970-01-01T00:00:00Z</time>
      </trkpt>
      <trkpt lat="43.84593" lon="7.10519">
        <ele>-1</ele>
        <time>1970-01-01T00:00:00Z</time>
      </trkpt>
      <trkpt lat="43.84605" lon="7.10545">
        <ele>-1</ele>
        <time>1970-01-01T00:00:00Z</time>
      </trkpt>
      <trkpt lat="43.84609" lon="7.1057">
        <ele>-1</ele>
        <time>1970-01-01T00:00:00Z</time>
      </trkpt>
      <trkpt lat="43.84612" lon="7.10595">
        <ele>-1</ele>
        <time>1970-01-01T00:00:00Z</time>
      </trkpt>
      <trkpt lat="43.84615" lon="7.1062">
        <ele>-1</ele>
        <time>1970-01-01T00:00:00Z</time>
      </trkpt>
      <trkpt lat="43.84633" lon="7.10634">
        <ele>-1</ele>
        <time>1970-01-01T00:00:00Z</time>
      </trkpt>
      <trkpt lat="43.84645" lon="7.1066">
        <ele>-1</ele>
        <time>1970-01-01T00:00:00Z</time>
      </trkpt>
      <trkpt lat="43.84658" lon="7.1068">
        <ele>-1</ele>
        <time>1970-01-01T00:00:00Z</time>
      </trkpt>
      <trkpt lat="43.84661" lon="7.10699">
        <ele>-1</ele>
        <time>1970-01-01T00:00:00Z</time>
      </trkpt>
      <trkpt lat="43.84665" lon="7.10718">
        <ele>-1</ele>
        <time>1970-01-01T00:00:00Z</time>
      </trkpt>
      <trkpt lat="43.84673" lon="7.10743">
        <ele>-1</ele>
        <time>1970-01-01T00:00:00Z</time>
      </trkpt>
      <trkpt lat="43.84667" lon="7.10768">
        <ele>-1</ele>
        <time>1970-01-01T00:00:00Z</time>
      </trkpt>
      <trkpt lat="43.8468" lon="7.10794">
        <ele>-1</ele>
        <time>1970-01-01T00:00:00Z</time>
      </trkpt>
      <trkpt lat="43.84683" lon="7.10813">
        <ele>-1</ele>
        <time>1970-01-01T00:00:00Z</time>
      </trkpt>
      <trkpt lat="43.84687" lon="7.10832">
        <ele>-1</ele>
        <time>1970-01-01T00:00:00Z</time>
      </trkpt>
      <trkpt lat="43.84691" lon="7.10851">
        <ele>-1</ele>
        <time>1970-01-01T00:00:00Z</time>
      </trkpt>
      <trkpt lat="43.84699" lon="7.10876">
        <ele>-1</ele>
        <time>1970-01-01T00:00:00Z</time>
      </trkpt>
      <trkpt lat="43.84707" lon="7.10902">
        <ele>-1</ele>
        <time>1970-01-01T00:00:00Z</time>
      </trkpt>
      <trkpt lat="43.84724" lon="7.10922">
        <ele>-1</ele>
        <time>1970-01-01T00:00:00Z</time>
      </trkpt>
      <trkpt lat="43.84732" lon="7.10947">
        <ele>-1</ele>
        <time>1970-01-01T00:00:00Z</time>
      </trkpt>
      <trkpt lat="43.84739" lon="7.10973">
        <ele>-1</ele>
        <time>1970-01-01T00:00:00Z</time>
      </trkpt>
      <trkpt lat="43.84747" lon="7.10999">
        <ele>-1</ele>
        <time>1970-01-01T00:00:00Z</time>
      </trkpt>
      <trkpt lat="43.84755" lon="7.11018">
        <ele>-1</ele>
        <time>1970-01-01T00:00:00Z</time>
      </trkpt>
      <trkpt lat="43.84763" lon="7.11043">
        <ele>-1</ele>
        <time>1970-01-01T00:00:00Z</time>
      </trkpt>
      <trkpt lat="43.84771" lon="7.11069">
        <ele>-1</ele>
        <time>1970-01-01T00:00:00Z</time>
      </trkpt>
      <trkpt lat="43.84779" lon="7.11095">
        <ele>-1</ele>
        <time>1970-01-01T00:00:00Z</time>
      </trkpt>
      <trkpt lat="43.84783" lon="7.11114">
        <ele>-1</ele>
        <time>1970-01-01T00:00:00Z</time>
      </trkpt>
      <trkpt lat="43.84791" lon="7.11139">
        <ele>-1</ele>
        <time>1970-01-01T00:00:00Z</time>
      </trkpt>
      <trkpt lat="43.84803" lon="7.11165">
        <ele>-1</ele>
        <time>1970-01-01T00:00:00Z</time>
      </trkpt>
      <trkpt lat="43.84811" lon="7.11191">
        <ele>-1</ele>
        <time>1970-01-01T00:00:00Z</time>
      </trkpt>
      <trkpt lat="43.84815" lon="7.11209">
        <ele>-1</ele>
        <time>1970-01-01T00:00:00Z</time>
      </trkpt>
      <trkpt lat="43.84822" lon="7.11235">
        <ele>-1</ele>
        <time>1970-01-01T00:00:00Z</time>
      </trkpt>
      <trkpt lat="43.8483" lon="7.11261">
        <ele>-1</ele>
        <time>1970-01-01T00:00:00Z</time>
      </trkpt>
      <trkpt lat="43.84843" lon="7.11287">
        <ele>-1</ele>
        <time>1970-01-01T00:00:00Z</time>
      </trkpt>
      <trkpt lat="43.84851" lon="7.11306">
        <ele>-1</ele>
        <time>1970-01-01T00:00:00Z</time>
      </trkpt>
      <trkpt lat="43.84864" lon="7.11313">
        <ele>-1</ele>
        <time>1970-01-01T00:00:00Z</time>
      </trkpt>
      <trkpt lat="43.84868" lon="7.11332">
        <ele>-1</ele>
        <time>1970-01-01T00:00:00Z</time>
      </trkpt>
      <trkpt lat="43.8488" lon="7.11358">
        <ele>-1</ele>
        <time>1970-01-01T00:00:00Z</time>
      </trkpt>
      <trkpt lat="43.84888" lon="7.11377">
        <ele>-1</ele>
        <time>1970-01-01T00:00:00Z</time>
      </trkpt>
      <trkpt lat="43.84892" lon="7.11396">
        <ele>-1</ele>
        <time>1970-01-01T00:00:00Z</time>
      </trkpt>
      <trkpt lat="43.849" lon="7.11422">
        <ele>-1</ele>
        <time>1970-01-01T00:00:00Z</time>
      </trkpt>
      <trkpt lat="43.84908" lon="7.11447">
        <ele>-1</ele>
        <time>1970-01-01T00:00:00Z</time>
      </trkpt>
      <trkpt lat="43.84907" lon="7.11472">
        <ele>-1</ele>
        <time>1970-01-01T00:00:00Z</time>
      </trkpt>
      <trkpt lat="43.84905" lon="7.11497">
        <ele>-1</ele>
        <time>1970-01-01T00:00:00Z</time>
      </trkpt>
      <trkpt lat="43.84904" lon="7.11522">
        <ele>-1</ele>
        <time>1970-01-01T00:00:00Z</time>
      </trkpt>
      <trkpt lat="43.84903" lon="7.11547">
        <ele>-1</ele>
        <time>1970-01-01T00:00:00Z</time>
      </trkpt>
      <trkpt lat="43.84902" lon="7.11571">
        <ele>-1</ele>
        <time>1970-01-01T00:00:00Z</time>
      </trkpt>
      <trkpt lat="43.84897" lon="7.11596">
        <ele>-1</ele>
        <time>1970-01-01T00:00:00Z</time>
      </trkpt>
      <trkpt lat="43.84895" lon="7.11627">
        <ele>-1</ele>
        <time>1970-01-01T00:00:00Z</time>
      </trkpt>
      <trkpt lat="43.84885" lon="7.11645">
        <ele>-1</ele>
        <time>1970-01-01T00:00:00Z</time>
      </trkpt>
      <trkpt lat="43.8488" lon="7.11669">
        <ele>-1</ele>
        <time>1970-01-01T00:00:00Z</time>
      </trkpt>
      <trkpt lat="43.84874" lon="7.11694">
        <ele>-1</ele>
        <time>1970-01-01T00:00:00Z</time>
      </trkpt>
      <trkpt lat="43.84873" lon="7.11718">
        <ele>-1</ele>
        <time>1970-01-01T00:00:00Z</time>
      </trkpt>
      <trkpt lat="43.84877" lon="7.11743">
        <ele>-1</ele>
        <time>1970-01-01T00:00:00Z</time>
      </trkpt>
      <trkpt lat="43.84889" lon="7.11757">
        <ele>-1</ele>
        <time>1970-01-01T00:00:00Z</time>
      </trkpt>
      <trkpt lat="43.84897" lon="7.11783">
        <ele>-1</ele>
        <time>1970-01-01T00:00:00Z</time>
      </trkpt>
      <trkpt lat="43.84905" lon="7.11808">
        <ele>-1</ele>
        <time>1970-01-01T00:00:00Z</time>
      </trkpt>
      <trkpt lat="43.84913" lon="7.11827">
        <ele>-1</ele>
        <time>1970-01-01T00:00:00Z</time>
      </trkpt>
      <trkpt lat="43.84908" lon="7.11846">
        <ele>-1</ele>
        <time>1970-01-01T00:00:00Z</time>
      </trkpt>
      <trkpt lat="43.84912" lon="7.11865">
        <ele>-1</ele>
        <time>1970-01-01T00:00:00Z</time>
      </trkpt>
      <trkpt lat="43.8492" lon="7.1189">
        <ele>-1</ele>
        <time>1970-01-01T00:00:00Z</time>
      </trkpt>
      <trkpt lat="43.84928" lon="7.1191">
        <ele>-1</ele>
        <time>1970-01-01T00:00:00Z</time>
      </trkpt>
      <trkpt lat="43.84931" lon="7.11929">
        <ele>-1</ele>
        <time>1970-01-01T00:00:00Z</time>
      </trkpt>
      <trkpt lat="43.8493" lon="7.11953">
        <ele>-1</ele>
        <time>1970-01-01T00:00:00Z</time>
      </trkpt>
      <trkpt lat="43.84934" lon="7.11978">
        <ele>-1</ele>
        <time>1970-01-01T00:00:00Z</time>
      </trkpt>
      <trkpt lat="43.84933" lon="7.12003">
        <ele>-1</ele>
        <time>1970-01-01T00:00:00Z</time>
      </trkpt>
      <trkpt lat="43.84932" lon="7.12028">
        <ele>-1</ele>
        <time>1970-01-01T00:00:00Z</time>
      </trkpt>
      <trkpt lat="43.8493" lon="7.12053">
        <ele>-1</ele>
        <time>1970-01-01T00:00:00Z</time>
      </trkpt>
      <trkpt lat="43.84934" lon="7.12072">
        <ele>-1</ele>
        <time>1970-01-01T00:00:00Z</time>
      </trkpt>
      <trkpt lat="43.84938" lon="7.12091">
        <ele>-1</ele>
        <time>1970-01-01T00:00:00Z</time>
      </trkpt>
      <trkpt lat="43.84946" lon="7.1211">
        <ele>-1</ele>
        <time>1970-01-01T00:00:00Z</time>
      </trkpt>
      <trkpt lat="43.84959" lon="7.1213">
        <ele>-1</ele>
        <time>1970-01-01T00:00:00Z</time>
      </trkpt>
      <trkpt lat="43.84976" lon="7.12144">
        <ele>-1</ele>
        <time>1970-01-01T00:00:00Z</time>
      </trkpt>
      <trkpt lat="43.84989" lon="7.12157">
        <ele>-1</ele>
        <time>1970-01-01T00:00:00Z</time>
      </trkpt>
      <trkpt lat="43.84997" lon="7.12177">
        <ele>-1</ele>
        <time>1970-01-01T00:00:00Z</time>
      </trkpt>
      <trkpt lat="43.85001" lon="7.12196">
        <ele>-1</ele>
        <time>1970-01-01T00:00:00Z</time>
      </trkpt>
      <trkpt lat="43.85004" lon="7.12221">
        <ele>-1</ele>
        <time>1970-01-01T00:00:00Z</time>
      </trkpt>
      <trkpt lat="43.85012" lon="7.12246">
        <ele>-1</ele>
        <time>1970-01-01T00:00:00Z</time>
      </trkpt>
      <trkpt lat="43.8502" lon="7.12272">
        <ele>-1</ele>
        <time>1970-01-01T00:00:00Z</time>
      </trkpt>
      <trkpt lat="43.85023" lon="7.12297">
        <ele>-1</ele>
        <time>1970-01-01T00:00:00Z</time>
      </trkpt>
      <trkpt lat="43.85022" lon="7.12322">
        <ele>-1</ele>
        <time>1970-01-01T00:00:00Z</time>
      </trkpt>
      <trkpt lat="43.8503" lon="7.12347">
        <ele>-1</ele>
        <time>1970-01-01T00:00:00Z</time>
      </trkpt>
      <trkpt lat="43.85029" lon="7.12378">
        <ele>-1</ele>
        <time>1970-01-01T00:00:00Z</time>
      </trkpt>
      <trkpt lat="43.85032" lon="7.12404">
        <ele>-1</ele>
        <time>1970-01-01T00:00:00Z</time>
      </trkpt>
      <trkpt lat="43.85027" lon="7.12422">
        <ele>-1</ele>
        <time>1970-01-01T00:00:00Z</time>
      </trkpt>
      <trkpt lat="43.84972" lon="7.12535">
        <ele>-1</ele>
        <time>1970-01-01T00:00:00Z</time>
      </trkpt>
      <trkpt lat="43.84967" lon="7.1256">
        <ele>-1</ele>
        <time>1970-01-01T00:00:00Z</time>
      </trkpt>
      <trkpt lat="43.84948" lon="7.12571">
        <ele>-1</ele>
        <time>1970-01-01T00:00:00Z</time>
      </trkpt>
      <trkpt lat="43.8493" lon="7.12582">
        <ele>-1</ele>
        <time>1970-01-01T00:00:00Z</time>
      </trkpt>
      <trkpt lat="43.84912" lon="7.12568">
        <ele>-1</ele>
        <time>1970-01-01T00:00:00Z</time>
      </trkpt>
      <trkpt lat="43.84894" lon="7.12579">
        <ele>-1</ele>
        <time>1970-01-01T00:00:00Z</time>
      </trkpt>
      <trkpt lat="43.84879" lon="7.12602">
        <ele>-1</ele>
        <time>1970-01-01T00:00:00Z</time>
      </trkpt>
      <trkpt lat="43.84865" lon="7.1262">
        <ele>-1</ele>
        <time>1970-01-01T00:00:00Z</time>
      </trkpt>
      <trkpt lat="43.8486" lon="7.12638">
        <ele>-1</ele>
        <time>1970-01-01T00:00:00Z</time>
      </trkpt>
      <trkpt lat="43.84863" lon="7.12657">
        <ele>-1</ele>
        <time>1970-01-01T00:00:00Z</time>
      </trkpt>
      <trkpt lat="43.84862" lon="7.12682">
        <ele>-1</ele>
        <time>1970-01-01T00:00:00Z</time>
      </trkpt>
      <trkpt lat="43.84866" lon="7.12701">
        <ele>-1</ele>
        <time>1970-01-01T00:00:00Z</time>
      </trkpt>
      <trkpt lat="43.84856" lon="7.12718">
        <ele>-1</ele>
        <time>1970-01-01T00:00:00Z</time>
      </trkpt>
      <trkpt lat="43.84838" lon="7.12717">
        <ele>-1</ele>
        <time>1970-01-01T00:00:00Z</time>
      </trkpt>
      <trkpt lat="43.84815" lon="7.12721">
        <ele>-1</ele>
        <time>1970-01-01T00:00:00Z</time>
      </trkpt>
      <trkpt lat="43.84802" lon="7.12726">
        <ele>-1</ele>
        <time>1970-01-01T00:00:00Z</time>
      </trkpt>
      <trkpt lat="43.84788" lon="7.12731">
        <ele>-1</ele>
        <time>1970-01-01T00:00:00Z</time>
      </trkpt>
      <trkpt lat="43.84774" lon="7.12743">
        <ele>-1</ele>
        <time>1970-01-01T00:00:00Z</time>
      </trkpt>
      <trkpt lat="43.84755" lon="7.12754">
        <ele>-1</ele>
        <time>1970-01-01T00:00:00Z</time>
      </trkpt>
      <trkpt lat="43.84738" lon="7.12752">
        <ele>-1</ele>
        <time>1970-01-01T00:00:00Z</time>
      </trkpt>
      <trkpt lat="43.8472" lon="7.12744">
        <ele>-1</ele>
        <time>1970-01-01T00:00:00Z</time>
      </trkpt>
      <trkpt lat="43.84707" lon="7.12725">
        <ele>-1</ele>
        <time>1970-01-01T00:00:00Z</time>
      </trkpt>
      <trkpt lat="43.84694" lon="7.12711">
        <ele>-1</ele>
        <time>1970-01-01T00:00:00Z</time>
      </trkpt>
      <trkpt lat="43.84681" lon="7.12704">
        <ele>-1</ele>
        <time>1970-01-01T00:00:00Z</time>
      </trkpt>
      <trkpt lat="43.84664" lon="7.12684">
        <ele>-1</ele>
        <time>1970-01-01T00:00:00Z</time>
      </trkpt>
      <trkpt lat="43.84651" lon="7.12664">
        <ele>-1</ele>
        <time>1970-01-01T00:00:00Z</time>
      </trkpt>
      <trkpt lat="43.84638" lon="7.12657">
        <ele>-1</ele>
        <time>1970-01-01T00:00:00Z</time>
      </trkpt>
      <trkpt lat="43.8462" lon="7.12649">
        <ele>-1</ele>
        <time>1970-01-01T00:00:00Z</time>
      </trkpt>
      <trkpt lat="43.84606" lon="7.1266">
        <ele>-1</ele>
        <time>1970-01-01T00:00:00Z</time>
      </trkpt>
      <trkpt lat="43.84597" lon="7.12678">
        <ele>-1</ele>
        <time>1970-01-01T00:00:00Z</time>
      </trkpt>
      <trkpt lat="43.84591" lon="7.12696">
        <ele>-1</ele>
        <time>1970-01-01T00:00:00Z</time>
      </trkpt>
      <trkpt lat="43.8459" lon="7.12721">
        <ele>-1</ele>
        <time>1970-01-01T00:00:00Z</time>
      </trkpt>
      <trkpt lat="43.84589" lon="7.12746">
        <ele>-1</ele>
        <time>1970-01-01T00:00:00Z</time>
      </trkpt>
      <trkpt lat="43.84588" lon="7.12771">
        <ele>-1</ele>
        <time>1970-01-01T00:00:00Z</time>
      </trkpt>
      <trkpt lat="43.84574" lon="7.12782">
        <ele>-1</ele>
        <time>1970-01-01T00:00:00Z</time>
      </trkpt>
      <trkpt lat="43.84564" lon="7.128">
        <ele>-1</ele>
        <time>1970-01-01T00:00:00Z</time>
      </trkpt>
      <trkpt lat="43.84546" lon="7.12804">
        <ele>-1</ele>
        <time>1970-01-01T00:00:00Z</time>
      </trkpt>
      <trkpt lat="43.84532" lon="7.12809">
        <ele>-1</ele>
        <time>1970-01-01T00:00:00Z</time>
      </trkpt>
      <trkpt lat="43.84518" lon="7.12827">
        <ele>-1</ele>
        <time>1970-01-01T00:00:00Z</time>
      </trkpt>
      <trkpt lat="43.84513" lon="7.12845">
        <ele>-1</ele>
        <time>1970-01-01T00:00:00Z</time>
      </trkpt>
      <trkpt lat="43.84494" lon="7.12862">
        <ele>-1</ele>
        <time>1970-01-01T00:00:00Z</time>
      </trkpt>
      <trkpt lat="43.8448" lon="7.1288">
        <ele>-1</ele>
        <time>1970-01-01T00:00:00Z</time>
      </trkpt>
      <trkpt lat="43.8447" lon="7.12897">
        <ele>-1</ele>
        <time>1970-01-01T00:00:00Z</time>
      </trkpt>
      <trkpt lat="43.84456" lon="7.12902">
        <ele>-1</ele>
        <time>1970-01-01T00:00:00Z</time>
      </trkpt>
      <trkpt lat="43.84442" lon="7.1292">
        <ele>-1</ele>
        <time>1970-01-01T00:00:00Z</time>
      </trkpt>
      <trkpt lat="43.84441" lon="7.12945">
        <ele>-1</ele>
        <time>1970-01-01T00:00:00Z</time>
      </trkpt>
      <trkpt lat="43.84444" lon="7.1297">
        <ele>-1</ele>
        <time>1970-01-01T00:00:00Z</time>
      </trkpt>
      <trkpt lat="43.84443" lon="7.12995">
        <ele>-1</ele>
        <time>1970-01-01T00:00:00Z</time>
      </trkpt>
      <trkpt lat="43.84429" lon="7.13">
        <ele>-1</ele>
        <time>1970-01-01T00:00:00Z</time>
      </trkpt>
      <trkpt lat="43.84415" lon="7.13011">
        <ele>-1</ele>
        <time>1970-01-01T00:00:00Z</time>
      </trkpt>
      <trkpt lat="43.84419" lon="7.1303">
        <ele>-1</ele>
        <time>1970-01-01T00:00:00Z</time>
      </trkpt>
      <trkpt lat="43.84418" lon="7.13061">
        <ele>-1</ele>
        <time>1970-01-01T00:00:00Z</time>
      </trkpt>
      <trkpt lat="43.84412" lon="7.13085">
        <ele>-1</ele>
        <time>1970-01-01T00:00:00Z</time>
      </trkpt>
      <trkpt lat="43.84402" lon="7.13103">
        <ele>-1</ele>
        <time>1970-01-01T00:00:00Z</time>
      </trkpt>
      <trkpt lat="43.84392" lon="7.13121">
        <ele>-1</ele>
        <time>1970-01-01T00:00:00Z</time>
      </trkpt>
      <trkpt lat="43.84387" lon="7.13139">
        <ele>-1</ele>
        <time>1970-01-01T00:00:00Z</time>
      </trkpt>
      <trkpt lat="43.84373" lon="7.13157">
        <ele>-1</ele>
        <time>1970-01-01T00:00:00Z</time>
      </trkpt>
      <trkpt lat="43.84367" lon="7.13181">
        <ele>-1</ele>
        <time>1970-01-01T00:00:00Z</time>
      </trkpt>
      <trkpt lat="43.84362" lon="7.13199">
        <ele>-1</ele>
        <time>1970-01-01T00:00:00Z</time>
      </trkpt>
      <trkpt lat="43.84352" lon="7.13223">
        <ele>-1</ele>
        <time>1970-01-01T00:00:00Z</time>
      </trkpt>
      <trkpt lat="43.84347" lon="7.13242">
        <ele>-1</ele>
        <time>1970-01-01T00:00:00Z</time>
      </trkpt>
      <trkpt lat="43.8435" lon="7.13261">
        <ele>-1</ele>
        <time>1970-01-01T00:00:00Z</time>
      </trkpt>
      <trkpt lat="43.84261" lon="7.13334">
        <ele>-1</ele>
        <time>1970-01-01T00:00:00Z</time>
      </trkpt>
      <trkpt lat="43.84247" lon="7.13345">
        <ele>-1</ele>
        <time>1970-01-01T00:00:00Z</time>
      </trkpt>
      <trkpt lat="43.84229" lon="7.13362">
        <ele>-1</ele>
        <time>1970-01-01T00:00:00Z</time>
      </trkpt>
      <trkpt lat="43.84219" lon="7.1338">
        <ele>-1</ele>
        <time>1970-01-01T00:00:00Z</time>
      </trkpt>
      <trkpt lat="43.84205" lon="7.13391">
        <ele>-1</ele>
        <time>1970-01-01T00:00:00Z</time>
      </trkpt>
      <trkpt lat="43.84186" lon="7.13408">
        <ele>-1</ele>
        <time>1970-01-01T00:00:00Z</time>
      </trkpt>
      <trkpt lat="43.84172" lon="7.1342">
        <ele>-1</ele>
        <time>1970-01-01T00:00:00Z</time>
      </trkpt>
      <trkpt lat="43.84158" lon="7.13431">
        <ele>-1</ele>
        <time>1970-01-01T00:00:00Z</time>
      </trkpt>
      <trkpt lat="43.84148" lon="7.13449">
        <ele>-1</ele>
        <time>1970-01-01T00:00:00Z</time>
      </trkpt>
      <trkpt lat="43.84134" lon="7.1346">
        <ele>-1</ele>
        <time>1970-01-01T00:00:00Z</time>
      </trkpt>
      <trkpt lat="43.8412" lon="7.13471">
        <ele>-1</ele>
        <time>1970-01-01T00:00:00Z</time>
      </trkpt>
      <trkpt lat="43.84102" lon="7.13476">
        <ele>-1</ele>
        <time>1970-01-01T00:00:00Z</time>
      </trkpt>
      <trkpt lat="43.84084" lon="7.13474">
        <ele>-1</ele>
        <time>1970-01-01T00:00:00Z</time>
      </trkpt>
      <trkpt lat="43.8407" lon="7.13486">
        <ele>-1</ele>
        <time>1970-01-01T00:00:00Z</time>
      </trkpt>
      <trkpt lat="43.84056" lon="7.13491">
        <ele>-1</ele>
        <time>1970-01-01T00:00:00Z</time>
      </trkpt>
      <trkpt lat="43.84042" lon="7.13502">
        <ele>-1</ele>
        <time>1970-01-01T00:00:00Z</time>
      </trkpt>
      <trkpt lat="43.84024" lon="7.13519">
        <ele>-1</ele>
        <time>1970-01-01T00:00:00Z</time>
      </trkpt>
      <trkpt lat="43.8401" lon="7.13524">
        <ele>-1</ele>
        <time>1970-01-01T00:00:00Z</time>
      </trkpt>
      <trkpt lat="43.83987" lon="7.13522">
        <ele>-1</ele>
        <time>1970-01-01T00:00:00Z</time>
      </trkpt>
      <trkpt lat="43.8397" lon="7.13521">
        <ele>-1</ele>
        <time>1970-01-01T00:00:00Z</time>
      </trkpt>
      <trkpt lat="43.83955" lon="7.13544">
        <ele>-1</ele>
        <time>1970-01-01T00:00:00Z</time>
      </trkpt>
      <trkpt lat="43.83945" lon="7.13568">
        <ele>-1</ele>
        <time>1970-01-01T00:00:00Z</time>
      </trkpt>
      <trkpt lat="43.83931" lon="7.13586">
        <ele>-1</ele>
        <time>1970-01-01T00:00:00Z</time>
      </trkpt>
      <trkpt lat="43.83916" lon="7.1361">
        <ele>-1</ele>
        <time>1970-01-01T00:00:00Z</time>
      </trkpt>
      <trkpt lat="43.83906" lon="7.13634">
        <ele>-1</ele>
        <time>1970-01-01T00:00:00Z</time>
      </trkpt>
      <trkpt lat="43.83905" lon="7.13658">
        <ele>-1</ele>
        <time>1970-01-01T00:00:00Z</time>
      </trkpt>
      <trkpt lat="43.83904" lon="7.13683">
        <ele>-1</ele>
        <time>1970-01-01T00:00:00Z</time>
      </trkpt>
      <trkpt lat="43.83898" lon="7.13708">
        <ele>-1</ele>
        <time>1970-01-01T00:00:00Z</time>
      </trkpt>
      <trkpt lat="43.83893" lon="7.13732">
        <ele>-1</ele>
        <time>1970-01-01T00:00:00Z</time>
      </trkpt>
      <trkpt lat="43.83892" lon="7.13757">
        <ele>-1</ele>
        <time>1970-01-01T00:00:00Z</time>
      </trkpt>
      <trkpt lat="43.8389" lon="7.13788">
        <ele>-1</ele>
        <time>1970-01-01T00:00:00Z</time>
      </trkpt>
      <trkpt lat="43.83894" lon="7.13813">
        <ele>-1</ele>
        <time>1970-01-01T00:00:00Z</time>
      </trkpt>
      <trkpt lat="43.83897" lon="7.13838">
        <ele>-1</ele>
        <time>1970-01-01T00:00:00Z</time>
      </trkpt>
      <trkpt lat="43.83901" lon="7.13857">
        <ele>-1</ele>
        <time>1970-01-01T00:00:00Z</time>
      </trkpt>
      <trkpt lat="43.83895" lon="7.13875">
        <ele>-1</ele>
        <time>1970-01-01T00:00:00Z</time>
      </trkpt>
      <trkpt lat="43.8389" lon="7.13893">
        <ele>-1</ele>
        <time>1970-01-01T00:00:00Z</time>
      </trkpt>
      <trkpt lat="43.83893" lon="7.13919">
        <ele>-1</ele>
        <time>1970-01-01T00:00:00Z</time>
      </trkpt>
      <trkpt lat="43.83888" lon="7.13943">
        <ele>-1</ele>
        <time>1970-01-01T00:00:00Z</time>
      </trkpt>
      <trkpt lat="43.83874" lon="7.13948">
        <ele>-1</ele>
        <time>1970-01-01T00:00:00Z</time>
      </trkpt>
      <trkpt lat="43.83852" lon="7.13946">
        <ele>-1</ele>
        <time>1970-01-01T00:00:00Z</time>
      </trkpt>
      <trkpt lat="43.83838" lon="7.13951">
        <ele>-1</ele>
        <time>1970-01-01T00:00:00Z</time>
      </trkpt>
      <trkpt lat="43.83824" lon="7.13969">
        <ele>-1</ele>
        <time>1970-01-01T00:00:00Z</time>
      </trkpt>
      <trkpt lat="43.8381" lon="7.1398">
        <ele>-1</ele>
        <time>1970-01-01T00:00:00Z</time>
      </trkpt>
      <trkpt lat="43.83792" lon="7.13978">
        <ele>-1</ele>
        <time>1970-01-01T00:00:00Z</time>
      </trkpt>
      <trkpt lat="43.83778" lon="7.1399">
        <ele>-1</ele>
        <time>1970-01-01T00:00:00Z</time>
      </trkpt>
      <trkpt lat="43.83772" lon="7.14008">
        <ele>-1</ele>
        <time>1970-01-01T00:00:00Z</time>
      </trkpt>
      <trkpt lat="43.83771" lon="7.14033">
        <ele>-1</ele>
        <time>1970-01-01T00:00:00Z</time>
      </trkpt>
      <trkpt lat="43.83761" lon="7.14051">
        <ele>-1</ele>
        <time>1970-01-01T00:00:00Z</time>
      </trkpt>
      <trkpt lat="43.83752" lon="7.14068">
        <ele>-1</ele>
        <time>1970-01-01T00:00:00Z</time>
      </trkpt>
      <trkpt lat="43.83746" lon="7.14087">
        <ele>-1</ele>
        <time>1970-01-01T00:00:00Z</time>
      </trkpt>
      <trkpt lat="43.83732" lon="7.14098">
        <ele>-1</ele>
        <time>1970-01-01T00:00:00Z</time>
      </trkpt>
      <trkpt lat="43.83718" lon="7.14109">
        <ele>-1</ele>
        <time>1970-01-01T00:00:00Z</time>
      </trkpt>
      <trkpt lat="43.837" lon="7.1412">
        <ele>-1</ele>
        <time>1970-01-01T00:00:00Z</time>
      </trkpt>
      <trkpt lat="43.83686" lon="7.14131">
        <ele>-1</ele>
        <time>1970-01-01T00:00:00Z</time>
      </trkpt>
      <trkpt lat="43.83676" lon="7.14149">
        <ele>-1</ele>
        <time>1970-01-01T00:00:00Z</time>
      </trkpt>
      <trkpt lat="43.83671" lon="7.14167">
        <ele>-1</ele>
        <time>1970-01-01T00:00:00Z</time>
      </trkpt>
      <trkpt lat="43.83674" lon="7.14186">
        <ele>-1</ele>
        <time>1970-01-01T00:00:00Z</time>
      </trkpt>
      <trkpt lat="43.83687" lon="7.14206">
        <ele>-1</ele>
        <time>1970-01-01T00:00:00Z</time>
      </trkpt>
      <trkpt lat="43.83691" lon="7.14225">
        <ele>-1</ele>
        <time>1970-01-01T00:00:00Z</time>
      </trkpt>
      <trkpt lat="43.83685" lon="7.14243">
        <ele>-1</ele>
        <time>1970-01-01T00:00:00Z</time>
      </trkpt>
      <trkpt lat="43.83671" lon="7.14254">
        <ele>-1</ele>
        <time>1970-01-01T00:00:00Z</time>
      </trkpt>
      <trkpt lat="43.83653" lon="7.14265">
        <ele>-1</ele>
        <time>1970-01-01T00:00:00Z</time>
      </trkpt>
      <trkpt lat="43.83634" lon="7.14282">
        <ele>-1</ele>
        <time>1970-01-01T00:00:00Z</time>
      </trkpt>
      <trkpt lat="43.8362" lon="7.143">
        <ele>-1</ele>
        <time>1970-01-01T00:00:00Z</time>
      </trkpt>
      <trkpt lat="43.8361" lon="7.14318">
        <ele>-1</ele>
        <time>1970-01-01T00:00:00Z</time>
      </trkpt>
      <trkpt lat="43.83596" lon="7.14329">
        <ele>-1</ele>
        <time>1970-01-01T00:00:00Z</time>
      </trkpt>
      <trkpt lat="43.83582" lon="7.14346">
        <ele>-1</ele>
        <time>1970-01-01T00:00:00Z</time>
      </trkpt>
      <trkpt lat="43.83576" lon="7.14365">
        <ele>-1</ele>
        <time>1970-01-01T00:00:00Z</time>
      </trkpt>
      <trkpt lat="43.8358" lon="7.14384">
        <ele>-1</ele>
        <time>1970-01-01T00:00:00Z</time>
      </trkpt>
      <trkpt lat="43.83593" lon="7.14403">
        <ele>-1</ele>
        <time>1970-01-01T00:00:00Z</time>
      </trkpt>
      <trkpt lat="43.83601" lon="7.14423">
        <ele>-1</ele>
        <time>1970-01-01T00:00:00Z</time>
      </trkpt>
      <trkpt lat="43.83604" lon="7.14448">
        <ele>-1</ele>
        <time>1970-01-01T00:00:00Z</time>
      </trkpt>
      <trkpt lat="43.83586" lon="7.14446">
        <ele>-1</ele>
        <time>1970-01-01T00:00:00Z</time>
      </trkpt>
      <trkpt lat="43.83568" lon="7.14445">
        <ele>-1</ele>
        <time>1970-01-01T00:00:00Z</time>
      </trkpt>
      <trkpt lat="43.83555" lon="7.14437">
        <ele>-1</ele>
        <time>1970-01-01T00:00:00Z</time>
      </trkpt>
      <trkpt lat="43.83541" lon="7.14442">
        <ele>-1</ele>
        <time>1970-01-01T00:00:00Z</time>
      </trkpt>
      <trkpt lat="43.83528" lon="7.14447">
        <ele>-1</ele>
        <time>1970-01-01T00:00:00Z</time>
      </trkpt>
      <trkpt lat="43.83518" lon="7.14465">
        <ele>-1</ele>
        <time>1970-01-01T00:00:00Z</time>
      </trkpt>
      <trkpt lat="43.83513" lon="7.14484">
        <ele>-1</ele>
        <time>1970-01-01T00:00:00Z</time>
      </trkpt>
      <trkpt lat="43.83511" lon="7.14508">
        <ele>-1</ele>
        <time>1970-01-01T00:00:00Z</time>
      </trkpt>
      <trkpt lat="43.8352" lon="7.14528">
        <ele>-1</ele>
        <time>1970-01-01T00:00:00Z</time>
      </trkpt>
      <trkpt lat="43.83451" lon="7.14559">
        <ele>-1</ele>
        <time>1970-01-01T00:00:00Z</time>
      </trkpt>
      <trkpt lat="43.83438" lon="7.14552">
        <ele>-1</ele>
        <time>1970-01-01T00:00:00Z</time>
      </trkpt>
      <trkpt lat="43.8342" lon="7.1455">
        <ele>-1</ele>
        <time>1970-01-01T00:00:00Z</time>
      </trkpt>
      <trkpt lat="43.83402" lon="7.14549">
        <ele>-1</ele>
        <time>1970-01-01T00:00:00Z</time>
      </trkpt>
      <trkpt lat="43.83384" lon="7.14547">
        <ele>-1</ele>
        <time>1970-01-01T00:00:00Z</time>
      </trkpt>
      <trkpt lat="43.83366" lon="7.14546">
        <ele>-1</ele>
        <time>1970-01-01T00:00:00Z</time>
      </trkpt>
      <trkpt lat="43.83348" lon="7.14544">
        <ele>-1</ele>
        <time>1970-01-01T00:00:00Z</time>
      </trkpt>
      <trkpt lat="43.8333" lon="7.14543">
        <ele>-1</ele>
        <time>1970-01-01T00:00:00Z</time>
      </trkpt>
      <trkpt lat="43.83312" lon="7.14541">
        <ele>-1</ele>
        <time>1970-01-01T00:00:00Z</time>
      </trkpt>
      <trkpt lat="43.83294" lon="7.14546">
        <ele>-1</ele>
        <time>1970-01-01T00:00:00Z</time>
      </trkpt>
      <trkpt lat="43.83279" lon="7.14563">
        <ele>-1</ele>
        <time>1970-01-01T00:00:00Z</time>
      </trkpt>
      <trkpt lat="43.83274" lon="7.14588">
        <ele>-1</ele>
        <time>1970-01-01T00:00:00Z</time>
      </trkpt>
      <trkpt lat="43.83269" lon="7.14606">
        <ele>-1</ele>
        <time>1970-01-01T00:00:00Z</time>
      </trkpt>
      <trkpt lat="43.83263" lon="7.1463">
        <ele>-1</ele>
        <time>1970-01-01T00:00:00Z</time>
      </trkpt>
      <trkpt lat="43.83257" lon="7.14655">
        <ele>-1</ele>
        <time>1970-01-01T00:00:00Z</time>
      </trkpt>
      <trkpt lat="43.83252" lon="7.14673">
        <ele>-1</ele>
        <time>1970-01-01T00:00:00Z</time>
      </trkpt>
      <trkpt lat="43.83251" lon="7.14698">
        <ele>-1</ele>
        <time>1970-01-01T00:00:00Z</time>
      </trkpt>
      <trkpt lat="43.83245" lon="7.14722">
        <ele>-1</ele>
        <time>1970-01-01T00:00:00Z</time>
      </trkpt>
      <trkpt lat="43.8324" lon="7.1474">
        <ele>-1</ele>
        <time>1970-01-01T00:00:00Z</time>
      </trkpt>
      <trkpt lat="43.83226" lon="7.14758">
        <ele>-1</ele>
        <time>1970-01-01T00:00:00Z</time>
      </trkpt>
      <trkpt lat="43.8322" lon="7.14776">
        <ele>-1</ele>
        <time>1970-01-01T00:00:00Z</time>
      </trkpt>
      <trkpt lat="43.83215" lon="7.148">
        <ele>-1</ele>
        <time>1970-01-01T00:00:00Z</time>
      </trkpt>
      <trkpt lat="43.83218" lon="7.14826">
        <ele>-1</ele>
        <time>1970-01-01T00:00:00Z</time>
      </trkpt>
      <trkpt lat="43.83217" lon="7.1485">
        <ele>-1</ele>
        <time>1970-01-01T00:00:00Z</time>
      </trkpt>
      <trkpt lat="43.83221" lon="7.14876">
        <ele>-1</ele>
        <time>1970-01-01T00:00:00Z</time>
      </trkpt>
      <trkpt lat="43.83228" lon="7.14901">
        <ele>-1</ele>
        <time>1970-01-01T00:00:00Z</time>
      </trkpt>
      <trkpt lat="43.83236" lon="7.14927">
        <ele>-1</ele>
        <time>1970-01-01T00:00:00Z</time>
      </trkpt>
      <trkpt lat="43.83226" lon="7.14951">
        <ele>-1</ele>
        <time>1970-01-01T00:00:00Z</time>
      </trkpt>
      <trkpt lat="43.83225" lon="7.14975">
        <ele>-1</ele>
        <time>1970-01-01T00:00:00Z</time>
      </trkpt>
      <trkpt lat="43.83233" lon="7.15001">
        <ele>-1</ele>
        <time>1970-01-01T00:00:00Z</time>
      </trkpt>
      <trkpt lat="43.83245" lon="7.15027">
        <ele>-1</ele>
        <time>1970-01-01T00:00:00Z</time>
      </trkpt>
      <trkpt lat="43.83249" lon="7.15052">
        <ele>-1</ele>
        <time>1970-01-01T00:00:00Z</time>
      </trkpt>
      <trkpt lat="43.83261" lon="7.15078">
        <ele>-1</ele>
        <time>1970-01-01T00:00:00Z</time>
      </trkpt>
      <trkpt lat="43.83278" lon="7.15092">
        <ele>-1</ele>
        <time>1970-01-01T00:00:00Z</time>
      </trkpt>
      <trkpt lat="43.83296" lon="7.15106">
        <ele>-1</ele>
        <time>1970-01-01T00:00:00Z</time>
      </trkpt>
      <trkpt lat="43.83308" lon="7.15126">
        <ele>-1</ele>
        <time>1970-01-01T00:00:00Z</time>
      </trkpt>
      <trkpt lat="43.83317" lon="7.15145">
        <ele>-1</ele>
        <time>1970-01-01T00:00:00Z</time>
      </trkpt>
      <trkpt lat="43.83298" lon="7.15156">
        <ele>-1</ele>
        <time>1970-01-01T00:00:00Z</time>
      </trkpt>
      <trkpt lat="43.83302" lon="7.15175">
        <ele>-1</ele>
        <time>1970-01-01T00:00:00Z</time>
      </trkpt>
      <trkpt lat="43.8331" lon="7.15194">
        <ele>-1</ele>
        <time>1970-01-01T00:00:00Z</time>
      </trkpt>
      <trkpt lat="43.83309" lon="7.15219">
        <ele>-1</ele>
        <time>1970-01-01T00:00:00Z</time>
      </trkpt>
      <trkpt lat="43.83307" lon="7.1525">
        <ele>-1</ele>
        <time>1970-01-01T00:00:00Z</time>
      </trkpt>
      <trkpt lat="43.83306" lon="7.15275">
        <ele>-1</ele>
        <time>1970-01-01T00:00:00Z</time>
      </trkpt>
      <trkpt lat="43.83301" lon="7.15299">
        <ele>-1</ele>
        <time>1970-01-01T00:00:00Z</time>
      </trkpt>
      <trkpt lat="43.83313" lon="7.15319">
        <ele>-1</ele>
        <time>1970-01-01T00:00:00Z</time>
      </trkpt>
      <trkpt lat="43.83327" lon="7.15326">
        <ele>-1</ele>
        <time>1970-01-01T00:00:00Z</time>
      </trkpt>
      <trkpt lat="43.83313" lon="7.15337">
        <ele>-1</ele>
        <time>1970-01-01T00:00:00Z</time>
      </trkpt>
      <trkpt lat="43.83307" lon="7.15362">
        <ele>-1</ele>
        <time>1970-01-01T00:00:00Z</time>
      </trkpt>
      <trkpt lat="43.83301" lon="7.15392">
        <ele>-1</ele>
        <time>1970-01-01T00:00:00Z</time>
      </trkpt>
      <trkpt lat="43.83287" lon="7.1541">
        <ele>-1</ele>
        <time>1970-01-01T00:00:00Z</time>
      </trkpt>
      <trkpt lat="43.83277" lon="7.15434">
        <ele>-1</ele>
        <time>1970-01-01T00:00:00Z</time>
      </trkpt>
      <trkpt lat="43.83271" lon="7.15458">
        <ele>-1</ele>
        <time>1970-01-01T00:00:00Z</time>
      </trkpt>
      <trkpt lat="43.83266" lon="7.15476">
        <ele>-1</ele>
        <time>1970-01-01T00:00:00Z</time>
      </trkpt>
      <trkpt lat="43.8326" lon="7.15501">
        <ele>-1</ele>
        <time>1970-01-01T00:00:00Z</time>
      </trkpt>
      <trkpt lat="43.8325" lon="7.15525">
        <ele>-1</ele>
        <time>1970-01-01T00:00:00Z</time>
      </trkpt>
      <trkpt lat="43.8324" lon="7.15549">
        <ele>-1</ele>
        <time>1970-01-01T00:00:00Z</time>
      </trkpt>
      <trkpt lat="43.83244" lon="7.15574">
        <ele>-1</ele>
        <time>1970-01-01T00:00:00Z</time>
      </trkpt>
      <trkpt lat="43.83238" lon="7.15598">
        <ele>-1</ele>
        <time>1970-01-01T00:00:00Z</time>
      </trkpt>
      <trkpt lat="43.83228" lon="7.15616">
        <ele>-1</ele>
        <time>1970-01-01T00:00:00Z</time>
      </trkpt>
      <trkpt lat="43.83214" lon="7.15621">
        <ele>-1</ele>
        <time>1970-01-01T00:00:00Z</time>
      </trkpt>
      <trkpt lat="43.83204" lon="7.15645">
        <ele>-1</ele>
        <time>1970-01-01T00:00:00Z</time>
      </trkpt>
      <trkpt lat="43.83195" lon="7.15663">
        <ele>-1</ele>
        <time>1970-01-01T00:00:00Z</time>
      </trkpt>
      <trkpt lat="43.83184" lon="7.15687">
        <ele>-1</ele>
        <time>1970-01-01T00:00:00Z</time>
      </trkpt>
      <trkpt lat="43.83174" lon="7.15711">
        <ele>-1</ele>
        <time>1970-01-01T00:00:00Z</time>
      </trkpt>
      <trkpt lat="43.83178" lon="7.15736">
        <ele>-1</ele>
        <time>1970-01-01T00:00:00Z</time>
      </trkpt>
      <trkpt lat="43.83181" lon="7.15762">
        <ele>-1</ele>
        <time>1970-01-01T00:00:00Z</time>
      </trkpt>
      <trkpt lat="43.8318" lon="7.15786">
        <ele>-1</ele>
        <time>1970-01-01T00:00:00Z</time>
      </trkpt>
      <trkpt lat="43.8316" lon="7.16033">
        <ele>-1</ele>
        <time>1970-01-01T00:00:00Z</time>
      </trkpt>
      <trkpt lat="43.83146" lon="7.16045">
        <ele>-1</ele>
        <time>1970-01-01T00:00:00Z</time>
      </trkpt>
      <trkpt lat="43.83141" lon="7.16063">
        <ele>-1</ele>
        <time>1970-01-01T00:00:00Z</time>
      </trkpt>
      <trkpt lat="43.83131" lon="7.16081">
        <ele>-1</ele>
        <time>1970-01-01T00:00:00Z</time>
      </trkpt>
      <trkpt lat="43.83117" lon="7.16092">
        <ele>-1</ele>
        <time>1970-01-01T00:00:00Z</time>
      </trkpt>
      <trkpt lat="43.83111" lon="7.16116">
        <ele>-1</ele>
        <time>1970-01-01T00:00:00Z</time>
      </trkpt>
      <trkpt lat="43.83101" lon="7.1614">
        <ele>-1</ele>
        <time>1970-01-01T00:00:00Z</time>
      </trkpt>
      <trkpt lat="43.83091" lon="7.16158">
        <ele>-1</ele>
        <time>1970-01-01T00:00:00Z</time>
      </trkpt>
      <trkpt lat="43.83082" lon="7.16176">
        <ele>-1</ele>
        <time>1970-01-01T00:00:00Z</time>
      </trkpt>
      <trkpt lat="43.83072" lon="7.16194">
        <ele>-1</ele>
        <time>1970-01-01T00:00:00Z</time>
      </trkpt>
      <trkpt lat="43.83053" lon="7.16217">
        <ele>-1</ele>
        <time>1970-01-01T00:00:00Z</time>
      </trkpt>
      <trkpt lat="43.83039" lon="7.16228">
        <ele>-1</ele>
        <time>1970-01-01T00:00:00Z</time>
      </trkpt>
      <trkpt lat="43.83033" lon="7.16247">
        <ele>-1</ele>
        <time>1970-01-01T00:00:00Z</time>
      </trkpt>
      <trkpt lat="43.83019" lon="7.16264">
        <ele>-1</ele>
        <time>1970-01-01T00:00:00Z</time>
      </trkpt>
      <trkpt lat="43.83009" lon="7.16282">
        <ele>-1</ele>
        <time>1970-01-01T00:00:00Z</time>
      </trkpt>
      <trkpt lat="43.83" lon="7.163">
        <ele>-1</ele>
        <time>1970-01-01T00:00:00Z</time>
      </trkpt>
      <trkpt lat="43.82994" lon="7.16324">
        <ele>-1</ele>
        <time>1970-01-01T00:00:00Z</time>
      </trkpt>
      <trkpt lat="43.82979" lon="7.16348">
        <ele>-1</ele>
        <time>1970-01-01T00:00:00Z</time>
      </trkpt>
      <trkpt lat="43.82974" lon="7.16366">
        <ele>-1</ele>
        <time>1970-01-01T00:00:00Z</time>
      </trkpt>
      <trkpt lat="43.8296" lon="7.16377">
        <ele>-1</ele>
        <time>1970-01-01T00:00:00Z</time>
      </trkpt>
      <trkpt lat="43.82955" lon="7.16395">
        <ele>-1</ele>
        <time>1970-01-01T00:00:00Z</time>
      </trkpt>
      <trkpt lat="43.82945" lon="7.16413">
        <ele>-1</ele>
        <time>1970-01-01T00:00:00Z</time>
      </trkpt>
      <trkpt lat="43.8294" lon="7.16431">
        <ele>-1</ele>
        <time>1970-01-01T00:00:00Z</time>
      </trkpt>
      <trkpt lat="43.82925" lon="7.16455">
        <ele>-1</ele>
        <time>1970-01-01T00:00:00Z</time>
      </trkpt>
      <trkpt lat="43.82911" lon="7.16479">
        <ele>-1</ele>
        <time>1970-01-01T00:00:00Z</time>
      </trkpt>
      <trkpt lat="43.82905" lon="7.16497">
        <ele>-1</ele>
        <time>1970-01-01T00:00:00Z</time>
      </trkpt>
      <trkpt lat="43.82895" lon="7.16521">
        <ele>-1</ele>
        <time>1970-01-01T00:00:00Z</time>
      </trkpt>
      <trkpt lat="43.8289" lon="7.16545">
        <ele>-1</ele>
        <time>1970-01-01T00:00:00Z</time>
      </trkpt>
      <trkpt lat="43.8288" lon="7.16569">
        <ele>-1</ele>
        <time>1970-01-01T00:00:00Z</time>
      </trkpt>
      <trkpt lat="43.82865" lon="7.16587">
        <ele>-1</ele>
        <time>1970-01-01T00:00:00Z</time>
      </trkpt>
      <trkpt lat="43.82855" lon="7.16605">
        <ele>-1</ele>
        <time>1970-01-01T00:00:00Z</time>
      </trkpt>
      <trkpt lat="43.8285" lon="7.16623">
        <ele>-1</ele>
        <time>1970-01-01T00:00:00Z</time>
      </trkpt>
      <trkpt lat="43.82849" lon="7.16648">
        <ele>-1</ele>
        <time>1970-01-01T00:00:00Z</time>
      </trkpt>
      <trkpt lat="43.82848" lon="7.16672">
        <ele>-1</ele>
        <time>1970-01-01T00:00:00Z</time>
      </trkpt>
      <trkpt lat="43.82847" lon="7.16697">
        <ele>-1</ele>
        <time>1970-01-01T00:00:00Z</time>
      </trkpt>
      <trkpt lat="43.82846" lon="7.16722">
        <ele>-1</ele>
        <time>1970-01-01T00:00:00Z</time>
      </trkpt>
      <trkpt lat="43.8284" lon="7.16746">
        <ele>-1</ele>
        <time>1970-01-01T00:00:00Z</time>
      </trkpt>
      <trkpt lat="43.82839" lon="7.16771">
        <ele>-1</ele>
        <time>1970-01-01T00:00:00Z</time>
      </trkpt>
      <trkpt lat="43.82838" lon="7.16796">
        <ele>-1</ele>
        <time>1970-01-01T00:00:00Z</time>
      </trkpt>
      <trkpt lat="43.82837" lon="7.16821">
        <ele>-1</ele>
        <time>1970-01-01T00:00:00Z</time>
      </trkpt>
      <trkpt lat="43.82836" lon="7.16845">
        <ele>-1</ele>
        <time>1970-01-01T00:00:00Z</time>
      </trkpt>
      <trkpt lat="43.82839" lon="7.16871">
        <ele>-1</ele>
        <time>1970-01-01T00:00:00Z</time>
      </trkpt>
      <trkpt lat="43.82852" lon="7.16884">
        <ele>-1</ele>
        <time>1970-01-01T00:00:00Z</time>
      </trkpt>
      <trkpt lat="43.82856" lon="7.16903">
        <ele>-1</ele>
        <time>1970-01-01T00:00:00Z</time>
      </trkpt>
      <trkpt lat="43.82859" lon="7.16922">
        <ele>-1</ele>
        <time>1970-01-01T00:00:00Z</time>
      </trkpt>
      <trkpt lat="43.82867" lon="7.16948">
        <ele>-1</ele>
        <time>1970-01-01T00:00:00Z</time>
      </trkpt>
      <trkpt lat="43.82871" lon="7.16973">
        <ele>-1</ele>
        <time>1970-01-01T00:00:00Z</time>
      </trkpt>
      <trkpt lat="43.82874" lon="7.16998">
        <ele>-1</ele>
        <time>1970-01-01T00:00:00Z</time>
      </trkpt>
      <trkpt lat="43.82878" lon="7.17017">
        <ele>-1</ele>
        <time>1970-01-01T00:00:00Z</time>
      </trkpt>
      <trkpt lat="43.82881" lon="7.17036">
        <ele>-1</ele>
        <time>1970-01-01T00:00:00Z</time>
      </trkpt>
      <trkpt lat="43.8288" lon="7.17061">
        <ele>-1</ele>
        <time>1970-01-01T00:00:00Z</time>
      </trkpt>
      <trkpt lat="43.82879" lon="7.17085">
        <ele>-1</ele>
        <time>1970-01-01T00:00:00Z</time>
      </trkpt>
      <trkpt lat="43.82878" lon="7.1711">
        <ele>-1</ele>
        <time>1970-01-01T00:00:00Z</time>
      </trkpt>
      <trkpt lat="43.82873" lon="7.17128">
        <ele>-1</ele>
        <time>1970-01-01T00:00:00Z</time>
      </trkpt>
      <trkpt lat="43.82872" lon="7.17153">
        <ele>-1</ele>
        <time>1970-01-01T00:00:00Z</time>
      </trkpt>
      <trkpt lat="43.82875" lon="7.17178">
        <ele>-1</ele>
        <time>1970-01-01T00:00:00Z</time>
      </trkpt>
      <trkpt lat="43.82879" lon="7.17197">
        <ele>-1</ele>
        <time>1970-01-01T00:00:00Z</time>
      </trkpt>
      <trkpt lat="43.82896" lon="7.17205">
        <ele>-1</ele>
        <time>1970-01-01T00:00:00Z</time>
      </trkpt>
      <trkpt lat="43.82909" lon="7.17225">
        <ele>-1</ele>
        <time>1970-01-01T00:00:00Z</time>
      </trkpt>
      <trkpt lat="43.82913" lon="7.17244">
        <ele>-1</ele>
        <time>1970-01-01T00:00:00Z</time>
      </trkpt>
      <trkpt lat="43.82898" lon="7.17261">
        <ele>-1</ele>
        <time>1970-01-01T00:00:00Z</time>
      </trkpt>
      <trkpt lat="43.82884" lon="7.17266">
        <ele>-1</ele>
        <time>1970-01-01T00:00:00Z</time>
      </trkpt>
      <trkpt lat="43.82875" lon="7.17284">
        <ele>-1</ele>
        <time>1970-01-01T00:00:00Z</time>
      </trkpt>
      <trkpt lat="43.82878" lon="7.17309">
        <ele>-1</ele>
        <time>1970-01-01T00:00:00Z</time>
      </trkpt>
      <trkpt lat="43.82891" lon="7.17323">
        <ele>-1</ele>
        <time>1970-01-01T00:00:00Z</time>
      </trkpt>
      <trkpt lat="43.82909" lon="7.17324">
        <ele>-1</ele>
        <time>1970-01-01T00:00:00Z</time>
      </trkpt>
      <trkpt lat="43.82927" lon="7.17326">
        <ele>-1</ele>
        <time>1970-01-01T00:00:00Z</time>
      </trkpt>
      <trkpt lat="43.82944" lon="7.1734">
        <ele>-1</ele>
        <time>1970-01-01T00:00:00Z</time>
      </trkpt>
      <trkpt lat="43.82943" lon="7.17364">
        <ele>-1</ele>
        <time>1970-01-01T00:00:00Z</time>
      </trkpt>
      <trkpt lat="43.82966" lon="7.1736">
        <ele>-1</ele>
        <time>1970-01-01T00:00:00Z</time>
      </trkpt>
      <trkpt lat="43.83076" lon="7.17314">
        <ele>-1</ele>
        <time>1970-01-01T00:00:00Z</time>
      </trkpt>
      <trkpt lat="43.8309" lon="7.17302">
        <ele>-1</ele>
        <time>1970-01-01T00:00:00Z</time>
      </trkpt>
      <trkpt lat="43.83104" lon="7.17297">
        <ele>-1</ele>
        <time>1970-01-01T00:00:00Z</time>
      </trkpt>
      <trkpt lat="43.83122" lon="7.17286">
        <ele>-1</ele>
        <time>1970-01-01T00:00:00Z</time>
      </trkpt>
      <trkpt lat="43.83132" lon="7.17269">
        <ele>-1</ele>
        <time>1970-01-01T00:00:00Z</time>
      </trkpt>
      <trkpt lat="43.8315" lon="7.1727">
        <ele>-1</ele>
        <time>1970-01-01T00:00:00Z</time>
      </trkpt>
      <trkpt lat="43.83168" lon="7.17272">
        <ele>-1</ele>
        <time>1970-01-01T00:00:00Z</time>
      </trkpt>
      <trkpt lat="43.83186" lon="7.17279">
        <ele>-1</ele>
        <time>1970-01-01T00:00:00Z</time>
      </trkpt>
      <trkpt lat="43.83204" lon="7.17275">
        <ele>-1</ele>
        <time>1970-01-01T00:00:00Z</time>
      </trkpt>
      <trkpt lat="43.83223" lon="7.17258">
        <ele>-1</ele>
        <time>1970-01-01T00:00:00Z</time>
      </trkpt>
      <trkpt lat="43.83237" lon="7.17246">
        <ele>-1</ele>
        <time>1970-01-01T00:00:00Z</time>
      </trkpt>
      <trkpt lat="43.83251" lon="7.17235">
        <ele>-1</ele>
        <time>1970-01-01T00:00:00Z</time>
      </trkpt>
      <trkpt lat="43.83265" lon="7.17212">
        <ele>-1</ele>
        <time>1970-01-01T00:00:00Z</time>
      </trkpt>
      <trkpt lat="43.83284" lon="7.17194">
        <ele>-1</ele>
        <time>1970-01-01T00:00:00Z</time>
      </trkpt>
      <trkpt lat="43.83298" lon="7.17183">
        <ele>-1</ele>
        <time>1970-01-01T00:00:00Z</time>
      </trkpt>
      <trkpt lat="43.83312" lon="7.17172">
        <ele>-1</ele>
        <time>1970-01-01T00:00:00Z</time>
      </trkpt>
      <trkpt lat="43.8333" lon="7.17174">
        <ele>-1</ele>
        <time>1970-01-01T00:00:00Z</time>
      </trkpt>
      <trkpt lat="43.83343" lon="7.17181">
        <ele>-1</ele>
        <time>1970-01-01T00:00:00Z</time>
      </trkpt>
      <trkpt lat="43.83351" lon="7.172">
        <ele>-1</ele>
        <time>1970-01-01T00:00:00Z</time>
      </trkpt>
      <trkpt lat="43.8335" lon="7.17225">
        <ele>-1</ele>
        <time>1970-01-01T00:00:00Z</time>
      </trkpt>
      <trkpt lat="43.83369" lon="7.17214">
        <ele>-1</ele>
        <time>1970-01-01T00:00:00Z</time>
      </trkpt>
      <trkpt lat="43.83382" lon="7.17209">
        <ele>-1</ele>
        <time>1970-01-01T00:00:00Z</time>
      </trkpt>
      <trkpt lat="43.834" lon="7.17211">
        <ele>-1</ele>
        <time>1970-01-01T00:00:00Z</time>
      </trkpt>
      <trkpt lat="43.83418" lon="7.17212">
        <ele>-1</ele>
        <time>1970-01-01T00:00:00Z</time>
      </trkpt>
      <trkpt lat="43.83436" lon="7.17214">
        <ele>-1</ele>
        <time>1970-01-01T00:00:00Z</time>
      </trkpt>
      <trkpt lat="43.83454" lon="7.17215">
        <ele>-1</ele>
        <time>1970-01-01T00:00:00Z</time>
      </trkpt>
      <trkpt lat="43.83472" lon="7.17217">
        <ele>-1</ele>
        <time>1970-01-01T00:00:00Z</time>
      </trkpt>
      <trkpt lat="43.83486" lon="7.17212">
        <ele>-1</ele>
        <time>1970-01-01T00:00:00Z</time>
      </trkpt>
      <trkpt lat="43.835" lon="7.17207">
        <ele>-1</ele>
        <time>1970-01-01T00:00:00Z</time>
      </trkpt>
      <trkpt lat="43.83518" lon="7.17196">
        <ele>-1</ele>
        <time>1970-01-01T00:00:00Z</time>
      </trkpt>
      <trkpt lat="43.83537" lon="7.17185">
        <ele>-1</ele>
        <time>1970-01-01T00:00:00Z</time>
      </trkpt>
      <trkpt lat="43.83555" lon="7.1718">
        <ele>-1</ele>
        <time>1970-01-01T00:00:00Z</time>
      </trkpt>
      <trkpt lat="43.83577" lon="7.17182">
        <ele>-1</ele>
        <time>1970-01-01T00:00:00Z</time>
      </trkpt>
      <trkpt lat="43.83595" lon="7.17184">
        <ele>-1</ele>
        <time>1970-01-01T00:00:00Z</time>
      </trkpt>
      <trkpt lat="43.83613" lon="7.17179">
        <ele>-1</ele>
        <time>1970-01-01T00:00:00Z</time>
      </trkpt>
      <trkpt lat="43.83626" lon="7.17193">
        <ele>-1</ele>
        <time>1970-01-01T00:00:00Z</time>
      </trkpt>
      <trkpt lat="43.83639" lon="7.17218">
        <ele>-1</ele>
        <time>1970-01-01T00:00:00Z</time>
      </trkpt>
      <trkpt lat="43.83647" lon="7.17244">
        <ele>-1</ele>
        <time>1970-01-01T00:00:00Z</time>
      </trkpt>
      <trkpt lat="43.83655" lon="7.17263">
        <ele>-1</ele>
        <time>1970-01-01T00:00:00Z</time>
      </trkpt>
      <trkpt lat="43.83667" lon="7.17283">
        <ele>-1</ele>
        <time>1970-01-01T00:00:00Z</time>
      </trkpt>
      <trkpt lat="43.83675" lon="7.17302">
        <ele>-1</ele>
        <time>1970-01-01T00:00:00Z</time>
      </trkpt>
      <trkpt lat="43.83683" lon="7.17328">
        <ele>-1</ele>
        <time>1970-01-01T00:00:00Z</time>
      </trkpt>
      <trkpt lat="43.83691" lon="7.17354">
        <ele>-1</ele>
        <time>1970-01-01T00:00:00Z</time>
      </trkpt>
      <trkpt lat="43.83695" lon="7.17379">
        <ele>-1</ele>
        <time>1970-01-01T00:00:00Z</time>
      </trkpt>
      <trkpt lat="43.83676" lon="7.1739">
        <ele>-1</ele>
        <time>1970-01-01T00:00:00Z</time>
      </trkpt>
      <trkpt lat="43.83658" lon="7.17388">
        <ele>-1</ele>
        <time>1970-01-01T00:00:00Z</time>
      </trkpt>
      <trkpt lat="43.8364" lon="7.17393">
        <ele>-1</ele>
        <time>1970-01-01T00:00:00Z</time>
      </trkpt>
      <trkpt lat="43.83622" lon="7.17397">
        <ele>-1</ele>
        <time>1970-01-01T00:00:00Z</time>
      </trkpt>
      <trkpt lat="43.83608" lon="7.17409">
        <ele>-1</ele>
        <time>1970-01-01T00:00:00Z</time>
      </trkpt>
      <trkpt lat="43.83594" lon="7.17414">
        <ele>-1</ele>
        <time>1970-01-01T00:00:00Z</time>
      </trkpt>
      <trkpt lat="43.83575" lon="7.17431">
        <ele>-1</ele>
        <time>1970-01-01T00:00:00Z</time>
      </trkpt>
      <trkpt lat="43.83561" lon="7.17448">
        <ele>-1</ele>
        <time>1970-01-01T00:00:00Z</time>
      </trkpt>
      <trkpt lat="43.83542" lon="7.17459">
        <ele>-1</ele>
        <time>1970-01-01T00:00:00Z</time>
      </trkpt>
      <trkpt lat="43.83537" lon="7.17477">
        <ele>-1</ele>
        <time>1970-01-01T00:00:00Z</time>
      </trkpt>
      <trkpt lat="43.83518" lon="7.17494">
        <ele>-1</ele>
        <time>1970-01-01T00:00:00Z</time>
      </trkpt>
      <trkpt lat="43.83504" lon="7.17512">
        <ele>-1</ele>
        <time>1970-01-01T00:00:00Z</time>
      </trkpt>
      <trkpt lat="43.83494" lon="7.1753">
        <ele>-1</ele>
        <time>1970-01-01T00:00:00Z</time>
      </trkpt>
      <trkpt lat="43.83484" lon="7.17547">
        <ele>-1</ele>
        <time>1970-01-01T00:00:00Z</time>
      </trkpt>
      <trkpt lat="43.83475" lon="7.17565">
        <ele>-1</ele>
        <time>1970-01-01T00:00:00Z</time>
      </trkpt>
      <trkpt lat="43.83461" lon="7.17576">
        <ele>-1</ele>
        <time>1970-01-01T00:00:00Z</time>
      </trkpt>
      <trkpt lat="43.83447" lon="7.17588">
        <ele>-1</ele>
        <time>1970-01-01T00:00:00Z</time>
      </trkpt>
      <trkpt lat="43.83432" lon="7.17605">
        <ele>-1</ele>
        <time>1970-01-01T00:00:00Z</time>
      </trkpt>
      <trkpt lat="43.83422" lon="7.17629">
        <ele>-1</ele>
        <time>1970-01-01T00:00:00Z</time>
      </trkpt>
      <trkpt lat="43.83408" lon="7.17653">
        <ele>-1</ele>
        <time>1970-01-01T00:00:00Z</time>
      </trkpt>
      <trkpt lat="43.83407" lon="7.17678">
        <ele>-1</ele>
        <time>1970-01-01T00:00:00Z</time>
      </trkpt>
      <trkpt lat="43.83392" lon="7.17701">
        <ele>-1</ele>
        <time>1970-01-01T00:00:00Z</time>
      </trkpt>
      <trkpt lat="43.83378" lon="7.17706">
        <ele>-1</ele>
        <time>1970-01-01T00:00:00Z</time>
      </trkpt>
      <trkpt lat="43.8336" lon="7.17705">
        <ele>-1</ele>
        <time>1970-01-01T00:00:00Z</time>
      </trkpt>
      <trkpt lat="43.83342" lon="7.17703">
        <ele>-1</ele>
        <time>1970-01-01T00:00:00Z</time>
      </trkpt>
      <trkpt lat="43.83324" lon="7.1772">
        <ele>-1</ele>
        <time>1970-01-01T00:00:00Z</time>
      </trkpt>
      <trkpt lat="43.83314" lon="7.17738">
        <ele>-1</ele>
        <time>1970-01-01T00:00:00Z</time>
      </trkpt>
      <trkpt lat="43.83304" lon="7.17756">
        <ele>-1</ele>
        <time>1970-01-01T00:00:00Z</time>
      </trkpt>
      <trkpt lat="43.83299" lon="7.17774">
        <ele>-1</ele>
        <time>1970-01-01T00:00:00Z</time>
      </trkpt>
      <trkpt lat="43.83293" lon="7.17792">
        <ele>-1</ele>
        <time>1970-01-01T00:00:00Z</time>
      </trkpt>
      <trkpt lat="43.83284" lon="7.1781">
        <ele>-1</ele>
        <time>1970-01-01T00:00:00Z</time>
      </trkpt>
      <trkpt lat="43.83269" lon="7.17828">
        <ele>-1</ele>
        <time>1970-01-01T00:00:00Z</time>
      </trkpt>
      <trkpt lat="43.83255" lon="7.17839">
        <ele>-1</ele>
        <time>1970-01-01T00:00:00Z</time>
      </trkpt>
      <trkpt lat="43.83241" lon="7.17856">
        <ele>-1</ele>
        <time>1970-01-01T00:00:00Z</time>
      </trkpt>
      <trkpt lat="43.83222" lon="7.1788">
        <ele>-1</ele>
        <time>1970-01-01T00:00:00Z</time>
      </trkpt>
      <trkpt lat="43.83204" lon="7.17884">
        <ele>-1</ele>
        <time>1970-01-01T00:00:00Z</time>
      </trkpt>
      <trkpt lat="43.83186" lon="7.17883">
        <ele>-1</ele>
        <time>1970-01-01T00:00:00Z</time>
      </trkpt>
      <trkpt lat="43.83163" lon="7.17887">
        <ele>-1</ele>
        <time>1970-01-01T00:00:00Z</time>
      </trkpt>
      <trkpt lat="43.83145" lon="7.17892">
        <ele>-1</ele>
        <time>1970-01-01T00:00:00Z</time>
      </trkpt>
      <trkpt lat="43.83127" lon="7.1789">
        <ele>-1</ele>
        <time>1970-01-01T00:00:00Z</time>
      </trkpt>
      <trkpt lat="43.83113" lon="7.17908">
        <ele>-1</ele>
        <time>1970-01-01T00:00:00Z</time>
      </trkpt>
      <trkpt lat="43.83099" lon="7.17913">
        <ele>-1</ele>
        <time>1970-01-01T00:00:00Z</time>
      </trkpt>
      <trkpt lat="43.83089" lon="7.1793">
        <ele>-1</ele>
        <time>1970-01-01T00:00:00Z</time>
      </trkpt>
      <trkpt lat="43.83075" lon="7.17948">
        <ele>-1</ele>
        <time>1970-01-01T00:00:00Z</time>
      </trkpt>
      <trkpt lat="43.83065" lon="7.17966">
        <ele>-1</ele>
        <time>1970-01-01T00:00:00Z</time>
      </trkpt>
      <trkpt lat="43.83051" lon="7.17977">
        <ele>-1</ele>
        <time>1970-01-01T00:00:00Z</time>
      </trkpt>
      <trkpt lat="43.83037" lon="7.17988">
        <ele>-1</ele>
        <time>1970-01-01T00:00:00Z</time>
      </trkpt>
      <trkpt lat="43.83023" lon="7.17999">
        <ele>-1</ele>
        <time>1970-01-01T00:00:00Z</time>
      </trkpt>
      <trkpt lat="43.83004" lon="7.1801">
        <ele>-1</ele>
        <time>1970-01-01T00:00:00Z</time>
      </trkpt>
      <trkpt lat="43.82991" lon="7.18015">
        <ele>-1</ele>
        <time>1970-01-01T00:00:00Z</time>
      </trkpt>
      <trkpt lat="43.82972" lon="7.18026">
        <ele>-1</ele>
        <time>1970-01-01T00:00:00Z</time>
      </trkpt>
      <trkpt lat="43.82958" lon="7.18044">
        <ele>-1</ele>
        <time>1970-01-01T00:00:00Z</time>
      </trkpt>
      <trkpt lat="43.82948" lon="7.18061">
        <ele>-1</ele>
        <time>1970-01-01T00:00:00Z</time>
      </trkpt>
      <trkpt lat="43.82932" lon="7.1811">
        <ele>-1</ele>
        <time>1970-01-01T00:00:00Z</time>
      </trkpt>
      <trkpt lat="43.82927" lon="7.18128">
        <ele>-1</ele>
        <time>1970-01-01T00:00:00Z</time>
      </trkpt>
      <trkpt lat="43.82931" lon="7.18147">
        <ele>-1</ele>
        <time>1970-01-01T00:00:00Z</time>
      </trkpt>
      <trkpt lat="43.8293" lon="7.18172">
        <ele>-1</ele>
        <time>1970-01-01T00:00:00Z</time>
      </trkpt>
      <trkpt lat="43.82933" lon="7.18191">
        <ele>-1</ele>
        <time>1970-01-01T00:00:00Z</time>
      </trkpt>
      <trkpt lat="43.82941" lon="7.18216">
        <ele>-1</ele>
        <time>1970-01-01T00:00:00Z</time>
      </trkpt>
      <trkpt lat="43.82949" lon="7.18236">
        <ele>-1</ele>
        <time>1970-01-01T00:00:00Z</time>
      </trkpt>
      <trkpt lat="43.82953" lon="7.18261">
        <ele>-1</ele>
        <time>1970-01-01T00:00:00Z</time>
      </trkpt>
      <trkpt lat="43.82956" lon="7.18286">
        <ele>-1</ele>
        <time>1970-01-01T00:00:00Z</time>
      </trkpt>
      <trkpt lat="43.82964" lon="7.18312">
        <ele>-1</ele>
        <time>1970-01-01T00:00:00Z</time>
      </trkpt>
      <trkpt lat="43.82967" lon="7.18337">
        <ele>-1</ele>
        <time>1970-01-01T00:00:00Z</time>
      </trkpt>
      <trkpt lat="43.82975" lon="7.18362">
        <ele>-1</ele>
        <time>1970-01-01T00:00:00Z</time>
      </trkpt>
      <trkpt lat="43.82988" lon="7.18382">
        <ele>-1</ele>
        <time>1970-01-01T00:00:00Z</time>
      </trkpt>
      <trkpt lat="43.83" lon="7.18402">
        <ele>-1</ele>
        <time>1970-01-01T00:00:00Z</time>
      </trkpt>
      <trkpt lat="43.83013" lon="7.18421">
        <ele>-1</ele>
        <time>1970-01-01T00:00:00Z</time>
      </trkpt>
      <trkpt lat="43.83026" lon="7.18435">
        <ele>-1</ele>
        <time>1970-01-01T00:00:00Z</time>
      </trkpt>
      <trkpt lat="43.83039" lon="7.18442">
        <ele>-1</ele>
        <time>1970-01-01T00:00:00Z</time>
      </trkpt>
      <trkpt lat="43.83052" lon="7.18456">
        <ele>-1</ele>
        <time>1970-01-01T00:00:00Z</time>
      </trkpt>
      <trkpt lat="43.83065" lon="7.18463">
        <ele>-1</ele>
        <time>1970-01-01T00:00:00Z</time>
      </trkpt>
      <trkpt lat="43.83083" lon="7.18465">
        <ele>-1</ele>
        <time>1970-01-01T00:00:00Z</time>
      </trkpt>
      <trkpt lat="43.83096" lon="7.18472">
        <ele>-1</ele>
        <time>1970-01-01T00:00:00Z</time>
      </trkpt>
      <trkpt lat="43.83114" lon="7.1848">
        <ele>-1</ele>
        <time>1970-01-01T00:00:00Z</time>
      </trkpt>
      <trkpt lat="43.83131" lon="7.18494">
        <ele>-1</ele>
        <time>1970-01-01T00:00:00Z</time>
      </trkpt>
      <trkpt lat="43.83149" lon="7.18502">
        <ele>-1</ele>
        <time>1970-01-01T00:00:00Z</time>
      </trkpt>
      <trkpt lat="43.83166" lon="7.18515">
        <ele>-1</ele>
        <time>1970-01-01T00:00:00Z</time>
      </trkpt>
      <trkpt lat="43.83179" lon="7.18529">
        <ele>-1</ele>
        <time>1970-01-01T00:00:00Z</time>
      </trkpt>
      <trkpt lat="43.83196" lon="7.18549">
        <ele>-1</ele>
        <time>1970-01-01T00:00:00Z</time>
      </trkpt>
      <trkpt lat="43.83209" lon="7.18563">
        <ele>-1</ele>
        <time>1970-01-01T00:00:00Z</time>
      </trkpt>
      <trkpt lat="43.83223" lon="7.1857">
        <ele>-1</ele>
        <time>1970-01-01T00:00:00Z</time>
      </trkpt>
      <trkpt lat="43.83235" lon="7.18583">
        <ele>-1</ele>
        <time>1970-01-01T00:00:00Z</time>
      </trkpt>
      <trkpt lat="43.83249" lon="7.18591">
        <ele>-1</ele>
        <time>1970-01-01T00:00:00Z</time>
      </trkpt>
      <trkpt lat="43.83262" lon="7.18598">
        <ele>-1</ele>
        <time>1970-01-01T00:00:00Z</time>
      </trkpt>
      <trkpt lat="43.83279" lon="7.18612">
        <ele>-1</ele>
        <time>1970-01-01T00:00:00Z</time>
      </trkpt>
      <trkpt lat="43.83297" lon="7.1862">
        <ele>-1</ele>
        <time>1970-01-01T00:00:00Z</time>
      </trkpt>
      <trkpt lat="43.8331" lon="7.18633">
        <ele>-1</ele>
        <time>1970-01-01T00:00:00Z</time>
      </trkpt>
      <trkpt lat="43.83323" lon="7.18641">
        <ele>-1</ele>
        <time>1970-01-01T00:00:00Z</time>
      </trkpt>
      <trkpt lat="43.83336" lon="7.18648">
        <ele>-1</ele>
        <time>1970-01-01T00:00:00Z</time>
      </trkpt>
      <trkpt lat="43.83349" lon="7.18662">
        <ele>-1</ele>
        <time>1970-01-01T00:00:00Z</time>
      </trkpt>
      <trkpt lat="43.83362" lon="7.18669">
        <ele>-1</ele>
        <time>1970-01-01T00:00:00Z</time>
      </trkpt>
      <trkpt lat="43.83375" lon="7.18676">
        <ele>-1</ele>
        <time>1970-01-01T00:00:00Z</time>
      </trkpt>
      <trkpt lat="43.83388" lon="7.1869">
        <ele>-1</ele>
        <time>1970-01-01T00:00:00Z</time>
      </trkpt>
      <trkpt lat="43.83402" lon="7.18697">
        <ele>-1</ele>
        <time>1970-01-01T00:00:00Z</time>
      </trkpt>
      <trkpt lat="43.83414" lon="7.18711">
        <ele>-1</ele>
        <time>1970-01-01T00:00:00Z</time>
      </trkpt>
      <trkpt lat="43.83427" lon="7.18724">
        <ele>-1</ele>
        <time>1970-01-01T00:00:00Z</time>
      </trkpt>
      <trkpt lat="43.8344" lon="7.18738">
        <ele>-1</ele>
        <time>1970-01-01T00:00:00Z</time>
      </trkpt>
      <trkpt lat="43.83453" lon="7.18745">
        <ele>-1</ele>
        <time>1970-01-01T00:00:00Z</time>
      </trkpt>
      <trkpt lat="43.83466" lon="7.18759">
        <ele>-1</ele>
        <time>1970-01-01T00:00:00Z</time>
      </trkpt>
      <trkpt lat="43.83484" lon="7.18773">
        <ele>-1</ele>
        <time>1970-01-01T00:00:00Z</time>
      </trkpt>
      <trkpt lat="43.83502" lon="7.18774">
        <ele>-1</ele>
        <time>1970-01-01T00:00:00Z</time>
      </trkpt>
      <trkpt lat="43.83515" lon="7.18788">
        <ele>-1</ele>
        <time>1970-01-01T00:00:00Z</time>
      </trkpt>
      <trkpt lat="43.83532" lon="7.18808">
        <ele>-1</ele>
        <time>1970-01-01T00:00:00Z</time>
      </trkpt>
      <trkpt lat="43.83545" lon="7.18821">
        <ele>-1</ele>
        <time>1970-01-01T00:00:00Z</time>
      </trkpt>
      <trkpt lat="43.83557" lon="7.18835">
        <ele>-1</ele>
        <time>1970-01-01T00:00:00Z</time>
      </trkpt>
      <trkpt lat="43.8357" lon="7.18848">
        <ele>-1</ele>
        <time>1970-01-01T00:00:00Z</time>
      </trkpt>
      <trkpt lat="43.83588" lon="7.18856">
        <ele>-1</ele>
        <time>1970-01-01T00:00:00Z</time>
      </trkpt>
      <trkpt lat="43.83605" lon="7.1887">
        <ele>-1</ele>
        <time>1970-01-01T00:00:00Z</time>
      </trkpt>
      <trkpt lat="43.83619" lon="7.18877">
        <ele>-1</ele>
        <time>1970-01-01T00:00:00Z</time>
      </trkpt>
      <trkpt lat="43.83636" lon="7.18898">
        <ele>-1</ele>
        <time>1970-01-01T00:00:00Z</time>
      </trkpt>
      <trkpt lat="43.83653" lon="7.18911">
        <ele>-1</ele>
        <time>1970-01-01T00:00:00Z</time>
      </trkpt>
      <trkpt lat="43.83666" lon="7.18931">
        <ele>-1</ele>
        <time>1970-01-01T00:00:00Z</time>
      </trkpt>
      <trkpt lat="43.83678" lon="7.18951">
        <ele>-1</ele>
        <time>1970-01-01T00:00:00Z</time>
      </trkpt>
      <trkpt lat="43.83691" lon="7.18977">
        <ele>-1</ele>
        <time>1970-01-01T00:00:00Z</time>
      </trkpt>
      <trkpt lat="43.83704" lon="7.1899">
        <ele>-1</ele>
        <time>1970-01-01T00:00:00Z</time>
      </trkpt>
      <trkpt lat="43.83716" lon="7.1901">
        <ele>-1</ele>
        <time>1970-01-01T00:00:00Z</time>
      </trkpt>
      <trkpt lat="43.83734" lon="7.19024">
        <ele>-1</ele>
        <time>1970-01-01T00:00:00Z</time>
      </trkpt>
      <trkpt lat="43.83751" lon="7.19032">
        <ele>-1</ele>
        <time>1970-01-01T00:00:00Z</time>
      </trkpt>
      <trkpt lat="43.83769" lon="7.19033">
        <ele>-1</ele>
        <time>1970-01-01T00:00:00Z</time>
      </trkpt>
      <trkpt lat="43.83787" lon="7.19035">
        <ele>-1</ele>
        <time>1970-01-01T00:00:00Z</time>
      </trkpt>
      <trkpt lat="43.838" lon="7.19042">
        <ele>-1</ele>
        <time>1970-01-01T00:00:00Z</time>
      </trkpt>
      <trkpt lat="43.83818" lon="7.19056">
        <ele>-1</ele>
        <time>1970-01-01T00:00:00Z</time>
      </trkpt>
      <trkpt lat="43.83831" lon="7.1907">
        <ele>-1</ele>
        <time>1970-01-01T00:00:00Z</time>
      </trkpt>
      <trkpt lat="43.83834" lon="7.19089">
        <ele>-1</ele>
        <time>1970-01-01T00:00:00Z</time>
      </trkpt>
      <trkpt lat="43.83833" lon="7.19113">
        <ele>-1</ele>
        <time>1970-01-01T00:00:00Z</time>
      </trkpt>
      <trkpt lat="43.83832" lon="7.19138">
        <ele>-1</ele>
        <time>1970-01-01T00:00:00Z</time>
      </trkpt>
      <trkpt lat="43.83827" lon="7.19163">
        <ele>-1</ele>
        <time>1970-01-01T00:00:00Z</time>
      </trkpt>
      <trkpt lat="43.83825" lon="7.19194">
        <ele>-1</ele>
        <time>1970-01-01T00:00:00Z</time>
      </trkpt>
      <trkpt lat="43.83815" lon="7.19218">
        <ele>-1</ele>
        <time>1970-01-01T00:00:00Z</time>
      </trkpt>
      <trkpt lat="43.83814" lon="7.19242">
        <ele>-1</ele>
        <time>1970-01-01T00:00:00Z</time>
      </trkpt>
      <trkpt lat="43.83804" lon="7.1926">
        <ele>-1</ele>
        <time>1970-01-01T00:00:00Z</time>
      </trkpt>
      <trkpt lat="43.83799" lon="7.19278">
        <ele>-1</ele>
        <time>1970-01-01T00:00:00Z</time>
      </trkpt>
      <trkpt lat="43.83798" lon="7.19303">
        <ele>-1</ele>
        <time>1970-01-01T00:00:00Z</time>
      </trkpt>
      <trkpt lat="43.83788" lon="7.19327">
        <ele>-1</ele>
        <time>1970-01-01T00:00:00Z</time>
      </trkpt>
      <trkpt lat="43.83786" lon="7.19352">
        <ele>-1</ele>
        <time>1970-01-01T00:00:00Z</time>
      </trkpt>
      <trkpt lat="43.83781" lon="7.19376">
        <ele>-1</ele>
        <time>1970-01-01T00:00:00Z</time>
      </trkpt>
      <trkpt lat="43.8378" lon="7.19401">
        <ele>-1</ele>
        <time>1970-01-01T00:00:00Z</time>
      </trkpt>
      <trkpt lat="43.83778" lon="7.19432">
        <ele>-1</ele>
        <time>1970-01-01T00:00:00Z</time>
      </trkpt>
      <trkpt lat="43.82689" lon="7.19028">
        <ele>-1</ele>
        <time>1970-01-01T00:00:00Z</time>
      </trkpt>
      <trkpt lat="43.82688" lon="7.19044">
        <ele>-1</ele>
        <time>1970-01-01T00:00:00Z</time>
      </trkpt>
      <trkpt lat="43.82681" lon="7.1904">
        <ele>-1</ele>
        <time>1970-01-01T00:00:00Z</time>
      </trkpt>
      <trkpt lat="43.82675" lon="7.19036">
        <ele>-1</ele>
        <time>1970-01-01T00:00:00Z</time>
      </trkpt>
      <trkpt lat="43.82666" lon="7.19036">
        <ele>-1</ele>
        <time>1970-01-01T00:00:00Z</time>
      </trkpt>
      <trkpt lat="43.82657" lon="7.19032">
        <ele>-1</ele>
        <time>1970-01-01T00:00:00Z</time>
      </trkpt>
      <trkpt lat="43.82646" lon="7.19031">
        <ele>-1</ele>
        <time>1970-01-01T00:00:00Z</time>
      </trkpt>
      <trkpt lat="43.82637" lon="7.19027">
        <ele>-1</ele>
        <time>1970-01-01T00:00:00Z</time>
      </trkpt>
      <trkpt lat="43.82628" lon="7.19026">
        <ele>-1</ele>
        <time>1970-01-01T00:00:00Z</time>
      </trkpt>
      <trkpt lat="43.82619" lon="7.19022">
        <ele>-1</ele>
        <time>1970-01-01T00:00:00Z</time>
      </trkpt>
      <trkpt lat="43.8261" lon="7.19021">
        <ele>-1</ele>
        <time>1970-01-01T00:00:00Z</time>
      </trkpt>
      <trkpt lat="43.82604" lon="7.19018">
        <ele>-1</ele>
        <time>1970-01-01T00:00:00Z</time>
      </trkpt>
      <trkpt lat="43.82595" lon="7.19011">
        <ele>-1</ele>
        <time>1970-01-01T00:00:00Z</time>
      </trkpt>
      <trkpt lat="43.82586" lon="7.19004">
        <ele>-1</ele>
        <time>1970-01-01T00:00:00Z</time>
      </trkpt>
      <trkpt lat="43.8258" lon="7.19">
        <ele>-1</ele>
        <time>1970-01-01T00:00:00Z</time>
      </trkpt>
      <trkpt lat="43.82571" lon="7.18996">
        <ele>-1</ele>
        <time>1970-01-01T00:00:00Z</time>
      </trkpt>
      <trkpt lat="43.82562" lon="7.18992">
        <ele>-1</ele>
        <time>1970-01-01T00:00:00Z</time>
      </trkpt>
      <trkpt lat="43.82551" lon="7.18988">
        <ele>-1</ele>
        <time>1970-01-01T00:00:00Z</time>
      </trkpt>
      <trkpt lat="43.82542" lon="7.18988">
        <ele>-1</ele>
        <time>1970-01-01T00:00:00Z</time>
      </trkpt>
      <trkpt lat="43.82533" lon="7.18987">
        <ele>-1</ele>
        <time>1970-01-01T00:00:00Z</time>
      </trkpt>
      <trkpt lat="43.82526" lon="7.18983">
        <ele>-1</ele>
        <time>1970-01-01T00:00:00Z</time>
      </trkpt>
      <trkpt lat="43.82515" lon="7.18982">
        <ele>-1</ele>
        <time>1970-01-01T00:00:00Z</time>
      </trkpt>
      <trkpt lat="43.82506" lon="7.18978">
        <ele>-1</ele>
        <time>1970-01-01T00:00:00Z</time>
      </trkpt>
      <trkpt lat="43.82497" lon="7.18978">
        <ele>-1</ele>
        <time>1970-01-01T00:00:00Z</time>
      </trkpt>
      <trkpt lat="43.82488" lon="7.18974">
        <ele>-1</ele>
        <time>1970-01-01T00:00:00Z</time>
      </trkpt>
      <trkpt lat="43.8248" lon="7.1897">
        <ele>-1</ele>
        <time>1970-01-01T00:00:00Z</time>
      </trkpt>
      <trkpt lat="43.82473" lon="7.18966">
        <ele>-1</ele>
        <time>1970-01-01T00:00:00Z</time>
      </trkpt>
      <trkpt lat="43.82466" lon="7.18963">
        <ele>-1</ele>
        <time>1970-01-01T00:00:00Z</time>
      </trkpt>
      <trkpt lat="43.8246" lon="7.18959">
        <ele>-1</ele>
        <time>1970-01-01T00:00:00Z</time>
      </trkpt>
      <trkpt lat="43.82451" lon="7.18958">
        <ele>-1</ele>
        <time>1970-01-01T00:00:00Z</time>
      </trkpt>
      <trkpt lat="43.8244" lon="7.18957">
        <ele>-1</ele>
        <time>1970-01-01T00:00:00Z</time>
      </trkpt>
      <trkpt lat="43.82431" lon="7.18953">
        <ele>-1</ele>
        <time>1970-01-01T00:00:00Z</time>
      </trkpt>
      <trkpt lat="43.82422" lon="7.18946">
        <ele>-1</ele>
        <time>1970-01-01T00:00:00Z</time>
      </trkpt>
      <trkpt lat="43.82413" lon="7.18942">
        <ele>-1</ele>
        <time>1970-01-01T00:00:00Z</time>
      </trkpt>
      <trkpt lat="43.82404" lon="7.18939">
        <ele>-1</ele>
        <time>1970-01-01T00:00:00Z</time>
      </trkpt>
      <trkpt lat="43.82393" lon="7.18935">
        <ele>-1</ele>
        <time>1970-01-01T00:00:00Z</time>
      </trkpt>
      <trkpt lat="43.82385" lon="7.18931">
        <ele>-1</ele>
        <time>1970-01-01T00:00:00Z</time>
      </trkpt>
      <trkpt lat="43.82376" lon="7.1893">
        <ele>-1</ele>
        <time>1970-01-01T00:00:00Z</time>
      </trkpt>
      <trkpt lat="43.82369" lon="7.18926">
        <ele>-1</ele>
        <time>1970-01-01T00:00:00Z</time>
      </trkpt>
      <trkpt lat="43.82356" lon="7.18925">
        <ele>-1</ele>
        <time>1970-01-01T00:00:00Z</time>
      </trkpt>
      <trkpt lat="43.82347" lon="7.18924">
        <ele>-1</ele>
        <time>1970-01-01T00:00:00Z</time>
      </trkpt>
      <trkpt lat="43.82338" lon="7.18924">
        <ele>-1</ele>
        <time>1970-01-01T00:00:00Z</time>
      </trkpt>
      <trkpt lat="43.82329" lon="7.18923">
        <ele>-1</ele>
        <time>1970-01-01T00:00:00Z</time>
      </trkpt>
      <trkpt lat="43.8232" lon="7.18922">
        <ele>-1</ele>
        <time>1970-01-01T00:00:00Z</time>
      </trkpt>
      <trkpt lat="43.82308" lon="7.18921">
        <ele>-1</ele>
        <time>1970-01-01T00:00:00Z</time>
      </trkpt>
      <trkpt lat="43.82297" lon="7.18917">
        <ele>-1</ele>
        <time>1970-01-01T00:00:00Z</time>
      </trkpt>
      <trkpt lat="43.82288" lon="7.18916">
        <ele>-1</ele>
        <time>1970-01-01T00:00:00Z</time>
      </trkpt>
      <trkpt lat="43.82282" lon="7.18913">
        <ele>-1</ele>
        <time>1970-01-01T00:00:00Z</time>
      </trkpt>
      <trkpt lat="43.82273" lon="7.18912">
        <ele>-1</ele>
        <time>1970-01-01T00:00:00Z</time>
      </trkpt>
      <trkpt lat="43.82264" lon="7.18911">
        <ele>-1</ele>
        <time>1970-01-01T00:00:00Z</time>
      </trkpt>
      <trkpt lat="43.82255" lon="7.18907">
        <ele>-1</ele>
        <time>1970-01-01T00:00:00Z</time>
      </trkpt>
      <trkpt lat="43.82246" lon="7.18903">
        <ele>-1</ele>
        <time>1970-01-01T00:00:00Z</time>
      </trkpt>
      <trkpt lat="43.82237" lon="7.18899">
        <ele>-1</ele>
        <time>1970-01-01T00:00:00Z</time>
      </trkpt>
      <trkpt lat="43.82229" lon="7.18892">
        <ele>-1</ele>
        <time>1970-01-01T00:00:00Z</time>
      </trkpt>
      <trkpt lat="43.8222" lon="7.18886">
        <ele>-1</ele>
        <time>1970-01-01T00:00:00Z</time>
      </trkpt>
      <trkpt lat="43.82211" lon="7.18882">
        <ele>-1</ele>
        <time>1970-01-01T00:00:00Z</time>
      </trkpt>
      <trkpt lat="43.82202" lon="7.18878">
        <ele>-1</ele>
        <time>1970-01-01T00:00:00Z</time>
      </trkpt>
      <trkpt lat="43.82194" lon="7.18871">
        <ele>-1</ele>
        <time>1970-01-01T00:00:00Z</time>
      </trkpt>
      <trkpt lat="43.82182" lon="7.1887">
        <ele>-1</ele>
        <time>1970-01-01T00:00:00Z</time>
      </trkpt>
      <trkpt lat="43.82173" lon="7.18869">
        <ele>-1</ele>
        <time>1970-01-01T00:00:00Z</time>
      </trkpt>
      <trkpt lat="43.82107" lon="7.18895">
        <ele>-1</ele>
        <time>1970-01-01T00:00:00Z</time>
      </trkpt>
      <trkpt lat="43.82098" lon="7.18894">
        <ele>-1</ele>
        <time>1970-01-01T00:00:00Z</time>
      </trkpt>
      <trkpt lat="43.82089" lon="7.18893">
        <ele>-1</ele>
        <time>1970-01-01T00:00:00Z</time>
      </trkpt>
      <trkpt lat="43.8208" lon="7.18892">
        <ele>-1</ele>
        <time>1970-01-01T00:00:00Z</time>
      </trkpt>
      <trkpt lat="43.82069" lon="7.18891">
        <ele>-1</ele>
        <time>1970-01-01T00:00:00Z</time>
      </trkpt>
      <trkpt lat="43.8206" lon="7.18887">
        <ele>-1</ele>
        <time>1970-01-01T00:00:00Z</time>
      </trkpt>
      <trkpt lat="43.82049" lon="7.18886">
        <ele>-1</ele>
        <time>1970-01-01T00:00:00Z</time>
      </trkpt>
      <trkpt lat="43.8204" lon="7.18883">
        <ele>-1</ele>
        <time>1970-01-01T00:00:00Z</time>
      </trkpt>
      <trkpt lat="43.82031" lon="7.18882">
        <ele>-1</ele>
        <time>1970-01-01T00:00:00Z</time>
      </trkpt>
      <trkpt lat="43.82024" lon="7.18878">
        <ele>-1</ele>
        <time>1970-01-01T00:00:00Z</time>
      </trkpt>
      <trkpt lat="43.82015" lon="7.18877">
        <ele>-1</ele>
        <time>1970-01-01T00:00:00Z</time>
      </trkpt>
      <trkpt lat="43.82009" lon="7.18874">
        <ele>-1</ele>
        <time>1970-01-01T00:00:00Z</time>
      </trkpt>
      <trkpt lat="43.81998" lon="7.1887">
        <ele>-1</ele>
        <time>1970-01-01T00:00:00Z</time>
      </trkpt>
      <trkpt lat="43.81989" lon="7.18866">
        <ele>-1</ele>
        <time>1970-01-01T00:00:00Z</time>
      </trkpt>
      <trkpt lat="43.81978" lon="7.18865">
        <ele>-1</ele>
        <time>1970-01-01T00:00:00Z</time>
      </trkpt>
      <trkpt lat="43.81977" lon="7.1888">
        <ele>-1</ele>
        <time>1970-01-01T00:00:00Z</time>
      </trkpt>
      <trkpt lat="43.81976" lon="7.18896">
        <ele>-1</ele>
        <time>1970-01-01T00:00:00Z</time>
      </trkpt>
      <trkpt lat="43.81976" lon="7.18908">
        <ele>-1</ele>
        <time>1970-01-01T00:00:00Z</time>
      </trkpt>
      <trkpt lat="43.81975" lon="7.18921">
        <ele>-1</ele>
        <time>1970-01-01T00:00:00Z</time>
      </trkpt>
      <trkpt lat="43.81975" lon="7.18936">
        <ele>-1</ele>
        <time>1970-01-01T00:00:00Z</time>
      </trkpt>
      <trkpt lat="43.81974" lon="7.18948">
        <ele>-1</ele>
        <time>1970-01-01T00:00:00Z</time>
      </trkpt>
      <trkpt lat="43.81973" lon="7.18964">
        <ele>-1</ele>
        <time>1970-01-01T00:00:00Z</time>
      </trkpt>
      <trkpt lat="43.81973" lon="7.18976">
        <ele>-1</ele>
        <time>1970-01-01T00:00:00Z</time>
      </trkpt>
      <trkpt lat="43.81972" lon="7.18992">
        <ele>-1</ele>
        <time>1970-01-01T00:00:00Z</time>
      </trkpt>
      <trkpt lat="43.81974" lon="7.19004">
        <ele>-1</ele>
        <time>1970-01-01T00:00:00Z</time>
      </trkpt>
      <trkpt lat="43.81973" lon="7.19017">
        <ele>-1</ele>
        <time>1970-01-01T00:00:00Z</time>
      </trkpt>
      <trkpt lat="43.81975" lon="7.19032">
        <ele>-1</ele>
        <time>1970-01-01T00:00:00Z</time>
      </trkpt>
      <trkpt lat="43.81974" lon="7.19045">
        <ele>-1</ele>
        <time>1970-01-01T00:00:00Z</time>
      </trkpt>
      <trkpt lat="43.81976" lon="7.19057">
        <ele>-1</ele>
        <time>1970-01-01T00:00:00Z</time>
      </trkpt>
      <trkpt lat="43.81975" lon="7.19073">
        <ele>-1</ele>
        <time>1970-01-01T00:00:00Z</time>
      </trkpt>
      <trkpt lat="43.81975" lon="7.19085">
        <ele>-1</ele>
        <time>1970-01-01T00:00:00Z</time>
      </trkpt>
      <trkpt lat="43.81974" lon="7.19098">
        <ele>-1</ele>
        <time>1970-01-01T00:00:00Z</time>
      </trkpt>
      <trkpt lat="43.81969" lon="7.1911">
        <ele>-1</ele>
        <time>1970-01-01T00:00:00Z</time>
      </trkpt>
      <trkpt lat="43.81966" lon="7.19122">
        <ele>-1</ele>
        <time>1970-01-01T00:00:00Z</time>
      </trkpt>
      <trkpt lat="43.81963" lon="7.19134">
        <ele>-1</ele>
        <time>1970-01-01T00:00:00Z</time>
      </trkpt>
      <trkpt lat="43.81963" lon="7.19146">
        <ele>-1</ele>
        <time>1970-01-01T00:00:00Z</time>
      </trkpt>
      <trkpt lat="43.81962" lon="7.19159">
        <ele>-1</ele>
        <time>1970-01-01T00:00:00Z</time>
      </trkpt>
      <trkpt lat="43.81962" lon="7.19174">
        <ele>-1</ele>
        <time>1970-01-01T00:00:00Z</time>
      </trkpt>
      <trkpt lat="43.81961" lon="7.19187">
        <ele>-1</ele>
        <time>1970-01-01T00:00:00Z</time>
      </trkpt>
      <trkpt lat="43.81961" lon="7.19199">
        <ele>-1</ele>
        <time>1970-01-01T00:00:00Z</time>
      </trkpt>
      <trkpt lat="43.81962" lon="7.19215">
        <ele>-1</ele>
        <time>1970-01-01T00:00:00Z</time>
      </trkpt>
      <trkpt lat="43.81961" lon="7.19227">
        <ele>-1</ele>
        <time>1970-01-01T00:00:00Z</time>
      </trkpt>
      <trkpt lat="43.81954" lon="7.19233">
        <ele>-1</ele>
        <time>1970-01-01T00:00:00Z</time>
      </trkpt>
      <trkpt lat="43.81946" lon="7.19232">
        <ele>-1</ele>
        <time>1970-01-01T00:00:00Z</time>
      </trkpt>
      <trkpt lat="43.81937" lon="7.19231">
        <ele>-1</ele>
        <time>1970-01-01T00:00:00Z</time>
      </trkpt>
      <trkpt lat="43.81928" lon="7.19231">
        <ele>-1</ele>
        <time>1970-01-01T00:00:00Z</time>
      </trkpt>
      <trkpt lat="43.81917" lon="7.19226">
        <ele>-1</ele>
        <time>1970-01-01T00:00:00Z</time>
      </trkpt>
      <trkpt lat="43.81908" lon="7.19223">
        <ele>-1</ele>
        <time>1970-01-01T00:00:00Z</time>
      </trkpt>
      <trkpt lat="43.81899" lon="7.19216">
        <ele>-1</ele>
        <time>1970-01-01T00:00:00Z</time>
      </trkpt>
      <trkpt lat="43.8189" lon="7.19212">
        <ele>-1</ele>
        <time>1970-01-01T00:00:00Z</time>
      </trkpt>
      <trkpt lat="43.81881" lon="7.19211">
        <ele>-1</ele>
        <time>1970-01-01T00:00:00Z</time>
      </trkpt>
      <trkpt lat="43.81881" lon="7.19223">
        <ele>-1</ele>
        <time>1970-01-01T00:00:00Z</time>
      </trkpt>
      <trkpt lat="43.81882" lon="7.19236">
        <ele>-1</ele>
        <time>1970-01-01T00:00:00Z</time>
      </trkpt>
      <trkpt lat="43.81886" lon="7.19249">
        <ele>-1</ele>
        <time>1970-01-01T00:00:00Z</time>
      </trkpt>
      <trkpt lat="43.81892" lon="7.19262">
        <ele>-1</ele>
        <time>1970-01-01T00:00:00Z</time>
      </trkpt>
      <trkpt lat="43.81892" lon="7.19274">
        <ele>-1</ele>
        <time>1970-01-01T00:00:00Z</time>
      </trkpt>
      <trkpt lat="43.81887" lon="7.19286">
        <ele>-1</ele>
        <time>1970-01-01T00:00:00Z</time>
      </trkpt>
      <trkpt lat="43.81878" lon="7.19288">
        <ele>-1</ele>
        <time>1970-01-01T00:00:00Z</time>
      </trkpt>
      <trkpt lat="43.81869" lon="7.19281">
        <ele>-1</ele>
        <time>1970-01-01T00:00:00Z</time>
      </trkpt>
      <trkpt lat="43.8186" lon="7.19271">
        <ele>-1</ele>
        <time>1970-01-01T00:00:00Z</time>
      </trkpt>
      <trkpt lat="43.81852" lon="7.19264">
        <ele>-1</ele>
        <time>1970-01-01T00:00:00Z</time>
      </trkpt>
      <trkpt lat="43.81843" lon="7.19258">
        <ele>-1</ele>
        <time>1970-01-01T00:00:00Z</time>
      </trkpt>
      <trkpt lat="43.81834" lon="7.19254">
        <ele>-1</ele>
        <time>1970-01-01T00:00:00Z</time>
      </trkpt>
      <trkpt lat="43.81825" lon="7.1925">
        <ele>-1</ele>
        <time>1970-01-01T00:00:00Z</time>
      </trkpt>
      <trkpt lat="43.81816" lon="7.19249">
        <ele>-1</ele>
        <time>1970-01-01T00:00:00Z</time>
      </trkpt>
      <trkpt lat="43.81808" lon="7.19242">
        <ele>-1</ele>
        <time>1970-01-01T00:00:00Z</time>
      </trkpt>
      <trkpt lat="43.81799" lon="7.19241">
        <ele>-1</ele>
        <time>1970-01-01T00:00:00Z</time>
      </trkpt>
      <trkpt lat="43.81792" lon="7.19238">
        <ele>-1</ele>
        <time>1970-01-01T00:00:00Z</time>
      </trkpt>
      <trkpt lat="43.81783" lon="7.19231">
        <ele>-1</ele>
        <time>1970-01-01T00:00:00Z</time>
      </trkpt>
      <trkpt lat="43.81777" lon="7.19227">
        <ele>-1</ele>
        <time>1970-01-01T00:00:00Z</time>
      </trkpt>
      <trkpt lat="43.81768" lon="7.1922">
        <ele>-1</ele>
        <time>1970-01-01T00:00:00Z</time>
      </trkpt>
      <trkpt lat="43.81762" lon="7.19216">
        <ele>-1</ele>
        <time>1970-01-01T00:00:00Z</time>
      </trkpt>
      <trkpt lat="43.81755" lon="7.19213">
        <ele>-1</ele>
        <time>1970-01-01T00:00:00Z</time>
      </trkpt>
      <trkpt lat="43.81746" lon="7.19209">
        <ele>-1</ele>
        <time>1970-01-01T00:00:00Z</time>
      </trkpt>
      <trkpt lat="43.81737" lon="7.19208">
        <ele>-1</ele>
        <time>1970-01-01T00:00:00Z</time>
      </trkpt>
      <trkpt lat="43.81731" lon="7.19204">
        <ele>-1</ele>
        <time>1970-01-01T00:00:00Z</time>
      </trkpt>
      <trkpt lat="43.81722" lon="7.19204">
        <ele>-1</ele>
        <time>1970-01-01T00:00:00Z</time>
      </trkpt>
      <trkpt lat="43.81713" lon="7.19203">
        <ele>-1</ele>
        <time>1970-01-01T00:00:00Z</time>
      </trkpt>
      <trkpt lat="43.81704" lon="7.19202">
        <ele>-1</ele>
        <time>1970-01-01T00:00:00Z</time>
      </trkpt>
      <trkpt lat="43.81695" lon="7.19201">
        <ele>-1</ele>
        <time>1970-01-01T00:00:00Z</time>
      </trkpt>
      <trkpt lat="43.81686" lon="7.19201">
        <ele>-1</ele>
        <time>1970-01-01T00:00:00Z</time>
      </trkpt>
      <trkpt lat="43.81677" lon="7.192">
        <ele>-1</ele>
        <time>1970-01-01T00:00:00Z</time>
      </trkpt>
      <trkpt lat="43.81668" lon="7.19199">
        <ele>-1</ele>
        <time>1970-01-01T00:00:00Z</time>
      </trkpt>
      <trkpt lat="43.81659" lon="7.19198">
        <ele>-1</ele>
        <time>1970-01-01T00:00:00Z</time>
      </trkpt>
      <trkpt lat="43.8165" lon="7.19197">
        <ele>-1</ele>
        <time>1970-01-01T00:00:00Z</time>
      </trkpt>
      <trkpt lat="43.81639" lon="7.19197">
        <ele>-1</ele>
        <time>1970-01-01T00:00:00Z</time>
      </trkpt>
      <trkpt lat="43.81628" lon="7.19192">
        <ele>-1</ele>
        <time>1970-01-01T00:00:00Z</time>
      </trkpt>
      <trkpt lat="43.81619" lon="7.19192">
        <ele>-1</ele>
        <time>1970-01-01T00:00:00Z</time>
      </trkpt>
      <trkpt lat="43.8161" lon="7.19191">
        <ele>-1</ele>
        <time>1970-01-01T00:00:00Z</time>
      </trkpt>
      <trkpt lat="43.81601" lon="7.1919">
        <ele>-1</ele>
        <time>1970-01-01T00:00:00Z</time>
      </trkpt>
      <trkpt lat="43.81592" lon="7.19189">
        <ele>-1</ele>
        <time>1970-01-01T00:00:00Z</time>
      </trkpt>
      <trkpt lat="43.8158" lon="7.19188">
        <ele>-1</ele>
        <time>1970-01-01T00:00:00Z</time>
      </trkpt>
      <trkpt lat="43.81571" lon="7.19188">
        <ele>-1</ele>
        <time>1970-01-01T00:00:00Z</time>
      </trkpt>
      <trkpt lat="43.81563" lon="7.19187">
        <ele>-1</ele>
        <time>1970-01-01T00:00:00Z</time>
      </trkpt>
      <trkpt lat="43.81551" lon="7.19186">
        <ele>-1</ele>
        <time>1970-01-01T00:00:00Z</time>
      </trkpt>
      <trkpt lat="43.81542" lon="7.19191">
        <ele>-1</ele>
        <time>1970-01-01T00:00:00Z</time>
      </trkpt>
      <trkpt lat="43.81531" lon="7.1919">
        <ele>-1</ele>
        <time>1970-01-01T00:00:00Z</time>
      </trkpt>
      <trkpt lat="43.81522" lon="7.1919">
        <ele>-1</ele>
        <time>1970-01-01T00:00:00Z</time>
      </trkpt>
      <trkpt lat="43.81513" lon="7.19192">
        <ele>-1</ele>
        <time>1970-01-01T00:00:00Z</time>
      </trkpt>
      <trkpt lat="43.81503" lon="7.19201">
        <ele>-1</ele>
        <time>1970-01-01T00:00:00Z</time>
      </trkpt>
      <trkpt lat="43.81496" lon="7.19209">
        <ele>-1</ele>
        <time>1970-01-01T00:00:00Z</time>
      </trkpt>
      <trkpt lat="43.81494" lon="7.19218">
        <ele>-1</ele>
        <time>1970-01-01T00:00:00Z</time>
      </trkpt>
      <trkpt lat="43.81487" lon="7.19224">
        <ele>-1</ele>
        <time>1970-01-01T00:00:00Z</time>
      </trkpt>
      <trkpt lat="43.8148" lon="7.19226">
        <ele>-1</ele>
        <time>1970-01-01T00:00:00Z</time>
      </trkpt>
      <trkpt lat="43.81473" lon="7.19229">
        <ele>-1</ele>
        <time>1970-01-01T00:00:00Z</time>
      </trkpt>
      <trkpt lat="43.81466" lon="7.19235">
        <ele>-1</ele>
        <time>1970-01-01T00:00:00Z</time>
      </trkpt>
      <trkpt lat="43.81457" lon="7.1924">
        <ele>-1</ele>
        <time>1970-01-01T00:00:00Z</time>
      </trkpt>
      <trkpt lat="43.8145" lon="7.19246">
        <ele>-1</ele>
        <time>1970-01-01T00:00:00Z</time>
      </trkpt>
      <trkpt lat="43.8144" lon="7.19254">
        <ele>-1</ele>
        <time>1970-01-01T00:00:00Z</time>
      </trkpt>
      <trkpt lat="43.81431" lon="7.1926">
        <ele>-1</ele>
        <time>1970-01-01T00:00:00Z</time>
      </trkpt>
      <trkpt lat="43.81424" lon="7.19262">
        <ele>-1</ele>
        <time>1970-01-01T00:00:00Z</time>
      </trkpt>
      <trkpt lat="43.81417" lon="7.19265">
        <ele>-1</ele>
        <time>1970-01-01T00:00:00Z</time>
      </trkpt>
      <trkpt lat="43.8141" lon="7.19267">
        <ele>-1</ele>
        <time>1970-01-01T00:00:00Z</time>
      </trkpt>
      <trkpt lat="43.81401" lon="7.19273">
        <ele>-1</ele>
        <time>1970-01-01T00:00:00Z</time>
      </trkpt>
      <trkpt lat="43.81392" lon="7.19272">
        <ele>-1</ele>
        <time>1970-01-01T00:00:00Z</time>
      </trkpt>
      <trkpt lat="43.81383" lon="7.19268">
        <ele>-1</ele>
        <time>1970-01-01T00:00:00Z</time>
      </trkpt>
      <trkpt lat="43.81374" lon="7.19264">
        <ele>-1</ele>
        <time>1970-01-01T00:00:00Z</time>
      </trkpt>
      <trkpt lat="43.81365" lon="7.19263">
        <ele>-1</ele>
        <time>1970-01-01T00:00:00Z</time>
      </trkpt>
      <trkpt lat="43.81356" lon="7.19266">
        <ele>-1</ele>
        <time>1970-01-01T00:00:00Z</time>
      </trkpt>
      <trkpt lat="43.81347" lon="7.19268">
        <ele>-1</ele>
        <time>1970-01-01T00:00:00Z</time>
      </trkpt>
      <trkpt lat="43.81336" lon="7.19267">
        <ele>-1</ele>
        <time>1970-01-01T00:00:00Z</time>
      </trkpt>
      <trkpt lat="43.81327" lon="7.19263">
        <ele>-1</ele>
        <time>1970-01-01T00:00:00Z</time>
      </trkpt>
      <trkpt lat="43.81318" lon="7.19256">
        <ele>-1</ele>
        <time>1970-01-01T00:00:00Z</time>
      </trkpt>
      <trkpt lat="43.8131" lon="7.19249">
        <ele>-1</ele>
        <time>1970-01-01T00:00:00Z</time>
      </trkpt>
      <trkpt lat="43.81301" lon="7.19248">
        <ele>-1</ele>
        <time>1970-01-01T00:00:00Z</time>
      </trkpt>
      <trkpt lat="43.81294" lon="7.19245">
        <ele>-1</ele>
        <time>1970-01-01T00:00:00Z</time>
      </trkpt>
      <trkpt lat="43.81285" lon="7.19244">
        <ele>-1</ele>
        <time>1970-01-01T00:00:00Z</time>
      </trkpt>
      <trkpt lat="43.81279" lon="7.1924">
        <ele>-1</ele>
        <time>1970-01-01T00:00:00Z</time>
      </trkpt>
      <trkpt lat="43.81272" lon="7.19237">
        <ele>-1</ele>
        <time>1970-01-01T00:00:00Z</time>
      </trkpt>
      <trkpt lat="43.81263" lon="7.19233">
        <ele>-1</ele>
        <time>1970-01-01T00:00:00Z</time>
      </trkpt>
      <trkpt lat="43.81252" lon="7.19229">
        <ele>-1</ele>
        <time>1970-01-01T00:00:00Z</time>
      </trkpt>
      <trkpt lat="43.81246" lon="7.19225">
        <ele>-1</ele>
        <time>1970-01-01T00:00:00Z</time>
      </trkpt>
      <trkpt lat="43.81237" lon="7.19218">
        <ele>-1</ele>
        <time>1970-01-01T00:00:00Z</time>
      </trkpt>
      <trkpt lat="43.81228" lon="7.19211">
        <ele>-1</ele>
        <time>1970-01-01T00:00:00Z</time>
      </trkpt>
      <trkpt lat="43.81222" lon="7.19201">
        <ele>-1</ele>
        <time>1970-01-01T00:00:00Z</time>
      </trkpt>
      <trkpt lat="43.81215" lon="7.19198">
        <ele>-1</ele>
        <time>1970-01-01T00:00:00Z</time>
      </trkpt>
      <trkpt lat="43.81207" lon="7.19191">
        <ele>-1</ele>
        <time>1970-01-01T00:00:00Z</time>
      </trkpt>
      <trkpt lat="43.81198" lon="7.1919">
        <ele>-1</ele>
        <time>1970-01-01T00:00:00Z</time>
      </trkpt>
      <trkpt lat="43.81189" lon="7.19186">
        <ele>-1</ele>
        <time>1970-01-01T00:00:00Z</time>
      </trkpt>
      <trkpt lat="43.81182" lon="7.19182">
        <ele>-1</ele>
        <time>1970-01-01T00:00:00Z</time>
      </trkpt>
      <trkpt lat="43.81173" lon="7.19182">
        <ele>-1</ele>
        <time>1970-01-01T00:00:00Z</time>
      </trkpt>
      <trkpt lat="43.81164" lon="7.19181">
        <ele>-1</ele>
        <time>1970-01-01T00:00:00Z</time>
      </trkpt>
      <trkpt lat="43.81158" lon="7.19177">
        <ele>-1</ele>
        <time>1970-01-01T00:00:00Z</time>
      </trkpt>
      <trkpt lat="43.81149" lon="7.19176">
        <ele>-1</ele>
        <time>1970-01-01T00:00:00Z</time>
      </trkpt>
      <trkpt lat="43.8114" lon="7.19176">
        <ele>-1</ele>
        <time>1970-01-01T00:00:00Z</time>
      </trkpt>
      <trkpt lat="43.81133" lon="7.19172">
        <ele>-1</ele>
        <time>1970-01-01T00:00:00Z</time>
      </trkpt>
      <trkpt lat="43.81127" lon="7.19168">
        <ele>-1</ele>
        <time>1970-01-01T00:00:00Z</time>
      </trkpt>
      <trkpt lat="43.81118" lon="7.19164">
        <ele>-1</ele>
        <time>1970-01-01T00:00:00Z</time>
      </trkpt>
      <trkpt lat="43.81109" lon="7.19161">
        <ele>-1</ele>
        <time>1970-01-01T00:00:00Z</time>
      </trkpt>
      <trkpt lat="43.811" lon="7.1916">
        <ele>-1</ele>
        <time>1970-01-01T00:00:00Z</time>
      </trkpt>
      <trkpt lat="43.81091" lon="7.19159">
        <ele>-1</ele>
        <time>1970-01-01T00:00:00Z</time>
      </trkpt>
      <trkpt lat="43.81082" lon="7.19158">
        <ele>-1</ele>
        <time>1970-01-01T00:00:00Z</time>
      </trkpt>
      <trkpt lat="43.81046" lon="7.19158">
        <ele>-1</ele>
        <time>1970-01-01T00:00:00Z</time>
      </trkpt>
      <trkpt lat="43.81043" lon="7.19167">
        <ele>-1</ele>
        <time>1970-01-01T00:00:00Z</time>
      </trkpt>
      <trkpt lat="43.8104" lon="7.1918">
        <ele>-1</ele>
        <time>1970-01-01T00:00:00Z</time>
      </trkpt>
      <trkpt lat="43.81038" lon="7.19192">
        <ele>-1</ele>
        <time>1970-01-01T00:00:00Z</time>
      </trkpt>
      <trkpt lat="43.81037" lon="7.19204">
        <ele>-1</ele>
        <time>1970-01-01T00:00:00Z</time>
      </trkpt>
      <trkpt lat="43.81039" lon="7.19217">
        <ele>-1</ele>
        <time>1970-01-01T00:00:00Z</time>
      </trkpt>
      <trkpt lat="43.81038" lon="7.19229">
        <ele>-1</ele>
        <time>1970-01-01T00:00:00Z</time>
      </trkpt>
      <trkpt lat="43.8104" lon="7.19242">
        <ele>-1</ele>
        <time>1970-01-01T00:00:00Z</time>
      </trkpt>
      <trkpt lat="43.81035" lon="7.19254">
        <ele>-1</ele>
        <time>1970-01-01T00:00:00Z</time>
      </trkpt>
      <trkpt lat="43.81032" lon="7.19266">
        <ele>-1</ele>
        <time>1970-01-01T00:00:00Z</time>
      </trkpt>
      <trkpt lat="43.81032" lon="7.19278">
        <ele>-1</ele>
        <time>1970-01-01T00:00:00Z</time>
      </trkpt>
      <trkpt lat="43.81026" lon="7.1929">
        <ele>-1</ele>
        <time>1970-01-01T00:00:00Z</time>
      </trkpt>
      <trkpt lat="43.81022" lon="7.19299">
        <ele>-1</ele>
        <time>1970-01-01T00:00:00Z</time>
      </trkpt>
      <trkpt lat="43.81017" lon="7.19311">
        <ele>-1</ele>
        <time>1970-01-01T00:00:00Z</time>
      </trkpt>
      <trkpt lat="43.81012" lon="7.1932">
        <ele>-1</ele>
        <time>1970-01-01T00:00:00Z</time>
      </trkpt>
      <trkpt lat="43.81011" lon="7.19333">
        <ele>-1</ele>
        <time>1970-01-01T00:00:00Z</time>
      </trkpt>
      <trkpt lat="43.81006" lon="7.19348">
        <ele>-1</ele>
        <time>1970-01-01T00:00:00Z</time>
      </trkpt>
      <trkpt lat="43.81001" lon="7.1936">
        <ele>-1</ele>
        <time>1970-01-01T00:00:00Z</time>
      </trkpt>
      <trkpt lat="43.80996" lon="7.19369">
        <ele>-1</ele>
        <time>1970-01-01T00:00:00Z</time>
      </trkpt>
      <trkpt lat="43.80989" lon="7.19374">
        <ele>-1</ele>
        <time>1970-01-01T00:00:00Z</time>
      </trkpt>
      <trkpt lat="43.80984" lon="7.19383">
        <ele>-1</ele>
        <time>1970-01-01T00:00:00Z</time>
      </trkpt>
      <trkpt lat="43.80981" lon="7.19392">
        <ele>-1</ele>
        <time>1970-01-01T00:00:00Z</time>
      </trkpt>
      <trkpt lat="43.80977" lon="7.19401">
        <ele>-1</ele>
        <time>1970-01-01T00:00:00Z</time>
      </trkpt>
      <trkpt lat="43.80969" lon="7.19407">
        <ele>-1</ele>
        <time>1970-01-01T00:00:00Z</time>
      </trkpt>
      <trkpt lat="43.80965" lon="7.19416">
        <ele>-1</ele>
        <time>1970-01-01T00:00:00Z</time>
      </trkpt>
      <trkpt lat="43.80958" lon="7.19421">
        <ele>-1</ele>
        <time>1970-01-01T00:00:00Z</time>
      </trkpt>
      <trkpt lat="43.80948" lon="7.19427">
        <ele>-1</ele>
        <time>1970-01-01T00:00:00Z</time>
      </trkpt>
      <trkpt lat="43.80943" lon="7.19436">
        <ele>-1</ele>
        <time>1970-01-01T00:00:00Z</time>
      </trkpt>
      <trkpt lat="43.80936" lon="7.19444">
        <ele>-1</ele>
        <time>1970-01-01T00:00:00Z</time>
      </trkpt>
      <trkpt lat="43.80927" lon="7.19453">
        <ele>-1</ele>
        <time>1970-01-01T00:00:00Z</time>
      </trkpt>
      <trkpt lat="43.80918" lon="7.19458">
        <ele>-1</ele>
        <time>1970-01-01T00:00:00Z</time>
      </trkpt>
      <trkpt lat="43.80911" lon="7.19467">
        <ele>-1</ele>
        <time>1970-01-01T00:00:00Z</time>
      </trkpt>
      <trkpt lat="43.80903" lon="7.19476">
        <ele>-1</ele>
        <time>1970-01-01T00:00:00Z</time>
      </trkpt>
      <trkpt lat="43.80896" lon="7.19481">
        <ele>-1</ele>
        <time>1970-01-01T00:00:00Z</time>
      </trkpt>
      <trkpt lat="43.80891" lon="7.1949">
        <ele>-1</ele>
        <time>1970-01-01T00:00:00Z</time>
      </trkpt>
      <trkpt lat="43.80884" lon="7.19496">
        <ele>-1</ele>
        <time>1970-01-01T00:00:00Z</time>
      </trkpt>
      <trkpt lat="43.80877" lon="7.19505">
        <ele>-1</ele>
        <time>1970-01-01T00:00:00Z</time>
      </trkpt>
      <trkpt lat="43.8087" lon="7.19516">
        <ele>-1</ele>
        <time>1970-01-01T00:00:00Z</time>
      </trkpt>
      <trkpt lat="43.80863" lon="7.19522">
        <ele>-1</ele>
        <time>1970-01-01T00:00:00Z</time>
      </trkpt>
      <trkpt lat="43.80856" lon="7.19531">
        <ele>-1</ele>
        <time>1970-01-01T00:00:00Z</time>
      </trkpt>
      <trkpt lat="43.80849" lon="7.19539">
        <ele>-1</ele>
        <time>1970-01-01T00:00:00Z</time>
      </trkpt>
      <trkpt lat="43.80842" lon="7.19542">
        <ele>-1</ele>
        <time>1970-01-01T00:00:00Z</time>
      </trkpt>
      <trkpt lat="43.80835" lon="7.19551">
        <ele>-1</ele>
        <time>1970-01-01T00:00:00Z</time>
      </trkpt>
      <trkpt lat="43.80828" lon="7.19559">
        <ele>-1</ele>
        <time>1970-01-01T00:00:00Z</time>
      </trkpt>
      <trkpt lat="43.8082" lon="7.19568">
        <ele>-1</ele>
        <time>1970-01-01T00:00:00Z</time>
      </trkpt>
      <trkpt lat="43.80813" lon="7.19577">
        <ele>-1</ele>
        <time>1970-01-01T00:00:00Z</time>
      </trkpt>
      <trkpt lat="43.80804" lon="7.19585">
        <ele>-1</ele>
        <time>1970-01-01T00:00:00Z</time>
      </trkpt>
      <trkpt lat="43.80797" lon="7.19591">
        <ele>-1</ele>
        <time>1970-01-01T00:00:00Z</time>
      </trkpt>
      <trkpt lat="43.8079" lon="7.19597">
        <ele>-1</ele>
        <time>1970-01-01T00:00:00Z</time>
      </trkpt>
      <trkpt lat="43.80785" lon="7.19605">
        <ele>-1</ele>
        <time>1970-01-01T00:00:00Z</time>
      </trkpt>
      <trkpt lat="43.80778" lon="7.19611">
        <ele>-1</ele>
        <time>1970-01-01T00:00:00Z</time>
      </trkpt>
      <trkpt lat="43.80771" lon="7.19617">
        <ele>-1</ele>
        <time>1970-01-01T00:00:00Z</time>
      </trkpt>
      <trkpt lat="43.80766" lon="7.19626">
        <ele>-1</ele>
        <time>1970-01-01T00:00:00Z</time>
      </trkpt>
      <trkpt lat="43.80759" lon="7.19634">
        <ele>-1</ele>
        <time>1970-01-01T00:00:00Z</time>
      </trkpt>
      <trkpt lat="43.80752" lon="7.1964">
        <ele>-1</ele>
        <time>1970-01-01T00:00:00Z</time>
      </trkpt>
      <trkpt lat="43.80742" lon="7.19652">
        <ele>-1</ele>
        <time>1970-01-01T00:00:00Z</time>
      </trkpt>
      <trkpt lat="43.80735" lon="7.19657">
        <ele>-1</ele>
        <time>1970-01-01T00:00:00Z</time>
      </trkpt>
      <trkpt lat="43.8073" lon="7.19666">
        <ele>-1</ele>
        <time>1970-01-01T00:00:00Z</time>
      </trkpt>
      <trkpt lat="43.80723" lon="7.19675">
        <ele>-1</ele>
        <time>1970-01-01T00:00:00Z</time>
      </trkpt>
      <trkpt lat="43.80714" lon="7.1968">
        <ele>-1</ele>
        <time>1970-01-01T00:00:00Z</time>
      </trkpt>
      <trkpt lat="43.80707" lon="7.19689">
        <ele>-1</ele>
        <time>1970-01-01T00:00:00Z</time>
      </trkpt>
      <trkpt lat="43.807" lon="7.19695">
        <ele>-1</ele>
        <time>1970-01-01T00:00:00Z</time>
      </trkpt>
      <trkpt lat="43.80693" lon="7.197">
        <ele>-1</ele>
        <time>1970-01-01T00:00:00Z</time>
      </trkpt>
      <trkpt lat="43.80686" lon="7.19709">
        <ele>-1</ele>
        <time>1970-01-01T00:00:00Z</time>
      </trkpt>
      <trkpt lat="43.80679" lon="7.19714">
        <ele>-1</ele>
        <time>1970-01-01T00:00:00Z</time>
      </trkpt>
      <trkpt lat="43.80672" lon="7.19723">
        <ele>-1</ele>
        <time>1970-01-01T00:00:00Z</time>
      </trkpt>
      <trkpt lat="43.80665" lon="7.19729">
        <ele>-1</ele>
        <time>1970-01-01T00:00:00Z</time>
      </trkpt>
      <trkpt lat="43.80658" lon="7.19734">
        <ele>-1</ele>
        <time>1970-01-01T00:00:00Z</time>
      </trkpt>
      <trkpt lat="43.80653" lon="7.19743">
        <ele>-1</ele>
        <time>1970-01-01T00:00:00Z</time>
      </trkpt>
      <trkpt lat="43.80646" lon="7.19746">
        <ele>-1</ele>
        <time>1970-01-01T00:00:00Z</time>
      </trkpt>
      <trkpt lat="43.80639" lon="7.19748">
        <ele>-1</ele>
        <time>1970-01-01T00:00:00Z</time>
      </trkpt>
      <trkpt lat="43.8063" lon="7.19748">
        <ele>-1</ele>
        <time>1970-01-01T00:00:00Z</time>
      </trkpt>
      <trkpt lat="43.80619" lon="7.19747">
        <ele>-1</ele>
        <time>1970-01-01T00:00:00Z</time>
      </trkpt>
      <trkpt lat="43.8061" lon="7.19746">
        <ele>-1</ele>
        <time>1970-01-01T00:00:00Z</time>
      </trkpt>
      <trkpt lat="43.80601" lon="7.19745">
        <ele>-1</ele>
        <time>1970-01-01T00:00:00Z</time>
      </trkpt>
      <trkpt lat="43.80592" lon="7.19744">
        <ele>-1</ele>
        <time>1970-01-01T00:00:00Z</time>
      </trkpt>
      <trkpt lat="43.80581" lon="7.19743">
        <ele>-1</ele>
        <time>1970-01-01T00:00:00Z</time>
      </trkpt>
      <trkpt lat="43.80572" lon="7.1974">
        <ele>-1</ele>
        <time>1970-01-01T00:00:00Z</time>
      </trkpt>
      <trkpt lat="43.80563" lon="7.19733">
        <ele>-1</ele>
        <time>1970-01-01T00:00:00Z</time>
      </trkpt>
      <trkpt lat="43.80552" lon="7.19729">
        <ele>-1</ele>
        <time>1970-01-01T00:00:00Z</time>
      </trkpt>
      <trkpt lat="43.80546" lon="7.19716">
        <ele>-1</ele>
        <time>1970-01-01T00:00:00Z</time>
      </trkpt>
      <trkpt lat="43.80535" lon="7.19715">
        <ele>-1</ele>
        <time>1970-01-01T00:00:00Z</time>
      </trkpt>
      <trkpt lat="43.80528" lon="7.1972">
        <ele>-1</ele>
        <time>1970-01-01T00:00:00Z</time>
      </trkpt>
      <trkpt lat="43.80525" lon="7.19729">
        <ele>-1</ele>
        <time>1970-01-01T00:00:00Z</time>
      </trkpt>
      <trkpt lat="43.80522" lon="7.19738">
        <ele>-1</ele>
        <time>1970-01-01T00:00:00Z</time>
      </trkpt>
      <trkpt lat="43.80515" lon="7.19747">
        <ele>-1</ele>
        <time>1970-01-01T00:00:00Z</time>
      </trkpt>
      <trkpt lat="43.80508" lon="7.19762">
        <ele>-1</ele>
        <time>1970-01-01T00:00:00Z</time>
      </trkpt>
      <trkpt lat="43.805" lon="7.19774">
        <ele>-1</ele>
        <time>1970-01-01T00:00:00Z</time>
      </trkpt>
      <trkpt lat="43.80491" lon="7.19776">
        <ele>-1</ele>
        <time>1970-01-01T00:00:00Z</time>
      </trkpt>
      <trkpt lat="43.80484" lon="7.19782">
        <ele>-1</ele>
        <time>1970-01-01T00:00:00Z</time>
      </trkpt>
      <trkpt lat="43.80475" lon="7.1979">
        <ele>-1</ele>
        <time>1970-01-01T00:00:00Z</time>
      </trkpt>
      <trkpt lat="43.80466" lon="7.19793">
        <ele>-1</ele>
        <time>1970-01-01T00:00:00Z</time>
      </trkpt>
      <trkpt lat="43.80459" lon="7.19798">
        <ele>-1</ele>
        <time>1970-01-01T00:00:00Z</time>
      </trkpt>
      <trkpt lat="43.8045" lon="7.19804">
        <ele>-1</ele>
        <time>1970-01-01T00:00:00Z</time>
      </trkpt>
      <trkpt lat="43.80442" lon="7.19815">
        <ele>-1</ele>
        <time>1970-01-01T00:00:00Z</time>
      </trkpt>
      <trkpt lat="43.80437" lon="7.19824">
        <ele>-1</ele>
        <time>1970-01-01T00:00:00Z</time>
      </trkpt>
      <trkpt lat="43.80435" lon="7.19833">
        <ele>-1</ele>
        <time>1970-01-01T00:00:00Z</time>
      </trkpt>
      <trkpt lat="43.8043" lon="7.19842">
        <ele>-1</ele>
        <time>1970-01-01T00:00:00Z</time>
      </trkpt>
      <trkpt lat="43.80423" lon="7.19851">
        <ele>-1</ele>
        <time>1970-01-01T00:00:00Z</time>
      </trkpt>
      <trkpt lat="43.80416" lon="7.19857">
        <ele>-1</ele>
        <time>1970-01-01T00:00:00Z</time>
      </trkpt>
      <trkpt lat="43.80408" lon="7.19869">
        <ele>-1</ele>
        <time>1970-01-01T00:00:00Z</time>
      </trkpt>
      <trkpt lat="43.80401" lon="7.19874">
        <ele>-1</ele>
        <time>1970-01-01T00:00:00Z</time>
      </trkpt>
      <trkpt lat="43.80394" lon="7.1988">
        <ele>-1</ele>
        <time>1970-01-01T00:00:00Z</time>
      </trkpt>
      <trkpt lat="43.80387" lon="7.19888">
        <ele>-1</ele>
        <time>1970-01-01T00:00:00Z</time>
      </trkpt>
      <trkpt lat="43.80378" lon="7.199">
        <ele>-1</ele>
        <time>1970-01-01T00:00:00Z</time>
      </trkpt>
      <trkpt lat="43.80371" lon="7.19906">
        <ele>-1</ele>
        <time>1970-01-01T00:00:00Z</time>
      </trkpt>
      <trkpt lat="43.80364" lon="7.19914">
        <ele>-1</ele>
        <time>1970-01-01T00:00:00Z</time>
      </trkpt>
      <trkpt lat="43.80359" lon="7.19923">
        <ele>-1</ele>
        <time>1970-01-01T00:00:00Z</time>
      </trkpt>
      <trkpt lat="43.80352" lon="7.19929">
        <ele>-1</ele>
        <time>1970-01-01T00:00:00Z</time>
      </trkpt>
      <trkpt lat="43.80347" lon="7.19938">
        <ele>-1</ele>
        <time>1970-01-01T00:00:00Z</time>
      </trkpt>
      <trkpt lat="43.80339" lon="7.1995">
        <ele>-1</ele>
        <time>1970-01-01T00:00:00Z</time>
      </trkpt>
      <trkpt lat="43.80348" lon="7.19957">
        <ele>-1</ele>
        <time>1970-01-01T00:00:00Z</time>
      </trkpt>
      <trkpt lat="43.80352" lon="7.19966">
        <ele>-1</ele>
        <time>1970-01-01T00:00:00Z</time>
      </trkpt>
      <trkpt lat="43.80358" lon="7.19979">
        <ele>-1</ele>
        <time>1970-01-01T00:00:00Z</time>
      </trkpt>
      <trkpt lat="43.80362" lon="7.19989">
        <ele>-1</ele>
        <time>1970-01-01T00:00:00Z</time>
      </trkpt>
      <trkpt lat="43.80364" lon="7.19998">
        <ele>-1</ele>
        <time>1970-01-01T00:00:00Z</time>
      </trkpt>
      <trkpt lat="43.80371" lon="7.20008">
        <ele>-1</ele>
        <time>1970-01-01T00:00:00Z</time>
      </trkpt>
      <trkpt lat="43.80372" lon="7.20021">
        <ele>-1</ele>
        <time>1970-01-01T00:00:00Z</time>
      </trkpt>
      <trkpt lat="43.80374" lon="7.20033">
        <ele>-1</ele>
        <time>1970-01-01T00:00:00Z</time>
      </trkpt>
      <trkpt lat="43.80371" lon="7.20046">
        <ele>-1</ele>
        <time>1970-01-01T00:00:00Z</time>
      </trkpt>
      <trkpt lat="43.80364" lon="7.20054">
        <ele>-1</ele>
        <time>1970-01-01T00:00:00Z</time>
      </trkpt>
      <trkpt lat="43.80359" lon="7.20063">
        <ele>-1</ele>
        <time>1970-01-01T00:00:00Z</time>
      </trkpt>
      <trkpt lat="43.80356" lon="7.20072">
        <ele>-1</ele>
        <time>1970-01-01T00:00:00Z</time>
      </trkpt>
      <trkpt lat="43.80349" lon="7.20084">
        <ele>-1</ele>
        <time>1970-01-01T00:00:00Z</time>
      </trkpt>
      <trkpt lat="43.80342" lon="7.20093">
        <ele>-1</ele>
        <time>1970-01-01T00:00:00Z</time>
      </trkpt>
      <trkpt lat="43.80335" lon="7.20102">
        <ele>-1</ele>
        <time>1970-01-01T00:00:00Z</time>
      </trkpt>
      <trkpt lat="43.80328" lon="7.20107">
        <ele>-1</ele>
        <time>1970-01-01T00:00:00Z</time>
      </trkpt>
      <trkpt lat="43.80323" lon="7.20116">
        <ele>-1</ele>
        <time>1970-01-01T00:00:00Z</time>
      </trkpt>
      <trkpt lat="43.80322" lon="7.20128">
        <ele>-1</ele>
        <time>1970-01-01T00:00:00Z</time>
      </trkpt>
      <trkpt lat="43.8032" lon="7.20138">
        <ele>-1</ele>
        <time>1970-01-01T00:00:00Z</time>
      </trkpt>
      <trkpt lat="43.80319" lon="7.2015">
        <ele>-1</ele>
        <time>1970-01-01T00:00:00Z</time>
      </trkpt>
      <trkpt lat="43.80316" lon="7.20162">
        <ele>-1</ele>
        <time>1970-01-01T00:00:00Z</time>
      </trkpt>
      <trkpt lat="43.80314" lon="7.20174">
        <ele>-1</ele>
        <time>1970-01-01T00:00:00Z</time>
      </trkpt>
      <trkpt lat="43.80306" lon="7.20186">
        <ele>-1</ele>
        <time>1970-01-01T00:00:00Z</time>
      </trkpt>
      <trkpt lat="43.80301" lon="7.20195">
        <ele>-1</ele>
        <time>1970-01-01T00:00:00Z</time>
      </trkpt>
      <trkpt lat="43.80297" lon="7.20204">
        <ele>-1</ele>
        <time>1970-01-01T00:00:00Z</time>
      </trkpt>
      <trkpt lat="43.80292" lon="7.20213">
        <ele>-1</ele>
        <time>1970-01-01T00:00:00Z</time>
      </trkpt>
      <trkpt lat="43.80287" lon="7.20225">
        <ele>-1</ele>
        <time>1970-01-01T00:00:00Z</time>
      </trkpt>
      <trkpt lat="43.80284" lon="7.20234">
        <ele>-1</ele>
        <time>1970-01-01T00:00:00Z</time>
      </trkpt>
      <trkpt lat="43.80277" lon="7.20243">
        <ele>-1</ele>
        <time>1970-01-01T00:00:00Z</time>
      </trkpt>
      <trkpt lat="43.80268" lon="7.20242">
        <ele>-1</ele>
        <time>1970-01-01T00:00:00Z</time>
      </trkpt>
      <trkpt lat="43.80259" lon="7.20241">
        <ele>-1</ele>
        <time>1970-01-01T00:00:00Z</time>
      </trkpt>
      <trkpt lat="43.80252" lon="7.20237">
        <ele>-1</ele>
        <time>1970-01-01T00:00:00Z</time>
      </trkpt>
      <trkpt lat="43.80243" lon="7.20237">
        <ele>-1</ele>
        <time>1970-01-01T00:00:00Z</time>
      </trkpt>
      <trkpt lat="43.80234" lon="7.20233">
        <ele>-1</ele>
        <time>1970-01-01T00:00:00Z</time>
      </trkpt>
      <trkpt lat="43.80226" lon="7.20229">
        <ele>-1</ele>
        <time>1970-01-01T00:00:00Z</time>
      </trkpt>
      <trkpt lat="43.80214" lon="7.20228">
        <ele>-1</ele>
        <time>1970-01-01T00:00:00Z</time>
      </trkpt>
      <trkpt lat="43.80205" lon="7.20227">
        <ele>-1</ele>
        <time>1970-01-01T00:00:00Z</time>
      </trkpt>
      <trkpt lat="43.80196" lon="7.20226">
        <ele>-1</ele>
        <time>1970-01-01T00:00:00Z</time>
      </trkpt>
      <trkpt lat="43.80187" lon="7.20226">
        <ele>-1</ele>
        <time>1970-01-01T00:00:00Z</time>
      </trkpt>
      <trkpt lat="43.80179" lon="7.20225">
        <ele>-1</ele>
        <time>1970-01-01T00:00:00Z</time>
      </trkpt>
      <trkpt lat="43.8017" lon="7.20224">
        <ele>-1</ele>
        <time>1970-01-01T00:00:00Z</time>
      </trkpt>
      <trkpt lat="43.80158" lon="7.20223">
        <ele>-1</ele>
        <time>1970-01-01T00:00:00Z</time>
      </trkpt>
      <trkpt lat="43.80149" lon="7.20229">
        <ele>-1</ele>
        <time>1970-01-01T00:00:00Z</time>
      </trkpt>
      <trkpt lat="43.80142" lon="7.20237">
        <ele>-1</ele>
        <time>1970-01-01T00:00:00Z</time>
      </trkpt>
      <trkpt lat="43.80139" lon="7.2025">
        <ele>-1</ele>
        <time>1970-01-01T00:00:00Z</time>
      </trkpt>
      <trkpt lat="43.80136" lon="7.20259">
        <ele>-1</ele>
        <time>1970-01-01T00:00:00Z</time>
      </trkpt>
      <trkpt lat="43.80132" lon="7.20268">
        <ele>-1</ele>
        <time>1970-01-01T00:00:00Z</time>
      </trkpt>
      <trkpt lat="43.80131" lon="7.2028">
        <ele>-1</ele>
        <time>1970-01-01T00:00:00Z</time>
      </trkpt>
      <trkpt lat="43.8014" lon="7.20281">
        <ele>-1</ele>
        <time>1970-01-01T00:00:00Z</time>
      </trkpt>
      <trkpt lat="43.80149" lon="7.20281">
        <ele>-1</ele>
        <time>1970-01-01T00:00:00Z</time>
      </trkpt>
      <trkpt lat="43.80158" lon="7.20282">
        <ele>-1</ele>
        <time>1970-01-01T00:00:00Z</time>
      </trkpt>
      <trkpt lat="43.80167" lon="7.20283">
        <ele>-1</ele>
        <time>1970-01-01T00:00:00Z</time>
      </trkpt>
      <trkpt lat="43.80178" lon="7.20284">
        <ele>-1</ele>
        <time>1970-01-01T00:00:00Z</time>
      </trkpt>
      <trkpt lat="43.80187" lon="7.20285">
        <ele>-1</ele>
        <time>1970-01-01T00:00:00Z</time>
      </trkpt>
      <trkpt lat="43.80196" lon="7.20286">
        <ele>-1</ele>
        <time>1970-01-01T00:00:00Z</time>
      </trkpt>
      <trkpt lat="43.80205" lon="7.20292">
        <ele>-1</ele>
        <time>1970-01-01T00:00:00Z</time>
      </trkpt>
      <trkpt lat="43.802" lon="7.20304">
        <ele>-1</ele>
        <time>1970-01-01T00:00:00Z</time>
      </trkpt>
      <trkpt lat="43.80195" lon="7.20313">
        <ele>-1</ele>
        <time>1970-01-01T00:00:00Z</time>
      </trkpt>
      <trkpt lat="43.8019" lon="7.20325">
        <ele>-1</ele>
        <time>1970-01-01T00:00:00Z</time>
      </trkpt>
      <trkpt lat="43.80187" lon="7.20334">
        <ele>-1</ele>
        <time>1970-01-01T00:00:00Z</time>
      </trkpt>
      <trkpt lat="43.8018" lon="7.20343">
        <ele>-1</ele>
        <time>1970-01-01T00:00:00Z</time>
      </trkpt>
      <trkpt lat="43.80173" lon="7.20355">
        <ele>-1</ele>
        <time>1970-01-01T00:00:00Z</time>
      </trkpt>
      <trkpt lat="43.80163" lon="7.2036">
        <ele>-1</ele>
        <time>1970-01-01T00:00:00Z</time>
      </trkpt>
      <trkpt lat="43.80159" lon="7.20369">
        <ele>-1</ele>
        <time>1970-01-01T00:00:00Z</time>
      </trkpt>
      <trkpt lat="43.80154" lon="7.20378">
        <ele>-1</ele>
        <time>1970-01-01T00:00:00Z</time>
      </trkpt>
      <trkpt lat="43.80151" lon="7.20387">
        <ele>-1</ele>
        <time>1970-01-01T00:00:00Z</time>
      </trkpt>
      <trkpt lat="43.80144" lon="7.20396">
        <ele>-1</ele>
        <time>1970-01-01T00:00:00Z</time>
      </trkpt>
      <trkpt lat="43.80139" lon="7.20408">
        <ele>-1</ele>
        <time>1970-01-01T00:00:00Z</time>
      </trkpt>
      <trkpt lat="43.80134" lon="7.2042">
        <ele>-1</ele>
        <time>1970-01-01T00:00:00Z</time>
      </trkpt>
      <trkpt lat="43.80124" lon="7.20432">
        <ele>-1</ele>
        <time>1970-01-01T00:00:00Z</time>
      </trkpt>
      <trkpt lat="43.80117" lon="7.2044">
        <ele>-1</ele>
        <time>1970-01-01T00:00:00Z</time>
      </trkpt>
      <trkpt lat="43.80114" lon="7.20449">
        <ele>-1</ele>
        <time>1970-01-01T00:00:00Z</time>
      </trkpt>
      <trkpt lat="43.80107" lon="7.20461">
        <ele>-1</ele>
        <time>1970-01-01T00:00:00Z</time>
      </trkpt>
      <trkpt lat="43.80104" lon="7.20473">
        <ele>-1</ele>
        <time>1970-01-01T00:00:00Z</time>
      </trkpt>
      <trkpt lat="43.80104" lon="7.20486">
        <ele>-1</ele>
        <time>1970-01-01T00:00:00Z</time>
      </trkpt>
      <trkpt lat="43.8011" lon="7.20499">
        <ele>-1</ele>
        <time>1970-01-01T00:00:00Z</time>
      </trkpt>
      <trkpt lat="43.80119" lon="7.20496">
        <ele>-1</ele>
        <time>1970-01-01T00:00:00Z</time>
      </trkpt>
      <trkpt lat="43.80124" lon="7.20488">
        <ele>-1</ele>
        <time>1970-01-01T00:00:00Z</time>
      </trkpt>
      <trkpt lat="43.80129" lon="7.20479">
        <ele>-1</ele>
        <time>1970-01-01T00:00:00Z</time>
      </trkpt>
      <trkpt lat="43.80134" lon="7.2047">
        <ele>-1</ele>
        <time>1970-01-01T00:00:00Z</time>
      </trkpt>
      <trkpt lat="43.80136" lon="7.20461">
        <ele>-1</ele>
        <time>1970-01-01T00:00:00Z</time>
      </trkpt>
      <trkpt lat="43.80141" lon="7.20452">
        <ele>-1</ele>
        <time>1970-01-01T00:00:00Z</time>
      </trkpt>
      <trkpt lat="43.80149" lon="7.2044">
        <ele>-1</ele>
        <time>1970-01-01T00:00:00Z</time>
      </trkpt>
      <trkpt lat="43.80154" lon="7.20428">
        <ele>-1</ele>
        <time>1970-01-01T00:00:00Z</time>
      </trkpt>
      <trkpt lat="43.80159" lon="7.20419">
        <ele>-1</ele>
        <time>1970-01-01T00:00:00Z</time>
      </trkpt>
      <trkpt lat="43.80168" lon="7.20411">
        <ele>-1</ele>
        <time>1970-01-01T00:00:00Z</time>
      </trkpt>
      <trkpt lat="43.80175" lon="7.20399">
        <ele>-1</ele>
        <time>1970-01-01T00:00:00Z</time>
      </trkpt>
      <trkpt lat="43.80182" lon="7.20393">
        <ele>-1</ele>
        <time>1970-01-01T00:00:00Z</time>
      </trkpt>
      <trkpt lat="43.80189" lon="7.20391">
        <ele>-1</ele>
        <time>1970-01-01T00:00:00Z</time>
      </trkpt>
      <trkpt lat="43.80198" lon="7.20385">
        <ele>-1</ele>
        <time>1970-01-01T00:00:00Z</time>
      </trkpt>
      <trkpt lat="43.80207" lon="7.20383">
        <ele>-1</ele>
        <time>1970-01-01T00:00:00Z</time>
      </trkpt>
      <trkpt lat="43.80216" lon="7.20384">
        <ele>-1</ele>
        <time>1970-01-01T00:00:00Z</time>
      </trkpt>
      <trkpt lat="43.80223" lon="7.20387">
        <ele>-1</ele>
        <time>1970-01-01T00:00:00Z</time>
      </trkpt>
      <trkpt lat="43.80232" lon="7.20397">
        <ele>-1</ele>
        <time>1970-01-01T00:00:00Z</time>
      </trkpt>
      <trkpt lat="43.8024" lon="7.20407">
        <ele>-1</ele>
        <time>1970-01-01T00:00:00Z</time>
      </trkpt>
      <trkpt lat="43.80249" lon="7.20411">
        <ele>-1</ele>
        <time>1970-01-01T00:00:00Z</time>
      </trkpt>
      <trkpt lat="43.80258" lon="7.20412">
        <ele>-1</ele>
        <time>1970-01-01T00:00:00Z</time>
      </trkpt>
      <trkpt lat="43.80269" lon="7.20413">
        <ele>-1</ele>
        <time>1970-01-01T00:00:00Z</time>
      </trkpt>
      <trkpt lat="43.80278" lon="7.20414">
        <ele>-1</ele>
        <time>1970-01-01T00:00:00Z</time>
      </trkpt>
      <trkpt lat="43.80287" lon="7.20415">
        <ele>-1</ele>
        <time>1970-01-01T00:00:00Z</time>
      </trkpt>
      <trkpt lat="43.80298" lon="7.20415">
        <ele>-1</ele>
        <time>1970-01-01T00:00:00Z</time>
      </trkpt>
      <trkpt lat="43.80307" lon="7.20416">
        <ele>-1</ele>
        <time>1970-01-01T00:00:00Z</time>
      </trkpt>
      <trkpt lat="43.80316" lon="7.20417">
        <ele>-1</ele>
        <time>1970-01-01T00:00:00Z</time>
      </trkpt>
      <trkpt lat="43.80325" lon="7.20418">
        <ele>-1</ele>
        <time>1970-01-01T00:00:00Z</time>
      </trkpt>
      <trkpt lat="43.80332" lon="7.20421">
        <ele>-1</ele>
        <time>1970-01-01T00:00:00Z</time>
      </trkpt>
      <trkpt lat="43.80341" lon="7.20425">
        <ele>-1</ele>
        <time>1970-01-01T00:00:00Z</time>
      </trkpt>
      <trkpt lat="43.80349" lon="7.20429">
        <ele>-1</ele>
        <time>1970-01-01T00:00:00Z</time>
      </trkpt>
      <trkpt lat="43.80356" lon="7.20436">
        <ele>-1</ele>
        <time>1970-01-01T00:00:00Z</time>
      </trkpt>
      <trkpt lat="43.80363" lon="7.2044">
        <ele>-1</ele>
        <time>1970-01-01T00:00:00Z</time>
      </trkpt>
      <trkpt lat="43.80371" lon="7.20447">
        <ele>-1</ele>
        <time>1970-01-01T00:00:00Z</time>
      </trkpt>
      <trkpt lat="43.8038" lon="7.20454">
        <ele>-1</ele>
        <time>1970-01-01T00:00:00Z</time>
      </trkpt>
      <trkpt lat="43.80389" lon="7.20457">
        <ele>-1</ele>
        <time>1970-01-01T00:00:00Z</time>
      </trkpt>
      <trkpt lat="43.804" lon="7.20458">
        <ele>-1</ele>
        <time>1970-01-01T00:00:00Z</time>
      </trkpt>
      <trkpt lat="43.80409" lon="7.20459">
        <ele>-1</ele>
        <time>1970-01-01T00:00:00Z</time>
      </trkpt>
      <trkpt lat="43.80418" lon="7.20463">
        <ele>-1</ele>
        <time>1970-01-01T00:00:00Z</time>
      </trkpt>
      <trkpt lat="43.80427" lon="7.20464">
        <ele>-1</ele>
        <time>1970-01-01T00:00:00Z</time>
      </trkpt>
      <trkpt lat="43.80433" lon="7.20467">
        <ele>-1</ele>
        <time>1970-01-01T00:00:00Z</time>
      </trkpt>
      <trkpt lat="43.80442" lon="7.20474">
        <ele>-1</ele>
        <time>1970-01-01T00:00:00Z</time>
      </trkpt>
      <trkpt lat="43.80451" lon="7.20481">
        <ele>-1</ele>
        <time>1970-01-01T00:00:00Z</time>
      </trkpt>
      <trkpt lat="43.8046" lon="7.20482">
        <ele>-1</ele>
        <time>1970-01-01T00:00:00Z</time>
      </trkpt>
      <trkpt lat="43.80469" lon="7.2048">
        <ele>-1</ele>
        <time>1970-01-01T00:00:00Z</time>
      </trkpt>
      <trkpt lat="43.8048" lon="7.20481">
        <ele>-1</ele>
        <time>1970-01-01T00:00:00Z</time>
      </trkpt>
      <trkpt lat="43.80489" lon="7.20475">
        <ele>-1</ele>
        <time>1970-01-01T00:00:00Z</time>
      </trkpt>
      <trkpt lat="43.80498" lon="7.20476">
        <ele>-1</ele>
        <time>1970-01-01T00:00:00Z</time>
      </trkpt>
      <trkpt lat="43.80507" lon="7.20477">
        <ele>-1</ele>
        <time>1970-01-01T00:00:00Z</time>
      </trkpt>
      <trkpt lat="43.80514" lon="7.20474">
        <ele>-1</ele>
        <time>1970-01-01T00:00:00Z</time>
      </trkpt>
      <trkpt lat="43.80521" lon="7.20472">
        <ele>-1</ele>
        <time>1970-01-01T00:00:00Z</time>
      </trkpt>
      <trkpt lat="43.8053" lon="7.20473">
        <ele>-1</ele>
        <time>1970-01-01T00:00:00Z</time>
      </trkpt>
      <trkpt lat="43.80537" lon="7.20467">
        <ele>-1</ele>
        <time>1970-01-01T00:00:00Z</time>
      </trkpt>
      <trkpt lat="43.80544" lon="7.20464">
        <ele>-1</ele>
        <time>1970-01-01T00:00:00Z</time>
      </trkpt>
      <trkpt lat="43.80551" lon="7.20462">
        <ele>-1</ele>
        <time>1970-01-01T00:00:00Z</time>
      </trkpt>
      <trkpt lat="43.8056" lon="7.2046">
        <ele>-1</ele>
        <time>1970-01-01T00:00:00Z</time>
      </trkpt>
      <trkpt lat="43.80569" lon="7.2046">
        <ele>-1</ele>
        <time>1970-01-01T00:00:00Z</time>
      </trkpt>
      <trkpt lat="43.80575" lon="7.20467">
        <ele>-1</ele>
        <time>1970-01-01T00:00:00Z</time>
      </trkpt>
      <trkpt lat="43.80582" lon="7.20474">
        <ele>-1</ele>
        <time>1970-01-01T00:00:00Z</time>
      </trkpt>
      <trkpt lat="43.80583" lon="7.20483">
        <ele>-1</ele>
        <time>1970-01-01T00:00:00Z</time>
      </trkpt>
      <trkpt lat="43.80588" lon="7.20493">
        <ele>-1</ele>
        <time>1970-01-01T00:00:00Z</time>
      </trkpt>
      <trkpt lat="43.80587" lon="7.20505">
        <ele>-1</ele>
        <time>1970-01-01T00:00:00Z</time>
      </trkpt>
      <trkpt lat="43.80591" lon="7.20518">
        <ele>-1</ele>
        <time>1970-01-01T00:00:00Z</time>
      </trkpt>
      <trkpt lat="43.80602" lon="7.20528">
        <ele>-1</ele>
        <time>1970-01-01T00:00:00Z</time>
      </trkpt>
      <trkpt lat="43.80611" lon="7.20532">
        <ele>-1</ele>
        <time>1970-01-01T00:00:00Z</time>
      </trkpt>
      <trkpt lat="43.8062" lon="7.20533">
        <ele>-1</ele>
        <time>1970-01-01T00:00:00Z</time>
      </trkpt>
      <trkpt lat="43.80626" lon="7.20546">
        <ele>-1</ele>
        <time>1970-01-01T00:00:00Z</time>
      </trkpt>
      <trkpt lat="43.80627" lon="7.20559">
        <ele>-1</ele>
        <time>1970-01-01T00:00:00Z</time>
      </trkpt>
      <trkpt lat="43.80631" lon="7.20571">
        <ele>-1</ele>
        <time>1970-01-01T00:00:00Z</time>
      </trkpt>
      <trkpt lat="43.8064" lon="7.20581">
        <ele>-1</ele>
        <time>1970-01-01T00:00:00Z</time>
      </trkpt>
      <trkpt lat="43.80642" lon="7.20591">
        <ele>-1</ele>
        <time>1970-01-01T00:00:00Z</time>
      </trkpt>
      <trkpt lat="43.80648" lon="7.20601">
        <ele>-1</ele>
        <time>1970-01-01T00:00:00Z</time>
      </trkpt>
      <trkpt lat="43.80654" lon="7.20611">
        <ele>-1</ele>
        <time>1970-01-01T00:00:00Z</time>
      </trkpt>
      <trkpt lat="43.80661" lon="7.20621">
        <ele>-1</ele>
        <time>1970-01-01T00:00:00Z</time>
      </trkpt>
      <trkpt lat="43.80665" lon="7.20633">
        <ele>-1</ele>
        <time>1970-01-01T00:00:00Z</time>
      </trkpt>
      <trkpt lat="43.80668" lon="7.20646">
        <ele>-1</ele>
        <time>1970-01-01T00:00:00Z</time>
      </trkpt>
      <trkpt lat="43.80672" lon="7.20659">
        <ele>-1</ele>
        <time>1970-01-01T00:00:00Z</time>
      </trkpt>
      <trkpt lat="43.80679" lon="7.20669">
        <ele>-1</ele>
        <time>1970-01-01T00:00:00Z</time>
      </trkpt>
      <trkpt lat="43.80683" lon="7.20681">
        <ele>-1</ele>
        <time>1970-01-01T00:00:00Z</time>
      </trkpt>
      <trkpt lat="43.80684" lon="7.20694">
        <ele>-1</ele>
        <time>1970-01-01T00:00:00Z</time>
      </trkpt>
      <trkpt lat="43.80688" lon="7.20707">
        <ele>-1</ele>
        <time>1970-01-01T00:00:00Z</time>
      </trkpt>
      <trkpt lat="43.80692" lon="7.2072">
        <ele>-1</ele>
        <time>1970-01-01T00:00:00Z</time>
      </trkpt>
      <trkpt lat="43.80696" lon="7.20732">
        <ele>-1</ele>
        <time>1970-01-01T00:00:00Z</time>
      </trkpt>
      <trkpt lat="43.80698" lon="7.20745">
        <ele>-1</ele>
        <time>1970-01-01T00:00:00Z</time>
      </trkpt>
      <trkpt lat="43.80702" lon="7.20758">
        <ele>-1</ele>
        <time>1970-01-01T00:00:00Z</time>
      </trkpt>
      <trkpt lat="43.80708" lon="7.20764">
        <ele>-1</ele>
        <time>1970-01-01T00:00:00Z</time>
      </trkpt>
      <trkpt lat="43.8071" lon="7.20774">
        <ele>-1</ele>
        <time>1970-01-01T00:00:00Z</time>
      </trkpt>
      <trkpt lat="43.80709" lon="7.20786">
        <ele>-1</ele>
        <time>1970-01-01T00:00:00Z</time>
      </trkpt>
      <trkpt lat="43.80711" lon="7.20799">
        <ele>-1</ele>
        <time>1970-01-01T00:00:00Z</time>
      </trkpt>
      <trkpt lat="43.80708" lon="7.20811">
        <ele>-1</ele>
        <time>1970-01-01T00:00:00Z</time>
      </trkpt>
      <trkpt lat="43.80703" lon="7.2082">
        <ele>-1</ele>
        <time>1970-01-01T00:00:00Z</time>
      </trkpt>
      <trkpt lat="43.80703" lon="7.20832">
        <ele>-1</ele>
        <time>1970-01-01T00:00:00Z</time>
      </trkpt>
      <trkpt lat="43.80702" lon="7.20848">
        <ele>-1</ele>
        <time>1970-01-01T00:00:00Z</time>
      </trkpt>
      <trkpt lat="43.80704" lon="7.20857">
        <ele>-1</ele>
        <time>1970-01-01T00:00:00Z</time>
      </trkpt>
      <trkpt lat="43.80703" lon="7.2087">
        <ele>-1</ele>
        <time>1970-01-01T00:00:00Z</time>
      </trkpt>
      <trkpt lat="43.8071" lon="7.20877">
        <ele>-1</ele>
        <time>1970-01-01T00:00:00Z</time>
      </trkpt>
      <trkpt lat="43.80712" lon="7.20886">
        <ele>-1</ele>
        <time>1970-01-01T00:00:00Z</time>
      </trkpt>
      <trkpt lat="43.80716" lon="7.20896">
        <ele>-1</ele>
        <time>1970-01-01T00:00:00Z</time>
      </trkpt>
      <trkpt lat="43.8072" lon="7.20905">
        <ele>-1</ele>
        <time>1970-01-01T00:00:00Z</time>
      </trkpt>
      <trkpt lat="43.80726" lon="7.20915">
        <ele>-1</ele>
        <time>1970-01-01T00:00:00Z</time>
      </trkpt>
      <trkpt lat="43.80735" lon="7.20916">
        <ele>-1</ele>
        <time>1970-01-01T00:00:00Z</time>
      </trkpt>
      <trkpt lat="43.80744" lon="7.20917">
        <ele>-1</ele>
        <time>1970-01-01T00:00:00Z</time>
      </trkpt>
      <trkpt lat="43.80751" lon="7.20914">
        <ele>-1</ele>
        <time>1970-01-01T00:00:00Z</time>
      </trkpt>
      <trkpt lat="43.8076" lon="7.20915">
        <ele>-1</ele>
        <time>1970-01-01T00:00:00Z</time>
      </trkpt>
      <trkpt lat="43.80759" lon="7.20927">
        <ele>-1</ele>
        <time>1970-01-01T00:00:00Z</time>
      </trkpt>
      <trkpt lat="43.80759" lon="7.2094">
        <ele>-1</ele>
        <time>1970-01-01T00:00:00Z</time>
      </trkpt>
      <trkpt lat="43.80763" lon="7.20953">
        <ele>-1</ele>
        <time>1970-01-01T00:00:00Z</time>
      </trkpt>
      <trkpt lat="43.80769" lon="7.20956">
        <ele>-1</ele>
        <time>1970-01-01T00:00:00Z</time>
      </trkpt>
      <trkpt lat="43.80776" lon="7.20966">
        <ele>-1</ele>
        <time>1970-01-01T00:00:00Z</time>
      </trkpt>
      <trkpt lat="43.80782" lon="7.20973">
        <ele>-1</ele>
        <time>1970-01-01T00:00:00Z</time>
      </trkpt>
      <trkpt lat="43.80789" lon="7.2098">
        <ele>-1</ele>
        <time>1970-01-01T00:00:00Z</time>
      </trkpt>
      <trkpt lat="43.80792" lon="7.20992">
        <ele>-1</ele>
        <time>1970-01-01T00:00:00Z</time>
      </trkpt>
      <trkpt lat="43.80796" lon="7.21005">
        <ele>-1</ele>
        <time>1970-01-01T00:00:00Z</time>
      </trkpt>
      <trkpt lat="43.80803" lon="7.21012">
        <ele>-1</ele>
        <time>1970-01-01T00:00:00Z</time>
      </trkpt>
      <trkpt lat="43.80811" lon="7.21022">
        <ele>-1</ele>
        <time>1970-01-01T00:00:00Z</time>
      </trkpt>
      <trkpt lat="43.8082" lon="7.21029">
        <ele>-1</ele>
        <time>1970-01-01T00:00:00Z</time>
      </trkpt>
      <trkpt lat="43.80827" lon="7.21036">
        <ele>-1</ele>
        <time>1970-01-01T00:00:00Z</time>
      </trkpt>
      <trkpt lat="43.80831" lon="7.21045">
        <ele>-1</ele>
        <time>1970-01-01T00:00:00Z</time>
      </trkpt>
      <trkpt lat="43.80832" lon="7.21058">
        <ele>-1</ele>
        <time>1970-01-01T00:00:00Z</time>
      </trkpt>
      <trkpt lat="43.80836" lon="7.21071">
        <ele>-1</ele>
        <time>1970-01-01T00:00:00Z</time>
      </trkpt>
      <trkpt lat="43.8084" lon="7.2108">
        <ele>-1</ele>
        <time>1970-01-01T00:00:00Z</time>
      </trkpt>
      <trkpt lat="43.80842" lon="7.21093">
        <ele>-1</ele>
        <time>1970-01-01T00:00:00Z</time>
      </trkpt>
      <trkpt lat="43.80846" lon="7.21103">
        <ele>-1</ele>
        <time>1970-01-01T00:00:00Z</time>
      </trkpt>
      <trkpt lat="43.8085" lon="7.21112">
        <ele>-1</ele>
        <time>1970-01-01T00:00:00Z</time>
      </trkpt>
      <trkpt lat="43.80854" lon="7.21122">
        <ele>-1</ele>
        <time>1970-01-01T00:00:00Z</time>
      </trkpt>
      <trkpt lat="43.80856" lon="7.21135">
        <ele>-1</ele>
        <time>1970-01-01T00:00:00Z</time>
      </trkpt>
      <trkpt lat="43.80862" lon="7.21144">
        <ele>-1</ele>
        <time>1970-01-01T00:00:00Z</time>
      </trkpt>
      <trkpt lat="43.80869" lon="7.21148">
        <ele>-1</ele>
        <time>1970-01-01T00:00:00Z</time>
      </trkpt>
      <trkpt lat="43.80873" lon="7.21158">
        <ele>-1</ele>
        <time>1970-01-01T00:00:00Z</time>
      </trkpt>
      <trkpt lat="43.80875" lon="7.2117">
        <ele>-1</ele>
        <time>1970-01-01T00:00:00Z</time>
      </trkpt>
      <trkpt lat="43.80881" lon="7.21183">
        <ele>-1</ele>
        <time>1970-01-01T00:00:00Z</time>
      </trkpt>
      <trkpt lat="43.80885" lon="7.21193">
        <ele>-1</ele>
        <time>1970-01-01T00:00:00Z</time>
      </trkpt>
      <trkpt lat="43.80891" lon="7.21197">
        <ele>-1</ele>
        <time>1970-01-01T00:00:00Z</time>
      </trkpt>
      <trkpt lat="43.809" lon="7.21207">
        <ele>-1</ele>
        <time>1970-01-01T00:00:00Z</time>
      </trkpt>
      <trkpt lat="43.80904" lon="7.21216">
        <ele>-1</ele>
        <time>1970-01-01T00:00:00Z</time>
      </trkpt>
      <trkpt lat="43.80906" lon="7.21226">
        <ele>-1</ele>
        <time>1970-01-01T00:00:00Z</time>
      </trkpt>
      <trkpt lat="43.80908" lon="7.21235">
        <ele>-1</ele>
        <time>1970-01-01T00:00:00Z</time>
      </trkpt>
      <trkpt lat="43.80909" lon="7.21245">
        <ele>-1</ele>
        <time>1970-01-01T00:00:00Z</time>
      </trkpt>
      <trkpt lat="43.80905" lon="7.21254">
        <ele>-1</ele>
        <time>1970-01-01T00:00:00Z</time>
      </trkpt>
      <trkpt lat="43.80902" lon="7.21266">
        <ele>-1</ele>
        <time>1970-01-01T00:00:00Z</time>
      </trkpt>
      <trkpt lat="43.80901" lon="7.21278">
        <ele>-1</ele>
        <time>1970-01-01T00:00:00Z</time>
      </trkpt>
      <trkpt lat="43.80908" lon="7.21285">
        <ele>-1</ele>
        <time>1970-01-01T00:00:00Z</time>
      </trkpt>
      <trkpt lat="43.80912" lon="7.21295">
        <ele>-1</ele>
        <time>1970-01-01T00:00:00Z</time>
      </trkpt>
      <trkpt lat="43.80916" lon="7.21305">
        <ele>-1</ele>
        <time>1970-01-01T00:00:00Z</time>
      </trkpt>
      <trkpt lat="43.80911" lon="7.21313">
        <ele>-1</ele>
        <time>1970-01-01T00:00:00Z</time>
      </trkpt>
      <trkpt lat="43.80906" lon="7.21325">
        <ele>-1</ele>
        <time>1970-01-01T00:00:00Z</time>
      </trkpt>
      <trkpt lat="43.80905" lon="7.21338">
        <ele>-1</ele>
        <time>1970-01-01T00:00:00Z</time>
      </trkpt>
      <trkpt lat="43.80905" lon="7.21353">
        <ele>-1</ele>
        <time>1970-01-01T00:00:00Z</time>
      </trkpt>
      <trkpt lat="43.80906" lon="7.21366">
        <ele>-1</ele>
        <time>1970-01-01T00:00:00Z</time>
      </trkpt>
      <trkpt lat="43.80906" lon="7.21378">
        <ele>-1</ele>
        <time>1970-01-01T00:00:00Z</time>
      </trkpt>
      <trkpt lat="43.80903" lon="7.2139">
        <ele>-1</ele>
        <time>1970-01-01T00:00:00Z</time>
      </trkpt>
      <trkpt lat="43.80896" lon="7.21402">
        <ele>-1</ele>
        <time>1970-01-01T00:00:00Z</time>
      </trkpt>
      <trkpt lat="43.80893" lon="7.21414">
        <ele>-1</ele>
        <time>1970-01-01T00:00:00Z</time>
      </trkpt>
      <trkpt lat="43.80895" lon="7.21427">
        <ele>-1</ele>
        <time>1970-01-01T00:00:00Z</time>
      </trkpt>
      <trkpt lat="43.80901" lon="7.2144">
        <ele>-1</ele>
        <time>1970-01-01T00:00:00Z</time>
      </trkpt>
      <trkpt lat="43.80902" lon="7.21453">
        <ele>-1</ele>
        <time>1970-01-01T00:00:00Z</time>
      </trkpt>
      <trkpt lat="43.80904" lon="7.21465">
        <ele>-1</ele>
        <time>1970-01-01T00:00:00Z</time>
      </trkpt>
      <trkpt lat="43.80908" lon="7.21478">
        <ele>-1</ele>
        <time>1970-01-01T00:00:00Z</time>
      </trkpt>
      <trkpt lat="43.80914" lon="7.21488">
        <ele>-1</ele>
        <time>1970-01-01T00:00:00Z</time>
      </trkpt>
      <trkpt lat="43.8092" lon="7.21501">
        <ele>-1</ele>
        <time>1970-01-01T00:00:00Z</time>
      </trkpt>
      <trkpt lat="43.80929" lon="7.21511">
        <ele>-1</ele>
        <time>1970-01-01T00:00:00Z</time>
      </trkpt>
      <trkpt lat="43.80936" lon="7.21518">
        <ele>-1</ele>
        <time>1970-01-01T00:00:00Z</time>
      </trkpt>
      <trkpt lat="43.80942" lon="7.21527">
        <ele>-1</ele>
        <time>1970-01-01T00:00:00Z</time>
      </trkpt>
      <trkpt lat="43.80946" lon="7.2154">
        <ele>-1</ele>
        <time>1970-01-01T00:00:00Z</time>
      </trkpt>
      <trkpt lat="43.8095" lon="7.2155">
        <ele>-1</ele>
        <time>1970-01-01T00:00:00Z</time>
      </trkpt>
      <trkpt lat="43.80956" lon="7.21563">
        <ele>-1</ele>
        <time>1970-01-01T00:00:00Z</time>
      </trkpt>
      <trkpt lat="43.8096" lon="7.21576">
        <ele>-1</ele>
        <time>1970-01-01T00:00:00Z</time>
      </trkpt>
      <trkpt lat="43.80968" lon="7.21586">
        <ele>-1</ele>
        <time>1970-01-01T00:00:00Z</time>
      </trkpt>
      <trkpt lat="43.80977" lon="7.21593">
        <ele>-1</ele>
        <time>1970-01-01T00:00:00Z</time>
      </trkpt>
      <trkpt lat="43.80986" lon="7.216">
        <ele>-1</ele>
        <time>1970-01-01T00:00:00Z</time>
      </trkpt>
      <trkpt lat="43.80992" lon="7.21606">
        <ele>-1</ele>
        <time>1970-01-01T00:00:00Z</time>
      </trkpt>
      <trkpt lat="43.81001" lon="7.21613">
        <ele>-1</ele>
        <time>1970-01-01T00:00:00Z</time>
      </trkpt>
      <trkpt lat="43.81007" lon="7.2162">
        <ele>-1</ele>
        <time>1970-01-01T00:00:00Z</time>
      </trkpt>
      <trkpt lat="43.81012" lon="7.2163">
        <ele>-1</ele>
        <time>1970-01-01T00:00:00Z</time>
      </trkpt>
      <trkpt lat="43.81018" lon="7.21637">
        <ele>-1</ele>
        <time>1970-01-01T00:00:00Z</time>
      </trkpt>
      <trkpt lat="43.81024" lon="7.21646">
        <ele>-1</ele>
        <time>1970-01-01T00:00:00Z</time>
      </trkpt>
      <trkpt lat="43.81033" lon="7.21656">
        <ele>-1</ele>
        <time>1970-01-01T00:00:00Z</time>
      </trkpt>
      <trkpt lat="43.81039" lon="7.21663">
        <ele>-1</ele>
        <time>1970-01-01T00:00:00Z</time>
      </trkpt>
      <trkpt lat="43.81048" lon="7.21667">
        <ele>-1</ele>
        <time>1970-01-01T00:00:00Z</time>
      </trkpt>
      <trkpt lat="43.81059" lon="7.21677">
        <ele>-1</ele>
        <time>1970-01-01T00:00:00Z</time>
      </trkpt>
      <trkpt lat="43.81065" lon="7.21684">
        <ele>-1</ele>
        <time>1970-01-01T00:00:00Z</time>
      </trkpt>
      <trkpt lat="43.81072" lon="7.21691">
        <ele>-1</ele>
        <time>1970-01-01T00:00:00Z</time>
      </trkpt>
      <trkpt lat="43.81078" lon="7.21695">
        <ele>-1</ele>
        <time>1970-01-01T00:00:00Z</time>
      </trkpt>
      <trkpt lat="43.81087" lon="7.21702">
        <ele>-1</ele>
        <time>1970-01-01T00:00:00Z</time>
      </trkpt>
      <trkpt lat="43.81093" lon="7.21711">
        <ele>-1</ele>
        <time>1970-01-01T00:00:00Z</time>
      </trkpt>
      <trkpt lat="43.81097" lon="7.21721">
        <ele>-1</ele>
        <time>1970-01-01T00:00:00Z</time>
      </trkpt>
      <trkpt lat="43.81104" lon="7.21731">
        <ele>-1</ele>
        <time>1970-01-01T00:00:00Z</time>
      </trkpt>
      <trkpt lat="43.8111" lon="7.21744">
        <ele>-1</ele>
        <time>1970-01-01T00:00:00Z</time>
      </trkpt>
      <trkpt lat="43.81114" lon="7.21754">
        <ele>-1</ele>
        <time>1970-01-01T00:00:00Z</time>
      </trkpt>
      <trkpt lat="43.81118" lon="7.21766">
        <ele>-1</ele>
        <time>1970-01-01T00:00:00Z</time>
      </trkpt>
      <trkpt lat="43.8112" lon="7.21779">
        <ele>-1</ele>
        <time>1970-01-01T00:00:00Z</time>
      </trkpt>
      <trkpt lat="43.81124" lon="7.21792">
        <ele>-1</ele>
        <time>1970-01-01T00:00:00Z</time>
      </trkpt>
      <trkpt lat="43.81125" lon="7.21807">
        <ele>-1</ele>
        <time>1970-01-01T00:00:00Z</time>
      </trkpt>
      <trkpt lat="43.81129" lon="7.21817">
        <ele>-1</ele>
        <time>1970-01-01T00:00:00Z</time>
      </trkpt>
      <trkpt lat="43.81133" lon="7.21827">
        <ele>-1</ele>
        <time>1970-01-01T00:00:00Z</time>
      </trkpt>
      <trkpt lat="43.81135" lon="7.21839">
        <ele>-1</ele>
        <time>1970-01-01T00:00:00Z</time>
      </trkpt>
      <trkpt lat="43.81139" lon="7.21849">
        <ele>-1</ele>
        <time>1970-01-01T00:00:00Z</time>
      </trkpt>
      <trkpt lat="43.81145" lon="7.21862">
        <ele>-1</ele>
        <time>1970-01-01T00:00:00Z</time>
      </trkpt>
      <trkpt lat="43.81151" lon="7.21872">
        <ele>-1</ele>
        <time>1970-01-01T00:00:00Z</time>
      </trkpt>
      <trkpt lat="43.8116" lon="7.21888">
        <ele>-1</ele>
        <time>1970-01-01T00:00:00Z</time>
      </trkpt>
      <trkpt lat="43.81166" lon="7.21898">
        <ele>-1</ele>
        <time>1970-01-01T00:00:00Z</time>
      </trkpt>
      <trkpt lat="43.81172" lon="7.21908">
        <ele>-1</ele>
        <time>1970-01-01T00:00:00Z</time>
      </trkpt>
      <trkpt lat="43.81176" lon="7.21917">
        <ele>-1</ele>
        <time>1970-01-01T00:00:00Z</time>
      </trkpt>
      <trkpt lat="43.8118" lon="7.21927">
        <ele>-1</ele>
        <time>1970-01-01T00:00:00Z</time>
      </trkpt>
      <trkpt lat="43.81187" lon="7.2194">
        <ele>-1</ele>
        <time>1970-01-01T00:00:00Z</time>
      </trkpt>
      <trkpt lat="43.81191" lon="7.2195">
        <ele>-1</ele>
        <time>1970-01-01T00:00:00Z</time>
      </trkpt>
      <trkpt lat="43.81197" lon="7.2196">
        <ele>-1</ele>
        <time>1970-01-01T00:00:00Z</time>
      </trkpt>
      <trkpt lat="43.81205" lon="7.21973">
        <ele>-1</ele>
        <time>1970-01-01T00:00:00Z</time>
      </trkpt>
      <trkpt lat="43.81214" lon="7.21977">
        <ele>-1</ele>
        <time>1970-01-01T00:00:00Z</time>
      </trkpt>
      <trkpt lat="43.81221" lon="7.2198">
        <ele>-1</ele>
        <time>1970-01-01T00:00:00Z</time>
      </trkpt>
      <trkpt lat="43.8123" lon="7.21984">
        <ele>-1</ele>
        <time>1970-01-01T00:00:00Z</time>
      </trkpt>
      <trkpt lat="43.81241" lon="7.21991">
        <ele>-1</ele>
        <time>1970-01-01T00:00:00Z</time>
      </trkpt>
      <trkpt lat="43.8125" lon="7.21992">
        <ele>-1</ele>
        <time>1970-01-01T00:00:00Z</time>
      </trkpt>
      <trkpt lat="43.81261" lon="7.21993">
        <ele>-1</ele>
        <time>1970-01-01T00:00:00Z</time>
      </trkpt>
      <trkpt lat="43.81272" lon="7.21994">
        <ele>-1</ele>
        <time>1970-01-01T00:00:00Z</time>
      </trkpt>
      <trkpt lat="43.81346" lon="7.22041">
        <ele>-1</ele>
        <time>1970-01-01T00:00:00Z</time>
      </trkpt>
      <trkpt lat="43.81344" lon="7.22053">
        <ele>-1</ele>
        <time>1970-01-01T00:00:00Z</time>
      </trkpt>
      <trkpt lat="43.81337" lon="7.22056">
        <ele>-1</ele>
        <time>1970-01-01T00:00:00Z</time>
      </trkpt>
      <trkpt lat="43.8133" lon="7.22049">
        <ele>-1</ele>
        <time>1970-01-01T00:00:00Z</time>
      </trkpt>
      <trkpt lat="43.81322" lon="7.22042">
        <ele>-1</ele>
        <time>1970-01-01T00:00:00Z</time>
      </trkpt>
      <trkpt lat="43.81313" lon="7.22035">
        <ele>-1</ele>
        <time>1970-01-01T00:00:00Z</time>
      </trkpt>
      <trkpt lat="43.81304" lon="7.22028">
        <ele>-1</ele>
        <time>1970-01-01T00:00:00Z</time>
      </trkpt>
      <trkpt lat="43.81295" lon="7.22024">
        <ele>-1</ele>
        <time>1970-01-01T00:00:00Z</time>
      </trkpt>
      <trkpt lat="43.81287" lon="7.22023">
        <ele>-1</ele>
        <time>1970-01-01T00:00:00Z</time>
      </trkpt>
      <trkpt lat="43.81286" lon="7.22036">
        <ele>-1</ele>
        <time>1970-01-01T00:00:00Z</time>
      </trkpt>
      <trkpt lat="43.81285" lon="7.22048">
        <ele>-1</ele>
        <time>1970-01-01T00:00:00Z</time>
      </trkpt>
      <trkpt lat="43.81292" lon="7.22058">
        <ele>-1</ele>
        <time>1970-01-01T00:00:00Z</time>
      </trkpt>
      <trkpt lat="43.81296" lon="7.22068">
        <ele>-1</ele>
        <time>1970-01-01T00:00:00Z</time>
      </trkpt>
      <trkpt lat="43.813" lon="7.22077">
        <ele>-1</ele>
        <time>1970-01-01T00:00:00Z</time>
      </trkpt>
      <trkpt lat="43.81304" lon="7.22087">
        <ele>-1</ele>
        <time>1970-01-01T00:00:00Z</time>
      </trkpt>
      <trkpt lat="43.8131" lon="7.22094">
        <ele>-1</ele>
        <time>1970-01-01T00:00:00Z</time>
      </trkpt>
      <trkpt lat="43.81317" lon="7.22101">
        <ele>-1</ele>
        <time>1970-01-01T00:00:00Z</time>
      </trkpt>
      <trkpt lat="43.81321" lon="7.2211">
        <ele>-1</ele>
        <time>1970-01-01T00:00:00Z</time>
      </trkpt>
      <trkpt lat="43.81327" lon="7.22123">
        <ele>-1</ele>
        <time>1970-01-01T00:00:00Z</time>
      </trkpt>
      <trkpt lat="43.81333" lon="7.22136">
        <ele>-1</ele>
        <time>1970-01-01T00:00:00Z</time>
      </trkpt>
      <trkpt lat="43.81337" lon="7.22146">
        <ele>-1</ele>
        <time>1970-01-01T00:00:00Z</time>
      </trkpt>
      <trkpt lat="43.81344" lon="7.22156">
        <ele>-1</ele>
        <time>1970-01-01T00:00:00Z</time>
      </trkpt>
      <trkpt lat="43.8135" lon="7.22166">
        <ele>-1</ele>
        <time>1970-01-01T00:00:00Z</time>
      </trkpt>
      <trkpt lat="43.81354" lon="7.22175">
        <ele>-1</ele>
        <time>1970-01-01T00:00:00Z</time>
      </trkpt>
      <trkpt lat="43.8136" lon="7.22188">
        <ele>-1</ele>
        <time>1970-01-01T00:00:00Z</time>
      </trkpt>
      <trkpt lat="43.81367" lon="7.22195">
        <ele>-1</ele>
        <time>1970-01-01T00:00:00Z</time>
      </trkpt>
      <trkpt lat="43.81373" lon="7.22205">
        <ele>-1</ele>
        <time>1970-01-01T00:00:00Z</time>
      </trkpt>
      <trkpt lat="43.81379" lon="7.22215">
        <ele>-1</ele>
        <time>1970-01-01T00:00:00Z</time>
      </trkpt>
      <trkpt lat="43.81383" lon="7.22224">
        <ele>-1</ele>
        <time>1970-01-01T00:00:00Z</time>
      </trkpt>
      <trkpt lat="43.81387" lon="7.22234">
        <ele>-1</ele>
        <time>1970-01-01T00:00:00Z</time>
      </trkpt>
      <trkpt lat="43.81396" lon="7.22244">
        <ele>-1</ele>
        <time>1970-01-01T00:00:00Z</time>
      </trkpt>
      <trkpt lat="43.81402" lon="7.22251">
        <ele>-1</ele>
        <time>1970-01-01T00:00:00Z</time>
      </trkpt>
      <trkpt lat="43.81406" lon="7.22261">
        <ele>-1</ele>
        <time>1970-01-01T00:00:00Z</time>
      </trkpt>
      <trkpt lat="43.81413" lon="7.22267">
        <ele>-1</ele>
        <time>1970-01-01T00:00:00Z</time>
      </trkpt>
      <trkpt lat="43.81419" lon="7.22277">
        <ele>-1</ele>
        <time>1970-01-01T00:00:00Z</time>
      </trkpt>
      <trkpt lat="43.81425" lon="7.22287">
        <ele>-1</ele>
        <time>1970-01-01T00:00:00Z</time>
      </trkpt>
      <trkpt lat="43.8143" lon="7.22297">
        <ele>-1</ele>
        <time>1970-01-01T00:00:00Z</time>
      </trkpt>
      <trkpt lat="43.81431" lon="7.22306">
        <ele>-1</ele>
        <time>1970-01-01T00:00:00Z</time>
      </trkpt>
      <trkpt lat="43.81438" lon="7.22319">
        <ele>-1</ele>
        <time>1970-01-01T00:00:00Z</time>
      </trkpt>
      <trkpt lat="43.81442" lon="7.22329">
        <ele>-1</ele>
        <time>1970-01-01T00:00:00Z</time>
      </trkpt>
      <trkpt lat="43.81448" lon="7.22336">
        <ele>-1</ele>
        <time>1970-01-01T00:00:00Z</time>
      </trkpt>
      <trkpt lat="43.81454" lon="7.22345">
        <ele>-1</ele>
        <time>1970-01-01T00:00:00Z</time>
      </trkpt>
      <trkpt lat="43.81458" lon="7.22355">
        <ele>-1</ele>
        <time>1970-01-01T00:00:00Z</time>
      </trkpt>
      <trkpt lat="43.8146" lon="7.22365">
        <ele>-1</ele>
        <time>1970-01-01T00:00:00Z</time>
      </trkpt>
      <trkpt lat="43.81464" lon="7.22374">
        <ele>-1</ele>
        <time>1970-01-01T00:00:00Z</time>
      </trkpt>
      <trkpt lat="43.81468" lon="7.22387">
        <ele>-1</ele>
        <time>1970-01-01T00:00:00Z</time>
      </trkpt>
      <trkpt lat="43.81472" lon="7.224">
        <ele>-1</ele>
        <time>1970-01-01T00:00:00Z</time>
      </trkpt>
      <trkpt lat="43.81478" lon="7.2241">
        <ele>-1</ele>
        <time>1970-01-01T00:00:00Z</time>
      </trkpt>
      <trkpt lat="43.81485" lon="7.22423">
        <ele>-1</ele>
        <time>1970-01-01T00:00:00Z</time>
      </trkpt>
      <trkpt lat="43.81486" lon="7.22432">
        <ele>-1</ele>
        <time>1970-01-01T00:00:00Z</time>
      </trkpt>
      <trkpt lat="43.8149" lon="7.22445">
        <ele>-1</ele>
        <time>1970-01-01T00:00:00Z</time>
      </trkpt>
      <trkpt lat="43.81497" lon="7.22458">
        <ele>-1</ele>
        <time>1970-01-01T00:00:00Z</time>
      </trkpt>
      <trkpt lat="43.81498" lon="7.22467">
        <ele>-1</ele>
        <time>1970-01-01T00:00:00Z</time>
      </trkpt>
      <trkpt lat="43.815" lon="7.2248">
        <ele>-1</ele>
        <time>1970-01-01T00:00:00Z</time>
      </trkpt>
      <trkpt lat="43.81504" lon="7.2249">
        <ele>-1</ele>
        <time>1970-01-01T00:00:00Z</time>
      </trkpt>
      <trkpt lat="43.8151" lon="7.225">
        <ele>-1</ele>
        <time>1970-01-01T00:00:00Z</time>
      </trkpt>
      <trkpt lat="43.81512" lon="7.22509">
        <ele>-1</ele>
        <time>1970-01-01T00:00:00Z</time>
      </trkpt>
      <trkpt lat="43.81516" lon="7.22525">
        <ele>-1</ele>
        <time>1970-01-01T00:00:00Z</time>
      </trkpt>
      <trkpt lat="43.81518" lon="7.22534">
        <ele>-1</ele>
        <time>1970-01-01T00:00:00Z</time>
      </trkpt>
      <trkpt lat="43.8152" lon="7.22544">
        <ele>-1</ele>
        <time>1970-01-01T00:00:00Z</time>
      </trkpt>
      <trkpt lat="43.81522" lon="7.22553">
        <ele>-1</ele>
        <time>1970-01-01T00:00:00Z</time>
      </trkpt>
      <trkpt lat="43.81521" lon="7.22572">
        <ele>-1</ele>
        <time>1970-01-01T00:00:00Z</time>
      </trkpt>
      <trkpt lat="43.8152" lon="7.22584">
        <ele>-1</ele>
        <time>1970-01-01T00:00:00Z</time>
      </trkpt>
      <trkpt lat="43.81515" lon="7.22596">
        <ele>-1</ele>
        <time>1970-01-01T00:00:00Z</time>
      </trkpt>
      <trkpt lat="43.81515" lon="7.22609">
        <ele>-1</ele>
        <time>1970-01-01T00:00:00Z</time>
      </trkpt>
      <trkpt lat="43.81509" lon="7.22621">
        <ele>-1</ele>
        <time>1970-01-01T00:00:00Z</time>
      </trkpt>
      <trkpt lat="43.81507" lon="7.22633">
        <ele>-1</ele>
        <time>1970-01-01T00:00:00Z</time>
      </trkpt>
      <trkpt lat="43.81506" lon="7.22645">
        <ele>-1</ele>
        <time>1970-01-01T00:00:00Z</time>
      </trkpt>
      <trkpt lat="43.81506" lon="7.22658">
        <ele>-1</ele>
        <time>1970-01-01T00:00:00Z</time>
      </trkpt>
      <trkpt lat="43.81505" lon="7.2267">
        <ele>-1</ele>
        <time>1970-01-01T00:00:00Z</time>
      </trkpt>
      <trkpt lat="43.815" lon="7.22679">
        <ele>-1</ele>
        <time>1970-01-01T00:00:00Z</time>
      </trkpt>
      <trkpt lat="43.81493" lon="7.22681">
        <ele>-1</ele>
        <time>1970-01-01T00:00:00Z</time>
      </trkpt>
      <trkpt lat="43.81484" lon="7.22684">
        <ele>-1</ele>
        <time>1970-01-01T00:00:00Z</time>
      </trkpt>
      <trkpt lat="43.81473" lon="7.22677">
        <ele>-1</ele>
        <time>1970-01-01T00:00:00Z</time>
      </trkpt>
      <trkpt lat="43.81464" lon="7.22673">
        <ele>-1</ele>
        <time>1970-01-01T00:00:00Z</time>
      </trkpt>
      <trkpt lat="43.81456" lon="7.22669">
        <ele>-1</ele>
        <time>1970-01-01T00:00:00Z</time>
      </trkpt>
      <trkpt lat="43.81449" lon="7.22665">
        <ele>-1</ele>
        <time>1970-01-01T00:00:00Z</time>
      </trkpt>
      <trkpt lat="43.81442" lon="7.22662">
        <ele>-1</ele>
        <time>1970-01-01T00:00:00Z</time>
      </trkpt>
      <trkpt lat="43.81436" lon="7.22658">
        <ele>-1</ele>
        <time>1970-01-01T00:00:00Z</time>
      </trkpt>
      <trkpt lat="43.81427" lon="7.22651">
        <ele>-1</ele>
        <time>1970-01-01T00:00:00Z</time>
      </trkpt>
      <trkpt lat="43.81418" lon="7.22647">
        <ele>-1</ele>
        <time>1970-01-01T00:00:00Z</time>
      </trkpt>
      <trkpt lat="43.81409" lon="7.22659">
        <ele>-1</ele>
        <time>1970-01-01T00:00:00Z</time>
      </trkpt>
      <trkpt lat="43.81406" lon="7.22671">
        <ele>-1</ele>
        <time>1970-01-01T00:00:00Z</time>
      </trkpt>
      <trkpt lat="43.81408" lon="7.22683">
        <ele>-1</ele>
        <time>1970-01-01T00:00:00Z</time>
      </trkpt>
      <trkpt lat="43.81405" lon="7.22696">
        <ele>-1</ele>
        <time>1970-01-01T00:00:00Z</time>
      </trkpt>
      <trkpt lat="43.81398" lon="7.22704">
        <ele>-1</ele>
        <time>1970-01-01T00:00:00Z</time>
      </trkpt>
      <trkpt lat="43.81393" lon="7.22713">
        <ele>-1</ele>
        <time>1970-01-01T00:00:00Z</time>
      </trkpt>
      <trkpt lat="43.81386" lon="7.22719">
        <ele>-1</ele>
        <time>1970-01-01T00:00:00Z</time>
      </trkpt>
      <trkpt lat="43.81377" lon="7.22718">
        <ele>-1</ele>
        <time>1970-01-01T00:00:00Z</time>
      </trkpt>
      <trkpt lat="43.81366" lon="7.22717">
        <ele>-1</ele>
        <time>1970-01-01T00:00:00Z</time>
      </trkpt>
      <trkpt lat="43.81357" lon="7.22716">
        <ele>-1</ele>
        <time>1970-01-01T00:00:00Z</time>
      </trkpt>
      <trkpt lat="43.81348" lon="7.22716">
        <ele>-1</ele>
        <time>1970-01-01T00:00:00Z</time>
      </trkpt>
      <trkpt lat="43.81339" lon="7.22715">
        <ele>-1</ele>
        <time>1970-01-01T00:00:00Z</time>
      </trkpt>
      <trkpt lat="43.8133" lon="7.22714">
        <ele>-1</ele>
        <time>1970-01-01T00:00:00Z</time>
      </trkpt>
      <trkpt lat="43.81323" lon="7.2271">
        <ele>-1</ele>
        <time>1970-01-01T00:00:00Z</time>
      </trkpt>
      <trkpt lat="43.81314" lon="7.2271">
        <ele>-1</ele>
        <time>1970-01-01T00:00:00Z</time>
      </trkpt>
      <trkpt lat="43.81305" lon="7.22715">
        <ele>-1</ele>
        <time>1970-01-01T00:00:00Z</time>
      </trkpt>
      <trkpt lat="43.81296" lon="7.22714">
        <ele>-1</ele>
        <time>1970-01-01T00:00:00Z</time>
      </trkpt>
      <trkpt lat="43.81287" lon="7.22713">
        <ele>-1</ele>
        <time>1970-01-01T00:00:00Z</time>
      </trkpt>
      <trkpt lat="43.81278" lon="7.2271">
        <ele>-1</ele>
        <time>1970-01-01T00:00:00Z</time>
      </trkpt>
      <trkpt lat="43.81269" lon="7.22706">
        <ele>-1</ele>
        <time>1970-01-01T00:00:00Z</time>
      </trkpt>
      <trkpt lat="43.81263" lon="7.22702">
        <ele>-1</ele>
        <time>1970-01-01T00:00:00Z</time>
      </trkpt>
      <trkpt lat="43.81254" lon="7.22701">
        <ele>-1</ele>
        <time>1970-01-01T00:00:00Z</time>
      </trkpt>
      <trkpt lat="43.81245" lon="7.22701">
        <ele>-1</ele>
        <time>1970-01-01T00:00:00Z</time>
      </trkpt>
      <trkpt lat="43.81236" lon="7.227">
        <ele>-1</ele>
        <time>1970-01-01T00:00:00Z</time>
      </trkpt>
      <trkpt lat="43.81229" lon="7.22708">
        <ele>-1</ele>
        <time>1970-01-01T00:00:00Z</time>
      </trkpt>
      <trkpt lat="43.8122" lon="7.22708">
        <ele>-1</ele>
        <time>1970-01-01T00:00:00Z</time>
      </trkpt>
      <trkpt lat="43.81213" lon="7.2271">
        <ele>-1</ele>
        <time>1970-01-01T00:00:00Z</time>
      </trkpt>
      <trkpt lat="43.81206" lon="7.22713">
        <ele>-1</ele>
        <time>1970-01-01T00:00:00Z</time>
      </trkpt>
      <trkpt lat="43.81197" lon="7.22718">
        <ele>-1</ele>
        <time>1970-01-01T00:00:00Z</time>
      </trkpt>
      <trkpt lat="43.81192" lon="7.2273">
        <ele>-1</ele>
        <time>1970-01-01T00:00:00Z</time>
      </trkpt>
      <trkpt lat="43.81184" lon="7.22742">
        <ele>-1</ele>
        <time>1970-01-01T00:00:00Z</time>
      </trkpt>
      <trkpt lat="43.81179" lon="7.22751">
        <ele>-1</ele>
        <time>1970-01-01T00:00:00Z</time>
      </trkpt>
      <trkpt lat="43.8117" lon="7.2275">
        <ele>-1</ele>
        <time>1970-01-01T00:00:00Z</time>
      </trkpt>
      <trkpt lat="43.81164" lon="7.22753">
        <ele>-1</ele>
        <time>1970-01-01T00:00:00Z</time>
      </trkpt>
      <trkpt lat="43.81155" lon="7.22752">
        <ele>-1</ele>
        <time>1970-01-01T00:00:00Z</time>
      </trkpt>
      <trkpt lat="43.81143" lon="7.22754">
        <ele>-1</ele>
        <time>1970-01-01T00:00:00Z</time>
      </trkpt>
      <trkpt lat="43.81134" lon="7.22759">
        <ele>-1</ele>
        <time>1970-01-01T00:00:00Z</time>
      </trkpt>
      <trkpt lat="43.81127" lon="7.22762">
        <ele>-1</ele>
        <time>1970-01-01T00:00:00Z</time>
      </trkpt>
      <trkpt lat="43.81116" lon="7.22761">
        <ele>-1</ele>
        <time>1970-01-01T00:00:00Z</time>
      </trkpt>
      <trkpt lat="43.81107" lon="7.22766">
        <ele>-1</ele>
        <time>1970-01-01T00:00:00Z</time>
      </trkpt>
      <trkpt lat="43.81099" lon="7.22775">
        <ele>-1</ele>
        <time>1970-01-01T00:00:00Z</time>
      </trkpt>
      <trkpt lat="43.81095" lon="7.22784">
        <ele>-1</ele>
        <time>1970-01-01T00:00:00Z</time>
      </trkpt>
      <trkpt lat="43.8109" lon="7.22793">
        <ele>-1</ele>
        <time>1970-01-01T00:00:00Z</time>
      </trkpt>
      <trkpt lat="43.81089" lon="7.22805">
        <ele>-1</ele>
        <time>1970-01-01T00:00:00Z</time>
      </trkpt>
      <trkpt lat="43.81084" lon="7.22814">
        <ele>-1</ele>
        <time>1970-01-01T00:00:00Z</time>
      </trkpt>
      <trkpt lat="43.81077" lon="7.22823">
        <ele>-1</ele>
        <time>1970-01-01T00:00:00Z</time>
      </trkpt>
      <trkpt lat="43.8107" lon="7.22828">
        <ele>-1</ele>
        <time>1970-01-01T00:00:00Z</time>
      </trkpt>
      <trkpt lat="43.81063" lon="7.22837">
        <ele>-1</ele>
        <time>1970-01-01T00:00:00Z</time>
      </trkpt>
      <trkpt lat="43.81056" lon="7.22846">
        <ele>-1</ele>
        <time>1970-01-01T00:00:00Z</time>
      </trkpt>
      <trkpt lat="43.81049" lon="7.22855">
        <ele>-1</ele>
        <time>1970-01-01T00:00:00Z</time>
      </trkpt>
      <trkpt lat="43.81046" lon="7.22867">
        <ele>-1</ele>
        <time>1970-01-01T00:00:00Z</time>
      </trkpt>
      <trkpt lat="43.81039" lon="7.22879">
        <ele>-1</ele>
        <time>1970-01-01T00:00:00Z</time>
      </trkpt>
      <trkpt lat="43.81032" lon="7.22884">
        <ele>-1</ele>
        <time>1970-01-01T00:00:00Z</time>
      </trkpt>
      <trkpt lat="43.81025" lon="7.2289">
        <ele>-1</ele>
        <time>1970-01-01T00:00:00Z</time>
      </trkpt>
      <trkpt lat="43.81015" lon="7.22898">
        <ele>-1</ele>
        <time>1970-01-01T00:00:00Z</time>
      </trkpt>
      <trkpt lat="43.8101" lon="7.22907">
        <ele>-1</ele>
        <time>1970-01-01T00:00:00Z</time>
      </trkpt>
      <trkpt lat="43.81007" lon="7.22919">
        <ele>-1</ele>
        <time>1970-01-01T00:00:00Z</time>
      </trkpt>
      <trkpt lat="43.81005" lon="7.22929">
        <ele>-1</ele>
        <time>1970-01-01T00:00:00Z</time>
      </trkpt>
      <trkpt lat="43.80998" lon="7.22937">
        <ele>-1</ele>
        <time>1970-01-01T00:00:00Z</time>
      </trkpt>
      <trkpt lat="43.8099" lon="7.22946">
        <ele>-1</ele>
        <time>1970-01-01T00:00:00Z</time>
      </trkpt>
      <trkpt lat="43.80983" lon="7.22955">
        <ele>-1</ele>
        <time>1970-01-01T00:00:00Z</time>
      </trkpt>
      <trkpt lat="43.80976" lon="7.22957">
        <ele>-1</ele>
        <time>1970-01-01T00:00:00Z</time>
      </trkpt>
      <trkpt lat="43.80972" lon="7.22966">
        <ele>-1</ele>
        <time>1970-01-01T00:00:00Z</time>
      </trkpt>
      <trkpt lat="43.80967" lon="7.22975">
        <ele>-1</ele>
        <time>1970-01-01T00:00:00Z</time>
      </trkpt>
      <trkpt lat="43.80959" lon="7.22984">
        <ele>-1</ele>
        <time>1970-01-01T00:00:00Z</time>
      </trkpt>
      <trkpt lat="43.8095" lon="7.22995">
        <ele>-1</ele>
        <time>1970-01-01T00:00:00Z</time>
      </trkpt>
      <trkpt lat="43.80943" lon="7.23004">
        <ele>-1</ele>
        <time>1970-01-01T00:00:00Z</time>
      </trkpt>
      <trkpt lat="43.80936" lon="7.23013">
        <ele>-1</ele>
        <time>1970-01-01T00:00:00Z</time>
      </trkpt>
      <trkpt lat="43.80943" lon="7.23007">
        <ele>-1</ele>
        <time>1970-01-01T00:00:00Z</time>
      </trkpt>
      <trkpt lat="43.80952" lon="7.22999">
        <ele>-1</ele>
        <time>1970-01-01T00:00:00Z</time>
      </trkpt>
      <trkpt lat="43.80962" lon="7.22987">
        <ele>-1</ele>
        <time>1970-01-01T00:00:00Z</time>
      </trkpt>
      <trkpt lat="43.80968" lon="7.22984">
        <ele>-1</ele>
        <time>1970-01-01T00:00:00Z</time>
      </trkpt>
      <trkpt lat="43.80978" lon="7.22976">
        <ele>-1</ele>
        <time>1970-01-01T00:00:00Z</time>
      </trkpt>
      <trkpt lat="43.80987" lon="7.22971">
        <ele>-1</ele>
        <time>1970-01-01T00:00:00Z</time>
      </trkpt>
      <trkpt lat="43.80994" lon="7.22977">
        <ele>-1</ele>
        <time>1970-01-01T00:00:00Z</time>
      </trkpt>
      <trkpt lat="43.80988" lon="7.22989">
        <ele>-1</ele>
        <time>1970-01-01T00:00:00Z</time>
      </trkpt>
      <trkpt lat="43.80986" lon="7.23002">
        <ele>-1</ele>
        <time>1970-01-01T00:00:00Z</time>
      </trkpt>
      <trkpt lat="43.80981" lon="7.23014">
        <ele>-1</ele>
        <time>1970-01-01T00:00:00Z</time>
      </trkpt>
      <trkpt lat="43.8098" lon="7.23026">
        <ele>-1</ele>
        <time>1970-01-01T00:00:00Z</time>
      </trkpt>
      <trkpt lat="43.80977" lon="7.23038">
        <ele>-1</ele>
        <time>1970-01-01T00:00:00Z</time>
      </trkpt>
      <trkpt lat="43.80984" lon="7.23045">
        <ele>-1</ele>
        <time>1970-01-01T00:00:00Z</time>
      </trkpt>
      <trkpt lat="43.80989" lon="7.23036">
        <ele>-1</ele>
        <time>1970-01-01T00:00:00Z</time>
      </trkpt>
      <trkpt lat="43.80998" lon="7.23027">
        <ele>-1</ele>
        <time>1970-01-01T00:00:00Z</time>
      </trkpt>
      <trkpt lat="43.81007" lon="7.23022">
        <ele>-1</ele>
        <time>1970-01-01T00:00:00Z</time>
      </trkpt>
      <trkpt lat="43.81014" lon="7.23016">
        <ele>-1</ele>
        <time>1970-01-01T00:00:00Z</time>
      </trkpt>
      <trkpt lat="43.81021" lon="7.23011">
        <ele>-1</ele>
        <time>1970-01-01T00:00:00Z</time>
      </trkpt>
      <trkpt lat="43.8103" lon="7.23008">
        <ele>-1</ele>
        <time>1970-01-01T00:00:00Z</time>
      </trkpt>
      <trkpt lat="43.81042" lon="7.23003">
        <ele>-1</ele>
        <time>1970-01-01T00:00:00Z</time>
      </trkpt>
      <trkpt lat="43.81051" lon="7.22998">
        <ele>-1</ele>
        <time>1970-01-01T00:00:00Z</time>
      </trkpt>
      <trkpt lat="43.8106" lon="7.22992">
        <ele>-1</ele>
        <time>1970-01-01T00:00:00Z</time>
      </trkpt>
      <trkpt lat="43.81065" lon="7.22984">
        <ele>-1</ele>
        <time>1970-01-01T00:00:00Z</time>
      </trkpt>
      <trkpt lat="43.81072" lon="7.22981">
        <ele>-1</ele>
        <time>1970-01-01T00:00:00Z</time>
      </trkpt>
      <trkpt lat="43.81079" lon="7.22978">
        <ele>-1</ele>
        <time>1970-01-01T00:00:00Z</time>
      </trkpt>
      <trkpt lat="43.81088" lon="7.22979">
        <ele>-1</ele>
        <time>1970-01-01T00:00:00Z</time>
      </trkpt>
      <trkpt lat="43.8109" lon="7.22992">
        <ele>-1</ele>
        <time>1970-01-01T00:00:00Z</time>
      </trkpt>
      <trkpt lat="43.81083" lon="7.22997">
        <ele>-1</ele>
        <time>1970-01-01T00:00:00Z</time>
      </trkpt>
      <trkpt lat="43.81076" lon="7.23006">
        <ele>-1</ele>
        <time>1970-01-01T00:00:00Z</time>
      </trkpt>
      <trkpt lat="43.81071" lon="7.23015">
        <ele>-1</ele>
        <time>1970-01-01T00:00:00Z</time>
      </trkpt>
      <trkpt lat="43.81064" lon="7.23021">
        <ele>-1</ele>
        <time>1970-01-01T00:00:00Z</time>
      </trkpt>
      <trkpt lat="43.81059" lon="7.2303">
        <ele>-1</ele>
        <time>1970-01-01T00:00:00Z</time>
      </trkpt>
      <trkpt lat="43.81054" lon="7.23038">
        <ele>-1</ele>
        <time>1970-01-01T00:00:00Z</time>
      </trkpt>
      <trkpt lat="43.81051" lon="7.23051">
        <ele>-1</ele>
        <time>1970-01-01T00:00:00Z</time>
      </trkpt>
      <trkpt lat="43.8105" lon="7.23063">
        <ele>-1</ele>
        <time>1970-01-01T00:00:00Z</time>
      </trkpt>
      <trkpt lat="43.81048" lon="7.23078">
        <ele>-1</ele>
        <time>1970-01-01T00:00:00Z</time>
      </trkpt>
      <trkpt lat="43.81047" lon="7.23091">
        <ele>-1</ele>
        <time>1970-01-01T00:00:00Z</time>
      </trkpt>
      <trkpt lat="43.81044" lon="7.23103">
        <ele>-1</ele>
        <time>1970-01-01T00:00:00Z</time>
      </trkpt>
      <trkpt lat="43.81043" lon="7.23118">
        <ele>-1</ele>
        <time>1970-01-01T00:00:00Z</time>
      </trkpt>
      <trkpt lat="43.81045" lon="7.23131">
        <ele>-1</ele>
        <time>1970-01-01T00:00:00Z</time>
      </trkpt>
      <trkpt lat="43.81049" lon="7.23144">
        <ele>-1</ele>
        <time>1970-01-01T00:00:00Z</time>
      </trkpt>
      <trkpt lat="43.81055" lon="7.23157">
        <ele>-1</ele>
        <time>1970-01-01T00:00:00Z</time>
      </trkpt>
      <trkpt lat="43.81059" lon="7.23166">
        <ele>-1</ele>
        <time>1970-01-01T00:00:00Z</time>
      </trkpt>
      <trkpt lat="43.81063" lon="7.23179">
        <ele>-1</ele>
        <time>1970-01-01T00:00:00Z</time>
      </trkpt>
      <trkpt lat="43.81072" lon="7.23174">
        <ele>-1</ele>
        <time>1970-01-01T00:00:00Z</time>
      </trkpt>
      <trkpt lat="43.81071" lon="7.23161">
        <ele>-1</ele>
        <time>1970-01-01T00:00:00Z</time>
      </trkpt>
      <trkpt lat="43.81069" lon="7.23152">
        <ele>-1</ele>
        <time>1970-01-01T00:00:00Z</time>
      </trkpt>
      <trkpt lat="43.8107" lon="7.23139">
        <ele>-1</ele>
        <time>1970-01-01T00:00:00Z</time>
      </trkpt>
      <trkpt lat="43.81072" lon="7.2313">
        <ele>-1</ele>
        <time>1970-01-01T00:00:00Z</time>
      </trkpt>
      <trkpt lat="43.81079" lon="7.23121">
        <ele>-1</ele>
        <time>1970-01-01T00:00:00Z</time>
      </trkpt>
      <trkpt lat="43.81089" lon="7.23113">
        <ele>-1</ele>
        <time>1970-01-01T00:00:00Z</time>
      </trkpt>
      <trkpt lat="43.81098" lon="7.23111">
        <ele>-1</ele>
        <time>1970-01-01T00:00:00Z</time>
      </trkpt>
      <trkpt lat="43.81107" lon="7.23115">
        <ele>-1</ele>
        <time>1970-01-01T00:00:00Z</time>
      </trkpt>
      <trkpt lat="43.81106" lon="7.23127">
        <ele>-1</ele>
        <time>1970-01-01T00:00:00Z</time>
      </trkpt>
      <trkpt lat="43.81106" lon="7.23139">
        <ele>-1</ele>
        <time>1970-01-01T00:00:00Z</time>
      </trkpt>
      <trkpt lat="43.81112" lon="7.23152">
        <ele>-1</ele>
        <time>1970-01-01T00:00:00Z</time>
      </trkpt>
      <trkpt lat="43.81113" lon="7.23165">
        <ele>-1</ele>
        <time>1970-01-01T00:00:00Z</time>
      </trkpt>
      <trkpt lat="43.81117" lon="7.23178">
        <ele>-1</ele>
        <time>1970-01-01T00:00:00Z</time>
      </trkpt>
      <trkpt lat="43.81124" lon="7.23191">
        <ele>-1</ele>
        <time>1970-01-01T00:00:00Z</time>
      </trkpt>
      <trkpt lat="43.81128" lon="7.23182">
        <ele>-1</ele>
        <time>1970-01-01T00:00:00Z</time>
      </trkpt>
      <trkpt lat="43.81131" lon="7.23173">
        <ele>-1</ele>
        <time>1970-01-01T00:00:00Z</time>
      </trkpt>
      <trkpt lat="43.81134" lon="7.23163">
        <ele>-1</ele>
        <time>1970-01-01T00:00:00Z</time>
      </trkpt>
      <trkpt lat="43.81137" lon="7.23148">
        <ele>-1</ele>
        <time>1970-01-01T00:00:00Z</time>
      </trkpt>
      <trkpt lat="43.81139" lon="7.23139">
        <ele>-1</ele>
        <time>1970-01-01T00:00:00Z</time>
      </trkpt>
      <trkpt lat="43.81144" lon="7.2313">
        <ele>-1</ele>
        <time>1970-01-01T00:00:00Z</time>
      </trkpt>
      <trkpt lat="43.81147" lon="7.23121">
        <ele>-1</ele>
        <time>1970-01-01T00:00:00Z</time>
      </trkpt>
      <trkpt lat="43.81154" lon="7.23112">
        <ele>-1</ele>
        <time>1970-01-01T00:00:00Z</time>
      </trkpt>
      <trkpt lat="43.81161" lon="7.23104">
        <ele>-1</ele>
        <time>1970-01-01T00:00:00Z</time>
      </trkpt>
      <trkpt lat="43.81164" lon="7.23091">
        <ele>-1</ele>
        <time>1970-01-01T00:00:00Z</time>
      </trkpt>
      <trkpt lat="43.81171" lon="7.2308">
        <ele>-1</ele>
        <time>1970-01-01T00:00:00Z</time>
      </trkpt>
      <trkpt lat="43.81181" lon="7.23074">
        <ele>-1</ele>
        <time>1970-01-01T00:00:00Z</time>
      </trkpt>
      <trkpt lat="43.81203" lon="7.23067">
        <ele>-1</ele>
        <time>1970-01-01T00:00:00Z</time>
      </trkpt>
      <trkpt lat="43.8121" lon="7.23061">
        <ele>-1</ele>
        <time>1970-01-01T00:00:00Z</time>
      </trkpt>
      <trkpt lat="43.81217" lon="7.23059">
        <ele>-1</ele>
        <time>1970-01-01T00:00:00Z</time>
      </trkpt>
      <trkpt lat="43.81227" lon="7.23053">
        <ele>-1</ele>
        <time>1970-01-01T00:00:00Z</time>
      </trkpt>
      <trkpt lat="43.81233" lon="7.23051">
        <ele>-1</ele>
        <time>1970-01-01T00:00:00Z</time>
      </trkpt>
      <trkpt lat="43.81242" lon="7.23052">
        <ele>-1</ele>
        <time>1970-01-01T00:00:00Z</time>
      </trkpt>
      <trkpt lat="43.81251" lon="7.23055">
        <ele>-1</ele>
        <time>1970-01-01T00:00:00Z</time>
      </trkpt>
      <trkpt lat="43.81258" lon="7.23059">
        <ele>-1</ele>
        <time>1970-01-01T00:00:00Z</time>
      </trkpt>
      <trkpt lat="43.81264" lon="7.23063">
        <ele>-1</ele>
        <time>1970-01-01T00:00:00Z</time>
      </trkpt>
      <trkpt lat="43.81273" lon="7.23064">
        <ele>-1</ele>
        <time>1970-01-01T00:00:00Z</time>
      </trkpt>
      <trkpt lat="43.81285" lon="7.23065">
        <ele>-1</ele>
        <time>1970-01-01T00:00:00Z</time>
      </trkpt>
      <trkpt lat="43.81294" lon="7.23065">
        <ele>-1</ele>
        <time>1970-01-01T00:00:00Z</time>
      </trkpt>
      <trkpt lat="43.81303" lon="7.23066">
        <ele>-1</ele>
        <time>1970-01-01T00:00:00Z</time>
      </trkpt>
      <trkpt lat="43.81314" lon="7.23067">
        <ele>-1</ele>
        <time>1970-01-01T00:00:00Z</time>
      </trkpt>
      <trkpt lat="43.81323" lon="7.23068">
        <ele>-1</ele>
        <time>1970-01-01T00:00:00Z</time>
      </trkpt>
      <trkpt lat="43.81332" lon="7.23069">
        <ele>-1</ele>
        <time>1970-01-01T00:00:00Z</time>
      </trkpt>
      <trkpt lat="43.8134" lon="7.23072">
        <ele>-1</ele>
        <time>1970-01-01T00:00:00Z</time>
      </trkpt>
      <trkpt lat="43.81347" lon="7.23079">
        <ele>-1</ele>
        <time>1970-01-01T00:00:00Z</time>
      </trkpt>
      <trkpt lat="43.81355" lon="7.23092">
        <ele>-1</ele>
        <time>1970-01-01T00:00:00Z</time>
      </trkpt>
      <trkpt lat="43.81362" lon="7.23102">
        <ele>-1</ele>
        <time>1970-01-01T00:00:00Z</time>
      </trkpt>
      <trkpt lat="43.81368" lon="7.23112">
        <ele>-1</ele>
        <time>1970-01-01T00:00:00Z</time>
      </trkpt>
      <trkpt lat="43.81372" lon="7.23122">
        <ele>-1</ele>
        <time>1970-01-01T00:00:00Z</time>
      </trkpt>
      <trkpt lat="43.81376" lon="7.23131">
        <ele>-1</ele>
        <time>1970-01-01T00:00:00Z</time>
      </trkpt>
      <trkpt lat="43.81382" lon="7.23144">
        <ele>-1</ele>
        <time>1970-01-01T00:00:00Z</time>
      </trkpt>
      <trkpt lat="43.81386" lon="7.23154">
        <ele>-1</ele>
        <time>1970-01-01T00:00:00Z</time>
      </trkpt>
      <trkpt lat="43.81393" lon="7.23161">
        <ele>-1</ele>
        <time>1970-01-01T00:00:00Z</time>
      </trkpt>
      <trkpt lat="43.81397" lon="7.23171">
        <ele>-1</ele>
        <time>1970-01-01T00:00:00Z</time>
      </trkpt>
      <trkpt lat="43.81406" lon="7.23171">
        <ele>-1</ele>
        <time>1970-01-01T00:00:00Z</time>
      </trkpt>
      <trkpt lat="43.81412" lon="7.23175">
        <ele>-1</ele>
        <time>1970-01-01T00:00:00Z</time>
      </trkpt>
      <trkpt lat="43.81419" lon="7.23179">
        <ele>-1</ele>
        <time>1970-01-01T00:00:00Z</time>
      </trkpt>
      <trkpt lat="43.81428" lon="7.23179">
        <ele>-1</ele>
        <time>1970-01-01T00:00:00Z</time>
      </trkpt>
      <trkpt lat="43.81439" lon="7.2318">
        <ele>-1</ele>
        <time>1970-01-01T00:00:00Z</time>
      </trkpt>
      <trkpt lat="43.8145" lon="7.23185">
        <ele>-1</ele>
        <time>1970-01-01T00:00:00Z</time>
      </trkpt>
      <trkpt lat="43.81459" lon="7.23195">
        <ele>-1</ele>
        <time>1970-01-01T00:00:00Z</time>
      </trkpt>
      <trkpt lat="43.81465" lon="7.23204">
        <ele>-1</ele>
        <time>1970-01-01T00:00:00Z</time>
      </trkpt>
      <trkpt lat="43.81474" lon="7.23215">
        <ele>-1</ele>
        <time>1970-01-01T00:00:00Z</time>
      </trkpt>
      <trkpt lat="43.81482" lon="7.23221">
        <ele>-1</ele>
        <time>1970-01-01T00:00:00Z</time>
      </trkpt>
      <trkpt lat="43.81489" lon="7.23228">
        <ele>-1</ele>
        <time>1970-01-01T00:00:00Z</time>
      </trkpt>
      <trkpt lat="43.81493" lon="7.23241">
        <ele>-1</ele>
        <time>1970-01-01T00:00:00Z</time>
      </trkpt>
      <trkpt lat="43.81494" lon="7.23254">
        <ele>-1</ele>
        <time>1970-01-01T00:00:00Z</time>
      </trkpt>
      <trkpt lat="43.81498" lon="7.23266">
        <ele>-1</ele>
        <time>1970-01-01T00:00:00Z</time>
      </trkpt>
      <trkpt lat="43.81505" lon="7.23273">
        <ele>-1</ele>
        <time>1970-01-01T00:00:00Z</time>
      </trkpt>
      <trkpt lat="43.81514" lon="7.23277">
        <ele>-1</ele>
        <time>1970-01-01T00:00:00Z</time>
      </trkpt>
      <trkpt lat="43.8152" lon="7.23281">
        <ele>-1</ele>
        <time>1970-01-01T00:00:00Z</time>
      </trkpt>
      <trkpt lat="43.81527" lon="7.23284">
        <ele>-1</ele>
        <time>1970-01-01T00:00:00Z</time>
      </trkpt>
      <trkpt lat="43.81529" lon="7.23294">
        <ele>-1</ele>
        <time>1970-01-01T00:00:00Z</time>
      </trkpt>
      <trkpt lat="43.8153" lon="7.2331">
        <ele>-1</ele>
        <time>1970-01-01T00:00:00Z</time>
      </trkpt>
      <trkpt lat="43.81532" lon="7.23322">
        <ele>-1</ele>
        <time>1970-01-01T00:00:00Z</time>
      </trkpt>
      <trkpt lat="43.81529" lon="7.23334">
        <ele>-1</ele>
        <time>1970-01-01T00:00:00Z</time>
      </trkpt>
      <trkpt lat="43.81526" lon="7.23346">
        <ele>-1</ele>
        <time>1970-01-01T00:00:00Z</time>
      </trkpt>
      <trkpt lat="43.81526" lon="7.23359">
        <ele>-1</ele>
        <time>1970-01-01T00:00:00Z</time>
      </trkpt>
      <trkpt lat="43.81523" lon="7.23368">
        <ele>-1</ele>
        <time>1970-01-01T00:00:00Z</time>
      </trkpt>
      <trkpt lat="43.81527" lon="7.23378">
        <ele>-1</ele>
        <time>1970-01-01T00:00:00Z</time>
      </trkpt>
      <trkpt lat="43.81529" lon="7.23387">
        <ele>-1</ele>
        <time>1970-01-01T00:00:00Z</time>
      </trkpt>
      <trkpt lat="43.81533" lon="7.23397">
        <ele>-1</ele>
        <time>1970-01-01T00:00:00Z</time>
      </trkpt>
      <trkpt lat="43.81539" lon="7.2341">
        <ele>-1</ele>
        <time>1970-01-01T00:00:00Z</time>
      </trkpt>
      <trkpt lat="43.81543" lon="7.23419">
        <ele>-1</ele>
        <time>1970-01-01T00:00:00Z</time>
      </trkpt>
      <trkpt lat="43.81552" lon="7.2343">
        <ele>-1</ele>
        <time>1970-01-01T00:00:00Z</time>
      </trkpt>
      <trkpt lat="43.81558" lon="7.23439">
        <ele>-1</ele>
        <time>1970-01-01T00:00:00Z</time>
      </trkpt>
      <trkpt lat="43.8156" lon="7.23449">
        <ele>-1</ele>
        <time>1970-01-01T00:00:00Z</time>
      </trkpt>
      <trkpt lat="43.81559" lon="7.23464">
        <ele>-1</ele>
        <time>1970-01-01T00:00:00Z</time>
      </trkpt>
      <trkpt lat="43.81559" lon="7.23477">
        <ele>-1</ele>
        <time>1970-01-01T00:00:00Z</time>
      </trkpt>
      <trkpt lat="43.81558" lon="7.23492">
        <ele>-1</ele>
        <time>1970-01-01T00:00:00Z</time>
      </trkpt>
      <trkpt lat="43.81555" lon="7.23501">
        <ele>-1</ele>
        <time>1970-01-01T00:00:00Z</time>
      </trkpt>
      <trkpt lat="43.81557" lon="7.23511">
        <ele>-1</ele>
        <time>1970-01-01T00:00:00Z</time>
      </trkpt>
      <trkpt lat="43.81563" lon="7.23524">
        <ele>-1</ele>
        <time>1970-01-01T00:00:00Z</time>
      </trkpt>
      <trkpt lat="43.81563" lon="7.23536">
        <ele>-1</ele>
        <time>1970-01-01T00:00:00Z</time>
      </trkpt>
      <trkpt lat="43.81558" lon="7.23548">
        <ele>-1</ele>
        <time>1970-01-01T00:00:00Z</time>
      </trkpt>
      <trkpt lat="43.81559" lon="7.23561">
        <ele>-1</ele>
        <time>1970-01-01T00:00:00Z</time>
      </trkpt>
      <trkpt lat="43.81561" lon="7.23573">
        <ele>-1</ele>
        <time>1970-01-01T00:00:00Z</time>
      </trkpt>
      <trkpt lat="43.81556" lon="7.23585">
        <ele>-1</ele>
        <time>1970-01-01T00:00:00Z</time>
      </trkpt>
      <trkpt lat="43.81549" lon="7.23594">
        <ele>-1</ele>
        <time>1970-01-01T00:00:00Z</time>
      </trkpt>
      <trkpt lat="43.81551" lon="7.23607">
        <ele>-1</ele>
        <time>1970-01-01T00:00:00Z</time>
      </trkpt>
      <trkpt lat="43.81554" lon="7.23619">
        <ele>-1</ele>
        <time>1970-01-01T00:00:00Z</time>
      </trkpt>
      <trkpt lat="43.81556" lon="7.23632">
        <ele>-1</ele>
        <time>1970-01-01T00:00:00Z</time>
      </trkpt>
      <trkpt lat="43.81558" lon="7.23641">
        <ele>-1</ele>
        <time>1970-01-01T00:00:00Z</time>
      </trkpt>
      <trkpt lat="43.8156" lon="7.23651">
        <ele>-1</ele>
        <time>1970-01-01T00:00:00Z</time>
      </trkpt>
      <trkpt lat="43.81561" lon="7.23664">
        <ele>-1</ele>
        <time>1970-01-01T00:00:00Z</time>
      </trkpt>
      <trkpt lat="43.81563" lon="7.23676">
        <ele>-1</ele>
        <time>1970-01-01T00:00:00Z</time>
      </trkpt>
      <trkpt lat="43.81563" lon="7.23688">
        <ele>-1</ele>
        <time>1970-01-01T00:00:00Z</time>
      </trkpt>
      <trkpt lat="43.81567" lon="7.23701">
        <ele>-1</ele>
        <time>1970-01-01T00:00:00Z</time>
      </trkpt>
      <trkpt lat="43.81568" lon="7.23714">
        <ele>-1</ele>
        <time>1970-01-01T00:00:00Z</time>
      </trkpt>
      <trkpt lat="43.81572" lon="7.23724">
        <ele>-1</ele>
        <time>1970-01-01T00:00:00Z</time>
      </trkpt>
      <trkpt lat="43.81572" lon="7.23736">
        <ele>-1</ele>
        <time>1970-01-01T00:00:00Z</time>
      </trkpt>
      <trkpt lat="43.81567" lon="7.23745">
        <ele>-1</ele>
        <time>1970-01-01T00:00:00Z</time>
      </trkpt>
      <trkpt lat="43.8156" lon="7.2375">
        <ele>-1</ele>
        <time>1970-01-01T00:00:00Z</time>
      </trkpt>
      <trkpt lat="43.81553" lon="7.23753">
        <ele>-1</ele>
        <time>1970-01-01T00:00:00Z</time>
      </trkpt>
      <trkpt lat="43.81544" lon="7.23761">
        <ele>-1</ele>
        <time>1970-01-01T00:00:00Z</time>
      </trkpt>
      <trkpt lat="43.81535" lon="7.23761">
        <ele>-1</ele>
        <time>1970-01-01T00:00:00Z</time>
      </trkpt>
      <trkpt lat="43.81528" lon="7.23766">
        <ele>-1</ele>
        <time>1970-01-01T00:00:00Z</time>
      </trkpt>
      <trkpt lat="43.81521" lon="7.23772">
        <ele>-1</ele>
        <time>1970-01-01T00:00:00Z</time>
      </trkpt>
      <trkpt lat="43.81518" lon="7.23781">
        <ele>-1</ele>
        <time>1970-01-01T00:00:00Z</time>
      </trkpt>
      <trkpt lat="43.81513" lon="7.2379">
        <ele>-1</ele>
        <time>1970-01-01T00:00:00Z</time>
      </trkpt>
      <trkpt lat="43.81506" lon="7.23796">
        <ele>-1</ele>
        <time>1970-01-01T00:00:00Z</time>
      </trkpt>
      <trkpt lat="43.81499" lon="7.23807">
        <ele>-1</ele>
        <time>1970-01-01T00:00:00Z</time>
      </trkpt>
      <trkpt lat="43.81492" lon="7.2381">
        <ele>-1</ele>
        <time>1970-01-01T00:00:00Z</time>
      </trkpt>
      <trkpt lat="43.81485" lon="7.23815">
        <ele>-1</ele>
        <time>1970-01-01T00:00:00Z</time>
      </trkpt>
      <trkpt lat="43.81478" lon="7.23821">
        <ele>-1</ele>
        <time>1970-01-01T00:00:00Z</time>
      </trkpt>
      <trkpt lat="43.81471" lon="7.23827">
        <ele>-1</ele>
        <time>1970-01-01T00:00:00Z</time>
      </trkpt>
      <trkpt lat="43.81464" lon="7.23829">
        <ele>-1</ele>
        <time>1970-01-01T00:00:00Z</time>
      </trkpt>
      <trkpt lat="43.81455" lon="7.23838">
        <ele>-1</ele>
        <time>1970-01-01T00:00:00Z</time>
      </trkpt>
      <trkpt lat="43.81412" lon="7.2384">
        <ele>-1</ele>
        <time>1970-01-01T00:00:00Z</time>
      </trkpt>
      <trkpt lat="43.81405" lon="7.23846">
        <ele>-1</ele>
        <time>1970-01-01T00:00:00Z</time>
      </trkpt>
      <trkpt lat="43.81396" lon="7.23845">
        <ele>-1</ele>
        <time>1970-01-01T00:00:00Z</time>
      </trkpt>
      <trkpt lat="43.81393" lon="7.23854">
        <ele>-1</ele>
        <time>1970-01-01T00:00:00Z</time>
      </trkpt>
      <trkpt lat="43.8139" lon="7.23863">
        <ele>-1</ele>
        <time>1970-01-01T00:00:00Z</time>
      </trkpt>
      <trkpt lat="43.81385" lon="7.23878">
        <ele>-1</ele>
        <time>1970-01-01T00:00:00Z</time>
      </trkpt>
      <trkpt lat="43.81385" lon="7.23891">
        <ele>-1</ele>
        <time>1970-01-01T00:00:00Z</time>
      </trkpt>
      <trkpt lat="43.81389" lon="7.239">
        <ele>-1</ele>
        <time>1970-01-01T00:00:00Z</time>
      </trkpt>
      <trkpt lat="43.8139" lon="7.2391">
        <ele>-1</ele>
        <time>1970-01-01T00:00:00Z</time>
      </trkpt>
      <trkpt lat="43.81397" lon="7.2392">
        <ele>-1</ele>
        <time>1970-01-01T00:00:00Z</time>
      </trkpt>
      <trkpt lat="43.81403" lon="7.23923">
        <ele>-1</ele>
        <time>1970-01-01T00:00:00Z</time>
      </trkpt>
      <trkpt lat="43.81412" lon="7.2393">
        <ele>-1</ele>
        <time>1970-01-01T00:00:00Z</time>
      </trkpt>
      <trkpt lat="43.81419" lon="7.23937">
        <ele>-1</ele>
        <time>1970-01-01T00:00:00Z</time>
      </trkpt>
      <trkpt lat="43.81425" lon="7.23941">
        <ele>-1</ele>
        <time>1970-01-01T00:00:00Z</time>
      </trkpt>
      <trkpt lat="43.81434" lon="7.23948">
        <ele>-1</ele>
        <time>1970-01-01T00:00:00Z</time>
      </trkpt>
      <trkpt lat="43.81438" lon="7.23958">
        <ele>-1</ele>
        <time>1970-01-01T00:00:00Z</time>
      </trkpt>
      <trkpt lat="43.81446" lon="7.23974">
        <ele>-1</ele>
        <time>1970-01-01T00:00:00Z</time>
      </trkpt>
      <trkpt lat="43.81452" lon="7.23987">
        <ele>-1</ele>
        <time>1970-01-01T00:00:00Z</time>
      </trkpt>
      <trkpt lat="43.81459" lon="7.23997">
        <ele>-1</ele>
        <time>1970-01-01T00:00:00Z</time>
      </trkpt>
      <trkpt lat="43.81465" lon="7.24006">
        <ele>-1</ele>
        <time>1970-01-01T00:00:00Z</time>
      </trkpt>
      <trkpt lat="43.81469" lon="7.24016">
        <ele>-1</ele>
        <time>1970-01-01T00:00:00Z</time>
      </trkpt>
      <trkpt lat="43.81473" lon="7.24026">
        <ele>-1</ele>
        <time>1970-01-01T00:00:00Z</time>
      </trkpt>
      <trkpt lat="43.81477" lon="7.24036">
        <ele>-1</ele>
        <time>1970-01-01T00:00:00Z</time>
      </trkpt>
      <trkpt lat="43.81479" lon="7.24045">
        <ele>-1</ele>
        <time>1970-01-01T00:00:00Z</time>
      </trkpt>
      <trkpt lat="43.81481" lon="7.24054">
        <ele>-1</ele>
        <time>1970-01-01T00:00:00Z</time>
      </trkpt>
      <trkpt lat="43.8148" lon="7.24067">
        <ele>-1</ele>
        <time>1970-01-01T00:00:00Z</time>
      </trkpt>
      <trkpt lat="43.81475" lon="7.24076">
        <ele>-1</ele>
        <time>1970-01-01T00:00:00Z</time>
      </trkpt>
      <trkpt lat="43.81477" lon="7.24088">
        <ele>-1</ele>
        <time>1970-01-01T00:00:00Z</time>
      </trkpt>
      <trkpt lat="43.81479" lon="7.24098">
        <ele>-1</ele>
        <time>1970-01-01T00:00:00Z</time>
      </trkpt>
      <trkpt lat="43.81483" lon="7.24111">
        <ele>-1</ele>
        <time>1970-01-01T00:00:00Z</time>
      </trkpt>
      <trkpt lat="43.81485" lon="7.2412">
        <ele>-1</ele>
        <time>1970-01-01T00:00:00Z</time>
      </trkpt>
      <trkpt lat="43.81486" lon="7.2413">
        <ele>-1</ele>
        <time>1970-01-01T00:00:00Z</time>
      </trkpt>
      <trkpt lat="43.81486" lon="7.24142">
        <ele>-1</ele>
        <time>1970-01-01T00:00:00Z</time>
      </trkpt>
      <trkpt lat="43.81485" lon="7.24154">
        <ele>-1</ele>
        <time>1970-01-01T00:00:00Z</time>
      </trkpt>
      <trkpt lat="43.81483" lon="7.24163">
        <ele>-1</ele>
        <time>1970-01-01T00:00:00Z</time>
      </trkpt>
      <trkpt lat="43.8148" lon="7.24176">
        <ele>-1</ele>
        <time>1970-01-01T00:00:00Z</time>
      </trkpt>
      <trkpt lat="43.81479" lon="7.24188">
        <ele>-1</ele>
        <time>1970-01-01T00:00:00Z</time>
      </trkpt>
      <trkpt lat="43.81479" lon="7.242">
        <ele>-1</ele>
        <time>1970-01-01T00:00:00Z</time>
      </trkpt>
      <trkpt lat="43.81478" lon="7.24213">
        <ele>-1</ele>
        <time>1970-01-01T00:00:00Z</time>
      </trkpt>
      <trkpt lat="43.8148" lon="7.24222">
        <ele>-1</ele>
        <time>1970-01-01T00:00:00Z</time>
      </trkpt>
      <trkpt lat="43.81479" lon="7.24235">
        <ele>-1</ele>
        <time>1970-01-01T00:00:00Z</time>
      </trkpt>
      <trkpt lat="43.81479" lon="7.24247">
        <ele>-1</ele>
        <time>1970-01-01T00:00:00Z</time>
      </trkpt>
      <trkpt lat="43.81474" lon="7.24256">
        <ele>-1</ele>
        <time>1970-01-01T00:00:00Z</time>
      </trkpt>
      <trkpt lat="43.81473" lon="7.24268">
        <ele>-1</ele>
        <time>1970-01-01T00:00:00Z</time>
      </trkpt>
      <trkpt lat="43.81473" lon="7.24281">
        <ele>-1</ele>
        <time>1970-01-01T00:00:00Z</time>
      </trkpt>
      <trkpt lat="43.81475" lon="7.2429">
        <ele>-1</ele>
        <time>1970-01-01T00:00:00Z</time>
      </trkpt>
      <trkpt lat="43.81479" lon="7.243">
        <ele>-1</ele>
        <time>1970-01-01T00:00:00Z</time>
      </trkpt>
      <trkpt lat="43.8148" lon="7.24312">
        <ele>-1</ele>
        <time>1970-01-01T00:00:00Z</time>
      </trkpt>
      <trkpt lat="43.81473" lon="7.24321">
        <ele>-1</ele>
        <time>1970-01-01T00:00:00Z</time>
      </trkpt>
      <trkpt lat="43.81466" lon="7.24327">
        <ele>-1</ele>
        <time>1970-01-01T00:00:00Z</time>
      </trkpt>
      <trkpt lat="43.81459" lon="7.24332">
        <ele>-1</ele>
        <time>1970-01-01T00:00:00Z</time>
      </trkpt>
      <trkpt lat="43.81448" lon="7.24335">
        <ele>-1</ele>
        <time>1970-01-01T00:00:00Z</time>
      </trkpt>
      <trkpt lat="43.81441" lon="7.24337">
        <ele>-1</ele>
        <time>1970-01-01T00:00:00Z</time>
      </trkpt>
      <trkpt lat="43.81434" lon="7.2434">
        <ele>-1</ele>
        <time>1970-01-01T00:00:00Z</time>
      </trkpt>
      <trkpt lat="43.81423" lon="7.24345">
        <ele>-1</ele>
        <time>1970-01-01T00:00:00Z</time>
      </trkpt>
      <trkpt lat="43.81413" lon="7.2435">
        <ele>-1</ele>
        <time>1970-01-01T00:00:00Z</time>
      </trkpt>
      <trkpt lat="43.81406" lon="7.24356">
        <ele>-1</ele>
        <time>1970-01-01T00:00:00Z</time>
      </trkpt>
      <trkpt lat="43.81399" lon="7.24361">
        <ele>-1</ele>
        <time>1970-01-01T00:00:00Z</time>
      </trkpt>
      <trkpt lat="43.81392" lon="7.24367">
        <ele>-1</ele>
        <time>1970-01-01T00:00:00Z</time>
      </trkpt>
      <trkpt lat="43.81385" lon="7.24376">
        <ele>-1</ele>
        <time>1970-01-01T00:00:00Z</time>
      </trkpt>
      <trkpt lat="43.81378" lon="7.24388">
        <ele>-1</ele>
        <time>1970-01-01T00:00:00Z</time>
      </trkpt>
      <trkpt lat="43.81373" lon="7.24396">
        <ele>-1</ele>
        <time>1970-01-01T00:00:00Z</time>
      </trkpt>
      <trkpt lat="43.81366" lon="7.24402">
        <ele>-1</ele>
        <time>1970-01-01T00:00:00Z</time>
      </trkpt>
      <trkpt lat="43.81359" lon="7.24408">
        <ele>-1</ele>
        <time>1970-01-01T00:00:00Z</time>
      </trkpt>
      <trkpt lat="43.81352" lon="7.24423">
        <ele>-1</ele>
        <time>1970-01-01T00:00:00Z</time>
      </trkpt>
      <trkpt lat="43.81342" lon="7.24431">
        <ele>-1</ele>
        <time>1970-01-01T00:00:00Z</time>
      </trkpt>
      <trkpt lat="43.81333" lon="7.24437">
        <ele>-1</ele>
        <time>1970-01-01T00:00:00Z</time>
      </trkpt>
      <trkpt lat="43.81328" lon="7.24445">
        <ele>-1</ele>
        <time>1970-01-01T00:00:00Z</time>
      </trkpt>
      <trkpt lat="43.81325" lon="7.24455">
        <ele>-1</ele>
        <time>1970-01-01T00:00:00Z</time>
      </trkpt>
      <trkpt lat="43.8132" lon="7.24467">
        <ele>-1</ele>
        <time>1970-01-01T00:00:00Z</time>
      </trkpt>
      <trkpt lat="43.8132" lon="7.24479">
        <ele>-1</ele>
        <time>1970-01-01T00:00:00Z</time>
      </trkpt>
      <trkpt lat="43.81315" lon="7.24491">
        <ele>-1</ele>
        <time>1970-01-01T00:00:00Z</time>
      </trkpt>
      <trkpt lat="43.81308" lon="7.24497">
        <ele>-1</ele>
        <time>1970-01-01T00:00:00Z</time>
      </trkpt>
      <trkpt lat="43.81301" lon="7.24499">
        <ele>-1</ele>
        <time>1970-01-01T00:00:00Z</time>
      </trkpt>
      <trkpt lat="43.81292" lon="7.24501">
        <ele>-1</ele>
        <time>1970-01-01T00:00:00Z</time>
      </trkpt>
      <trkpt lat="43.81283" lon="7.24498">
        <ele>-1</ele>
        <time>1970-01-01T00:00:00Z</time>
      </trkpt>
      <trkpt lat="43.81274" lon="7.24494">
        <ele>-1</ele>
        <time>1970-01-01T00:00:00Z</time>
      </trkpt>
      <trkpt lat="43.81267" lon="7.24499">
        <ele>-1</ele>
        <time>1970-01-01T00:00:00Z</time>
      </trkpt>
      <trkpt lat="43.8126" lon="7.24508">
        <ele>-1</ele>
        <time>1970-01-01T00:00:00Z</time>
      </trkpt>
      <trkpt lat="43.81264" lon="7.24518">
        <ele>-1</ele>
        <time>1970-01-01T00:00:00Z</time>
      </trkpt>
      <trkpt lat="43.81268" lon="7.2453">
        <ele>-1</ele>
        <time>1970-01-01T00:00:00Z</time>
      </trkpt>
      <trkpt lat="43.8127" lon="7.24543">
        <ele>-1</ele>
        <time>1970-01-01T00:00:00Z</time>
      </trkpt>
      <trkpt lat="43.81276" lon="7.24556">
        <ele>-1</ele>
        <time>1970-01-01T00:00:00Z</time>
      </trkpt>
      <trkpt lat="43.81275" lon="7.24568">
        <ele>-1</ele>
        <time>1970-01-01T00:00:00Z</time>
      </trkpt>
      <trkpt lat="43.81277" lon="7.24578">
        <ele>-1</ele>
        <time>1970-01-01T00:00:00Z</time>
      </trkpt>
      <trkpt lat="43.81279" lon="7.24587">
        <ele>-1</ele>
        <time>1970-01-01T00:00:00Z</time>
      </trkpt>
      <trkpt lat="43.81278" lon="7.24603">
        <ele>-1</ele>
        <time>1970-01-01T00:00:00Z</time>
      </trkpt>
      <trkpt lat="43.81275" lon="7.24615">
        <ele>-1</ele>
        <time>1970-01-01T00:00:00Z</time>
      </trkpt>
      <trkpt lat="43.81273" lon="7.24624">
        <ele>-1</ele>
        <time>1970-01-01T00:00:00Z</time>
      </trkpt>
      <trkpt lat="43.8127" lon="7.24633">
        <ele>-1</ele>
        <time>1970-01-01T00:00:00Z</time>
      </trkpt>
      <trkpt lat="43.81263" lon="7.24645">
        <ele>-1</ele>
        <time>1970-01-01T00:00:00Z</time>
      </trkpt>
      <trkpt lat="43.81253" lon="7.2465">
        <ele>-1</ele>
        <time>1970-01-01T00:00:00Z</time>
      </trkpt>
      <trkpt lat="43.81251" lon="7.2466">
        <ele>-1</ele>
        <time>1970-01-01T00:00:00Z</time>
      </trkpt>
      <trkpt lat="43.81246" lon="7.24668">
        <ele>-1</ele>
        <time>1970-01-01T00:00:00Z</time>
      </trkpt>
      <trkpt lat="43.81243" lon="7.24678">
        <ele>-1</ele>
        <time>1970-01-01T00:00:00Z</time>
      </trkpt>
      <trkpt lat="43.81238" lon="7.24686">
        <ele>-1</ele>
        <time>1970-01-01T00:00:00Z</time>
      </trkpt>
      <trkpt lat="43.81229" lon="7.24692">
        <ele>-1</ele>
        <time>1970-01-01T00:00:00Z</time>
      </trkpt>
      <trkpt lat="43.81218" lon="7.24691">
        <ele>-1</ele>
        <time>1970-01-01T00:00:00Z</time>
      </trkpt>
      <trkpt lat="43.81211" lon="7.24693">
        <ele>-1</ele>
        <time>1970-01-01T00:00:00Z</time>
      </trkpt>
      <trkpt lat="43.81202" lon="7.24696">
        <ele>-1</ele>
        <time>1970-01-01T00:00:00Z</time>
      </trkpt>
      <trkpt lat="43.81197" lon="7.24705">
        <ele>-1</ele>
        <time>1970-01-01T00:00:00Z</time>
      </trkpt>
      <trkpt lat="43.81194" lon="7.24714">
        <ele>-1</ele>
        <time>1970-01-01T00:00:00Z</time>
      </trkpt>
      <trkpt lat="43.81196" lon="7.24723">
        <ele>-1</ele>
        <time>1970-01-01T00:00:00Z</time>
      </trkpt>
      <trkpt lat="43.81198" lon="7.24736">
        <ele>-1</ele>
        <time>1970-01-01T00:00:00Z</time>
      </trkpt>
      <trkpt lat="43.812" lon="7.24745">
        <ele>-1</ele>
        <time>1970-01-01T00:00:00Z</time>
      </trkpt>
      <trkpt lat="43.81206" lon="7.24755">
        <ele>-1</ele>
        <time>1970-01-01T00:00:00Z</time>
      </trkpt>
      <trkpt lat="43.81214" lon="7.24765">
        <ele>-1</ele>
        <time>1970-01-01T00:00:00Z</time>
      </trkpt>
      <trkpt lat="43.81214" lon="7.24778">
        <ele>-1</ele>
        <time>1970-01-01T00:00:00Z</time>
      </trkpt>
      <trkpt lat="43.81218" lon="7.24787">
        <ele>-1</ele>
        <time>1970-01-01T00:00:00Z</time>
      </trkpt>
      <trkpt lat="43.8122" lon="7.24797">
        <ele>-1</ele>
        <time>1970-01-01T00:00:00Z</time>
      </trkpt>
      <trkpt lat="43.81215" lon="7.24806">
        <ele>-1</ele>
        <time>1970-01-01T00:00:00Z</time>
      </trkpt>
      <trkpt lat="43.81208" lon="7.24811">
        <ele>-1</ele>
        <time>1970-01-01T00:00:00Z</time>
      </trkpt>
      <trkpt lat="43.81201" lon="7.2482">
        <ele>-1</ele>
        <time>1970-01-01T00:00:00Z</time>
      </trkpt>
      <trkpt lat="43.81202" lon="7.24829">
        <ele>-1</ele>
        <time>1970-01-01T00:00:00Z</time>
      </trkpt>
      <trkpt lat="43.81206" lon="7.24842">
        <ele>-1</ele>
        <time>1970-01-01T00:00:00Z</time>
      </trkpt>
      <trkpt lat="43.8121" lon="7.24855">
        <ele>-1</ele>
        <time>1970-01-01T00:00:00Z</time>
      </trkpt>
      <trkpt lat="43.81212" lon="7.24868">
        <ele>-1</ele>
        <time>1970-01-01T00:00:00Z</time>
      </trkpt>
      <trkpt lat="43.81214" lon="7.2488">
        <ele>-1</ele>
        <time>1970-01-01T00:00:00Z</time>
      </trkpt>
      <trkpt lat="43.81218" lon="7.2489">
        <ele>-1</ele>
        <time>1970-01-01T00:00:00Z</time>
      </trkpt>
      <trkpt lat="43.8122" lon="7.24899">
        <ele>-1</ele>
        <time>1970-01-01T00:00:00Z</time>
      </trkpt>
      <trkpt lat="43.81224" lon="7.24909">
        <ele>-1</ele>
        <time>1970-01-01T00:00:00Z</time>
      </trkpt>
      <trkpt lat="43.81219" lon="7.24918">
        <ele>-1</ele>
        <time>1970-01-01T00:00:00Z</time>
      </trkpt>
      <trkpt lat="43.81218" lon="7.2493">
        <ele>-1</ele>
        <time>1970-01-01T00:00:00Z</time>
      </trkpt>
      <trkpt lat="43.8122" lon="7.2494">
        <ele>-1</ele>
        <time>1970-01-01T00:00:00Z</time>
      </trkpt>
      <trkpt lat="43.81226" lon="7.2495">
        <ele>-1</ele>
        <time>1970-01-01T00:00:00Z</time>
      </trkpt>
      <trkpt lat="43.81233" lon="7.24953">
        <ele>-1</ele>
        <time>1970-01-01T00:00:00Z</time>
      </trkpt>
      <trkpt lat="43.81237" lon="7.24963">
        <ele>-1</ele>
        <time>1970-01-01T00:00:00Z</time>
      </trkpt>
      <trkpt lat="43.81241" lon="7.24976">
        <ele>-1</ele>
        <time>1970-01-01T00:00:00Z</time>
      </trkpt>
      <trkpt lat="43.8124" lon="7.24991">
        <ele>-1</ele>
        <time>1970-01-01T00:00:00Z</time>
      </trkpt>
      <trkpt lat="43.81249" lon="7.25001">
        <ele>-1</ele>
        <time>1970-01-01T00:00:00Z</time>
      </trkpt>
      <trkpt lat="43.81257" lon="7.25008">
        <ele>-1</ele>
        <time>1970-01-01T00:00:00Z</time>
      </trkpt>
      <trkpt lat="43.81261" lon="7.25021">
        <ele>-1</ele>
        <time>1970-01-01T00:00:00Z</time>
      </trkpt>
      <trkpt lat="43.81259" lon="7.25033">
        <ele>-1</ele>
        <time>1970-01-01T00:00:00Z</time>
      </trkpt>
      <trkpt lat="43.81258" lon="7.25046">
        <ele>-1</ele>
        <time>1970-01-01T00:00:00Z</time>
      </trkpt>
      <trkpt lat="43.8126" lon="7.25058">
        <ele>-1</ele>
        <time>1970-01-01T00:00:00Z</time>
      </trkpt>
      <trkpt lat="43.81259" lon="7.25071">
        <ele>-1</ele>
        <time>1970-01-01T00:00:00Z</time>
      </trkpt>
      <trkpt lat="43.81261" lon="7.25083">
        <ele>-1</ele>
        <time>1970-01-01T00:00:00Z</time>
      </trkpt>
      <trkpt lat="43.81267" lon="7.2509">
        <ele>-1</ele>
        <time>1970-01-01T00:00:00Z</time>
      </trkpt>
      <trkpt lat="43.81274" lon="7.25097">
        <ele>-1</ele>
        <time>1970-01-01T00:00:00Z</time>
      </trkpt>
      <trkpt lat="43.8128" lon="7.25103">
        <ele>-1</ele>
        <time>1970-01-01T00:00:00Z</time>
      </trkpt>
      <trkpt lat="43.81289" lon="7.25107">
        <ele>-1</ele>
        <time>1970-01-01T00:00:00Z</time>
      </trkpt>
      <trkpt lat="43.81298" lon="7.25111">
        <ele>-1</ele>
        <time>1970-01-01T00:00:00Z</time>
      </trkpt>
      <trkpt lat="43.81306" lon="7.25118">
        <ele>-1</ele>
        <time>1970-01-01T00:00:00Z</time>
      </trkpt>
      <trkpt lat="43.81315" lon="7.25122">
        <ele>-1</ele>
        <time>1970-01-01T00:00:00Z</time>
      </trkpt>
      <trkpt lat="43.81319" lon="7.25132">
        <ele>-1</ele>
        <time>1970-01-01T00:00:00Z</time>
      </trkpt>
      <trkpt lat="43.81321" lon="7.25144">
        <ele>-1</ele>
        <time>1970-01-01T00:00:00Z</time>
      </trkpt>
      <trkpt lat="43.81325" lon="7.25157">
        <ele>-1</ele>
        <time>1970-01-01T00:00:00Z</time>
      </trkpt>
      <trkpt lat="43.81327" lon="7.2517">
        <ele>-1</ele>
        <time>1970-01-01T00:00:00Z</time>
      </trkpt>
      <trkpt lat="43.81328" lon="7.25182">
        <ele>-1</ele>
        <time>1970-01-01T00:00:00Z</time>
      </trkpt>
      <trkpt lat="43.81335" lon="7.25189">
        <ele>-1</ele>
        <time>1970-01-01T00:00:00Z</time>
      </trkpt>
      <trkpt lat="43.81341" lon="7.25199">
        <ele>-1</ele>
        <time>1970-01-01T00:00:00Z</time>
      </trkpt>
      <trkpt lat="43.81348" lon="7.25203">
        <ele>-1</ele>
        <time>1970-01-01T00:00:00Z</time>
      </trkpt>
      <trkpt lat="43.81355" lon="7.252">
        <ele>-1</ele>
        <time>1970-01-01T00:00:00Z</time>
      </trkpt>
      <trkpt lat="43.81361" lon="7.25198">
        <ele>-1</ele>
        <time>1970-01-01T00:00:00Z</time>
      </trkpt>
      <trkpt lat="43.81368" lon="7.25192">
        <ele>-1</ele>
        <time>1970-01-01T00:00:00Z</time>
      </trkpt>
      <trkpt lat="43.81375" lon="7.25186">
        <ele>-1</ele>
        <time>1970-01-01T00:00:00Z</time>
      </trkpt>
      <trkpt lat="43.81385" lon="7.25184">
        <ele>-1</ele>
        <time>1970-01-01T00:00:00Z</time>
      </trkpt>
      <trkpt lat="43.81391" lon="7.25181">
        <ele>-1</ele>
        <time>1970-01-01T00:00:00Z</time>
      </trkpt>
      <trkpt lat="43.81401" lon="7.25179">
        <ele>-1</ele>
        <time>1970-01-01T00:00:00Z</time>
      </trkpt>
      <trkpt lat="43.8141" lon="7.2518">
        <ele>-1</ele>
        <time>1970-01-01T00:00:00Z</time>
      </trkpt>
      <trkpt lat="43.81421" lon="7.25181">
        <ele>-1</ele>
        <time>1970-01-01T00:00:00Z</time>
      </trkpt>
      <trkpt lat="43.8143" lon="7.25182">
        <ele>-1</ele>
        <time>1970-01-01T00:00:00Z</time>
      </trkpt>
      <trkpt lat="43.81439" lon="7.25182">
        <ele>-1</ele>
        <time>1970-01-01T00:00:00Z</time>
      </trkpt>
      <trkpt lat="43.8145" lon="7.25183">
        <ele>-1</ele>
        <time>1970-01-01T00:00:00Z</time>
      </trkpt>
      <trkpt lat="43.81459" lon="7.25184">
        <ele>-1</ele>
        <time>1970-01-01T00:00:00Z</time>
      </trkpt>
      <trkpt lat="43.81468" lon="7.25185">
        <ele>-1</ele>
        <time>1970-01-01T00:00:00Z</time>
      </trkpt>
      <trkpt lat="43.81477" lon="7.25186">
        <ele>-1</ele>
        <time>1970-01-01T00:00:00Z</time>
      </trkpt>
      <trkpt lat="43.81486" lon="7.25187">
        <ele>-1</ele>
        <time>1970-01-01T00:00:00Z</time>
      </trkpt>
      <trkpt lat="43.81497" lon="7.25188">
        <ele>-1</ele>
        <time>1970-01-01T00:00:00Z</time>
      </trkpt>
      <trkpt lat="43.81506" lon="7.25194">
        <ele>-1</ele>
        <time>1970-01-01T00:00:00Z</time>
      </trkpt>
      <trkpt lat="43.81512" lon="7.25201">
        <ele>-1</ele>
        <time>1970-01-01T00:00:00Z</time>
      </trkpt>
      <trkpt lat="43.81518" lon="7.25211">
        <ele>-1</ele>
        <time>1970-01-01T00:00:00Z</time>
      </trkpt>
      <trkpt lat="43.81525" lon="7.25215">
        <ele>-1</ele>
        <time>1970-01-01T00:00:00Z</time>
      </trkpt>
      <trkpt lat="43.81531" lon="7.25222">
        <ele>-1</ele>
        <time>1970-01-01T00:00:00Z</time>
      </trkpt>
      <trkpt lat="43.81538" lon="7.25228">
        <ele>-1</ele>
        <time>1970-01-01T00:00:00Z</time>
      </trkpt>
      <trkpt lat="43.81544" lon="7.25235">
        <ele>-1</ele>
        <time>1970-01-01T00:00:00Z</time>
      </trkpt>
      <trkpt lat="43.81553" lon="7.25245">
        <ele>-1</ele>
        <time>1970-01-01T00:00:00Z</time>
      </trkpt>
      <trkpt lat="43.81559" lon="7.25255">
        <ele>-1</ele>
        <time>1970-01-01T00:00:00Z</time>
      </trkpt>
      <trkpt lat="43.8157" lon="7.25265">
        <ele>-1</ele>
        <time>1970-01-01T00:00:00Z</time>
      </trkpt>
      <trkpt lat="43.81577" lon="7.25269">
        <ele>-1</ele>
        <time>1970-01-01T00:00:00Z</time>
      </trkpt>
      <trkpt lat="43.81586" lon="7.2527">
        <ele>-1</ele>
        <time>1970-01-01T00:00:00Z</time>
      </trkpt>
      <trkpt lat="43.81595" lon="7.25271">
        <ele>-1</ele>
        <time>1970-01-01T00:00:00Z</time>
      </trkpt>
      <trkpt lat="43.81608" lon="7.25272">
        <ele>-1</ele>
        <time>1970-01-01T00:00:00Z</time>
      </trkpt>
      <trkpt lat="43.81617" lon="7.25276">
        <ele>-1</ele>
        <time>1970-01-01T00:00:00Z</time>
      </trkpt>
      <trkpt lat="43.81626" lon="7.25279">
        <ele>-1</ele>
        <time>1970-01-01T00:00:00Z</time>
      </trkpt>
      <trkpt lat="43.81635" lon="7.2528">
        <ele>-1</ele>
        <time>1970-01-01T00:00:00Z</time>
      </trkpt>
      <trkpt lat="43.81643" lon="7.25287">
        <ele>-1</ele>
        <time>1970-01-01T00:00:00Z</time>
      </trkpt>
      <trkpt lat="43.81647" lon="7.253">
        <ele>-1</ele>
        <time>1970-01-01T00:00:00Z</time>
      </trkpt>
      <trkpt lat="43.81651" lon="7.2531">
        <ele>-1</ele>
        <time>1970-01-01T00:00:00Z</time>
      </trkpt>
      <trkpt lat="43.81653" lon="7.25319">
        <ele>-1</ele>
        <time>1970-01-01T00:00:00Z</time>
      </trkpt>
      <trkpt lat="43.81657" lon="7.25329">
        <ele>-1</ele>
        <time>1970-01-01T00:00:00Z</time>
      </trkpt>
      <trkpt lat="43.81659" lon="7.25338">
        <ele>-1</ele>
        <time>1970-01-01T00:00:00Z</time>
      </trkpt>
      <trkpt lat="43.81663" lon="7.25351">
        <ele>-1</ele>
        <time>1970-01-01T00:00:00Z</time>
      </trkpt>
      <trkpt lat="43.81664" lon="7.25367">
        <ele>-1</ele>
        <time>1970-01-01T00:00:00Z</time>
      </trkpt>
      <trkpt lat="43.81669" lon="7.25376">
        <ele>-1</ele>
        <time>1970-01-01T00:00:00Z</time>
      </trkpt>
      <trkpt lat="43.8167" lon="7.25392">
        <ele>-1</ele>
        <time>1970-01-01T00:00:00Z</time>
      </trkpt>
      <trkpt lat="43.81677" lon="7.25399">
        <ele>-1</ele>
        <time>1970-01-01T00:00:00Z</time>
      </trkpt>
      <trkpt lat="43.81678" lon="7.25408">
        <ele>-1</ele>
        <time>1970-01-01T00:00:00Z</time>
      </trkpt>
      <trkpt lat="43.81682" lon="7.25421">
        <ele>-1</ele>
        <time>1970-01-01T00:00:00Z</time>
      </trkpt>
      <trkpt lat="43.81686" lon="7.25431">
        <ele>-1</ele>
        <time>1970-01-01T00:00:00Z</time>
      </trkpt>
      <trkpt lat="43.8169" lon="7.25444">
        <ele>-1</ele>
        <time>1970-01-01T00:00:00Z</time>
      </trkpt>
      <trkpt lat="43.81697" lon="7.25453">
        <ele>-1</ele>
        <time>1970-01-01T00:00:00Z</time>
      </trkpt>
      <trkpt lat="43.81664" lon="7.25432">
        <ele>-1</ele>
        <time>1970-01-01T00:00:00Z</time>
      </trkpt>
      <trkpt lat="43.81657" lon="7.25425">
        <ele>-1</ele>
        <time>1970-01-01T00:00:00Z</time>
      </trkpt>
      <trkpt lat="43.81649" lon="7.25415">
        <ele>-1</ele>
        <time>1970-01-01T00:00:00Z</time>
      </trkpt>
      <trkpt lat="43.8164" lon="7.25411">
        <ele>-1</ele>
        <time>1970-01-01T00:00:00Z</time>
      </trkpt>
      <trkpt lat="43.81631" lon="7.25404">
        <ele>-1</ele>
        <time>1970-01-01T00:00:00Z</time>
      </trkpt>
      <trkpt lat="43.81625" lon="7.25398">
        <ele>-1</ele>
        <time>1970-01-01T00:00:00Z</time>
      </trkpt>
      <trkpt lat="43.81618" lon="7.25391">
        <ele>-1</ele>
        <time>1970-01-01T00:00:00Z</time>
      </trkpt>
      <trkpt lat="43.81612" lon="7.25387">
        <ele>-1</ele>
        <time>1970-01-01T00:00:00Z</time>
      </trkpt>
      <trkpt lat="43.81608" lon="7.25377">
        <ele>-1</ele>
        <time>1970-01-01T00:00:00Z</time>
      </trkpt>
      <trkpt lat="43.81601" lon="7.25371">
        <ele>-1</ele>
        <time>1970-01-01T00:00:00Z</time>
      </trkpt>
      <trkpt lat="43.81593" lon="7.25361">
        <ele>-1</ele>
        <time>1970-01-01T00:00:00Z</time>
      </trkpt>
      <trkpt lat="43.81586" lon="7.25357">
        <ele>-1</ele>
        <time>1970-01-01T00:00:00Z</time>
      </trkpt>
      <trkpt lat="43.81577" lon="7.2535">
        <ele>-1</ele>
        <time>1970-01-01T00:00:00Z</time>
      </trkpt>
      <trkpt lat="43.81566" lon="7.25349">
        <ele>-1</ele>
        <time>1970-01-01T00:00:00Z</time>
      </trkpt>
      <trkpt lat="43.81557" lon="7.25345">
        <ele>-1</ele>
        <time>1970-01-01T00:00:00Z</time>
      </trkpt>
      <trkpt lat="43.81548" lon="7.25344">
        <ele>-1</ele>
        <time>1970-01-01T00:00:00Z</time>
      </trkpt>
      <trkpt lat="43.81539" lon="7.25344">
        <ele>-1</ele>
        <time>1970-01-01T00:00:00Z</time>
      </trkpt>
      <trkpt lat="43.81528" lon="7.25343">
        <ele>-1</ele>
        <time>1970-01-01T00:00:00Z</time>
      </trkpt>
      <trkpt lat="43.81519" lon="7.25342">
        <ele>-1</ele>
        <time>1970-01-01T00:00:00Z</time>
      </trkpt>
      <trkpt lat="43.8151" lon="7.25344">
        <ele>-1</ele>
        <time>1970-01-01T00:00:00Z</time>
      </trkpt>
      <trkpt lat="43.81501" lon="7.25346">
        <ele>-1</ele>
        <time>1970-01-01T00:00:00Z</time>
      </trkpt>
      <trkpt lat="43.81494" lon="7.25355">
        <ele>-1</ele>
        <time>1970-01-01T00:00:00Z</time>
      </trkpt>
      <trkpt lat="43.81487" lon="7.25361">
        <ele>-1</ele>
        <time>1970-01-01T00:00:00Z</time>
      </trkpt>
      <trkpt lat="43.8148" lon="7.25366">
        <ele>-1</ele>
        <time>1970-01-01T00:00:00Z</time>
      </trkpt>
      <trkpt lat="43.81471" lon="7.25372">
        <ele>-1</ele>
        <time>1970-01-01T00:00:00Z</time>
      </trkpt>
      <trkpt lat="43.81462" lon="7.25374">
        <ele>-1</ele>
        <time>1970-01-01T00:00:00Z</time>
      </trkpt>
      <trkpt lat="43.81453" lon="7.25373">
        <ele>-1</ele>
        <time>1970-01-01T00:00:00Z</time>
      </trkpt>
      <trkpt lat="43.81441" lon="7.25372">
        <ele>-1</ele>
        <time>1970-01-01T00:00:00Z</time>
      </trkpt>
      <trkpt lat="43.81432" lon="7.25372">
        <ele>-1</ele>
        <time>1970-01-01T00:00:00Z</time>
      </trkpt>
      <trkpt lat="43.81423" lon="7.25377">
        <ele>-1</ele>
        <time>1970-01-01T00:00:00Z</time>
      </trkpt>
      <trkpt lat="43.81414" lon="7.25379">
        <ele>-1</ele>
        <time>1970-01-01T00:00:00Z</time>
      </trkpt>
      <trkpt lat="43.81403" lon="7.25378">
        <ele>-1</ele>
        <time>1970-01-01T00:00:00Z</time>
      </trkpt>
      <trkpt lat="43.81392" lon="7.25377">
        <ele>-1</ele>
        <time>1970-01-01T00:00:00Z</time>
      </trkpt>
      <trkpt lat="43.81378" lon="7.25376">
        <ele>-1</ele>
        <time>1970-01-01T00:00:00Z</time>
      </trkpt>
      <trkpt lat="43.81369" lon="7.25375">
        <ele>-1</ele>
        <time>1970-01-01T00:00:00Z</time>
      </trkpt>
      <trkpt lat="43.8136" lon="7.25375">
        <ele>-1</ele>
        <time>1970-01-01T00:00:00Z</time>
      </trkpt>
      <trkpt lat="43.81349" lon="7.25374">
        <ele>-1</ele>
        <time>1970-01-01T00:00:00Z</time>
      </trkpt>
      <trkpt lat="43.81338" lon="7.25373">
        <ele>-1</ele>
        <time>1970-01-01T00:00:00Z</time>
      </trkpt>
      <trkpt lat="43.81329" lon="7.25372">
        <ele>-1</ele>
        <time>1970-01-01T00:00:00Z</time>
      </trkpt>
      <trkpt lat="43.81318" lon="7.25371">
        <ele>-1</ele>
        <time>1970-01-01T00:00:00Z</time>
      </trkpt>
      <trkpt lat="43.81306" lon="7.2537">
        <ele>-1</ele>
        <time>1970-01-01T00:00:00Z</time>
      </trkpt>
      <trkpt lat="43.81295" lon="7.25369">
        <ele>-1</ele>
        <time>1970-01-01T00:00:00Z</time>
      </trkpt>
      <trkpt lat="43.81286" lon="7.25368">
        <ele>-1</ele>
        <time>1970-01-01T00:00:00Z</time>
      </trkpt>
      <trkpt lat="43.81277" lon="7.25367">
        <ele>-1</ele>
        <time>1970-01-01T00:00:00Z</time>
      </trkpt>
      <trkpt lat="43.81268" lon="7.25367">
        <ele>-1</ele>
        <time>1970-01-01T00:00:00Z</time>
      </trkpt>
      <trkpt lat="43.81259" lon="7.25366">
        <ele>-1</ele>
        <time>1970-01-01T00:00:00Z</time>
      </trkpt>
      <trkpt lat="43.8125" lon="7.25365">
        <ele>-1</ele>
        <time>1970-01-01T00:00:00Z</time>
      </trkpt>
      <trkpt lat="43.81241" lon="7.25364">
        <ele>-1</ele>
        <time>1970-01-01T00:00:00Z</time>
      </trkpt>
      <trkpt lat="43.81232" lon="7.2536">
        <ele>-1</ele>
        <time>1970-01-01T00:00:00Z</time>
      </trkpt>
      <trkpt lat="43.81226" lon="7.25357">
        <ele>-1</ele>
        <time>1970-01-01T00:00:00Z</time>
      </trkpt>
      <trkpt lat="43.81217" lon="7.2535">
        <ele>-1</ele>
        <time>1970-01-01T00:00:00Z</time>
      </trkpt>
      <trkpt lat="43.81211" lon="7.25346">
        <ele>-1</ele>
        <time>1970-01-01T00:00:00Z</time>
      </trkpt>
      <trkpt lat="43.81202" lon="7.25339">
        <ele>-1</ele>
        <time>1970-01-01T00:00:00Z</time>
      </trkpt>
      <trkpt lat="43.81195" lon="7.25336">
        <ele>-1</ele>
        <time>1970-01-01T00:00:00Z</time>
      </trkpt>
      <trkpt lat="43.81189" lon="7.25332">
        <ele>-1</ele>
        <time>1970-01-01T00:00:00Z</time>
      </trkpt>
      <trkpt lat="43.8118" lon="7.25328">
        <ele>-1</ele>
        <time>1970-01-01T00:00:00Z</time>
      </trkpt>
      <trkpt lat="43.81171" lon="7.25324">
        <ele>-1</ele>
        <time>1970-01-01T00:00:00Z</time>
      </trkpt>
      <trkpt lat="43.81162" lon="7.2532">
        <ele>-1</ele>
        <time>1970-01-01T00:00:00Z</time>
      </trkpt>
      <trkpt lat="43.81156" lon="7.25317">
        <ele>-1</ele>
        <time>1970-01-01T00:00:00Z</time>
      </trkpt>
      <trkpt lat="43.81149" lon="7.25313">
        <ele>-1</ele>
        <time>1970-01-01T00:00:00Z</time>
      </trkpt>
      <trkpt lat="43.8114" lon="7.25306">
        <ele>-1</ele>
        <time>1970-01-01T00:00:00Z</time>
      </trkpt>
      <trkpt lat="43.81134" lon="7.25296">
        <ele>-1</ele>
        <time>1970-01-01T00:00:00Z</time>
      </trkpt>
      <trkpt lat="43.81125" lon="7.25289">
        <ele>-1</ele>
        <time>1970-01-01T00:00:00Z</time>
      </trkpt>
      <trkpt lat="43.81114" lon="7.25282">
        <ele>-1</ele>
        <time>1970-01-01T00:00:00Z</time>
      </trkpt>
      <trkpt lat="43.81106" lon="7.25275">
        <ele>-1</ele>
        <time>1970-01-01T00:00:00Z</time>
      </trkpt>
      <trkpt lat="43.81097" lon="7.25268">
        <ele>-1</ele>
        <time>1970-01-01T00:00:00Z</time>
      </trkpt>
      <trkpt lat="43.81088" lon="7.25258">
        <ele>-1</ele>
        <time>1970-01-01T00:00:00Z</time>
      </trkpt>
      <trkpt lat="43.8108" lon="7.25254">
        <ele>-1</ele>
        <time>1970-01-01T00:00:00Z</time>
      </trkpt>
      <trkpt lat="43.81071" lon="7.25244">
        <ele>-1</ele>
        <time>1970-01-01T00:00:00Z</time>
      </trkpt>
      <trkpt lat="43.81062" lon="7.25237">
        <ele>-1</ele>
        <time>1970-01-01T00:00:00Z</time>
      </trkpt>
      <trkpt lat="43.81056" lon="7.25233">
        <ele>-1</ele>
        <time>1970-01-01T00:00:00Z</time>
      </trkpt>
      <trkpt lat="43.81054" lon="7.25221">
        <ele>-1</ele>
        <time>1970-01-01T00:00:00Z</time>
      </trkpt>
      <trkpt lat="43.81052" lon="7.25211">
        <ele>-1</ele>
        <time>1970-01-01T00:00:00Z</time>
      </trkpt>
      <trkpt lat="43.81048" lon="7.25202">
        <ele>-1</ele>
        <time>1970-01-01T00:00:00Z</time>
      </trkpt>
      <trkpt lat="43.81042" lon="7.25192">
        <ele>-1</ele>
        <time>1970-01-01T00:00:00Z</time>
      </trkpt>
      <trkpt lat="43.81038" lon="7.25182">
        <ele>-1</ele>
        <time>1970-01-01T00:00:00Z</time>
      </trkpt>
      <trkpt lat="43.81032" lon="7.25172">
        <ele>-1</ele>
        <time>1970-01-01T00:00:00Z</time>
      </trkpt>
      <trkpt lat="43.81025" lon="7.25162">
        <ele>-1</ele>
        <time>1970-01-01T00:00:00Z</time>
      </trkpt>
      <trkpt lat="43.81019" lon="7.25159">
        <ele>-1</ele>
        <time>1970-01-01T00:00:00Z</time>
      </trkpt>
      <trkpt lat="43.81012" lon="7.25155">
        <ele>-1</ele>
        <time>1970-01-01T00:00:00Z</time>
      </trkpt>
      <trkpt lat="43.81006" lon="7.25151">
        <ele>-1</ele>
        <time>1970-01-01T00:00:00Z</time>
      </trkpt>
      <trkpt lat="43.80999" lon="7.25148">
        <ele>-1</ele>
        <time>1970-01-01T00:00:00Z</time>
      </trkpt>
      <trkpt lat="43.80992" lon="7.25144">
        <ele>-1</ele>
        <time>1970-01-01T00:00:00Z</time>
      </trkpt>
      <trkpt lat="43.80984" lon="7.25137">
        <ele>-1</ele>
        <time>1970-01-01T00:00:00Z</time>
      </trkpt>
      <trkpt lat="43.80975" lon="7.25133">
        <ele>-1</ele>
        <time>1970-01-01T00:00:00Z</time>
      </trkpt>
      <trkpt lat="43.80966" lon="7.25129">
        <ele>-1</ele>
        <time>1970-01-01T00:00:00Z</time>
      </trkpt>
      <trkpt lat="43.80957" lon="7.25125">
        <ele>-1</ele>
        <time>1970-01-01T00:00:00Z</time>
      </trkpt>
      <trkpt lat="43.80948" lon="7.25121">
        <ele>-1</ele>
        <time>1970-01-01T00:00:00Z</time>
      </trkpt>
      <trkpt lat="43.80939" lon="7.25121">
        <ele>-1</ele>
        <time>1970-01-01T00:00:00Z</time>
      </trkpt>
      <trkpt lat="43.80931" lon="7.25114">
        <ele>-1</ele>
        <time>1970-01-01T00:00:00Z</time>
      </trkpt>
      <trkpt lat="43.80924" lon="7.2511">
        <ele>-1</ele>
        <time>1970-01-01T00:00:00Z</time>
      </trkpt>
      <trkpt lat="43.80915" lon="7.25103">
        <ele>-1</ele>
        <time>1970-01-01T00:00:00Z</time>
      </trkpt>
      <trkpt lat="43.80909" lon="7.25099">
        <ele>-1</ele>
        <time>1970-01-01T00:00:00Z</time>
      </trkpt>
      <trkpt lat="43.80902" lon="7.25093">
        <ele>-1</ele>
        <time>1970-01-01T00:00:00Z</time>
      </trkpt>
      <trkpt lat="43.80894" lon="7.25086">
        <ele>-1</ele>
        <time>1970-01-01T00:00:00Z</time>
      </trkpt>
      <trkpt lat="43.80887" lon="7.25082">
        <ele>-1</ele>
        <time>1970-01-01T00:00:00Z</time>
      </trkpt>
      <trkpt lat="43.80878" lon="7.25081">
        <ele>-1</ele>
        <time>1970-01-01T00:00:00Z</time>
      </trkpt>
      <trkpt lat="43.80869" lon="7.25077">
        <ele>-1</ele>
        <time>1970-01-01T00:00:00Z</time>
      </trkpt>
      <trkpt lat="43.8086" lon="7.25077">
        <ele>-1</ele>
        <time>1970-01-01T00:00:00Z</time>
      </trkpt>
      <trkpt lat="43.80854" lon="7.25073">
        <ele>-1</ele>
        <time>1970-01-01T00:00:00Z</time>
      </trkpt>
      <trkpt lat="43.80845" lon="7.25069">
        <ele>-1</ele>
        <time>1970-01-01T00:00:00Z</time>
      </trkpt>
      <trkpt lat="43.80834" lon="7.25068">
        <ele>-1</ele>
        <time>1970-01-01T00:00:00Z</time>
      </trkpt>
      <trkpt lat="43.80827" lon="7.25064">
        <ele>-1</ele>
        <time>1970-01-01T00:00:00Z</time>
      </trkpt>
      <trkpt lat="43.8082" lon="7.25073">
        <ele>-1</ele>
        <time>1970-01-01T00:00:00Z</time>
      </trkpt>
      <trkpt lat="43.80813" lon="7.25085">
        <ele>-1</ele>
        <time>1970-01-01T00:00:00Z</time>
      </trkpt>
      <trkpt lat="43.80806" lon="7.2509">
        <ele>-1</ele>
        <time>1970-01-01T00:00:00Z</time>
      </trkpt>
      <trkpt lat="43.80798" lon="7.25099">
        <ele>-1</ele>
        <time>1970-01-01T00:00:00Z</time>
      </trkpt>
      <trkpt lat="43.80789" lon="7.25108">
        <ele>-1</ele>
        <time>1970-01-01T00:00:00Z</time>
      </trkpt>
      <trkpt lat="43.8078" lon="7.25107">
        <ele>-1</ele>
        <time>1970-01-01T00:00:00Z</time>
      </trkpt>
      <trkpt lat="43.80773" lon="7.25112">
        <ele>-1</ele>
        <time>1970-01-01T00:00:00Z</time>
      </trkpt>
      <trkpt lat="43.80766" lon="7.25118">
        <ele>-1</ele>
        <time>1970-01-01T00:00:00Z</time>
      </trkpt>
      <trkpt lat="43.80759" lon="7.25127">
        <ele>-1</ele>
        <time>1970-01-01T00:00:00Z</time>
      </trkpt>
      <trkpt lat="43.80752" lon="7.25129">
        <ele>-1</ele>
        <time>1970-01-01T00:00:00Z</time>
      </trkpt>
      <trkpt lat="43.80743" lon="7.25132">
        <ele>-1</ele>
        <time>1970-01-01T00:00:00Z</time>
      </trkpt>
      <trkpt lat="43.80734" lon="7.25131">
        <ele>-1</ele>
        <time>1970-01-01T00:00:00Z</time>
      </trkpt>
      <trkpt lat="43.80725" lon="7.2513">
        <ele>-1</ele>
        <time>1970-01-01T00:00:00Z</time>
      </trkpt>
      <trkpt lat="43.80716" lon="7.25129">
        <ele>-1</ele>
        <time>1970-01-01T00:00:00Z</time>
      </trkpt>
      <trkpt lat="43.80707" lon="7.25129">
        <ele>-1</ele>
        <time>1970-01-01T00:00:00Z</time>
      </trkpt>
      <trkpt lat="43.80696" lon="7.25128">
        <ele>-1</ele>
        <time>1970-01-01T00:00:00Z</time>
      </trkpt>
      <trkpt lat="43.80687" lon="7.25127">
        <ele>-1</ele>
        <time>1970-01-01T00:00:00Z</time>
      </trkpt>
      <trkpt lat="43.80678" lon="7.25126">
        <ele>-1</ele>
        <time>1970-01-01T00:00:00Z</time>
      </trkpt>
      <trkpt lat="43.80671" lon="7.25122">
        <ele>-1</ele>
        <time>1970-01-01T00:00:00Z</time>
      </trkpt>
      <trkpt lat="43.80662" lon="7.25122">
        <ele>-1</ele>
        <time>1970-01-01T00:00:00Z</time>
      </trkpt>
      <trkpt lat="43.80656" lon="7.25118">
        <ele>-1</ele>
        <time>1970-01-01T00:00:00Z</time>
      </trkpt>
      <trkpt lat="43.80649" lon="7.25114">
        <ele>-1</ele>
        <time>1970-01-01T00:00:00Z</time>
      </trkpt>
      <trkpt lat="43.80643" lon="7.25111">
        <ele>-1</ele>
        <time>1970-01-01T00:00:00Z</time>
      </trkpt>
      <trkpt lat="43.80636" lon="7.25107">
        <ele>-1</ele>
        <time>1970-01-01T00:00:00Z</time>
      </trkpt>
      <trkpt lat="43.80627" lon="7.25106">
        <ele>-1</ele>
        <time>1970-01-01T00:00:00Z</time>
      </trkpt>
      <trkpt lat="43.8062" lon="7.25112">
        <ele>-1</ele>
        <time>1970-01-01T00:00:00Z</time>
      </trkpt>
      <trkpt lat="43.80609" lon="7.25114">
        <ele>-1</ele>
        <time>1970-01-01T00:00:00Z</time>
      </trkpt>
      <trkpt lat="43.80602" lon="7.25116">
        <ele>-1</ele>
        <time>1970-01-01T00:00:00Z</time>
      </trkpt>
      <trkpt lat="43.80593" lon="7.25119">
        <ele>-1</ele>
        <time>1970-01-01T00:00:00Z</time>
      </trkpt>
      <trkpt lat="43.80584" lon="7.25118">
        <ele>-1</ele>
        <time>1970-01-01T00:00:00Z</time>
      </trkpt>
      <trkpt lat="43.80572" lon="7.25117">
        <ele>-1</ele>
        <time>1970-01-01T00:00:00Z</time>
      </trkpt>
      <trkpt lat="43.80563" lon="7.25119">
        <ele>-1</ele>
        <time>1970-01-01T00:00:00Z</time>
      </trkpt>
      <trkpt lat="43.80554" lon="7.25125">
        <ele>-1</ele>
        <time>1970-01-01T00:00:00Z</time>
      </trkpt>
      <trkpt lat="43.80545" lon="7.2513">
        <ele>-1</ele>
        <time>1970-01-01T00:00:00Z</time>
      </trkpt>
      <trkpt lat="43.80538" lon="7.25136">
        <ele>-1</ele>
        <time>1970-01-01T00:00:00Z</time>
      </trkpt>
      <trkpt lat="43.80529" lon="7.25135">
        <ele>-1</ele>
        <time>1970-01-01T00:00:00Z</time>
      </trkpt>
      <trkpt lat="43.8052" lon="7.25134">
        <ele>-1</ele>
        <time>1970-01-01T00:00:00Z</time>
      </trkpt>
      <trkpt lat="43.80511" lon="7.25133">
        <ele>-1</ele>
        <time>1970-01-01T00:00:00Z</time>
      </trkpt>
      <trkpt lat="43.80502" lon="7.25133">
        <ele>-1</ele>
        <time>1970-01-01T00:00:00Z</time>
      </trkpt>
      <trkpt lat="43.80491" lon="7.25132">
        <ele>-1</ele>
        <time>1970-01-01T00:00:00Z</time>
      </trkpt>
      <trkpt lat="43.80481" lon="7.2514">
        <ele>-1</ele>
        <time>1970-01-01T00:00:00Z</time>
      </trkpt>
      <trkpt lat="43.80474" lon="7.25143">
        <ele>-1</ele>
        <time>1970-01-01T00:00:00Z</time>
      </trkpt>
      <trkpt lat="43.80467" lon="7.25148">
        <ele>-1</ele>
        <time>1970-01-01T00:00:00Z</time>
      </trkpt>
      <trkpt lat="43.8046" lon="7.25154">
        <ele>-1</ele>
        <time>1970-01-01T00:00:00Z</time>
      </trkpt>
      <trkpt lat="43.80454" lon="7.25156">
        <ele>-1</ele>
        <time>1970-01-01T00:00:00Z</time>
      </trkpt>
      <trkpt lat="43.80445" lon="7.25156">
        <ele>-1</ele>
        <time>1970-01-01T00:00:00Z</time>
      </trkpt>
      <trkpt lat="43.80438" lon="7.25158">
        <ele>-1</ele>
        <time>1970-01-01T00:00:00Z</time>
      </trkpt>
      <trkpt lat="43.80429" lon="7.25157">
        <ele>-1</ele>
        <time>1970-01-01T00:00:00Z</time>
      </trkpt>
      <trkpt lat="43.80418" lon="7.25156">
        <ele>-1</ele>
        <time>1970-01-01T00:00:00Z</time>
      </trkpt>
      <trkpt lat="43.80406" lon="7.25155">
        <ele>-1</ele>
        <time>1970-01-01T00:00:00Z</time>
      </trkpt>
      <trkpt lat="43.80399" lon="7.25158">
        <ele>-1</ele>
        <time>1970-01-01T00:00:00Z</time>
      </trkpt>
      <trkpt lat="43.80358" lon="7.25182">
        <ele>-1</ele>
        <time>1970-01-01T00:00:00Z</time>
      </trkpt>
      <trkpt lat="43.80349" lon="7.25178">
        <ele>-1</ele>
        <time>1970-01-01T00:00:00Z</time>
      </trkpt>
      <trkpt lat="43.8034" lon="7.25178">
        <ele>-1</ele>
        <time>1970-01-01T00:00:00Z</time>
      </trkpt>
      <trkpt lat="43.80333" lon="7.25174">
        <ele>-1</ele>
        <time>1970-01-01T00:00:00Z</time>
      </trkpt>
      <trkpt lat="43.80327" lon="7.2517">
        <ele>-1</ele>
        <time>1970-01-01T00:00:00Z</time>
      </trkpt>
      <trkpt lat="43.80318" lon="7.25166">
        <ele>-1</ele>
        <time>1970-01-01T00:00:00Z</time>
      </trkpt>
      <trkpt lat="43.80311" lon="7.25163">
        <ele>-1</ele>
        <time>1970-01-01T00:00:00Z</time>
      </trkpt>
      <trkpt lat="43.80303" lon="7.25159">
        <ele>-1</ele>
        <time>1970-01-01T00:00:00Z</time>
      </trkpt>
      <trkpt lat="43.80294" lon="7.25155">
        <ele>-1</ele>
        <time>1970-01-01T00:00:00Z</time>
      </trkpt>
      <trkpt lat="43.80285" lon="7.25151">
        <ele>-1</ele>
        <time>1970-01-01T00:00:00Z</time>
      </trkpt>
      <trkpt lat="43.80279" lon="7.25144">
        <ele>-1</ele>
        <time>1970-01-01T00:00:00Z</time>
      </trkpt>
      <trkpt lat="43.80272" lon="7.25141">
        <ele>-1</ele>
        <time>1970-01-01T00:00:00Z</time>
      </trkpt>
      <trkpt lat="43.80265" lon="7.25137">
        <ele>-1</ele>
        <time>1970-01-01T00:00:00Z</time>
      </trkpt>
      <trkpt lat="43.80257" lon="7.2513">
        <ele>-1</ele>
        <time>1970-01-01T00:00:00Z</time>
      </trkpt>
      <trkpt lat="43.80248" lon="7.25123">
        <ele>-1</ele>
        <time>1970-01-01T00:00:00Z</time>
      </trkpt>
      <trkpt lat="43.80239" lon="7.25116">
        <ele>-1</ele>
        <time>1970-01-01T00:00:00Z</time>
      </trkpt>
      <trkpt lat="43.80233" lon="7.25109">
        <ele>-1</ele>
        <time>1970-01-01T00:00:00Z</time>
      </trkpt>
      <trkpt lat="43.80229" lon="7.251">
        <ele>-1</ele>
        <time>1970-01-01T00:00:00Z</time>
      </trkpt>
      <trkpt lat="43.80222" lon="7.25093">
        <ele>-1</ele>
        <time>1970-01-01T00:00:00Z</time>
      </trkpt>
      <trkpt lat="43.80218" lon="7.25083">
        <ele>-1</ele>
        <time>1970-01-01T00:00:00Z</time>
      </trkpt>
      <trkpt lat="43.80214" lon="7.25074">
        <ele>-1</ele>
        <time>1970-01-01T00:00:00Z</time>
      </trkpt>
      <trkpt lat="43.80208" lon="7.25061">
        <ele>-1</ele>
        <time>1970-01-01T00:00:00Z</time>
      </trkpt>
      <trkpt lat="43.80204" lon="7.25048">
        <ele>-1</ele>
        <time>1970-01-01T00:00:00Z</time>
      </trkpt>
      <trkpt lat="43.802" lon="7.25038">
        <ele>-1</ele>
        <time>1970-01-01T00:00:00Z</time>
      </trkpt>
      <trkpt lat="43.80192" lon="7.25025">
        <ele>-1</ele>
        <time>1970-01-01T00:00:00Z</time>
      </trkpt>
      <trkpt lat="43.80185" lon="7.25015">
        <ele>-1</ele>
        <time>1970-01-01T00:00:00Z</time>
      </trkpt>
      <trkpt lat="43.80179" lon="7.25011">
        <ele>-1</ele>
        <time>1970-01-01T00:00:00Z</time>
      </trkpt>
      <trkpt lat="43.80172" lon="7.25002">
        <ele>-1</ele>
        <time>1970-01-01T00:00:00Z</time>
      </trkpt>
      <trkpt lat="43.80166" lon="7.24995">
        <ele>-1</ele>
        <time>1970-01-01T00:00:00Z</time>
      </trkpt>
      <trkpt lat="43.80157" lon="7.24991">
        <ele>-1</ele>
        <time>1970-01-01T00:00:00Z</time>
      </trkpt>
      <trkpt lat="43.80148" lon="7.24987">
        <ele>-1</ele>
        <time>1970-01-01T00:00:00Z</time>
      </trkpt>
      <trkpt lat="43.80139" lon="7.24986">
        <ele>-1</ele>
        <time>1970-01-01T00:00:00Z</time>
      </trkpt>
      <trkpt lat="43.80131" lon="7.24979">
        <ele>-1</ele>
        <time>1970-01-01T00:00:00Z</time>
      </trkpt>
      <trkpt lat="43.80122" lon="7.24969">
        <ele>-1</ele>
        <time>1970-01-01T00:00:00Z</time>
      </trkpt>
      <trkpt lat="43.80113" lon="7.24962">
        <ele>-1</ele>
        <time>1970-01-01T00:00:00Z</time>
      </trkpt>
      <trkpt lat="43.80107" lon="7.24955">
        <ele>-1</ele>
        <time>1970-01-01T00:00:00Z</time>
      </trkpt>
      <trkpt lat="43.80101" lon="7.24943">
        <ele>-1</ele>
        <time>1970-01-01T00:00:00Z</time>
      </trkpt>
      <trkpt lat="43.80099" lon="7.24933">
        <ele>-1</ele>
        <time>1970-01-01T00:00:00Z</time>
      </trkpt>
      <trkpt lat="43.80095" lon="7.2492">
        <ele>-1</ele>
        <time>1970-01-01T00:00:00Z</time>
      </trkpt>
      <trkpt lat="43.80089" lon="7.2491">
        <ele>-1</ele>
        <time>1970-01-01T00:00:00Z</time>
      </trkpt>
      <trkpt lat="43.80085" lon="7.24898">
        <ele>-1</ele>
        <time>1970-01-01T00:00:00Z</time>
      </trkpt>
      <trkpt lat="43.80081" lon="7.24885">
        <ele>-1</ele>
        <time>1970-01-01T00:00:00Z</time>
      </trkpt>
      <trkpt lat="43.80077" lon="7.24872">
        <ele>-1</ele>
        <time>1970-01-01T00:00:00Z</time>
      </trkpt>
      <trkpt lat="43.80073" lon="7.24862">
        <ele>-1</ele>
        <time>1970-01-01T00:00:00Z</time>
      </trkpt>
      <trkpt lat="43.80071" lon="7.2485">
        <ele>-1</ele>
        <time>1970-01-01T00:00:00Z</time>
      </trkpt>
      <trkpt lat="43.80069" lon="7.2484">
        <ele>-1</ele>
        <time>1970-01-01T00:00:00Z</time>
      </trkpt>
      <trkpt lat="43.8007" lon="7.24828">
        <ele>-1</ele>
        <time>1970-01-01T00:00:00Z</time>
      </trkpt>
      <trkpt lat="43.80071" lon="7.24812">
        <ele>-1</ele>
        <time>1970-01-01T00:00:00Z</time>
      </trkpt>
      <trkpt lat="43.80069" lon="7.248">
        <ele>-1</ele>
        <time>1970-01-01T00:00:00Z</time>
      </trkpt>
      <trkpt lat="43.80067" lon="7.2479">
        <ele>-1</ele>
        <time>1970-01-01T00:00:00Z</time>
      </trkpt>
      <trkpt lat="43.80068" lon="7.24778">
        <ele>-1</ele>
        <time>1970-01-01T00:00:00Z</time>
      </trkpt>
      <trkpt lat="43.80068" lon="7.24766">
        <ele>-1</ele>
        <time>1970-01-01T00:00:00Z</time>
      </trkpt>
      <trkpt lat="43.80064" lon="7.24753">
        <ele>-1</ele>
        <time>1970-01-01T00:00:00Z</time>
      </trkpt>
      <trkpt lat="43.8006" lon="7.2474">
        <ele>-1</ele>
        <time>1970-01-01T00:00:00Z</time>
      </trkpt>
      <trkpt lat="43.80054" lon="7.2473">
        <ele>-1</ele>
        <time>1970-01-01T00:00:00Z</time>
      </trkpt>
      <trkpt lat="43.80052" lon="7.24721">
        <ele>-1</ele>
        <time>1970-01-01T00:00:00Z</time>
      </trkpt>
      <trkpt lat="43.8005" lon="7.24711">
        <ele>-1</ele>
        <time>1970-01-01T00:00:00Z</time>
      </trkpt>
      <trkpt lat="43.80044" lon="7.24698">
        <ele>-1</ele>
        <time>1970-01-01T00:00:00Z</time>
      </trkpt>
      <trkpt lat="43.80038" lon="7.24695">
        <ele>-1</ele>
        <time>1970-01-01T00:00:00Z</time>
      </trkpt>
      <trkpt lat="43.80029" lon="7.24694">
        <ele>-1</ele>
        <time>1970-01-01T00:00:00Z</time>
      </trkpt>
      <trkpt lat="43.8002" lon="7.24696">
        <ele>-1</ele>
        <time>1970-01-01T00:00:00Z</time>
      </trkpt>
      <trkpt lat="43.8001" lon="7.24702">
        <ele>-1</ele>
        <time>1970-01-01T00:00:00Z</time>
      </trkpt>
      <trkpt lat="43.80001" lon="7.24704">
        <ele>-1</ele>
        <time>1970-01-01T00:00:00Z</time>
      </trkpt>
      <trkpt lat="43.79994" lon="7.2471">
        <ele>-1</ele>
        <time>1970-01-01T00:00:00Z</time>
      </trkpt>
      <trkpt lat="43.79985" lon="7.24709">
        <ele>-1</ele>
        <time>1970-01-01T00:00:00Z</time>
      </trkpt>
      <trkpt lat="43.79976" lon="7.24708">
        <ele>-1</ele>
        <time>1970-01-01T00:00:00Z</time>
      </trkpt>
      <trkpt lat="43.7997" lon="7.24704">
        <ele>-1</ele>
        <time>1970-01-01T00:00:00Z</time>
      </trkpt>
      <trkpt lat="43.79961" lon="7.24704">
        <ele>-1</ele>
        <time>1970-01-01T00:00:00Z</time>
      </trkpt>
      <trkpt lat="43.7995" lon="7.24703">
        <ele>-1</ele>
        <time>1970-01-01T00:00:00Z</time>
      </trkpt>
      <trkpt lat="43.79938" lon="7.24702">
        <ele>-1</ele>
        <time>1970-01-01T00:00:00Z</time>
      </trkpt>
      <trkpt lat="43.79929" lon="7.24704">
        <ele>-1</ele>
        <time>1970-01-01T00:00:00Z</time>
      </trkpt>
      <trkpt lat="43.7992" lon="7.24706">
        <ele>-1</ele>
        <time>1970-01-01T00:00:00Z</time>
      </trkpt>
      <trkpt lat="43.79911" lon="7.24712">
        <ele>-1</ele>
        <time>1970-01-01T00:00:00Z</time>
      </trkpt>
      <trkpt lat="43.79902" lon="7.24714">
        <ele>-1</ele>
        <time>1970-01-01T00:00:00Z</time>
      </trkpt>
      <trkpt lat="43.79895" lon="7.24716">
        <ele>-1</ele>
        <time>1970-01-01T00:00:00Z</time>
      </trkpt>
      <trkpt lat="43.79886" lon="7.24722">
        <ele>-1</ele>
        <time>1970-01-01T00:00:00Z</time>
      </trkpt>
      <trkpt lat="43.79876" lon="7.24724">
        <ele>-1</ele>
        <time>1970-01-01T00:00:00Z</time>
      </trkpt>
      <trkpt lat="43.79869" lon="7.2473">
        <ele>-1</ele>
        <time>1970-01-01T00:00:00Z</time>
      </trkpt>
      <trkpt lat="43.79862" lon="7.24735">
        <ele>-1</ele>
        <time>1970-01-01T00:00:00Z</time>
      </trkpt>
      <trkpt lat="43.79856" lon="7.24738">
        <ele>-1</ele>
        <time>1970-01-01T00:00:00Z</time>
      </trkpt>
      <trkpt lat="43.79844" lon="7.24737">
        <ele>-1</ele>
        <time>1970-01-01T00:00:00Z</time>
      </trkpt>
      <trkpt lat="43.79835" lon="7.24736">
        <ele>-1</ele>
        <time>1970-01-01T00:00:00Z</time>
      </trkpt>
      <trkpt lat="43.79826" lon="7.24745">
        <ele>-1</ele>
        <time>1970-01-01T00:00:00Z</time>
      </trkpt>
      <trkpt lat="43.79819" lon="7.24753">
        <ele>-1</ele>
        <time>1970-01-01T00:00:00Z</time>
      </trkpt>
      <trkpt lat="43.79816" lon="7.24763">
        <ele>-1</ele>
        <time>1970-01-01T00:00:00Z</time>
      </trkpt>
      <trkpt lat="43.79809" lon="7.24771">
        <ele>-1</ele>
        <time>1970-01-01T00:00:00Z</time>
      </trkpt>
      <trkpt lat="43.798" lon="7.24777">
        <ele>-1</ele>
        <time>1970-01-01T00:00:00Z</time>
      </trkpt>
      <trkpt lat="43.79793" lon="7.24785">
        <ele>-1</ele>
        <time>1970-01-01T00:00:00Z</time>
      </trkpt>
      <trkpt lat="43.79783" lon="7.24794">
        <ele>-1</ele>
        <time>1970-01-01T00:00:00Z</time>
      </trkpt>
      <trkpt lat="43.79776" lon="7.24796">
        <ele>-1</ele>
        <time>1970-01-01T00:00:00Z</time>
      </trkpt>
      <trkpt lat="43.79769" lon="7.24805">
        <ele>-1</ele>
        <time>1970-01-01T00:00:00Z</time>
      </trkpt>
      <trkpt lat="43.79767" lon="7.24814">
        <ele>-1</ele>
        <time>1970-01-01T00:00:00Z</time>
      </trkpt>
      <trkpt lat="43.7976" lon="7.2482">
        <ele>-1</ele>
        <time>1970-01-01T00:00:00Z</time>
      </trkpt>
      <trkpt lat="43.79752" lon="7.24828">
        <ele>-1</ele>
        <time>1970-01-01T00:00:00Z</time>
      </trkpt>
      <trkpt lat="43.79743" lon="7.24828">
        <ele>-1</ele>
        <time>1970-01-01T00:00:00Z</time>
      </trkpt>
      <trkpt lat="43.79737" lon="7.2483">
        <ele>-1</ele>
        <time>1970-01-01T00:00:00Z</time>
      </trkpt>
      <trkpt lat="43.79725" lon="7.24832">
        <ele>-1</ele>
        <time>1970-01-01T00:00:00Z</time>
      </trkpt>
      <trkpt lat="43.79718" lon="7.24838">
        <ele>-1</ele>
        <time>1970-01-01T00:00:00Z</time>
      </trkpt>
      <trkpt lat="43.79707" lon="7.24843">
        <ele>-1</ele>
        <time>1970-01-01T00:00:00Z</time>
      </trkpt>
      <trkpt lat="43.797" lon="7.24846">
        <ele>-1</ele>
        <time>1970-01-01T00:00:00Z</time>
      </trkpt>
      <trkpt lat="43.79693" lon="7.24848">
        <ele>-1</ele>
        <time>1970-01-01T00:00:00Z</time>
      </trkpt>
      <trkpt lat="43.79686" lon="7.24854">
        <ele>-1</ele>
        <time>1970-01-01T00:00:00Z</time>
      </trkpt>
      <trkpt lat="43.79679" lon="7.24863">
        <ele>-1</ele>
        <time>1970-01-01T00:00:00Z</time>
      </trkpt>
      <trkpt lat="43.79674" lon="7.24871">
        <ele>-1</ele>
        <time>1970-01-01T00:00:00Z</time>
      </trkpt>
      <trkpt lat="43.79665" lon="7.2488">
        <ele>-1</ele>
        <time>1970-01-01T00:00:00Z</time>
      </trkpt>
      <trkpt lat="43.79657" lon="7.24889">
        <ele>-1</ele>
        <time>1970-01-01T00:00:00Z</time>
      </trkpt>
      <trkpt lat="43.79652" lon="7.24901">
        <ele>-1</ele>
        <time>1970-01-01T00:00:00Z</time>
      </trkpt>
      <trkpt lat="43.79645" lon="7.24909">
        <ele>-1</ele>
        <time>1970-01-01T00:00:00Z</time>
      </trkpt>
      <trkpt lat="43.79638" lon="7.24912">
        <ele>-1</ele>
        <time>1970-01-01T00:00:00Z</time>
      </trkpt>
      <trkpt lat="43.79629" lon="7.2492">
        <ele>-1</ele>
        <time>1970-01-01T00:00:00Z</time>
      </trkpt>
      <trkpt lat="43.79618" lon="7.24919">
        <ele>-1</ele>
        <time>1970-01-01T00:00:00Z</time>
      </trkpt>
      <trkpt lat="43.79609" lon="7.24919">
        <ele>-1</ele>
        <time>1970-01-01T00:00:00Z</time>
      </trkpt>
      <trkpt lat="43.796" lon="7.24918">
        <ele>-1</ele>
        <time>1970-01-01T00:00:00Z</time>
      </trkpt>
      <trkpt lat="43.79593" lon="7.2492">
        <ele>-1</ele>
        <time>1970-01-01T00:00:00Z</time>
      </trkpt>
      <trkpt lat="43.79584" lon="7.2492">
        <ele>-1</ele>
        <time>1970-01-01T00:00:00Z</time>
      </trkpt>
      <trkpt lat="43.79573" lon="7.24919">
        <ele>-1</ele>
        <time>1970-01-01T00:00:00Z</time>
      </trkpt>
      <trkpt lat="43.79564" lon="7.24918">
        <ele>-1</ele>
        <time>1970-01-01T00:00:00Z</time>
      </trkpt>
      <trkpt lat="43.79555" lon="7.24917">
        <ele>-1</ele>
        <time>1970-01-01T00:00:00Z</time>
      </trkpt>
      <trkpt lat="43.79546" lon="7.24916">
        <ele>-1</ele>
        <time>1970-01-01T00:00:00Z</time>
      </trkpt>
      <trkpt lat="43.79537" lon="7.24916">
        <ele>-1</ele>
        <time>1970-01-01T00:00:00Z</time>
      </trkpt>
      <trkpt lat="43.79528" lon="7.24912">
        <ele>-1</ele>
        <time>1970-01-01T00:00:00Z</time>
      </trkpt>
      <trkpt lat="43.79521" lon="7.24908">
        <ele>-1</ele>
        <time>1970-01-01T00:00:00Z</time>
      </trkpt>
      <trkpt lat="43.79512" lon="7.24907">
        <ele>-1</ele>
        <time>1970-01-01T00:00:00Z</time>
      </trkpt>
      <trkpt lat="43.79506" lon="7.24904">
        <ele>-1</ele>
        <time>1970-01-01T00:00:00Z</time>
      </trkpt>
      <trkpt lat="43.79493" lon="7.24899">
        <ele>-1</ele>
        <time>1970-01-01T00:00:00Z</time>
      </trkpt>
      <trkpt lat="43.79486" lon="7.24896">
        <ele>-1</ele>
        <time>1970-01-01T00:00:00Z</time>
      </trkpt>
      <trkpt lat="43.79479" lon="7.24892">
        <ele>-1</ele>
        <time>1970-01-01T00:00:00Z</time>
      </trkpt>
      <trkpt lat="43.79471" lon="7.24885">
        <ele>-1</ele>
        <time>1970-01-01T00:00:00Z</time>
      </trkpt>
      <trkpt lat="43.79462" lon="7.24881">
        <ele>-1</ele>
        <time>1970-01-01T00:00:00Z</time>
      </trkpt>
      <trkpt lat="43.79453" lon="7.24874">
        <ele>-1</ele>
        <time>1970-01-01T00:00:00Z</time>
      </trkpt>
      <trkpt lat="43.79444" lon="7.2487">
        <ele>-1</ele>
        <time>1970-01-01T00:00:00Z</time>
      </trkpt>
      <trkpt lat="43.79436" lon="7.24863">
        <ele>-1</ele>
        <time>1970-01-01T00:00:00Z</time>
      </trkpt>
      <trkpt lat="43.79427" lon="7.24859">
        <ele>-1</ele>
        <time>1970-01-01T00:00:00Z</time>
      </trkpt>
      <trkpt lat="43.7942" lon="7.24856">
        <ele>-1</ele>
        <time>1970-01-01T00:00:00Z</time>
      </trkpt>
      <trkpt lat="43.79411" lon="7.24852">
        <ele>-1</ele>
        <time>1970-01-01T00:00:00Z</time>
      </trkpt>
      <trkpt lat="43.79405" lon="7.24848">
        <ele>-1</ele>
        <time>1970-01-01T00:00:00Z</time>
      </trkpt>
      <trkpt lat="43.79398" lon="7.24845">
        <ele>-1</ele>
        <time>1970-01-01T00:00:00Z</time>
      </trkpt>
      <trkpt lat="43.79392" lon="7.24841">
        <ele>-1</ele>
        <time>1970-01-01T00:00:00Z</time>
      </trkpt>
      <trkpt lat="43.79383" lon="7.24837">
        <ele>-1</ele>
        <time>1970-01-01T00:00:00Z</time>
      </trkpt>
      <trkpt lat="43.79376" lon="7.24833">
        <ele>-1</ele>
        <time>1970-01-01T00:00:00Z</time>
      </trkpt>
      <trkpt lat="43.79367" lon="7.24833">
        <ele>-1</ele>
        <time>1970-01-01T00:00:00Z</time>
      </trkpt>
      <trkpt lat="43.79361" lon="7.24829">
        <ele>-1</ele>
        <time>1970-01-01T00:00:00Z</time>
      </trkpt>
      <trkpt lat="43.79354" lon="7.24825">
        <ele>-1</ele>
        <time>1970-01-01T00:00:00Z</time>
      </trkpt>
      <trkpt lat="43.79345" lon="7.24821">
        <ele>-1</ele>
        <time>1970-01-01T00:00:00Z</time>
      </trkpt>
      <trkpt lat="43.79339" lon="7.24818">
        <ele>-1</ele>
        <time>1970-01-01T00:00:00Z</time>
      </trkpt>
      <trkpt lat="43.7933" lon="7.24814">
        <ele>-1</ele>
        <time>1970-01-01T00:00:00Z</time>
      </trkpt>
      <trkpt lat="43.79323" lon="7.2481">
        <ele>-1</ele>
        <time>1970-01-01T00:00:00Z</time>
      </trkpt>
      <trkpt lat="43.79315" lon="7.24803">
        <ele>-1</ele>
        <time>1970-01-01T00:00:00Z</time>
      </trkpt>
      <trkpt lat="43.79306" lon="7.24796">
        <ele>-1</ele>
        <time>1970-01-01T00:00:00Z</time>
      </trkpt>
      <trkpt lat="43.79297" lon="7.24789">
        <ele>-1</ele>
        <time>1970-01-01T00:00:00Z</time>
      </trkpt>
      <trkpt lat="43.79291" lon="7.24782">
        <ele>-1</ele>
        <time>1970-01-01T00:00:00Z</time>
      </trkpt>
      <trkpt lat="43.79282" lon="7.24779">
        <ele>-1</ele>
        <time>1970-01-01T00:00:00Z</time>
      </trkpt>
      <trkpt lat="43.79273" lon="7.24778">
        <ele>-1</ele>
        <time>1970-01-01T00:00:00Z</time>
      </trkpt>
      <trkpt lat="43.79264" lon="7.24777">
        <ele>-1</ele>
        <time>1970-01-01T00:00:00Z</time>
      </trkpt>
      <trkpt lat="43.79255" lon="7.24776">
        <ele>-1</ele>
        <time>1970-01-01T00:00:00Z</time>
      </trkpt>
      <trkpt lat="43.79246" lon="7.24772">
        <ele>-1</ele>
        <time>1970-01-01T00:00:00Z</time>
      </trkpt>
      <trkpt lat="43.79237" lon="7.24772">
        <ele>-1</ele>
        <time>1970-01-01T00:00:00Z</time>
      </trkpt>
      <trkpt lat="43.79228" lon="7.24771">
        <ele>-1</ele>
        <time>1970-01-01T00:00:00Z</time>
      </trkpt>
      <trkpt lat="43.79219" lon="7.2477">
        <ele>-1</ele>
        <time>1970-01-01T00:00:00Z</time>
      </trkpt>
      <trkpt lat="43.7921" lon="7.24769">
        <ele>-1</ele>
        <time>1970-01-01T00:00:00Z</time>
      </trkpt>
      <trkpt lat="43.79201" lon="7.24765">
        <ele>-1</ele>
        <time>1970-01-01T00:00:00Z</time>
      </trkpt>
      <trkpt lat="43.79195" lon="7.24762">
        <ele>-1</ele>
        <time>1970-01-01T00:00:00Z</time>
      </trkpt>
      <trkpt lat="43.79186" lon="7.24761">
        <ele>-1</ele>
        <time>1970-01-01T00:00:00Z</time>
      </trkpt>
      <trkpt lat="43.79177" lon="7.24757">
        <ele>-1</ele>
        <time>1970-01-01T00:00:00Z</time>
      </trkpt>
      <trkpt lat="43.79168" lon="7.24756">
        <ele>-1</ele>
        <time>1970-01-01T00:00:00Z</time>
      </trkpt>
      <trkpt lat="43.79157" lon="7.24755">
        <ele>-1</ele>
        <time>1970-01-01T00:00:00Z</time>
      </trkpt>
      <trkpt lat="43.79148" lon="7.24755">
        <ele>-1</ele>
        <time>1970-01-01T00:00:00Z</time>
      </trkpt>
      <trkpt lat="43.79136" lon="7.24757">
        <ele>-1</ele>
        <time>1970-01-01T00:00:00Z</time>
      </trkpt>
      <trkpt lat="43.79125" lon="7.24756">
        <ele>-1</ele>
        <time>1970-01-01T00:00:00Z</time>
      </trkpt>
      <trkpt lat="43.79116" lon="7.24755">
        <ele>-1</ele>
        <time>1970-01-01T00:00:00Z</time>
      </trkpt>
      <trkpt lat="43.79107" lon="7.24754">
        <ele>-1</ele>
        <time>1970-01-01T00:00:00Z</time>
      </trkpt>
      <trkpt lat="43.79098" lon="7.24753">
        <ele>-1</ele>
        <time>1970-01-01T00:00:00Z</time>
      </trkpt>
      <trkpt lat="43.79089" lon="7.24753">
        <ele>-1</ele>
        <time>1970-01-01T00:00:00Z</time>
      </trkpt>
      <trkpt lat="43.7908" lon="7.24752">
        <ele>-1</ele>
        <time>1970-01-01T00:00:00Z</time>
      </trkpt>
      <trkpt lat="43.79069" lon="7.24751">
        <ele>-1</ele>
        <time>1970-01-01T00:00:00Z</time>
      </trkpt>
      <trkpt lat="43.7906" lon="7.24747">
        <ele>-1</ele>
        <time>1970-01-01T00:00:00Z</time>
      </trkpt>
      <trkpt lat="43.79049" lon="7.24746">
        <ele>-1</ele>
        <time>1970-01-01T00:00:00Z</time>
      </trkpt>
      <trkpt lat="43.7904" lon="7.24748">
        <ele>-1</ele>
        <time>1970-01-01T00:00:00Z</time>
      </trkpt>
      <trkpt lat="43.79033" lon="7.24754">
        <ele>-1</ele>
        <time>1970-01-01T00:00:00Z</time>
      </trkpt>
      <trkpt lat="43.79024" lon="7.24756">
        <ele>-1</ele>
        <time>1970-01-01T00:00:00Z</time>
      </trkpt>
      <trkpt lat="43.79015" lon="7.24755">
        <ele>-1</ele>
        <time>1970-01-01T00:00:00Z</time>
      </trkpt>
      <trkpt lat="43.79006" lon="7.24761">
        <ele>-1</ele>
        <time>1970-01-01T00:00:00Z</time>
      </trkpt>
      <trkpt lat="43.78999" lon="7.24763">
        <ele>-1</ele>
        <time>1970-01-01T00:00:00Z</time>
      </trkpt>
      <trkpt lat="43.78987" lon="7.24769">
        <ele>-1</ele>
        <time>1970-01-01T00:00:00Z</time>
      </trkpt>
      <trkpt lat="43.78943" lon="7.24799">
        <ele>-1</ele>
        <time>1970-01-01T00:00:00Z</time>
      </trkpt>
      <trkpt lat="43.7895" lon="7.24803">
        <ele>-1</ele>
        <time>1970-01-01T00:00:00Z</time>
      </trkpt>
      <trkpt lat="43.78946" lon="7.24793">
        <ele>-1</ele>
        <time>1970-01-01T00:00:00Z</time>
      </trkpt>
      <trkpt lat="43.78937" lon="7.24783">
        <ele>-1</ele>
        <time>1970-01-01T00:00:00Z</time>
      </trkpt>
      <trkpt lat="43.78928" lon="7.24776">
        <ele>-1</ele>
        <time>1970-01-01T00:00:00Z</time>
      </trkpt>
      <trkpt lat="43.7892" lon="7.24766">
        <ele>-1</ele>
        <time>1970-01-01T00:00:00Z</time>
      </trkpt>
      <trkpt lat="43.78918" lon="7.24756">
        <ele>-1</ele>
        <time>1970-01-01T00:00:00Z</time>
      </trkpt>
      <trkpt lat="43.78912" lon="7.24747">
        <ele>-1</ele>
        <time>1970-01-01T00:00:00Z</time>
      </trkpt>
      <trkpt lat="43.78908" lon="7.24737">
        <ele>-1</ele>
        <time>1970-01-01T00:00:00Z</time>
      </trkpt>
      <trkpt lat="43.78901" lon="7.24727">
        <ele>-1</ele>
        <time>1970-01-01T00:00:00Z</time>
      </trkpt>
      <trkpt lat="43.78895" lon="7.2472">
        <ele>-1</ele>
        <time>1970-01-01T00:00:00Z</time>
      </trkpt>
      <trkpt lat="43.78889" lon="7.2471">
        <ele>-1</ele>
        <time>1970-01-01T00:00:00Z</time>
      </trkpt>
      <trkpt lat="43.78882" lon="7.24697">
        <ele>-1</ele>
        <time>1970-01-01T00:00:00Z</time>
      </trkpt>
      <trkpt lat="43.78874" lon="7.2469">
        <ele>-1</ele>
        <time>1970-01-01T00:00:00Z</time>
      </trkpt>
      <trkpt lat="43.78867" lon="7.24681">
        <ele>-1</ele>
        <time>1970-01-01T00:00:00Z</time>
      </trkpt>
      <trkpt lat="43.78859" lon="7.24674">
        <ele>-1</ele>
        <time>1970-01-01T00:00:00Z</time>
      </trkpt>
      <trkpt lat="43.78855" lon="7.24664">
        <ele>-1</ele>
        <time>1970-01-01T00:00:00Z</time>
      </trkpt>
      <trkpt lat="43.78853" lon="7.24651">
        <ele>-1</ele>
        <time>1970-01-01T00:00:00Z</time>
      </trkpt>
      <trkpt lat="43.78849" lon="7.24642">
        <ele>-1</ele>
        <time>1970-01-01T00:00:00Z</time>
      </trkpt>
      <trkpt lat="43.78843" lon="7.24632">
        <ele>-1</ele>
        <time>1970-01-01T00:00:00Z</time>
      </trkpt>
      <trkpt lat="43.78834" lon="7.24625">
        <ele>-1</ele>
        <time>1970-01-01T00:00:00Z</time>
      </trkpt>
      <trkpt lat="43.78828" lon="7.24618">
        <ele>-1</ele>
        <time>1970-01-01T00:00:00Z</time>
      </trkpt>
      <trkpt lat="43.78826" lon="7.24609">
        <ele>-1</ele>
        <time>1970-01-01T00:00:00Z</time>
      </trkpt>
      <trkpt lat="43.78835" lon="7.24603">
        <ele>-1</ele>
        <time>1970-01-01T00:00:00Z</time>
      </trkpt>
      <trkpt lat="43.78842" lon="7.24598">
        <ele>-1</ele>
        <time>1970-01-01T00:00:00Z</time>
      </trkpt>
      <trkpt lat="43.78847" lon="7.24586">
        <ele>-1</ele>
        <time>1970-01-01T00:00:00Z</time>
      </trkpt>
      <trkpt lat="43.78845" lon="7.24576">
        <ele>-1</ele>
        <time>1970-01-01T00:00:00Z</time>
      </trkpt>
      <trkpt lat="43.78839" lon="7.24566">
        <ele>-1</ele>
        <time>1970-01-01T00:00:00Z</time>
      </trkpt>
      <trkpt lat="43.7883" lon="7.24559">
        <ele>-1</ele>
        <time>1970-01-01T00:00:00Z</time>
      </trkpt>
      <trkpt lat="43.78826" lon="7.2455">
        <ele>-1</ele>
        <time>1970-01-01T00:00:00Z</time>
      </trkpt>
      <trkpt lat="43.7882" lon="7.24546">
        <ele>-1</ele>
        <time>1970-01-01T00:00:00Z</time>
      </trkpt>
      <trkpt lat="43.78813" lon="7.24542">
        <ele>-1</ele>
        <time>1970-01-01T00:00:00Z</time>
      </trkpt>
      <trkpt lat="43.78806" lon="7.24536">
        <ele>-1</ele>
        <time>1970-01-01T00:00:00Z</time>
      </trkpt>
      <trkpt lat="43.788" lon="7.24529">
        <ele>-1</ele>
        <time>1970-01-01T00:00:00Z</time>
      </trkpt>
      <trkpt lat="43.78793" lon="7.24525">
        <ele>-1</ele>
        <time>1970-01-01T00:00:00Z</time>
      </trkpt>
      <trkpt lat="43.78787" lon="7.24518">
        <ele>-1</ele>
        <time>1970-01-01T00:00:00Z</time>
      </trkpt>
      <trkpt lat="43.78781" lon="7.24508">
        <ele>-1</ele>
        <time>1970-01-01T00:00:00Z</time>
      </trkpt>
      <trkpt lat="43.78775" lon="7.24495">
        <ele>-1</ele>
        <time>1970-01-01T00:00:00Z</time>
      </trkpt>
      <trkpt lat="43.78768" lon="7.24486">
        <ele>-1</ele>
        <time>1970-01-01T00:00:00Z</time>
      </trkpt>
      <trkpt lat="43.78764" lon="7.24476">
        <ele>-1</ele>
        <time>1970-01-01T00:00:00Z</time>
      </trkpt>
      <trkpt lat="43.78758" lon="7.24466">
        <ele>-1</ele>
        <time>1970-01-01T00:00:00Z</time>
      </trkpt>
      <trkpt lat="43.78752" lon="7.24456">
        <ele>-1</ele>
        <time>1970-01-01T00:00:00Z</time>
      </trkpt>
      <trkpt lat="43.78747" lon="7.24447">
        <ele>-1</ele>
        <time>1970-01-01T00:00:00Z</time>
      </trkpt>
      <trkpt lat="43.78739" lon="7.24433">
        <ele>-1</ele>
        <time>1970-01-01T00:00:00Z</time>
      </trkpt>
      <trkpt lat="43.78735" lon="7.24424">
        <ele>-1</ele>
        <time>1970-01-01T00:00:00Z</time>
      </trkpt>
      <trkpt lat="43.78728" lon="7.2442">
        <ele>-1</ele>
        <time>1970-01-01T00:00:00Z</time>
      </trkpt>
      <trkpt lat="43.78722" lon="7.24413">
        <ele>-1</ele>
        <time>1970-01-01T00:00:00Z</time>
      </trkpt>
      <trkpt lat="43.78715" lon="7.2441">
        <ele>-1</ele>
        <time>1970-01-01T00:00:00Z</time>
      </trkpt>
      <trkpt lat="43.78709" lon="7.24406">
        <ele>-1</ele>
        <time>1970-01-01T00:00:00Z</time>
      </trkpt>
      <trkpt lat="43.787" lon="7.24405">
        <ele>-1</ele>
        <time>1970-01-01T00:00:00Z</time>
      </trkpt>
      <trkpt lat="43.78689" lon="7.24404">
        <ele>-1</ele>
        <time>1970-01-01T00:00:00Z</time>
      </trkpt>
      <trkpt lat="43.78682" lon="7.244">
        <ele>-1</ele>
        <time>1970-01-01T00:00:00Z</time>
      </trkpt>
      <trkpt lat="43.78673" lon="7.244">
        <ele>-1</ele>
        <time>1970-01-01T00:00:00Z</time>
      </trkpt>
      <trkpt lat="43.78666" lon="7.24402">
        <ele>-1</ele>
        <time>1970-01-01T00:00:00Z</time>
      </trkpt>
      <trkpt lat="43.78659" lon="7.24408">
        <ele>-1</ele>
        <time>1970-01-01T00:00:00Z</time>
      </trkpt>
      <trkpt lat="43.78652" lon="7.2441">
        <ele>-1</ele>
        <time>1970-01-01T00:00:00Z</time>
      </trkpt>
      <trkpt lat="43.78641" lon="7.24409">
        <ele>-1</ele>
        <time>1970-01-01T00:00:00Z</time>
      </trkpt>
      <trkpt lat="43.78634" lon="7.24415">
        <ele>-1</ele>
        <time>1970-01-01T00:00:00Z</time>
      </trkpt>
      <trkpt lat="43.78623" lon="7.24414">
        <ele>-1</ele>
        <time>1970-01-01T00:00:00Z</time>
      </trkpt>
      <trkpt lat="43.78614" lon="7.24413">
        <ele>-1</ele>
        <time>1970-01-01T00:00:00Z</time>
      </trkpt>
      <trkpt lat="43.78605" lon="7.24412">
        <ele>-1</ele>
        <time>1970-01-01T00:00:00Z</time>
      </trkpt>
      <trkpt lat="43.78594" lon="7.24412">
        <ele>-1</ele>
        <time>1970-01-01T00:00:00Z</time>
      </trkpt>
      <trkpt lat="43.78585" lon="7.24408">
        <ele>-1</ele>
        <time>1970-01-01T00:00:00Z</time>
      </trkpt>
      <trkpt lat="43.78574" lon="7.24404">
        <ele>-1</ele>
        <time>1970-01-01T00:00:00Z</time>
      </trkpt>
      <trkpt lat="43.78565" lon="7.24403">
        <ele>-1</ele>
        <time>1970-01-01T00:00:00Z</time>
      </trkpt>
      <trkpt lat="43.78554" lon="7.24399">
        <ele>-1</ele>
        <time>1970-01-01T00:00:00Z</time>
      </trkpt>
      <trkpt lat="43.78545" lon="7.24392">
        <ele>-1</ele>
        <time>1970-01-01T00:00:00Z</time>
      </trkpt>
      <trkpt lat="43.78536" lon="7.24388">
        <ele>-1</ele>
        <time>1970-01-01T00:00:00Z</time>
      </trkpt>
      <trkpt lat="43.78528" lon="7.24381">
        <ele>-1</ele>
        <time>1970-01-01T00:00:00Z</time>
      </trkpt>
      <trkpt lat="43.78521" lon="7.24377">
        <ele>-1</ele>
        <time>1970-01-01T00:00:00Z</time>
      </trkpt>
      <trkpt lat="43.78514" lon="7.24374">
        <ele>-1</ele>
        <time>1970-01-01T00:00:00Z</time>
      </trkpt>
      <trkpt lat="43.78506" lon="7.2437">
        <ele>-1</ele>
        <time>1970-01-01T00:00:00Z</time>
      </trkpt>
      <trkpt lat="43.78497" lon="7.24366">
        <ele>-1</ele>
        <time>1970-01-01T00:00:00Z</time>
      </trkpt>
      <trkpt lat="43.7849" lon="7.24362">
        <ele>-1</ele>
        <time>1970-01-01T00:00:00Z</time>
      </trkpt>
      <trkpt lat="43.78481" lon="7.24358">
        <ele>-1</ele>
        <time>1970-01-01T00:00:00Z</time>
      </trkpt>
      <trkpt lat="43.78472" lon="7.24358">
        <ele>-1</ele>
        <time>1970-01-01T00:00:00Z</time>
      </trkpt>
      <trkpt lat="43.78463" lon="7.24357">
        <ele>-1</ele>
        <time>1970-01-01T00:00:00Z</time>
      </trkpt>
      <trkpt lat="43.78457" lon="7.24353">
        <ele>-1</ele>
        <time>1970-01-01T00:00:00Z</time>
      </trkpt>
      <trkpt lat="43.78474" lon="7.24417">
        <ele>-1</ele>
        <time>1970-01-01T00:00:00Z</time>
      </trkpt>
      <trkpt lat="43.78478" lon="7.24426">
        <ele>-1</ele>
        <time>1970-01-01T00:00:00Z</time>
      </trkpt>
      <trkpt lat="43.7848" lon="7.24436">
        <ele>-1</ele>
        <time>1970-01-01T00:00:00Z</time>
      </trkpt>
      <trkpt lat="43.78482" lon="7.24445">
        <ele>-1</ele>
        <time>1970-01-01T00:00:00Z</time>
      </trkpt>
      <trkpt lat="43.78481" lon="7.24458">
        <ele>-1</ele>
        <time>1970-01-01T00:00:00Z</time>
      </trkpt>
      <trkpt lat="43.78483" lon="7.2447">
        <ele>-1</ele>
        <time>1970-01-01T00:00:00Z</time>
      </trkpt>
      <trkpt lat="43.7848" lon="7.24489">
        <ele>-1</ele>
        <time>1970-01-01T00:00:00Z</time>
      </trkpt>
      <trkpt lat="43.78475" lon="7.24501">
        <ele>-1</ele>
        <time>1970-01-01T00:00:00Z</time>
      </trkpt>
      <trkpt lat="43.78464" lon="7.245">
        <ele>-1</ele>
        <time>1970-01-01T00:00:00Z</time>
      </trkpt>
      <trkpt lat="43.78459" lon="7.24509">
        <ele>-1</ele>
        <time>1970-01-01T00:00:00Z</time>
      </trkpt>
      <trkpt lat="43.78449" lon="7.24514">
        <ele>-1</ele>
        <time>1970-01-01T00:00:00Z</time>
      </trkpt>
      <trkpt lat="43.78442" lon="7.24523">
        <ele>-1</ele>
        <time>1970-01-01T00:00:00Z</time>
      </trkpt>
      <trkpt lat="43.78435" lon="7.24535">
        <ele>-1</ele>
        <time>1970-01-01T00:00:00Z</time>
      </trkpt>
      <trkpt lat="43.7843" lon="7.24543">
        <ele>-1</ele>
        <time>1970-01-01T00:00:00Z</time>
      </trkpt>
      <trkpt lat="43.78423" lon="7.24555">
        <ele>-1</ele>
        <time>1970-01-01T00:00:00Z</time>
      </trkpt>
      <trkpt lat="43.78414" lon="7.24558">
        <ele>-1</ele>
        <time>1970-01-01T00:00:00Z</time>
      </trkpt>
      <trkpt lat="43.78404" lon="7.24563">
        <ele>-1</ele>
        <time>1970-01-01T00:00:00Z</time>
      </trkpt>
      <trkpt lat="43.78397" lon="7.24569">
        <ele>-1</ele>
        <time>1970-01-01T00:00:00Z</time>
      </trkpt>
      <trkpt lat="43.78392" lon="7.24581">
        <ele>-1</ele>
        <time>1970-01-01T00:00:00Z</time>
      </trkpt>
      <trkpt lat="43.78387" lon="7.24589">
        <ele>-1</ele>
        <time>1970-01-01T00:00:00Z</time>
      </trkpt>
      <trkpt lat="43.78387" lon="7.24602">
        <ele>-1</ele>
        <time>1970-01-01T00:00:00Z</time>
      </trkpt>
      <trkpt lat="43.78382" lon="7.24617">
        <ele>-1</ele>
        <time>1970-01-01T00:00:00Z</time>
      </trkpt>
      <trkpt lat="43.78379" lon="7.24626">
        <ele>-1</ele>
        <time>1970-01-01T00:00:00Z</time>
      </trkpt>
      <trkpt lat="43.78372" lon="7.24635">
        <ele>-1</ele>
        <time>1970-01-01T00:00:00Z</time>
      </trkpt>
      <trkpt lat="43.78365" lon="7.2464">
        <ele>-1</ele>
        <time>1970-01-01T00:00:00Z</time>
      </trkpt>
      <trkpt lat="43.78362" lon="7.24649">
        <ele>-1</ele>
        <time>1970-01-01T00:00:00Z</time>
      </trkpt>
      <trkpt lat="43.7836" lon="7.24659">
        <ele>-1</ele>
        <time>1970-01-01T00:00:00Z</time>
      </trkpt>
      <trkpt lat="43.78355" lon="7.24667">
        <ele>-1</ele>
        <time>1970-01-01T00:00:00Z</time>
      </trkpt>
      <trkpt lat="43.7835" lon="7.24679">
        <ele>-1</ele>
        <time>1970-01-01T00:00:00Z</time>
      </trkpt>
      <trkpt lat="43.78345" lon="7.24688">
        <ele>-1</ele>
        <time>1970-01-01T00:00:00Z</time>
      </trkpt>
      <trkpt lat="43.78342" lon="7.24697">
        <ele>-1</ele>
        <time>1970-01-01T00:00:00Z</time>
      </trkpt>
      <trkpt lat="43.78339" lon="7.24707">
        <ele>-1</ele>
        <time>1970-01-01T00:00:00Z</time>
      </trkpt>
      <trkpt lat="43.78334" lon="7.24715">
        <ele>-1</ele>
        <time>1970-01-01T00:00:00Z</time>
      </trkpt>
      <trkpt lat="43.78334" lon="7.24731">
        <ele>-1</ele>
        <time>1970-01-01T00:00:00Z</time>
      </trkpt>
      <trkpt lat="43.78329" lon="7.24743">
        <ele>-1</ele>
        <time>1970-01-01T00:00:00Z</time>
      </trkpt>
      <trkpt lat="43.78324" lon="7.24752">
        <ele>-1</ele>
        <time>1970-01-01T00:00:00Z</time>
      </trkpt>
      <trkpt lat="43.78321" lon="7.24764">
        <ele>-1</ele>
        <time>1970-01-01T00:00:00Z</time>
      </trkpt>
      <trkpt lat="43.78316" lon="7.24776">
        <ele>-1</ele>
        <time>1970-01-01T00:00:00Z</time>
      </trkpt>
      <trkpt lat="43.78309" lon="7.24782">
        <ele>-1</ele>
        <time>1970-01-01T00:00:00Z</time>
      </trkpt>
      <trkpt lat="43.78306" lon="7.24791">
        <ele>-1</ele>
        <time>1970-01-01T00:00:00Z</time>
      </trkpt>
      <trkpt lat="43.78304" lon="7.24803">
        <ele>-1</ele>
        <time>1970-01-01T00:00:00Z</time>
      </trkpt>
      <trkpt lat="43.78296" lon="7.24815">
        <ele>-1</ele>
        <time>1970-01-01T00:00:00Z</time>
      </trkpt>
      <trkpt lat="43.78294" lon="7.24824">
        <ele>-1</ele>
        <time>1970-01-01T00:00:00Z</time>
      </trkpt>
      <trkpt lat="43.78293" lon="7.24836">
        <ele>-1</ele>
        <time>1970-01-01T00:00:00Z</time>
      </trkpt>
      <trkpt lat="43.7829" lon="7.24848">
        <ele>-1</ele>
        <time>1970-01-01T00:00:00Z</time>
      </trkpt>
      <trkpt lat="43.78287" lon="7.24864">
        <ele>-1</ele>
        <time>1970-01-01T00:00:00Z</time>
      </trkpt>
      <trkpt lat="43.78287" lon="7.24876">
        <ele>-1</ele>
        <time>1970-01-01T00:00:00Z</time>
      </trkpt>
      <trkpt lat="43.78286" lon="7.24888">
        <ele>-1</ele>
        <time>1970-01-01T00:00:00Z</time>
      </trkpt>
      <trkpt lat="43.78281" lon="7.24897">
        <ele>-1</ele>
        <time>1970-01-01T00:00:00Z</time>
      </trkpt>
      <trkpt lat="43.78283" lon="7.24913">
        <ele>-1</ele>
        <time>1970-01-01T00:00:00Z</time>
      </trkpt>
      <trkpt lat="43.7828" lon="7.24928">
        <ele>-1</ele>
        <time>1970-01-01T00:00:00Z</time>
      </trkpt>
      <trkpt lat="43.78277" lon="7.2494">
        <ele>-1</ele>
        <time>1970-01-01T00:00:00Z</time>
      </trkpt>
      <trkpt lat="43.78274" lon="7.24953">
        <ele>-1</ele>
        <time>1970-01-01T00:00:00Z</time>
      </trkpt>
      <trkpt lat="43.78274" lon="7.24965">
        <ele>-1</ele>
        <time>1970-01-01T00:00:00Z</time>
      </trkpt>
      <trkpt lat="43.78273" lon="7.24977">
        <ele>-1</ele>
        <time>1970-01-01T00:00:00Z</time>
      </trkpt>
      <trkpt lat="43.78268" lon="7.24986">
        <ele>-1</ele>
        <time>1970-01-01T00:00:00Z</time>
      </trkpt>
      <trkpt lat="43.78268" lon="7.24999">
        <ele>-1</ele>
        <time>1970-01-01T00:00:00Z</time>
      </trkpt>
      <trkpt lat="43.78263" lon="7.25007">
        <ele>-1</ele>
        <time>1970-01-01T00:00:00Z</time>
      </trkpt>
      <trkpt lat="43.78253" lon="7.25019">
        <ele>-1</ele>
        <time>1970-01-01T00:00:00Z</time>
      </trkpt>
      <trkpt lat="43.78248" lon="7.25028">
        <ele>-1</ele>
        <time>1970-01-01T00:00:00Z</time>
      </trkpt>
      <trkpt lat="43.78243" lon="7.25037">
        <ele>-1</ele>
        <time>1970-01-01T00:00:00Z</time>
      </trkpt>
      <trkpt lat="43.78234" lon="7.25045">
        <ele>-1</ele>
        <time>1970-01-01T00:00:00Z</time>
      </trkpt>
      <trkpt lat="43.78229" lon="7.25054">
        <ele>-1</ele>
        <time>1970-01-01T00:00:00Z</time>
      </trkpt>
      <trkpt lat="43.78226" lon="7.25066">
        <ele>-1</ele>
        <time>1970-01-01T00:00:00Z</time>
      </trkpt>
      <trkpt lat="43.78223" lon="7.25079">
        <ele>-1</ele>
        <time>1970-01-01T00:00:00Z</time>
      </trkpt>
      <trkpt lat="43.78228" lon="7.25088">
        <ele>-1</ele>
        <time>1970-01-01T00:00:00Z</time>
      </trkpt>
      <trkpt lat="43.78221" lon="7.25094">
        <ele>-1</ele>
        <time>1970-01-01T00:00:00Z</time>
      </trkpt>
      <trkpt lat="43.78216" lon="7.25084">
        <ele>-1</ele>
        <time>1970-01-01T00:00:00Z</time>
      </trkpt>
      <trkpt lat="43.78217" lon="7.25072">
        <ele>-1</ele>
        <time>1970-01-01T00:00:00Z</time>
      </trkpt>
      <trkpt lat="43.78218" lon="7.2506">
        <ele>-1</ele>
        <time>1970-01-01T00:00:00Z</time>
      </trkpt>
      <trkpt lat="43.78218" lon="7.25047">
        <ele>-1</ele>
        <time>1970-01-01T00:00:00Z</time>
      </trkpt>
      <trkpt lat="43.78219" lon="7.25035">
        <ele>-1</ele>
        <time>1970-01-01T00:00:00Z</time>
      </trkpt>
      <trkpt lat="43.78215" lon="7.25025">
        <ele>-1</ele>
        <time>1970-01-01T00:00:00Z</time>
      </trkpt>
      <trkpt lat="43.78213" lon="7.25016">
        <ele>-1</ele>
        <time>1970-01-01T00:00:00Z</time>
      </trkpt>
      <trkpt lat="43.78211" lon="7.25006">
        <ele>-1</ele>
        <time>1970-01-01T00:00:00Z</time>
      </trkpt>
      <trkpt lat="43.78207" lon="7.24996">
        <ele>-1</ele>
        <time>1970-01-01T00:00:00Z</time>
      </trkpt>
      <trkpt lat="43.78205" lon="7.24984">
        <ele>-1</ele>
        <time>1970-01-01T00:00:00Z</time>
      </trkpt>
      <trkpt lat="43.78199" lon="7.24971">
        <ele>-1</ele>
        <time>1970-01-01T00:00:00Z</time>
      </trkpt>
      <trkpt lat="43.78195" lon="7.24958">
        <ele>-1</ele>
        <time>1970-01-01T00:00:00Z</time>
      </trkpt>
      <trkpt lat="43.78191" lon="7.24948">
        <ele>-1</ele>
        <time>1970-01-01T00:00:00Z</time>
      </trkpt>
      <trkpt lat="43.78185" lon="7.24942">
        <ele>-1</ele>
        <time>1970-01-01T00:00:00Z</time>
      </trkpt>
      <trkpt lat="43.78178" lon="7.24935">
        <ele>-1</ele>
        <time>1970-01-01T00:00:00Z</time>
      </trkpt>
      <trkpt lat="43.78172" lon="7.24931">
        <ele>-1</ele>
        <time>1970-01-01T00:00:00Z</time>
      </trkpt>
      <trkpt lat="43.78163" lon="7.24924">
        <ele>-1</ele>
        <time>1970-01-01T00:00:00Z</time>
      </trkpt>
      <trkpt lat="43.78155" lon="7.24911">
        <ele>-1</ele>
        <time>1970-01-01T00:00:00Z</time>
      </trkpt>
      <trkpt lat="43.78148" lon="7.24904">
        <ele>-1</ele>
        <time>1970-01-01T00:00:00Z</time>
      </trkpt>
      <trkpt lat="43.78139" lon="7.24894">
        <ele>-1</ele>
        <time>1970-01-01T00:00:00Z</time>
      </trkpt>
      <trkpt lat="43.78131" lon="7.24887">
        <ele>-1</ele>
        <time>1970-01-01T00:00:00Z</time>
      </trkpt>
      <trkpt lat="43.78122" lon="7.24877">
        <ele>-1</ele>
        <time>1970-01-01T00:00:00Z</time>
      </trkpt>
      <trkpt lat="43.78116" lon="7.24874">
        <ele>-1</ele>
        <time>1970-01-01T00:00:00Z</time>
      </trkpt>
      <trkpt lat="43.78112" lon="7.24864">
        <ele>-1</ele>
        <time>1970-01-01T00:00:00Z</time>
      </trkpt>
      <trkpt lat="43.78108" lon="7.24854">
        <ele>-1</ele>
        <time>1970-01-01T00:00:00Z</time>
      </trkpt>
      <trkpt lat="43.78103" lon="7.24845">
        <ele>-1</ele>
        <time>1970-01-01T00:00:00Z</time>
      </trkpt>
      <trkpt lat="43.78099" lon="7.24835">
        <ele>-1</ele>
        <time>1970-01-01T00:00:00Z</time>
      </trkpt>
      <trkpt lat="43.78096" lon="7.24819">
        <ele>-1</ele>
        <time>1970-01-01T00:00:00Z</time>
      </trkpt>
      <trkpt lat="43.78096" lon="7.24807">
        <ele>-1</ele>
        <time>1970-01-01T00:00:00Z</time>
      </trkpt>
      <trkpt lat="43.78103" lon="7.24798">
        <ele>-1</ele>
        <time>1970-01-01T00:00:00Z</time>
      </trkpt>
      <trkpt lat="43.78106" lon="7.24789">
        <ele>-1</ele>
        <time>1970-01-01T00:00:00Z</time>
      </trkpt>
      <trkpt lat="43.78109" lon="7.24777">
        <ele>-1</ele>
        <time>1970-01-01T00:00:00Z</time>
      </trkpt>
      <trkpt lat="43.78107" lon="7.24767">
        <ele>-1</ele>
        <time>1970-01-01T00:00:00Z</time>
      </trkpt>
      <trkpt lat="43.781" lon="7.2477">
        <ele>-1</ele>
        <time>1970-01-01T00:00:00Z</time>
      </trkpt>
      <trkpt lat="43.78093" lon="7.24775">
        <ele>-1</ele>
        <time>1970-01-01T00:00:00Z</time>
      </trkpt>
      <trkpt lat="43.78086" lon="7.24781">
        <ele>-1</ele>
        <time>1970-01-01T00:00:00Z</time>
      </trkpt>
      <trkpt lat="43.78081" lon="7.2479">
        <ele>-1</ele>
        <time>1970-01-01T00:00:00Z</time>
      </trkpt>
      <trkpt lat="43.78074" lon="7.24799">
        <ele>-1</ele>
        <time>1970-01-01T00:00:00Z</time>
      </trkpt>
      <trkpt lat="43.78065" lon="7.24807">
        <ele>-1</ele>
        <time>1970-01-01T00:00:00Z</time>
      </trkpt>
      <trkpt lat="43.78058" lon="7.2481">
        <ele>-1</ele>
        <time>1970-01-01T00:00:00Z</time>
      </trkpt>
      <trkpt lat="43.78049" lon="7.24812">
        <ele>-1</ele>
        <time>1970-01-01T00:00:00Z</time>
      </trkpt>
      <trkpt lat="43.78037" lon="7.24811">
        <ele>-1</ele>
        <time>1970-01-01T00:00:00Z</time>
      </trkpt>
      <trkpt lat="43.78026" lon="7.24813">
        <ele>-1</ele>
        <time>1970-01-01T00:00:00Z</time>
      </trkpt>
      <trkpt lat="43.78017" lon="7.24815">
        <ele>-1</ele>
        <time>1970-01-01T00:00:00Z</time>
      </trkpt>
      <trkpt lat="43.7801" lon="7.24818">
        <ele>-1</ele>
        <time>1970-01-01T00:00:00Z</time>
      </trkpt>
      <trkpt lat="43.78005" lon="7.24827">
        <ele>-1</ele>
        <time>1970-01-01T00:00:00Z</time>
      </trkpt>
      <trkpt lat="43.77996" lon="7.24826">
        <ele>-1</ele>
        <time>1970-01-01T00:00:00Z</time>
      </trkpt>
      <trkpt lat="43.77987" lon="7.24822">
        <ele>-1</ele>
        <time>1970-01-01T00:00:00Z</time>
      </trkpt>
      <trkpt lat="43.77981" lon="7.24815">
        <ele>-1</ele>
        <time>1970-01-01T00:00:00Z</time>
      </trkpt>
      <trkpt lat="43.77977" lon="7.24806">
        <ele>-1</ele>
        <time>1970-01-01T00:00:00Z</time>
      </trkpt>
      <trkpt lat="43.7797" lon="7.24802">
        <ele>-1</ele>
        <time>1970-01-01T00:00:00Z</time>
      </trkpt>
      <trkpt lat="43.77963" lon="7.24805">
        <ele>-1</ele>
        <time>1970-01-01T00:00:00Z</time>
      </trkpt>
      <trkpt lat="43.77956" lon="7.2481">
        <ele>-1</ele>
        <time>1970-01-01T00:00:00Z</time>
      </trkpt>
      <trkpt lat="43.77947" lon="7.24822">
        <ele>-1</ele>
        <time>1970-01-01T00:00:00Z</time>
      </trkpt>
      <trkpt lat="43.7794" lon="7.2483">
        <ele>-1</ele>
        <time>1970-01-01T00:00:00Z</time>
      </trkpt>
      <trkpt lat="43.77931" lon="7.24833">
        <ele>-1</ele>
        <time>1970-01-01T00:00:00Z</time>
      </trkpt>
      <trkpt lat="43.77922" lon="7.24826">
        <ele>-1</ele>
        <time>1970-01-01T00:00:00Z</time>
      </trkpt>
      <trkpt lat="43.77918" lon="7.24816">
        <ele>-1</ele>
        <time>1970-01-01T00:00:00Z</time>
      </trkpt>
      <trkpt lat="43.77911" lon="7.24809">
        <ele>-1</ele>
        <time>1970-01-01T00:00:00Z</time>
      </trkpt>
      <trkpt lat="43.77905" lon="7.24812">
        <ele>-1</ele>
        <time>1970-01-01T00:00:00Z</time>
      </trkpt>
      <trkpt lat="43.77896" lon="7.24811">
        <ele>-1</ele>
        <time>1970-01-01T00:00:00Z</time>
      </trkpt>
      <trkpt lat="43.77889" lon="7.24817">
        <ele>-1</ele>
        <time>1970-01-01T00:00:00Z</time>
      </trkpt>
      <trkpt lat="43.77881" lon="7.24825">
        <ele>-1</ele>
        <time>1970-01-01T00:00:00Z</time>
      </trkpt>
      <trkpt lat="43.77875" lon="7.24828">
        <ele>-1</ele>
        <time>1970-01-01T00:00:00Z</time>
      </trkpt>
      <trkpt lat="43.77865" lon="7.24833">
        <ele>-1</ele>
        <time>1970-01-01T00:00:00Z</time>
      </trkpt>
      <trkpt lat="43.77858" lon="7.24839">
        <ele>-1</ele>
        <time>1970-01-01T00:00:00Z</time>
      </trkpt>
      <trkpt lat="43.77849" lon="7.24841">
        <ele>-1</ele>
        <time>1970-01-01T00:00:00Z</time>
      </trkpt>
      <trkpt lat="43.7784" lon="7.2485">
        <ele>-1</ele>
        <time>1970-01-01T00:00:00Z</time>
      </trkpt>
      <trkpt lat="43.7783" lon="7.24858">
        <ele>-1</ele>
        <time>1970-01-01T00:00:00Z</time>
      </trkpt>
      <trkpt lat="43.77825" lon="7.2487">
        <ele>-1</ele>
        <time>1970-01-01T00:00:00Z</time>
      </trkpt>
      <trkpt lat="43.7782" lon="7.24879">
        <ele>-1</ele>
        <time>1970-01-01T00:00:00Z</time>
      </trkpt>
      <trkpt lat="43.77814" lon="7.24882">
        <ele>-1</ele>
        <time>1970-01-01T00:00:00Z</time>
      </trkpt>
      <trkpt lat="43.77805" lon="7.24881">
        <ele>-1</ele>
        <time>1970-01-01T00:00:00Z</time>
      </trkpt>
      <trkpt lat="43.77795" lon="7.24886">
        <ele>-1</ele>
        <time>1970-01-01T00:00:00Z</time>
      </trkpt>
      <trkpt lat="43.77788" lon="7.24889">
        <ele>-1</ele>
        <time>1970-01-01T00:00:00Z</time>
      </trkpt>
      <trkpt lat="43.77777" lon="7.24894">
        <ele>-1</ele>
        <time>1970-01-01T00:00:00Z</time>
      </trkpt>
      <trkpt lat="43.77768" lon="7.24896">
        <ele>-1</ele>
        <time>1970-01-01T00:00:00Z</time>
      </trkpt>
      <trkpt lat="43.77761" lon="7.24899">
        <ele>-1</ele>
        <time>1970-01-01T00:00:00Z</time>
      </trkpt>
      <trkpt lat="43.77754" lon="7.24901">
        <ele>-1</ele>
        <time>1970-01-01T00:00:00Z</time>
      </trkpt>
      <trkpt lat="43.77743" lon="7.249">
        <ele>-1</ele>
        <time>1970-01-01T00:00:00Z</time>
      </trkpt>
      <trkpt lat="43.77734" lon="7.249">
        <ele>-1</ele>
        <time>1970-01-01T00:00:00Z</time>
      </trkpt>
      <trkpt lat="43.77721" lon="7.24899">
        <ele>-1</ele>
        <time>1970-01-01T00:00:00Z</time>
      </trkpt>
      <trkpt lat="43.77713" lon="7.24904">
        <ele>-1</ele>
        <time>1970-01-01T00:00:00Z</time>
      </trkpt>
      <trkpt lat="43.77702" lon="7.24906">
        <ele>-1</ele>
        <time>1970-01-01T00:00:00Z</time>
      </trkpt>
      <trkpt lat="43.77695" lon="7.24912">
        <ele>-1</ele>
        <time>1970-01-01T00:00:00Z</time>
      </trkpt>
      <trkpt lat="43.77688" lon="7.24917">
        <ele>-1</ele>
        <time>1970-01-01T00:00:00Z</time>
      </trkpt>
      <trkpt lat="43.77679" lon="7.24923">
        <ele>-1</ele>
        <time>1970-01-01T00:00:00Z</time>
      </trkpt>
      <trkpt lat="43.77672" lon="7.24932">
        <ele>-1</ele>
        <time>1970-01-01T00:00:00Z</time>
      </trkpt>
      <trkpt lat="43.77662" lon="7.2494">
        <ele>-1</ele>
        <time>1970-01-01T00:00:00Z</time>
      </trkpt>
      <trkpt lat="43.77651" lon="7.24939">
        <ele>-1</ele>
        <time>1970-01-01T00:00:00Z</time>
      </trkpt>
      <trkpt lat="43.77642" lon="7.24938">
        <ele>-1</ele>
        <time>1970-01-01T00:00:00Z</time>
      </trkpt>
      <trkpt lat="43.77631" lon="7.24937">
        <ele>-1</ele>
        <time>1970-01-01T00:00:00Z</time>
      </trkpt>
      <trkpt lat="43.77622" lon="7.24937">
        <ele>-1</ele>
        <time>1970-01-01T00:00:00Z</time>
      </trkpt>
      <trkpt lat="43.77613" lon="7.24936">
        <ele>-1</ele>
        <time>1970-01-01T00:00:00Z</time>
      </trkpt>
      <trkpt lat="43.77602" lon="7.24935">
        <ele>-1</ele>
        <time>1970-01-01T00:00:00Z</time>
      </trkpt>
      <trkpt lat="43.77593" lon="7.24934">
        <ele>-1</ele>
        <time>1970-01-01T00:00:00Z</time>
      </trkpt>
      <trkpt lat="43.77582" lon="7.24933">
        <ele>-1</ele>
        <time>1970-01-01T00:00:00Z</time>
      </trkpt>
      <trkpt lat="43.77507" lon="7.24945">
        <ele>-1</ele>
        <time>1970-01-01T00:00:00Z</time>
      </trkpt>
      <trkpt lat="43.77498" lon="7.24945">
        <ele>-1</ele>
        <time>1970-01-01T00:00:00Z</time>
      </trkpt>
      <trkpt lat="43.77489" lon="7.24941">
        <ele>-1</ele>
        <time>1970-01-01T00:00:00Z</time>
      </trkpt>
      <trkpt lat="43.7748" lon="7.2494">
        <ele>-1</ele>
        <time>1970-01-01T00:00:00Z</time>
      </trkpt>
      <trkpt lat="43.77468" lon="7.24945">
        <ele>-1</ele>
        <time>1970-01-01T00:00:00Z</time>
      </trkpt>
      <trkpt lat="43.77459" lon="7.24944">
        <ele>-1</ele>
        <time>1970-01-01T00:00:00Z</time>
      </trkpt>
      <trkpt lat="43.77451" lon="7.24944">
        <ele>-1</ele>
        <time>1970-01-01T00:00:00Z</time>
      </trkpt>
      <trkpt lat="43.77437" lon="7.24942">
        <ele>-1</ele>
        <time>1970-01-01T00:00:00Z</time>
      </trkpt>
      <trkpt lat="43.77426" lon="7.24941">
        <ele>-1</ele>
        <time>1970-01-01T00:00:00Z</time>
      </trkpt>
      <trkpt lat="43.77417" lon="7.24941">
        <ele>-1</ele>
        <time>1970-01-01T00:00:00Z</time>
      </trkpt>
      <trkpt lat="43.77406" lon="7.2494">
        <ele>-1</ele>
        <time>1970-01-01T00:00:00Z</time>
      </trkpt>
      <trkpt lat="43.77399" lon="7.24945">
        <ele>-1</ele>
        <time>1970-01-01T00:00:00Z</time>
      </trkpt>
      <trkpt lat="43.7739" lon="7.24948">
        <ele>-1</ele>
        <time>1970-01-01T00:00:00Z</time>
      </trkpt>
      <trkpt lat="43.77378" lon="7.2495">
        <ele>-1</ele>
        <time>1970-01-01T00:00:00Z</time>
      </trkpt>
      <trkpt lat="43.77371" lon="7.24952">
        <ele>-1</ele>
        <time>1970-01-01T00:00:00Z</time>
      </trkpt>
      <trkpt lat="43.77364" lon="7.24955">
        <ele>-1</ele>
        <time>1970-01-01T00:00:00Z</time>
      </trkpt>
      <trkpt lat="43.77358" lon="7.24957">
        <ele>-1</ele>
        <time>1970-01-01T00:00:00Z</time>
      </trkpt>
      <trkpt lat="43.77351" lon="7.2496">
        <ele>-1</ele>
        <time>1970-01-01T00:00:00Z</time>
      </trkpt>
      <trkpt lat="43.77337" lon="7.24959">
        <ele>-1</ele>
        <time>1970-01-01T00:00:00Z</time>
      </trkpt>
      <trkpt lat="43.77328" lon="7.24961">
        <ele>-1</ele>
        <time>1970-01-01T00:00:00Z</time>
      </trkpt>
      <trkpt lat="43.77319" lon="7.24963">
        <ele>-1</ele>
        <time>1970-01-01T00:00:00Z</time>
      </trkpt>
      <trkpt lat="43.77308" lon="7.24962">
        <ele>-1</ele>
        <time>1970-01-01T00:00:00Z</time>
      </trkpt>
      <trkpt lat="43.77299" lon="7.24962">
        <ele>-1</ele>
        <time>1970-01-01T00:00:00Z</time>
      </trkpt>
      <trkpt lat="43.7729" lon="7.24961">
        <ele>-1</ele>
        <time>1970-01-01T00:00:00Z</time>
      </trkpt>
      <trkpt lat="43.77279" lon="7.2496">
        <ele>-1</ele>
        <time>1970-01-01T00:00:00Z</time>
      </trkpt>
      <trkpt lat="43.7727" lon="7.24959">
        <ele>-1</ele>
        <time>1970-01-01T00:00:00Z</time>
      </trkpt>
      <trkpt lat="43.77258" lon="7.24958">
        <ele>-1</ele>
        <time>1970-01-01T00:00:00Z</time>
      </trkpt>
      <trkpt lat="43.77247" lon="7.24957">
        <ele>-1</ele>
        <time>1970-01-01T00:00:00Z</time>
      </trkpt>
      <trkpt lat="43.77238" lon="7.24956">
        <ele>-1</ele>
        <time>1970-01-01T00:00:00Z</time>
      </trkpt>
      <trkpt lat="43.77227" lon="7.24955">
        <ele>-1</ele>
        <time>1970-01-01T00:00:00Z</time>
      </trkpt>
      <trkpt lat="43.7722" lon="7.24961">
        <ele>-1</ele>
        <time>1970-01-01T00:00:00Z</time>
      </trkpt>
      <trkpt lat="43.77213" lon="7.24963">
        <ele>-1</ele>
        <time>1970-01-01T00:00:00Z</time>
      </trkpt>
      <trkpt lat="43.77206" lon="7.24966">
        <ele>-1</ele>
        <time>1970-01-01T00:00:00Z</time>
      </trkpt>
      <trkpt lat="43.77199" lon="7.24972">
        <ele>-1</ele>
        <time>1970-01-01T00:00:00Z</time>
      </trkpt>
      <trkpt lat="43.7719" lon="7.24977">
        <ele>-1</ele>
        <time>1970-01-01T00:00:00Z</time>
      </trkpt>
      <trkpt lat="43.77181" lon="7.24979">
        <ele>-1</ele>
        <time>1970-01-01T00:00:00Z</time>
      </trkpt>
      <trkpt lat="43.77172" lon="7.24982">
        <ele>-1</ele>
        <time>1970-01-01T00:00:00Z</time>
      </trkpt>
      <trkpt lat="43.77165" lon="7.24984">
        <ele>-1</ele>
        <time>1970-01-01T00:00:00Z</time>
      </trkpt>
      <trkpt lat="43.77156" lon="7.24986">
        <ele>-1</ele>
        <time>1970-01-01T00:00:00Z</time>
      </trkpt>
      <trkpt lat="43.77147" lon="7.24992">
        <ele>-1</ele>
        <time>1970-01-01T00:00:00Z</time>
      </trkpt>
      <trkpt lat="43.77137" lon="7.24994">
        <ele>-1</ele>
        <time>1970-01-01T00:00:00Z</time>
      </trkpt>
      <trkpt lat="43.77129" lon="7.2499">
        <ele>-1</ele>
        <time>1970-01-01T00:00:00Z</time>
      </trkpt>
      <trkpt lat="43.77117" lon="7.24989">
        <ele>-1</ele>
        <time>1970-01-01T00:00:00Z</time>
      </trkpt>
      <trkpt lat="43.77106" lon="7.24988">
        <ele>-1</ele>
        <time>1970-01-01T00:00:00Z</time>
      </trkpt>
      <trkpt lat="43.77097" lon="7.24988">
        <ele>-1</ele>
        <time>1970-01-01T00:00:00Z</time>
      </trkpt>
      <trkpt lat="43.77088" lon="7.24987">
        <ele>-1</ele>
        <time>1970-01-01T00:00:00Z</time>
      </trkpt>
      <trkpt lat="43.77079" lon="7.24986">
        <ele>-1</ele>
        <time>1970-01-01T00:00:00Z</time>
      </trkpt>
      <trkpt lat="43.77068" lon="7.24985">
        <ele>-1</ele>
        <time>1970-01-01T00:00:00Z</time>
      </trkpt>
      <trkpt lat="43.77059" lon="7.24984">
        <ele>-1</ele>
        <time>1970-01-01T00:00:00Z</time>
      </trkpt>
      <trkpt lat="43.7705" lon="7.24984">
        <ele>-1</ele>
        <time>1970-01-01T00:00:00Z</time>
      </trkpt>
      <trkpt lat="43.77041" lon="7.24983">
        <ele>-1</ele>
        <time>1970-01-01T00:00:00Z</time>
      </trkpt>
      <trkpt lat="43.77032" lon="7.24982">
        <ele>-1</ele>
        <time>1970-01-01T00:00:00Z</time>
      </trkpt>
      <trkpt lat="43.77023" lon="7.24981">
        <ele>-1</ele>
        <time>1970-01-01T00:00:00Z</time>
      </trkpt>
      <trkpt lat="43.77014" lon="7.2498">
        <ele>-1</ele>
        <time>1970-01-01T00:00:00Z</time>
      </trkpt>
      <trkpt lat="43.77005" lon="7.24983">
        <ele>-1</ele>
        <time>1970-01-01T00:00:00Z</time>
      </trkpt>
      <trkpt lat="43.76996" lon="7.24982">
        <ele>-1</ele>
        <time>1970-01-01T00:00:00Z</time>
      </trkpt>
      <trkpt lat="43.76989" lon="7.24988">
        <ele>-1</ele>
        <time>1970-01-01T00:00:00Z</time>
      </trkpt>
      <trkpt lat="43.76982" lon="7.24993">
        <ele>-1</ele>
        <time>1970-01-01T00:00:00Z</time>
      </trkpt>
      <trkpt lat="43.76975" lon="7.24996">
        <ele>-1</ele>
        <time>1970-01-01T00:00:00Z</time>
      </trkpt>
      <trkpt lat="43.76968" lon="7.24998">
        <ele>-1</ele>
        <time>1970-01-01T00:00:00Z</time>
      </trkpt>
      <trkpt lat="43.76959" lon="7.25004">
        <ele>-1</ele>
        <time>1970-01-01T00:00:00Z</time>
      </trkpt>
      <trkpt lat="43.76952" lon="7.25009">
        <ele>-1</ele>
        <time>1970-01-01T00:00:00Z</time>
      </trkpt>
      <trkpt lat="43.76945" lon="7.25012">
        <ele>-1</ele>
        <time>1970-01-01T00:00:00Z</time>
      </trkpt>
      <trkpt lat="43.76938" lon="7.25017">
        <ele>-1</ele>
        <time>1970-01-01T00:00:00Z</time>
      </trkpt>
      <trkpt lat="43.76931" lon="7.25023">
        <ele>-1</ele>
        <time>1970-01-01T00:00:00Z</time>
      </trkpt>
      <trkpt lat="43.76924" lon="7.25029">
        <ele>-1</ele>
        <time>1970-01-01T00:00:00Z</time>
      </trkpt>
      <trkpt lat="43.76913" lon="7.25028">
        <ele>-1</ele>
        <time>1970-01-01T00:00:00Z</time>
      </trkpt>
      <trkpt lat="43.76902" lon="7.25033">
        <ele>-1</ele>
        <time>1970-01-01T00:00:00Z</time>
      </trkpt>
      <trkpt lat="43.7689" lon="7.25035">
        <ele>-1</ele>
        <time>1970-01-01T00:00:00Z</time>
      </trkpt>
      <trkpt lat="43.76881" lon="7.25034">
        <ele>-1</ele>
        <time>1970-01-01T00:00:00Z</time>
      </trkpt>
      <trkpt lat="43.76872" lon="7.25033">
        <ele>-1</ele>
        <time>1970-01-01T00:00:00Z</time>
      </trkpt>
      <trkpt lat="43.76863" lon="7.25033">
        <ele>-1</ele>
        <time>1970-01-01T00:00:00Z</time>
      </trkpt>
      <trkpt lat="43.76852" lon="7.25035">
        <ele>-1</ele>
        <time>1970-01-01T00:00:00Z</time>
      </trkpt>
      <trkpt lat="43.76841" lon="7.25034">
        <ele>-1</ele>
        <time>1970-01-01T00:00:00Z</time>
      </trkpt>
      <trkpt lat="43.76832" lon="7.25033">
        <ele>-1</ele>
        <time>1970-01-01T00:00:00Z</time>
      </trkpt>
      <trkpt lat="43.76825" lon="7.25036">
        <ele>-1</ele>
        <time>1970-01-01T00:00:00Z</time>
      </trkpt>
      <trkpt lat="43.76818" lon="7.25038">
        <ele>-1</ele>
        <time>1970-01-01T00:00:00Z</time>
      </trkpt>
      <trkpt lat="43.76811" lon="7.25041">
        <ele>-1</ele>
        <time>1970-01-01T00:00:00Z</time>
      </trkpt>
      <trkpt lat="43.76804" lon="7.25043">
        <ele>-1</ele>
        <time>1970-01-01T00:00:00Z</time>
      </trkpt>
      <trkpt lat="43.76797" lon="7.25049">
        <ele>-1</ele>
        <time>1970-01-01T00:00:00Z</time>
      </trkpt>
      <trkpt lat="43.7679" lon="7.25051">
        <ele>-1</ele>
        <time>1970-01-01T00:00:00Z</time>
      </trkpt>
      <trkpt lat="43.76783" lon="7.25057">
        <ele>-1</ele>
        <time>1970-01-01T00:00:00Z</time>
      </trkpt>
      <trkpt lat="43.76777" lon="7.25059">
        <ele>-1</ele>
        <time>1970-01-01T00:00:00Z</time>
      </trkpt>
      <trkpt lat="43.76768" lon="7.25059">
        <ele>-1</ele>
        <time>1970-01-01T00:00:00Z</time>
      </trkpt>
      <trkpt lat="43.76756" lon="7.25061">
        <ele>-1</ele>
        <time>1970-01-01T00:00:00Z</time>
      </trkpt>
      <trkpt lat="43.76747" lon="7.25063">
        <ele>-1</ele>
        <time>1970-01-01T00:00:00Z</time>
      </trkpt>
      <trkpt lat="43.76738" lon="7.25062">
        <ele>-1</ele>
        <time>1970-01-01T00:00:00Z</time>
      </trkpt>
      <trkpt lat="43.76729" lon="7.25061">
        <ele>-1</ele>
        <time>1970-01-01T00:00:00Z</time>
      </trkpt>
      <trkpt lat="43.7672" lon="7.25061">
        <ele>-1</ele>
        <time>1970-01-01T00:00:00Z</time>
      </trkpt>
      <trkpt lat="43.76711" lon="7.2506">
        <ele>-1</ele>
        <time>1970-01-01T00:00:00Z</time>
      </trkpt>
      <trkpt lat="43.76705" lon="7.25056">
        <ele>-1</ele>
        <time>1970-01-01T00:00:00Z</time>
      </trkpt>
      <trkpt lat="43.76696" lon="7.25055">
        <ele>-1</ele>
        <time>1970-01-01T00:00:00Z</time>
      </trkpt>
      <trkpt lat="43.76687" lon="7.25058">
        <ele>-1</ele>
        <time>1970-01-01T00:00:00Z</time>
      </trkpt>
      <trkpt lat="43.7668" lon="7.2506">
        <ele>-1</ele>
        <time>1970-01-01T00:00:00Z</time>
      </trkpt>
      <trkpt lat="43.76672" lon="7.25069">
        <ele>-1</ele>
        <time>1970-01-01T00:00:00Z</time>
      </trkpt>
      <trkpt lat="43.76668" lon="7.25078">
        <ele>-1</ele>
        <time>1970-01-01T00:00:00Z</time>
      </trkpt>
      <trkpt lat="43.76663" lon="7.25087">
        <ele>-1</ele>
        <time>1970-01-01T00:00:00Z</time>
      </trkpt>
      <trkpt lat="43.76656" lon="7.25089">
        <ele>-1</ele>
        <time>1970-01-01T00:00:00Z</time>
      </trkpt>
      <trkpt lat="43.76649" lon="7.25092">
        <ele>-1</ele>
        <time>1970-01-01T00:00:00Z</time>
      </trkpt>
      <trkpt lat="43.76642" lon="7.25097">
        <ele>-1</ele>
        <time>1970-01-01T00:00:00Z</time>
      </trkpt>
      <trkpt lat="43.76633" lon="7.25097">
        <ele>-1</ele>
        <time>1970-01-01T00:00:00Z</time>
      </trkpt>
      <trkpt lat="43.76626" lon="7.25102">
        <ele>-1</ele>
        <time>1970-01-01T00:00:00Z</time>
      </trkpt>
      <trkpt lat="43.76617" lon="7.25101">
        <ele>-1</ele>
        <time>1970-01-01T00:00:00Z</time>
      </trkpt>
      <trkpt lat="43.7661" lon="7.25107">
        <ele>-1</ele>
        <time>1970-01-01T00:00:00Z</time>
      </trkpt>
      <trkpt lat="43.76603" lon="7.2511">
        <ele>-1</ele>
        <time>1970-01-01T00:00:00Z</time>
      </trkpt>
      <trkpt lat="43.76596" lon="7.25112">
        <ele>-1</ele>
        <time>1970-01-01T00:00:00Z</time>
      </trkpt>
      <trkpt lat="43.76591" lon="7.25121">
        <ele>-1</ele>
        <time>1970-01-01T00:00:00Z</time>
      </trkpt>
      <trkpt lat="43.76584" lon="7.25123">
        <ele>-1</ele>
        <time>1970-01-01T00:00:00Z</time>
      </trkpt>
      <trkpt lat="43.76576" lon="7.25123">
        <ele>-1</ele>
        <time>1970-01-01T00:00:00Z</time>
      </trkpt>
      <trkpt lat="43.76567" lon="7.25122">
        <ele>-1</ele>
        <time>1970-01-01T00:00:00Z</time>
      </trkpt>
      <trkpt lat="43.76557" lon="7.25124">
        <ele>-1</ele>
        <time>1970-01-01T00:00:00Z</time>
      </trkpt>
      <trkpt lat="43.76546" lon="7.25123">
        <ele>-1</ele>
        <time>1970-01-01T00:00:00Z</time>
      </trkpt>
      <trkpt lat="43.76537" lon="7.25122">
        <ele>-1</ele>
        <time>1970-01-01T00:00:00Z</time>
      </trkpt>
      <trkpt lat="43.76524" lon="7.25121">
        <ele>-1</ele>
        <time>1970-01-01T00:00:00Z</time>
      </trkpt>
      <trkpt lat="43.76515" lon="7.25121">
        <ele>-1</ele>
        <time>1970-01-01T00:00:00Z</time>
      </trkpt>
      <trkpt lat="43.76506" lon="7.2512">
        <ele>-1</ele>
        <time>1970-01-01T00:00:00Z</time>
      </trkpt>
      <trkpt lat="43.76495" lon="7.25119">
        <ele>-1</ele>
        <time>1970-01-01T00:00:00Z</time>
      </trkpt>
      <trkpt lat="43.76485" lon="7.25124">
        <ele>-1</ele>
        <time>1970-01-01T00:00:00Z</time>
      </trkpt>
      <trkpt lat="43.76474" lon="7.25123">
        <ele>-1</ele>
        <time>1970-01-01T00:00:00Z</time>
      </trkpt>
      <trkpt lat="43.76465" lon="7.25122">
        <ele>-1</ele>
        <time>1970-01-01T00:00:00Z</time>
      </trkpt>
      <trkpt lat="43.76456" lon="7.25122">
        <ele>-1</ele>
        <time>1970-01-01T00:00:00Z</time>
      </trkpt>
      <trkpt lat="43.76447" lon="7.25121">
        <ele>-1</ele>
        <time>1970-01-01T00:00:00Z</time>
      </trkpt>
      <trkpt lat="43.76434" lon="7.2512">
        <ele>-1</ele>
        <time>1970-01-01T00:00:00Z</time>
      </trkpt>
      <trkpt lat="43.76422" lon="7.25122">
        <ele>-1</ele>
        <time>1970-01-01T00:00:00Z</time>
      </trkpt>
      <trkpt lat="43.76416" lon="7.25124">
        <ele>-1</ele>
        <time>1970-01-01T00:00:00Z</time>
      </trkpt>
      <trkpt lat="43.76409" lon="7.2513">
        <ele>-1</ele>
        <time>1970-01-01T00:00:00Z</time>
      </trkpt>
      <trkpt lat="43.76402" lon="7.25133">
        <ele>-1</ele>
        <time>1970-01-01T00:00:00Z</time>
      </trkpt>
      <trkpt lat="43.76395" lon="7.25138">
        <ele>-1</ele>
        <time>1970-01-01T00:00:00Z</time>
      </trkpt>
      <trkpt lat="43.76388" lon="7.25141">
        <ele>-1</ele>
        <time>1970-01-01T00:00:00Z</time>
      </trkpt>
      <trkpt lat="43.76378" lon="7.25149">
        <ele>-1</ele>
        <time>1970-01-01T00:00:00Z</time>
      </trkpt>
      <trkpt lat="43.76373" lon="7.25158">
        <ele>-1</ele>
        <time>1970-01-01T00:00:00Z</time>
      </trkpt>
      <trkpt lat="43.76373" lon="7.25174">
        <ele>-1</ele>
        <time>1970-01-01T00:00:00Z</time>
      </trkpt>
      <trkpt lat="43.7637" lon="7.25183">
        <ele>-1</ele>
        <time>1970-01-01T00:00:00Z</time>
      </trkpt>
      <trkpt lat="43.76365" lon="7.25198">
        <ele>-1</ele>
        <time>1970-01-01T00:00:00Z</time>
      </trkpt>
      <trkpt lat="43.76353" lon="7.25206">
        <ele>-1</ele>
        <time>1970-01-01T00:00:00Z</time>
      </trkpt>
      <trkpt lat="43.76346" lon="7.25212">
        <ele>-1</ele>
        <time>1970-01-01T00:00:00Z</time>
      </trkpt>
      <trkpt lat="43.76337" lon="7.25214">
        <ele>-1</ele>
        <time>1970-01-01T00:00:00Z</time>
      </trkpt>
      <trkpt lat="43.7633" lon="7.25216">
        <ele>-1</ele>
        <time>1970-01-01T00:00:00Z</time>
      </trkpt>
      <trkpt lat="43.76321" lon="7.25222">
        <ele>-1</ele>
        <time>1970-01-01T00:00:00Z</time>
      </trkpt>
      <trkpt lat="43.7631" lon="7.25221">
        <ele>-1</ele>
        <time>1970-01-01T00:00:00Z</time>
      </trkpt>
      <trkpt lat="43.76303" lon="7.25223">
        <ele>-1</ele>
        <time>1970-01-01T00:00:00Z</time>
      </trkpt>
      <trkpt lat="43.76292" lon="7.25226">
        <ele>-1</ele>
        <time>1970-01-01T00:00:00Z</time>
      </trkpt>
      <trkpt lat="43.76285" lon="7.25228">
        <ele>-1</ele>
        <time>1970-01-01T00:00:00Z</time>
      </trkpt>
      <trkpt lat="43.76276" lon="7.25227">
        <ele>-1</ele>
        <time>1970-01-01T00:00:00Z</time>
      </trkpt>
      <trkpt lat="43.76265" lon="7.25226">
        <ele>-1</ele>
        <time>1970-01-01T00:00:00Z</time>
      </trkpt>
      <trkpt lat="43.76174" lon="7.25237">
        <ele>-1</ele>
        <time>1970-01-01T00:00:00Z</time>
      </trkpt>
      <trkpt lat="43.76163" lon="7.25236">
        <ele>-1</ele>
        <time>1970-01-01T00:00:00Z</time>
      </trkpt>
      <trkpt lat="43.76154" lon="7.25242">
        <ele>-1</ele>
        <time>1970-01-01T00:00:00Z</time>
      </trkpt>
      <trkpt lat="43.76147" lon="7.25247">
        <ele>-1</ele>
        <time>1970-01-01T00:00:00Z</time>
      </trkpt>
      <trkpt lat="43.76139" lon="7.25256">
        <ele>-1</ele>
        <time>1970-01-01T00:00:00Z</time>
      </trkpt>
      <trkpt lat="43.7613" lon="7.25255">
        <ele>-1</ele>
        <time>1970-01-01T00:00:00Z</time>
      </trkpt>
      <trkpt lat="43.76124" lon="7.25258">
        <ele>-1</ele>
        <time>1970-01-01T00:00:00Z</time>
      </trkpt>
      <trkpt lat="43.76116" lon="7.25266">
        <ele>-1</ele>
        <time>1970-01-01T00:00:00Z</time>
      </trkpt>
      <trkpt lat="43.76109" lon="7.25272">
        <ele>-1</ele>
        <time>1970-01-01T00:00:00Z</time>
      </trkpt>
      <trkpt lat="43.76103" lon="7.25274">
        <ele>-1</ele>
        <time>1970-01-01T00:00:00Z</time>
      </trkpt>
      <trkpt lat="43.76096" lon="7.2528">
        <ele>-1</ele>
        <time>1970-01-01T00:00:00Z</time>
      </trkpt>
      <trkpt lat="43.76088" lon="7.25292">
        <ele>-1</ele>
        <time>1970-01-01T00:00:00Z</time>
      </trkpt>
      <trkpt lat="43.76081" lon="7.25297">
        <ele>-1</ele>
        <time>1970-01-01T00:00:00Z</time>
      </trkpt>
      <trkpt lat="43.76072" lon="7.25297">
        <ele>-1</ele>
        <time>1970-01-01T00:00:00Z</time>
      </trkpt>
      <trkpt lat="43.76061" lon="7.25299">
        <ele>-1</ele>
        <time>1970-01-01T00:00:00Z</time>
      </trkpt>
      <trkpt lat="43.76052" lon="7.25301">
        <ele>-1</ele>
        <time>1970-01-01T00:00:00Z</time>
      </trkpt>
      <trkpt lat="43.76043" lon="7.253">
        <ele>-1</ele>
        <time>1970-01-01T00:00:00Z</time>
      </trkpt>
      <trkpt lat="43.76034" lon="7.253">
        <ele>-1</ele>
        <time>1970-01-01T00:00:00Z</time>
      </trkpt>
      <trkpt lat="43.76027" lon="7.25302">
        <ele>-1</ele>
        <time>1970-01-01T00:00:00Z</time>
      </trkpt>
      <trkpt lat="43.76018" lon="7.25307">
        <ele>-1</ele>
        <time>1970-01-01T00:00:00Z</time>
      </trkpt>
      <trkpt lat="43.76011" lon="7.25316">
        <ele>-1</ele>
        <time>1970-01-01T00:00:00Z</time>
      </trkpt>
      <trkpt lat="43.76004" lon="7.25319">
        <ele>-1</ele>
        <time>1970-01-01T00:00:00Z</time>
      </trkpt>
      <trkpt lat="43.75997" lon="7.25327">
        <ele>-1</ele>
        <time>1970-01-01T00:00:00Z</time>
      </trkpt>
      <trkpt lat="43.75989" lon="7.25336">
        <ele>-1</ele>
        <time>1970-01-01T00:00:00Z</time>
      </trkpt>
      <trkpt lat="43.75982" lon="7.25342">
        <ele>-1</ele>
        <time>1970-01-01T00:00:00Z</time>
      </trkpt>
      <trkpt lat="43.75973" lon="7.2535">
        <ele>-1</ele>
        <time>1970-01-01T00:00:00Z</time>
      </trkpt>
      <trkpt lat="43.75964" lon="7.25356">
        <ele>-1</ele>
        <time>1970-01-01T00:00:00Z</time>
      </trkpt>
      <trkpt lat="43.75957" lon="7.25358">
        <ele>-1</ele>
        <time>1970-01-01T00:00:00Z</time>
      </trkpt>
      <trkpt lat="43.75948" lon="7.25357">
        <ele>-1</ele>
        <time>1970-01-01T00:00:00Z</time>
      </trkpt>
      <trkpt lat="43.75939" lon="7.25357">
        <ele>-1</ele>
        <time>1970-01-01T00:00:00Z</time>
      </trkpt>
      <trkpt lat="43.75932" lon="7.25359">
        <ele>-1</ele>
        <time>1970-01-01T00:00:00Z</time>
      </trkpt>
      <trkpt lat="43.75925" lon="7.25362">
        <ele>-1</ele>
        <time>1970-01-01T00:00:00Z</time>
      </trkpt>
      <trkpt lat="43.75916" lon="7.25367">
        <ele>-1</ele>
        <time>1970-01-01T00:00:00Z</time>
      </trkpt>
      <trkpt lat="43.75907" lon="7.25372">
        <ele>-1</ele>
        <time>1970-01-01T00:00:00Z</time>
      </trkpt>
      <trkpt lat="43.759" lon="7.25381">
        <ele>-1</ele>
        <time>1970-01-01T00:00:00Z</time>
      </trkpt>
      <trkpt lat="43.75895" lon="7.2539">
        <ele>-1</ele>
        <time>1970-01-01T00:00:00Z</time>
      </trkpt>
      <trkpt lat="43.75887" lon="7.25399">
        <ele>-1</ele>
        <time>1970-01-01T00:00:00Z</time>
      </trkpt>
      <trkpt lat="43.75876" lon="7.25407">
        <ele>-1</ele>
        <time>1970-01-01T00:00:00Z</time>
      </trkpt>
      <trkpt lat="43.75867" lon="7.25412">
        <ele>-1</ele>
        <time>1970-01-01T00:00:00Z</time>
      </trkpt>
      <trkpt lat="43.7586" lon="7.25415">
        <ele>-1</ele>
        <time>1970-01-01T00:00:00Z</time>
      </trkpt>
      <trkpt lat="43.75853" lon="7.25421">
        <ele>-1</ele>
        <time>1970-01-01T00:00:00Z</time>
      </trkpt>
      <trkpt lat="43.75846" lon="7.25423">
        <ele>-1</ele>
        <time>1970-01-01T00:00:00Z</time>
      </trkpt>
      <trkpt lat="43.75837" lon="7.25425">
        <ele>-1</ele>
        <time>1970-01-01T00:00:00Z</time>
      </trkpt>
      <trkpt lat="43.75832" lon="7.25434">
        <ele>-1</ele>
        <time>1970-01-01T00:00:00Z</time>
      </trkpt>
      <trkpt lat="43.75825" lon="7.25446">
        <ele>-1</ele>
        <time>1970-01-01T00:00:00Z</time>
      </trkpt>
      <trkpt lat="43.7582" lon="7.25455">
        <ele>-1</ele>
        <time>1970-01-01T00:00:00Z</time>
      </trkpt>
      <trkpt lat="43.75815" lon="7.25464">
        <ele>-1</ele>
        <time>1970-01-01T00:00:00Z</time>
      </trkpt>
      <trkpt lat="43.75808" lon="7.25473">
        <ele>-1</ele>
        <time>1970-01-01T00:00:00Z</time>
      </trkpt>
      <trkpt lat="43.75807" lon="7.25488">
        <ele>-1</ele>
        <time>1970-01-01T00:00:00Z</time>
      </trkpt>
      <trkpt lat="43.75626" lon="7.25544">
        <ele>-1</ele>
        <time>1970-01-01T00:00:00Z</time>
      </trkpt>
      <trkpt lat="43.75624" lon="7.25553">
        <ele>-1</ele>
        <time>1970-01-01T00:00:00Z</time>
      </trkpt>
      <trkpt lat="43.75619" lon="7.25562">
        <ele>-1</ele>
        <time>1970-01-01T00:00:00Z</time>
      </trkpt>
      <trkpt lat="43.75609" lon="7.2557">
        <ele>-1</ele>
        <time>1970-01-01T00:00:00Z</time>
      </trkpt>
      <trkpt lat="43.75602" lon="7.25579">
        <ele>-1</ele>
        <time>1970-01-01T00:00:00Z</time>
      </trkpt>
      <trkpt lat="43.75597" lon="7.25588">
        <ele>-1</ele>
        <time>1970-01-01T00:00:00Z</time>
      </trkpt>
      <trkpt lat="43.75595" lon="7.25597">
        <ele>-1</ele>
        <time>1970-01-01T00:00:00Z</time>
      </trkpt>
      <trkpt lat="43.75585" lon="7.25606">
        <ele>-1</ele>
        <time>1970-01-01T00:00:00Z</time>
      </trkpt>
      <trkpt lat="43.75578" lon="7.25614">
        <ele>-1</ele>
        <time>1970-01-01T00:00:00Z</time>
      </trkpt>
      <trkpt lat="43.75571" lon="7.2562">
        <ele>-1</ele>
        <time>1970-01-01T00:00:00Z</time>
      </trkpt>
      <trkpt lat="43.75562" lon="7.25619">
        <ele>-1</ele>
        <time>1970-01-01T00:00:00Z</time>
      </trkpt>
      <trkpt lat="43.75555" lon="7.25622">
        <ele>-1</ele>
        <time>1970-01-01T00:00:00Z</time>
      </trkpt>
      <trkpt lat="43.75546" lon="7.25627">
        <ele>-1</ele>
        <time>1970-01-01T00:00:00Z</time>
      </trkpt>
      <trkpt lat="43.75537" lon="7.25635">
        <ele>-1</ele>
        <time>1970-01-01T00:00:00Z</time>
      </trkpt>
      <trkpt lat="43.75532" lon="7.25644">
        <ele>-1</ele>
        <time>1970-01-01T00:00:00Z</time>
      </trkpt>
      <trkpt lat="43.75529" lon="7.25657">
        <ele>-1</ele>
        <time>1970-01-01T00:00:00Z</time>
      </trkpt>
      <trkpt lat="43.75526" lon="7.25666">
        <ele>-1</ele>
        <time>1970-01-01T00:00:00Z</time>
      </trkpt>
      <trkpt lat="43.75526" lon="7.25678">
        <ele>-1</ele>
        <time>1970-01-01T00:00:00Z</time>
      </trkpt>
      <trkpt lat="43.75523" lon="7.2569">
        <ele>-1</ele>
        <time>1970-01-01T00:00:00Z</time>
      </trkpt>
      <trkpt lat="43.75518" lon="7.25699">
        <ele>-1</ele>
        <time>1970-01-01T00:00:00Z</time>
      </trkpt>
      <trkpt lat="43.75513" lon="7.25708">
        <ele>-1</ele>
        <time>1970-01-01T00:00:00Z</time>
      </trkpt>
      <trkpt lat="43.7551" lon="7.25717">
        <ele>-1</ele>
        <time>1970-01-01T00:00:00Z</time>
      </trkpt>
      <trkpt lat="43.75506" lon="7.25726">
        <ele>-1</ele>
        <time>1970-01-01T00:00:00Z</time>
      </trkpt>
      <trkpt lat="43.75507" lon="7.25739">
        <ele>-1</ele>
        <time>1970-01-01T00:00:00Z</time>
      </trkpt>
      <trkpt lat="43.75511" lon="7.25748">
        <ele>-1</ele>
        <time>1970-01-01T00:00:00Z</time>
      </trkpt>
      <trkpt lat="43.75506" lon="7.25757">
        <ele>-1</ele>
        <time>1970-01-01T00:00:00Z</time>
      </trkpt>
      <trkpt lat="43.75499" lon="7.25766">
        <ele>-1</ele>
        <time>1970-01-01T00:00:00Z</time>
      </trkpt>
      <trkpt lat="43.7549" lon="7.25771">
        <ele>-1</ele>
        <time>1970-01-01T00:00:00Z</time>
      </trkpt>
      <trkpt lat="43.75481" lon="7.2578">
        <ele>-1</ele>
        <time>1970-01-01T00:00:00Z</time>
      </trkpt>
      <trkpt lat="43.75471" lon="7.25788">
        <ele>-1</ele>
        <time>1970-01-01T00:00:00Z</time>
      </trkpt>
      <trkpt lat="43.75464" lon="7.25791">
        <ele>-1</ele>
        <time>1970-01-01T00:00:00Z</time>
      </trkpt>
      <trkpt lat="43.75455" lon="7.2579">
        <ele>-1</ele>
        <time>1970-01-01T00:00:00Z</time>
      </trkpt>
      <trkpt lat="43.75446" lon="7.25789">
        <ele>-1</ele>
        <time>1970-01-01T00:00:00Z</time>
      </trkpt>
      <trkpt lat="43.75437" lon="7.25788">
        <ele>-1</ele>
        <time>1970-01-01T00:00:00Z</time>
      </trkpt>
      <trkpt lat="43.75426" lon="7.25791">
        <ele>-1</ele>
        <time>1970-01-01T00:00:00Z</time>
      </trkpt>
      <trkpt lat="43.75419" lon="7.25793">
        <ele>-1</ele>
        <time>1970-01-01T00:00:00Z</time>
      </trkpt>
      <trkpt lat="43.75412" lon="7.25799">
        <ele>-1</ele>
        <time>1970-01-01T00:00:00Z</time>
      </trkpt>
      <trkpt lat="43.75405" lon="7.25807">
        <ele>-1</ele>
        <time>1970-01-01T00:00:00Z</time>
      </trkpt>
      <trkpt lat="43.75402" lon="7.25816">
        <ele>-1</ele>
        <time>1970-01-01T00:00:00Z</time>
      </trkpt>
      <trkpt lat="43.75394" lon="7.25813">
        <ele>-1</ele>
        <time>1970-01-01T00:00:00Z</time>
      </trkpt>
      <trkpt lat="43.75387" lon="7.25809">
        <ele>-1</ele>
        <time>1970-01-01T00:00:00Z</time>
      </trkpt>
      <trkpt lat="43.75378" lon="7.25808">
        <ele>-1</ele>
        <time>1970-01-01T00:00:00Z</time>
      </trkpt>
      <trkpt lat="43.75372" lon="7.25801">
        <ele>-1</ele>
        <time>1970-01-01T00:00:00Z</time>
      </trkpt>
      <trkpt lat="43.75365" lon="7.25798">
        <ele>-1</ele>
        <time>1970-01-01T00:00:00Z</time>
      </trkpt>
      <trkpt lat="43.75359" lon="7.25791">
        <ele>-1</ele>
        <time>1970-01-01T00:00:00Z</time>
      </trkpt>
      <trkpt lat="43.75352" lon="7.25787">
        <ele>-1</ele>
        <time>1970-01-01T00:00:00Z</time>
      </trkpt>
      <trkpt lat="43.75343" lon="7.2578">
        <ele>-1</ele>
        <time>1970-01-01T00:00:00Z</time>
      </trkpt>
      <trkpt lat="43.75334" lon="7.25783">
        <ele>-1</ele>
        <time>1970-01-01T00:00:00Z</time>
      </trkpt>
      <trkpt lat="43.75329" lon="7.25791">
        <ele>-1</ele>
        <time>1970-01-01T00:00:00Z</time>
      </trkpt>
      <trkpt lat="43.75322" lon="7.25797">
        <ele>-1</ele>
        <time>1970-01-01T00:00:00Z</time>
      </trkpt>
      <trkpt lat="43.75317" lon="7.25806">
        <ele>-1</ele>
        <time>1970-01-01T00:00:00Z</time>
      </trkpt>
      <trkpt lat="43.75308" lon="7.25814">
        <ele>-1</ele>
        <time>1970-01-01T00:00:00Z</time>
      </trkpt>
      <trkpt lat="43.75301" lon="7.25817">
        <ele>-1</ele>
        <time>1970-01-01T00:00:00Z</time>
      </trkpt>
      <trkpt lat="43.75294" lon="7.25823">
        <ele>-1</ele>
        <time>1970-01-01T00:00:00Z</time>
      </trkpt>
      <trkpt lat="43.75287" lon="7.25825">
        <ele>-1</ele>
        <time>1970-01-01T00:00:00Z</time>
      </trkpt>
      <trkpt lat="43.7528" lon="7.25828">
        <ele>-1</ele>
        <time>1970-01-01T00:00:00Z</time>
      </trkpt>
      <trkpt lat="43.75273" lon="7.25833">
        <ele>-1</ele>
        <time>1970-01-01T00:00:00Z</time>
      </trkpt>
      <trkpt lat="43.75262" lon="7.25845">
        <ele>-1</ele>
        <time>1970-01-01T00:00:00Z</time>
      </trkpt>
      <trkpt lat="43.7525" lon="7.25847">
        <ele>-1</ele>
        <time>1970-01-01T00:00:00Z</time>
      </trkpt>
      <trkpt lat="43.75241" lon="7.25852">
        <ele>-1</ele>
        <time>1970-01-01T00:00:00Z</time>
      </trkpt>
      <trkpt lat="43.75232" lon="7.25854">
        <ele>-1</ele>
        <time>1970-01-01T00:00:00Z</time>
      </trkpt>
      <trkpt lat="43.75223" lon="7.25854">
        <ele>-1</ele>
        <time>1970-01-01T00:00:00Z</time>
      </trkpt>
      <trkpt lat="43.75214" lon="7.25853">
        <ele>-1</ele>
        <time>1970-01-01T00:00:00Z</time>
      </trkpt>
      <trkpt lat="43.75203" lon="7.25852">
        <ele>-1</ele>
        <time>1970-01-01T00:00:00Z</time>
      </trkpt>
      <trkpt lat="43.75194" lon="7.25851">
        <ele>-1</ele>
        <time>1970-01-01T00:00:00Z</time>
      </trkpt>
      <trkpt lat="43.75182" lon="7.2585">
        <ele>-1</ele>
        <time>1970-01-01T00:00:00Z</time>
      </trkpt>
      <trkpt lat="43.75173" lon="7.25853">
        <ele>-1</ele>
        <time>1970-01-01T00:00:00Z</time>
      </trkpt>
      <trkpt lat="43.75162" lon="7.25852">
        <ele>-1</ele>
        <time>1970-01-01T00:00:00Z</time>
      </trkpt>
      <trkpt lat="43.75155" lon="7.25857">
        <ele>-1</ele>
        <time>1970-01-01T00:00:00Z</time>
      </trkpt>
      <trkpt lat="43.75144" lon="7.25862">
        <ele>-1</ele>
        <time>1970-01-01T00:00:00Z</time>
      </trkpt>
      <trkpt lat="43.75135" lon="7.25865">
        <ele>-1</ele>
        <time>1970-01-01T00:00:00Z</time>
      </trkpt>
      <trkpt lat="43.75128" lon="7.25867">
        <ele>-1</ele>
        <time>1970-01-01T00:00:00Z</time>
      </trkpt>
      <trkpt lat="43.75121" lon="7.2587">
        <ele>-1</ele>
        <time>1970-01-01T00:00:00Z</time>
      </trkpt>
      <trkpt lat="43.75114" lon="7.25872">
        <ele>-1</ele>
        <time>1970-01-01T00:00:00Z</time>
      </trkpt>
      <trkpt lat="43.75105" lon="7.25878">
        <ele>-1</ele>
        <time>1970-01-01T00:00:00Z</time>
      </trkpt>
      <trkpt lat="43.75096" lon="7.2588">
        <ele>-1</ele>
        <time>1970-01-01T00:00:00Z</time>
      </trkpt>
      <trkpt lat="43.75084" lon="7.25879">
        <ele>-1</ele>
        <time>1970-01-01T00:00:00Z</time>
      </trkpt>
      <trkpt lat="43.75078" lon="7.25875">
        <ele>-1</ele>
        <time>1970-01-01T00:00:00Z</time>
      </trkpt>
      <trkpt lat="43.75069" lon="7.25875">
        <ele>-1</ele>
        <time>1970-01-01T00:00:00Z</time>
      </trkpt>
      <trkpt lat="43.75062" lon="7.25871">
        <ele>-1</ele>
        <time>1970-01-01T00:00:00Z</time>
      </trkpt>
      <trkpt lat="43.75053" lon="7.25867">
        <ele>-1</ele>
        <time>1970-01-01T00:00:00Z</time>
      </trkpt>
      <trkpt lat="43.75042" lon="7.25866">
        <ele>-1</ele>
        <time>1970-01-01T00:00:00Z</time>
      </trkpt>
      <trkpt lat="43.75033" lon="7.25862">
        <ele>-1</ele>
        <time>1970-01-01T00:00:00Z</time>
      </trkpt>
      <trkpt lat="43.7502" lon="7.25861">
        <ele>-1</ele>
        <time>1970-01-01T00:00:00Z</time>
      </trkpt>
      <trkpt lat="43.75011" lon="7.2586">
        <ele>-1</ele>
        <time>1970-01-01T00:00:00Z</time>
      </trkpt>
      <trkpt lat="43.75002" lon="7.25856">
        <ele>-1</ele>
        <time>1970-01-01T00:00:00Z</time>
      </trkpt>
      <trkpt lat="43.74991" lon="7.25855">
        <ele>-1</ele>
        <time>1970-01-01T00:00:00Z</time>
      </trkpt>
      <trkpt lat="43.74982" lon="7.25855">
        <ele>-1</ele>
        <time>1970-01-01T00:00:00Z</time>
      </trkpt>
      <trkpt lat="43.74973" lon="7.25854">
        <ele>-1</ele>
        <time>1970-01-01T00:00:00Z</time>
      </trkpt>
      <trkpt lat="43.74964" lon="7.25853">
        <ele>-1</ele>
        <time>1970-01-01T00:00:00Z</time>
      </trkpt>
      <trkpt lat="43.7495" lon="7.25855">
        <ele>-1</ele>
        <time>1970-01-01T00:00:00Z</time>
      </trkpt>
      <trkpt lat="43.74941" lon="7.25854">
        <ele>-1</ele>
        <time>1970-01-01T00:00:00Z</time>
      </trkpt>
      <trkpt lat="43.74935" lon="7.25851">
        <ele>-1</ele>
        <time>1970-01-01T00:00:00Z</time>
      </trkpt>
      <trkpt lat="43.74926" lon="7.25844">
        <ele>-1</ele>
        <time>1970-01-01T00:00:00Z</time>
      </trkpt>
      <trkpt lat="43.74919" lon="7.2584">
        <ele>-1</ele>
        <time>1970-01-01T00:00:00Z</time>
      </trkpt>
      <trkpt lat="43.74911" lon="7.25839">
        <ele>-1</ele>
        <time>1970-01-01T00:00:00Z</time>
      </trkpt>
      <trkpt lat="43.74897" lon="7.25838">
        <ele>-1</ele>
        <time>1970-01-01T00:00:00Z</time>
      </trkpt>
      <trkpt lat="43.74888" lon="7.25837">
        <ele>-1</ele>
        <time>1970-01-01T00:00:00Z</time>
      </trkpt>
      <trkpt lat="43.74877" lon="7.25836">
        <ele>-1</ele>
        <time>1970-01-01T00:00:00Z</time>
      </trkpt>
      <trkpt lat="43.7487" lon="7.25833">
        <ele>-1</ele>
        <time>1970-01-01T00:00:00Z</time>
      </trkpt>
      <trkpt lat="43.74861" lon="7.25829">
        <ele>-1</ele>
        <time>1970-01-01T00:00:00Z</time>
      </trkpt>
      <trkpt lat="43.74853" lon="7.25828">
        <ele>-1</ele>
        <time>1970-01-01T00:00:00Z</time>
      </trkpt>
      <trkpt lat="43.74844" lon="7.25827">
        <ele>-1</ele>
        <time>1970-01-01T00:00:00Z</time>
      </trkpt>
      <trkpt lat="43.74834" lon="7.25832">
        <ele>-1</ele>
        <time>1970-01-01T00:00:00Z</time>
      </trkpt>
      <trkpt lat="43.74825" lon="7.25835">
        <ele>-1</ele>
        <time>1970-01-01T00:00:00Z</time>
      </trkpt>
      <trkpt lat="43.74818" lon="7.2584">
        <ele>-1</ele>
        <time>1970-01-01T00:00:00Z</time>
      </trkpt>
      <trkpt lat="43.74811" lon="7.25846">
        <ele>-1</ele>
        <time>1970-01-01T00:00:00Z</time>
      </trkpt>
      <trkpt lat="43.74804" lon="7.25852">
        <ele>-1</ele>
        <time>1970-01-01T00:00:00Z</time>
      </trkpt>
      <trkpt lat="43.74795" lon="7.25857">
        <ele>-1</ele>
        <time>1970-01-01T00:00:00Z</time>
      </trkpt>
      <trkpt lat="43.74786" lon="7.25853">
        <ele>-1</ele>
        <time>1970-01-01T00:00:00Z</time>
      </trkpt>
      <trkpt lat="43.7478" lon="7.25846">
        <ele>-1</ele>
        <time>1970-01-01T00:00:00Z</time>
      </trkpt>
      <trkpt lat="43.74771" lon="7.25843">
        <ele>-1</ele>
        <time>1970-01-01T00:00:00Z</time>
      </trkpt>
      <trkpt lat="43.7476" lon="7.25842">
        <ele>-1</ele>
        <time>1970-01-01T00:00:00Z</time>
      </trkpt>
      <trkpt lat="43.74748" lon="7.25838">
        <ele>-1</ele>
        <time>1970-01-01T00:00:00Z</time>
      </trkpt>
      <trkpt lat="43.74739" lon="7.2584">
        <ele>-1</ele>
        <time>1970-01-01T00:00:00Z</time>
      </trkpt>
      <trkpt lat="43.74734" lon="7.25849">
        <ele>-1</ele>
        <time>1970-01-01T00:00:00Z</time>
      </trkpt>
      <trkpt lat="43.74732" lon="7.25858">
        <ele>-1</ele>
        <time>1970-01-01T00:00:00Z</time>
      </trkpt>
      <trkpt lat="43.74725" lon="7.25863">
        <ele>-1</ele>
        <time>1970-01-01T00:00:00Z</time>
      </trkpt>
      <trkpt lat="43.74718" lon="7.25872">
        <ele>-1</ele>
        <time>1970-01-01T00:00:00Z</time>
      </trkpt>
      <trkpt lat="43.74709" lon="7.25874">
        <ele>-1</ele>
        <time>1970-01-01T00:00:00Z</time>
      </trkpt>
      <trkpt lat="43.747" lon="7.25874">
        <ele>-1</ele>
        <time>1970-01-01T00:00:00Z</time>
      </trkpt>
      <trkpt lat="43.74691" lon="7.2587">
        <ele>-1</ele>
        <time>1970-01-01T00:00:00Z</time>
      </trkpt>
      <trkpt lat="43.74682" lon="7.25866">
        <ele>-1</ele>
        <time>1970-01-01T00:00:00Z</time>
      </trkpt>
      <trkpt lat="43.74673" lon="7.25862">
        <ele>-1</ele>
        <time>1970-01-01T00:00:00Z</time>
      </trkpt>
      <trkpt lat="43.74664" lon="7.25858">
        <ele>-1</ele>
        <time>1970-01-01T00:00:00Z</time>
      </trkpt>
      <trkpt lat="43.74656" lon="7.25851">
        <ele>-1</ele>
        <time>1970-01-01T00:00:00Z</time>
      </trkpt>
      <trkpt lat="43.74647" lon="7.25844">
        <ele>-1</ele>
        <time>1970-01-01T00:00:00Z</time>
      </trkpt>
      <trkpt lat="43.74638" lon="7.2584">
        <ele>-1</ele>
        <time>1970-01-01T00:00:00Z</time>
      </trkpt>
      <trkpt lat="43.74634" lon="7.25831">
        <ele>-1</ele>
        <time>1970-01-01T00:00:00Z</time>
      </trkpt>
      <trkpt lat="43.74632" lon="7.25821">
        <ele>-1</ele>
        <time>1970-01-01T00:00:00Z</time>
      </trkpt>
      <trkpt lat="43.74626" lon="7.25814">
        <ele>-1</ele>
        <time>1970-01-01T00:00:00Z</time>
      </trkpt>
      <trkpt lat="43.74617" lon="7.25808">
        <ele>-1</ele>
        <time>1970-01-01T00:00:00Z</time>
      </trkpt>
      <trkpt lat="43.74611" lon="7.25801">
        <ele>-1</ele>
        <time>1970-01-01T00:00:00Z</time>
      </trkpt>
      <trkpt lat="43.74602" lon="7.25794">
        <ele>-1</ele>
        <time>1970-01-01T00:00:00Z</time>
      </trkpt>
      <trkpt lat="43.74593" lon="7.25784">
        <ele>-1</ele>
        <time>1970-01-01T00:00:00Z</time>
      </trkpt>
      <trkpt lat="43.74587" lon="7.2578">
        <ele>-1</ele>
        <time>1970-01-01T00:00:00Z</time>
      </trkpt>
      <trkpt lat="43.74578" lon="7.25773">
        <ele>-1</ele>
        <time>1970-01-01T00:00:00Z</time>
      </trkpt>
      <trkpt lat="43.74569" lon="7.25766">
        <ele>-1</ele>
        <time>1970-01-01T00:00:00Z</time>
      </trkpt>
      <trkpt lat="43.74561" lon="7.25756">
        <ele>-1</ele>
        <time>1970-01-01T00:00:00Z</time>
      </trkpt>
      <trkpt lat="43.74554" lon="7.25746">
        <ele>-1</ele>
        <time>1970-01-01T00:00:00Z</time>
      </trkpt>
      <trkpt lat="43.74548" lon="7.25743">
        <ele>-1</ele>
        <time>1970-01-01T00:00:00Z</time>
      </trkpt>
      <trkpt lat="43.74542" lon="7.25733">
        <ele>-1</ele>
        <time>1970-01-01T00:00:00Z</time>
      </trkpt>
      <trkpt lat="43.74538" lon="7.25723">
        <ele>-1</ele>
        <time>1970-01-01T00:00:00Z</time>
      </trkpt>
      <trkpt lat="43.74527" lon="7.25713">
        <ele>-1</ele>
        <time>1970-01-01T00:00:00Z</time>
      </trkpt>
      <trkpt lat="43.7452" lon="7.25706">
        <ele>-1</ele>
        <time>1970-01-01T00:00:00Z</time>
      </trkpt>
      <trkpt lat="43.74509" lon="7.25702">
        <ele>-1</ele>
        <time>1970-01-01T00:00:00Z</time>
      </trkpt>
      <trkpt lat="43.74501" lon="7.25695">
        <ele>-1</ele>
        <time>1970-01-01T00:00:00Z</time>
      </trkpt>
      <trkpt lat="43.74494" lon="7.25691">
        <ele>-1</ele>
        <time>1970-01-01T00:00:00Z</time>
      </trkpt>
      <trkpt lat="43.74485" lon="7.25687">
        <ele>-1</ele>
        <time>1970-01-01T00:00:00Z</time>
      </trkpt>
      <trkpt lat="43.74479" lon="7.25681">
        <ele>-1</ele>
        <time>1970-01-01T00:00:00Z</time>
      </trkpt>
      <trkpt lat="43.7447" lon="7.25677">
        <ele>-1</ele>
        <time>1970-01-01T00:00:00Z</time>
      </trkpt>
      <trkpt lat="43.74461" lon="7.25673">
        <ele>-1</ele>
        <time>1970-01-01T00:00:00Z</time>
      </trkpt>
      <trkpt lat="43.74448" lon="7.25672">
        <ele>-1</ele>
        <time>1970-01-01T00:00:00Z</time>
      </trkpt>
      <trkpt lat="43.74436" lon="7.25671">
        <ele>-1</ele>
        <time>1970-01-01T00:00:00Z</time>
      </trkpt>
      <trkpt lat="43.74425" lon="7.25667">
        <ele>-1</ele>
        <time>1970-01-01T00:00:00Z</time>
      </trkpt>
      <trkpt lat="43.74419" lon="7.25663">
        <ele>-1</ele>
        <time>1970-01-01T00:00:00Z</time>
      </trkpt>
      <trkpt lat="43.74412" lon="7.25659">
        <ele>-1</ele>
        <time>1970-01-01T00:00:00Z</time>
      </trkpt>
      <trkpt lat="43.74405" lon="7.25656">
        <ele>-1</ele>
        <time>1970-01-01T00:00:00Z</time>
      </trkpt>
      <trkpt lat="43.74397" lon="7.25655">
        <ele>-1</ele>
        <time>1970-01-01T00:00:00Z</time>
      </trkpt>
      <trkpt lat="43.74388" lon="7.25654">
        <ele>-1</ele>
        <time>1970-01-01T00:00:00Z</time>
      </trkpt>
      <trkpt lat="43.74379" lon="7.25653">
        <ele>-1</ele>
        <time>1970-01-01T00:00:00Z</time>
      </trkpt>
      <trkpt lat="43.74368" lon="7.25649">
        <ele>-1</ele>
        <time>1970-01-01T00:00:00Z</time>
      </trkpt>
      <trkpt lat="43.74359" lon="7.25649">
        <ele>-1</ele>
        <time>1970-01-01T00:00:00Z</time>
      </trkpt>
      <trkpt lat="43.7435" lon="7.25648">
        <ele>-1</ele>
        <time>1970-01-01T00:00:00Z</time>
      </trkpt>
      <trkpt lat="43.74341" lon="7.25647">
        <ele>-1</ele>
        <time>1970-01-01T00:00:00Z</time>
      </trkpt>
      <trkpt lat="43.74332" lon="7.25646">
        <ele>-1</ele>
        <time>1970-01-01T00:00:00Z</time>
      </trkpt>
      <trkpt lat="43.74323" lon="7.25645">
        <ele>-1</ele>
        <time>1970-01-01T00:00:00Z</time>
      </trkpt>
      <trkpt lat="43.74314" lon="7.25645">
        <ele>-1</ele>
        <time>1970-01-01T00:00:00Z</time>
      </trkpt>
      <trkpt lat="43.74305" lon="7.25644">
        <ele>-1</ele>
        <time>1970-01-01T00:00:00Z</time>
      </trkpt>
      <trkpt lat="43.74293" lon="7.25643">
        <ele>-1</ele>
        <time>1970-01-01T00:00:00Z</time>
      </trkpt>
      <trkpt lat="43.74282" lon="7.25642">
        <ele>-1</ele>
        <time>1970-01-01T00:00:00Z</time>
      </trkpt>
      <trkpt lat="43.74273" lon="7.25641">
        <ele>-1</ele>
        <time>1970-01-01T00:00:00Z</time>
      </trkpt>
      <trkpt lat="43.74264" lon="7.2564">
        <ele>-1</ele>
        <time>1970-01-01T00:00:00Z</time>
      </trkpt>
      <trkpt lat="43.74255" lon="7.2564">
        <ele>-1</ele>
        <time>1970-01-01T00:00:00Z</time>
      </trkpt>
      <trkpt lat="43.74246" lon="7.25645">
        <ele>-1</ele>
        <time>1970-01-01T00:00:00Z</time>
      </trkpt>
      <trkpt lat="43.74237" lon="7.2565">
        <ele>-1</ele>
        <time>1970-01-01T00:00:00Z</time>
      </trkpt>
      <trkpt lat="43.7423" lon="7.25656">
        <ele>-1</ele>
        <time>1970-01-01T00:00:00Z</time>
      </trkpt>
      <trkpt lat="43.74227" lon="7.25665">
        <ele>-1</ele>
        <time>1970-01-01T00:00:00Z</time>
      </trkpt>
      <trkpt lat="43.74218" lon="7.25677">
        <ele>-1</ele>
        <time>1970-01-01T00:00:00Z</time>
      </trkpt>
      <trkpt lat="43.74211" lon="7.25682">
        <ele>-1</ele>
        <time>1970-01-01T00:00:00Z</time>
      </trkpt>
      <trkpt lat="43.74206" lon="7.25691">
        <ele>-1</ele>
        <time>1970-01-01T00:00:00Z</time>
      </trkpt>
      <trkpt lat="43.74205" lon="7.25704">
        <ele>-1</ele>
        <time>1970-01-01T00:00:00Z</time>
      </trkpt>
      <trkpt lat="43.742" lon="7.25712">
        <ele>-1</ele>
        <time>1970-01-01T00:00:00Z</time>
      </trkpt>
      <trkpt lat="43.74193" lon="7.25721">
        <ele>-1</ele>
        <time>1970-01-01T00:00:00Z</time>
      </trkpt>
      <trkpt lat="43.74195" lon="7.25731">
        <ele>-1</ele>
        <time>1970-01-01T00:00:00Z</time>
      </trkpt>
      <trkpt lat="43.74197" lon="7.2574">
        <ele>-1</ele>
        <time>1970-01-01T00:00:00Z</time>
      </trkpt>
      <trkpt lat="43.74198" lon="7.25753">
        <ele>-1</ele>
        <time>1970-01-01T00:00:00Z</time>
      </trkpt>
      <trkpt lat="43.74203" lon="7.25762">
        <ele>-1</ele>
        <time>1970-01-01T00:00:00Z</time>
      </trkpt>
      <trkpt lat="43.74206" lon="7.25775">
        <ele>-1</ele>
        <time>1970-01-01T00:00:00Z</time>
      </trkpt>
      <trkpt lat="43.74202" lon="7.25784">
        <ele>-1</ele>
        <time>1970-01-01T00:00:00Z</time>
      </trkpt>
      <trkpt lat="43.74216" lon="7.25807">
        <ele>-1</ele>
        <time>1970-01-01T00:00:00Z</time>
      </trkpt>
      <trkpt lat="43.7422" lon="7.25817">
        <ele>-1</ele>
        <time>1970-01-01T00:00:00Z</time>
      </trkpt>
      <trkpt lat="43.74229" lon="7.25824">
        <ele>-1</ele>
        <time>1970-01-01T00:00:00Z</time>
      </trkpt>
      <trkpt lat="43.74235" lon="7.2583">
        <ele>-1</ele>
        <time>1970-01-01T00:00:00Z</time>
      </trkpt>
      <trkpt lat="43.74244" lon="7.25837">
        <ele>-1</ele>
        <time>1970-01-01T00:00:00Z</time>
      </trkpt>
      <trkpt lat="43.74253" lon="7.25841">
        <ele>-1</ele>
        <time>1970-01-01T00:00:00Z</time>
      </trkpt>
      <trkpt lat="43.74262" lon="7.25845">
        <ele>-1</ele>
        <time>1970-01-01T00:00:00Z</time>
      </trkpt>
      <trkpt lat="43.74272" lon="7.25858">
        <ele>-1</ele>
        <time>1970-01-01T00:00:00Z</time>
      </trkpt>
      <trkpt lat="43.74276" lon="7.25868">
        <ele>-1</ele>
        <time>1970-01-01T00:00:00Z</time>
      </trkpt>
      <trkpt lat="43.74283" lon="7.25875">
        <ele>-1</ele>
        <time>1970-01-01T00:00:00Z</time>
      </trkpt>
      <trkpt lat="43.74291" lon="7.25888">
        <ele>-1</ele>
        <time>1970-01-01T00:00:00Z</time>
      </trkpt>
      <trkpt lat="43.74298" lon="7.25901">
        <ele>-1</ele>
        <time>1970-01-01T00:00:00Z</time>
      </trkpt>
      <trkpt lat="43.74299" lon="7.25917">
        <ele>-1</ele>
        <time>1970-01-01T00:00:00Z</time>
      </trkpt>
      <trkpt lat="43.74301" lon="7.25929">
        <ele>-1</ele>
        <time>1970-01-01T00:00:00Z</time>
      </trkpt>
      <trkpt lat="43.743" lon="7.25942">
        <ele>-1</ele>
        <time>1970-01-01T00:00:00Z</time>
      </trkpt>
      <trkpt lat="43.74304" lon="7.25951">
        <ele>-1</ele>
        <time>1970-01-01T00:00:00Z</time>
      </trkpt>
      <trkpt lat="43.74306" lon="7.25961">
        <ele>-1</ele>
        <time>1970-01-01T00:00:00Z</time>
      </trkpt>
      <trkpt lat="43.7431" lon="7.25973">
        <ele>-1</ele>
        <time>1970-01-01T00:00:00Z</time>
      </trkpt>
      <trkpt lat="43.74314" lon="7.25986">
        <ele>-1</ele>
        <time>1970-01-01T00:00:00Z</time>
      </trkpt>
      <trkpt lat="43.74318" lon="7.25996">
        <ele>-1</ele>
        <time>1970-01-01T00:00:00Z</time>
      </trkpt>
      <trkpt lat="43.74322" lon="7.26006">
        <ele>-1</ele>
        <time>1970-01-01T00:00:00Z</time>
      </trkpt>
      <trkpt lat="43.74326" lon="7.26021">
        <ele>-1</ele>
        <time>1970-01-01T00:00:00Z</time>
      </trkpt>
      <trkpt lat="43.74328" lon="7.26031">
        <ele>-1</ele>
        <time>1970-01-01T00:00:00Z</time>
      </trkpt>
      <trkpt lat="43.74334" lon="7.26047">
        <ele>-1</ele>
        <time>1970-01-01T00:00:00Z</time>
      </trkpt>
      <trkpt lat="43.74335" lon="7.26063">
        <ele>-1</ele>
        <time>1970-01-01T00:00:00Z</time>
      </trkpt>
      <trkpt lat="43.74339" lon="7.26075">
        <ele>-1</ele>
        <time>1970-01-01T00:00:00Z</time>
      </trkpt>
      <trkpt lat="43.74341" lon="7.26088">
        <ele>-1</ele>
        <time>1970-01-01T00:00:00Z</time>
      </trkpt>
      <trkpt lat="43.74345" lon="7.26101">
        <ele>-1</ele>
        <time>1970-01-01T00:00:00Z</time>
      </trkpt>
      <trkpt lat="43.74349" lon="7.2611">
        <ele>-1</ele>
        <time>1970-01-01T00:00:00Z</time>
      </trkpt>
      <trkpt lat="43.74351" lon="7.2612">
        <ele>-1</ele>
        <time>1970-01-01T00:00:00Z</time>
      </trkpt>
      <trkpt lat="43.74357" lon="7.26133">
        <ele>-1</ele>
        <time>1970-01-01T00:00:00Z</time>
      </trkpt>
      <trkpt lat="43.74361" lon="7.26146">
        <ele>-1</ele>
        <time>1970-01-01T00:00:00Z</time>
      </trkpt>
      <trkpt lat="43.74365" lon="7.26155">
        <ele>-1</ele>
        <time>1970-01-01T00:00:00Z</time>
      </trkpt>
      <trkpt lat="43.74373" lon="7.26171">
        <ele>-1</ele>
        <time>1970-01-01T00:00:00Z</time>
      </trkpt>
      <trkpt lat="43.74377" lon="7.26184">
        <ele>-1</ele>
        <time>1970-01-01T00:00:00Z</time>
      </trkpt>
      <trkpt lat="43.74379" lon="7.26197">
        <ele>-1</ele>
        <time>1970-01-01T00:00:00Z</time>
      </trkpt>
      <trkpt lat="43.7438" lon="7.26209">
        <ele>-1</ele>
        <time>1970-01-01T00:00:00Z</time>
      </trkpt>
      <trkpt lat="43.74382" lon="7.26222">
        <ele>-1</ele>
        <time>1970-01-01T00:00:00Z</time>
      </trkpt>
      <trkpt lat="43.74381" lon="7.26237">
        <ele>-1</ele>
        <time>1970-01-01T00:00:00Z</time>
      </trkpt>
      <trkpt lat="43.74381" lon="7.2625">
        <ele>-1</ele>
        <time>1970-01-01T00:00:00Z</time>
      </trkpt>
      <trkpt lat="43.7438" lon="7.26265">
        <ele>-1</ele>
        <time>1970-01-01T00:00:00Z</time>
      </trkpt>
      <trkpt lat="43.74379" lon="7.26278">
        <ele>-1</ele>
        <time>1970-01-01T00:00:00Z</time>
      </trkpt>
      <trkpt lat="43.74374" lon="7.26293">
        <ele>-1</ele>
        <time>1970-01-01T00:00:00Z</time>
      </trkpt>
      <trkpt lat="43.74365" lon="7.26413">
        <ele>315.4</ele>
        <time>1970-01-01T00:00:00Z</time>
      </trkpt>
      <trkpt lat="43.74387" lon="7.26527">
        <ele>316.1</ele>
        <time>1970-01-01T00:00:00Z</time>
      </trkpt>
      <trkpt lat="43.74387" lon="7.26544">
        <ele>316.1</ele>
        <time>1970-01-01T00:00:00Z</time>
      </trkpt>
      <trkpt lat="43.7439" lon="7.26559">
        <ele>315.9</ele>
        <time>1970-01-01T00:00:00Z</time>
      </trkpt>
      <trkpt lat="43.74394" lon="7.26571">
        <ele>315.4</ele>
        <time>1970-01-01T00:00:00Z</time>
      </trkpt>
      <trkpt lat="43.74397" lon="7.26583">
        <ele>315.1</ele>
        <time>1970-01-01T00:00:00Z</time>
      </trkpt>
      <trkpt lat="43.744" lon="7.26598">
        <ele>315.3</ele>
        <time>1970-01-01T00:00:00Z</time>
      </trkpt>
      <trkpt lat="43.74403" lon="7.26611">
        <ele>315.5</ele>
        <time>1970-01-01T00:00:00Z</time>
      </trkpt>
      <trkpt lat="43.74405" lon="7.26625">
        <ele>315.5</ele>
        <time>1970-01-01T00:00:00Z</time>
      </trkpt>
      <trkpt lat="43.74408" lon="7.26638">
        <ele>315.6</ele>
        <time>1970-01-01T00:00:00Z</time>
      </trkpt>
      <trkpt lat="43.74411" lon="7.26652">
        <ele>315.6</ele>
        <time>1970-01-01T00:00:00Z</time>
      </trkpt>
      <trkpt lat="43.74415" lon="7.26664">
        <ele>315.9</ele>
        <time>1970-01-01T00:00:00Z</time>
      </trkpt>
      <trkpt lat="43.74418" lon="7.26676">
        <ele>316</ele>
        <time>1970-01-01T00:00:00Z</time>
      </trkpt>
      <trkpt lat="43.74421" lon="7.2669">
        <ele>316</ele>
        <time>1970-01-01T00:00:00Z</time>
      </trkpt>
      <trkpt lat="43.74425" lon="7.26702">
        <ele>316</ele>
        <time>1970-01-01T00:00:00Z</time>
      </trkpt>
      <trkpt lat="43.74428" lon="7.26715">
        <ele>316</ele>
        <time>1970-01-01T00:00:00Z</time>
      </trkpt>
      <trkpt lat="43.74432" lon="7.26727">
        <ele>315.9</ele>
        <time>1970-01-01T00:00:00Z</time>
      </trkpt>
      <trkpt lat="43.74437" lon="7.26738">
        <ele>315.7</ele>
        <time>1970-01-01T00:00:00Z</time>
      </trkpt>
      <trkpt lat="43.74441" lon="7.26749">
        <ele>315.7</ele>
        <time>1970-01-01T00:00:00Z</time>
      </trkpt>
      <trkpt lat="43.74443" lon="7.26763">
        <ele>315.8</ele>
        <time>1970-01-01T00:00:00Z</time>
      </trkpt>
      <trkpt lat="43.74443" lon="7.26781">
        <ele>315.8</ele>
        <time>1970-01-01T00:00:00Z</time>
      </trkpt>
      <trkpt lat="43.7444" lon="7.26794">
        <ele>315.6</ele>
        <time>1970-01-01T00:00:00Z</time>
      </trkpt>
      <trkpt lat="43.74438" lon="7.26809">
        <ele>315.6</ele>
        <time>1970-01-01T00:00:00Z</time>
      </trkpt>
      <trkpt lat="43.74437" lon="7.26824">
        <ele>315.4</ele>
        <time>1970-01-01T00:00:00Z</time>
      </trkpt>
      <trkpt lat="43.74434" lon="7.26837">
        <ele>315.4</ele>
        <time>1970-01-01T00:00:00Z</time>
      </trkpt>
      <trkpt lat="43.7443" lon="7.26849">
        <ele>315.9</ele>
        <time>1970-01-01T00:00:00Z</time>
      </trkpt>
      <trkpt lat="43.74429" lon="7.26865">
        <ele>316.3</ele>
        <time>1970-01-01T00:00:00Z</time>
      </trkpt>
      <trkpt lat="43.74426" lon="7.26877">
        <ele>315.5</ele>
        <time>1970-01-01T00:00:00Z</time>
      </trkpt>
      <trkpt lat="43.74424" lon="7.26893">
        <ele>314.7</ele>
        <time>1970-01-01T00:00:00Z</time>
      </trkpt>
      <trkpt lat="43.74422" lon="7.26909">
        <ele>314.3</ele>
        <time>1970-01-01T00:00:00Z</time>
      </trkpt>
      <trkpt lat="43.74419" lon="7.26923">
        <ele>314.3</ele>
        <time>1970-01-01T00:00:00Z</time>
      </trkpt>
      <trkpt lat="43.74417" lon="7.26939">
        <ele>314.8</ele>
        <time>1970-01-01T00:00:00Z</time>
      </trkpt>
      <trkpt lat="43.74415" lon="7.26952">
        <ele>314.6</ele>
        <time>1970-01-01T00:00:00Z</time>
      </trkpt>
      <trkpt lat="43.74414" lon="7.26969">
        <ele>313.6</ele>
        <time>1970-01-01T00:00:00Z</time>
      </trkpt>
      <trkpt lat="43.74414" lon="7.26987">
        <ele>311.8</ele>
        <time>1970-01-01T00:00:00Z</time>
      </trkpt>
      <trkpt lat="43.74413" lon="7.27003">
        <ele>310.3</ele>
        <time>1970-01-01T00:00:00Z</time>
      </trkpt>
      <trkpt lat="43.74411" lon="7.27018">
        <ele>309.4</ele>
        <time>1970-01-01T00:00:00Z</time>
      </trkpt>
      <trkpt lat="43.74409" lon="7.27032">
        <ele>308.3</ele>
        <time>1970-01-01T00:00:00Z</time>
      </trkpt>
      <trkpt lat="43.74408" lon="7.27048">
        <ele>306.8</ele>
        <time>1970-01-01T00:00:00Z</time>
      </trkpt>
      <trkpt lat="43.74405" lon="7.27062">
        <ele>305.6</ele>
        <time>1970-01-01T00:00:00Z</time>
      </trkpt>
      <trkpt lat="43.74401" lon="7.27075">
        <ele>304.6</ele>
        <time>1970-01-01T00:00:00Z</time>
      </trkpt>
      <trkpt lat="43.74398" lon="7.27089">
        <ele>303.4</ele>
        <time>1970-01-01T00:00:00Z</time>
      </trkpt>
      <trkpt lat="43.74394" lon="7.27102">
        <ele>302.5</ele>
        <time>1970-01-01T00:00:00Z</time>
      </trkpt>
      <trkpt lat="43.74389" lon="7.27112">
        <ele>301.9</ele>
        <time>1970-01-01T00:00:00Z</time>
      </trkpt>
      <trkpt lat="43.74387" lon="7.27125">
        <ele>301.6</ele>
        <time>1970-01-01T00:00:00Z</time>
      </trkpt>
      <trkpt lat="43.74387" lon="7.27142">
        <ele>300.5</ele>
        <time>1970-01-01T00:00:00Z</time>
      </trkpt>
      <trkpt lat="43.7439" lon="7.27156">
        <ele>298.5</ele>
        <time>1970-01-01T00:00:00Z</time>
      </trkpt>
      <trkpt lat="43.74397" lon="7.27165">
        <ele>296.9</ele>
        <time>1970-01-01T00:00:00Z</time>
      </trkpt>
      <trkpt lat="43.74404" lon="7.27174">
        <ele>295.9</ele>
        <time>1970-01-01T00:00:00Z</time>
      </trkpt>
      <trkpt lat="43.7441" lon="7.27183">
        <ele>294.7</ele>
        <time>1970-01-01T00:00:00Z</time>
      </trkpt>
      <trkpt lat="43.74417" lon="7.27193">
        <ele>293.2</ele>
        <time>1970-01-01T00:00:00Z</time>
      </trkpt>
      <trkpt lat="43.74423" lon="7.27201">
        <ele>291.3</ele>
        <time>1970-01-01T00:00:00Z</time>
      </trkpt>
      <trkpt lat="43.7443" lon="7.27209">
        <ele>289.3</ele>
        <time>1970-01-01T00:00:00Z</time>
      </trkpt>
      <trkpt lat="43.74438" lon="7.27216">
        <ele>287.1</ele>
        <time>1970-01-01T00:00:00Z</time>
      </trkpt>
      <trkpt lat="43.74445" lon="7.27224">
        <ele>284.8</ele>
        <time>1970-01-01T00:00:00Z</time>
      </trkpt>
      <trkpt lat="43.74452" lon="7.27233">
        <ele>282.6</ele>
        <time>1970-01-01T00:00:00Z</time>
      </trkpt>
      <trkpt lat="43.74458" lon="7.27242">
        <ele>280.4</ele>
        <time>1970-01-01T00:00:00Z</time>
      </trkpt>
      <trkpt lat="43.74464" lon="7.27251">
        <ele>278</ele>
        <time>1970-01-01T00:00:00Z</time>
      </trkpt>
      <trkpt lat="43.74471" lon="7.27259">
        <ele>274.9</ele>
        <time>1970-01-01T00:00:00Z</time>
      </trkpt>
      <trkpt lat="43.74478" lon="7.27266">
        <ele>271.7</ele>
        <time>1970-01-01T00:00:00Z</time>
      </trkpt>
      <trkpt lat="43.74485" lon="7.27275">
        <ele>269.2</ele>
        <time>1970-01-01T00:00:00Z</time>
      </trkpt>
      <trkpt lat="43.74491" lon="7.27284">
        <ele>267.7</ele>
        <time>1970-01-01T00:00:00Z</time>
      </trkpt>
      <trkpt lat="43.74496" lon="7.27293">
        <ele>267</ele>
        <time>1970-01-01T00:00:00Z</time>
      </trkpt>
      <trkpt lat="43.74502" lon="7.27303">
        <ele>265.6</ele>
        <time>1970-01-01T00:00:00Z</time>
      </trkpt>
      <trkpt lat="43.74506" lon="7.27315">
        <ele>261.9</ele>
        <time>1970-01-01T00:00:00Z</time>
      </trkpt>
      <trkpt lat="43.74509" lon="7.27328">
        <ele>260.4</ele>
        <time>1970-01-01T00:00:00Z</time>
      </trkpt>
      <trkpt lat="43.7451" lon="7.27344">
        <ele>260.1</ele>
        <time>1970-01-01T00:00:00Z</time>
      </trkpt>
      <trkpt lat="43.7451" lon="7.27361">
        <ele>259.9</ele>
        <time>1970-01-01T00:00:00Z</time>
      </trkpt>
      <trkpt lat="43.7451" lon="7.27378">
        <ele>259.1</ele>
        <time>1970-01-01T00:00:00Z</time>
      </trkpt>
      <trkpt lat="43.74507" lon="7.27391">
        <ele>259</ele>
        <time>1970-01-01T00:00:00Z</time>
      </trkpt>
      <trkpt lat="43.74504" lon="7.27405">
        <ele>257.8</ele>
        <time>1970-01-01T00:00:00Z</time>
      </trkpt>
      <trkpt lat="43.74501" lon="7.27418">
        <ele>256.7</ele>
        <time>1970-01-01T00:00:00Z</time>
      </trkpt>
      <trkpt lat="43.74496" lon="7.27429">
        <ele>256.3</ele>
        <time>1970-01-01T00:00:00Z</time>
      </trkpt>
      <trkpt lat="43.74491" lon="7.27439">
        <ele>255.7</ele>
        <time>1970-01-01T00:00:00Z</time>
      </trkpt>
      <trkpt lat="43.74485" lon="7.27448">
        <ele>255.1</ele>
        <time>1970-01-01T00:00:00Z</time>
      </trkpt>
      <trkpt lat="43.74476" lon="7.27452">
        <ele>255.6</ele>
        <time>1970-01-01T00:00:00Z</time>
      </trkpt>
      <trkpt lat="43.74468" lon="7.27459">
        <ele>255.8</ele>
        <time>1970-01-01T00:00:00Z</time>
      </trkpt>
      <trkpt lat="43.7446" lon="7.27465">
        <ele>255.9</ele>
        <time>1970-01-01T00:00:00Z</time>
      </trkpt>
      <trkpt lat="43.74452" lon="7.27472">
        <ele>255.5</ele>
        <time>1970-01-01T00:00:00Z</time>
      </trkpt>
      <trkpt lat="43.74445" lon="7.27481">
        <ele>255.3</ele>
        <time>1970-01-01T00:00:00Z</time>
      </trkpt>
      <trkpt lat="43.74436" lon="7.27486">
        <ele>255.8</ele>
        <time>1970-01-01T00:00:00Z</time>
      </trkpt>
      <trkpt lat="43.74428" lon="7.27492">
        <ele>255.6</ele>
        <time>1970-01-01T00:00:00Z</time>
      </trkpt>
      <trkpt lat="43.74421" lon="7.27499">
        <ele>254.9</ele>
        <time>1970-01-01T00:00:00Z</time>
      </trkpt>
      <trkpt lat="43.74413" lon="7.27504">
        <ele>254.8</ele>
        <time>1970-01-01T00:00:00Z</time>
      </trkpt>
      <trkpt lat="43.74405" lon="7.2751">
        <ele>254.7</ele>
        <time>1970-01-01T00:00:00Z</time>
      </trkpt>
      <trkpt lat="43.74397" lon="7.27516">
        <ele>254.4</ele>
        <time>1970-01-01T00:00:00Z</time>
      </trkpt>
      <trkpt lat="43.74388" lon="7.27522">
        <ele>254.1</ele>
        <time>1970-01-01T00:00:00Z</time>
      </trkpt>
      <trkpt lat="43.7438" lon="7.27528">
        <ele>254.3</ele>
        <time>1970-01-01T00:00:00Z</time>
      </trkpt>
      <trkpt lat="43.74371" lon="7.27533">
        <ele>254.2</ele>
        <time>1970-01-01T00:00:00Z</time>
      </trkpt>
      <trkpt lat="43.74363" lon="7.27539">
        <ele>253.7</ele>
        <time>1970-01-01T00:00:00Z</time>
      </trkpt>
      <trkpt lat="43.74353" lon="7.27543">
        <ele>252.8</ele>
        <time>1970-01-01T00:00:00Z</time>
      </trkpt>
      <trkpt lat="43.74343" lon="7.27547">
        <ele>252.4</ele>
        <time>1970-01-01T00:00:00Z</time>
      </trkpt>
      <trkpt lat="43.74336" lon="7.27554">
        <ele>251.2</ele>
        <time>1970-01-01T00:00:00Z</time>
      </trkpt>
      <trkpt lat="43.74329" lon="7.27562">
        <ele>249.5</ele>
        <time>1970-01-01T00:00:00Z</time>
      </trkpt>
      <trkpt lat="43.74321" lon="7.27568">
        <ele>248</ele>
        <time>1970-01-01T00:00:00Z</time>
      </trkpt>
      <trkpt lat="43.74315" lon="7.27577">
        <ele>246.6</ele>
        <time>1970-01-01T00:00:00Z</time>
      </trkpt>
      <trkpt lat="43.7431" lon="7.27587">
        <ele>245.7</ele>
        <time>1970-01-01T00:00:00Z</time>
      </trkpt>
      <trkpt lat="43.74304" lon="7.27596">
        <ele>245.1</ele>
        <time>1970-01-01T00:00:00Z</time>
      </trkpt>
      <trkpt lat="43.74301" lon="7.27608">
        <ele>243.5</ele>
        <time>1970-01-01T00:00:00Z</time>
      </trkpt>
      <trkpt lat="43.74299" lon="7.27623">
        <ele>240.2</ele>
        <time>1970-01-01T00:00:00Z</time>
      </trkpt>
      <trkpt lat="43.74297" lon="7.27638">
        <ele>236.7</ele>
        <time>1970-01-01T00:00:00Z</time>
      </trkpt>
      <trkpt lat="43.74292" lon="7.27649">
        <ele>233.7</ele>
        <time>1970-01-01T00:00:00Z</time>
      </trkpt>
      <trkpt lat="43.74287" lon="7.27658">
        <ele>232.3</ele>
        <time>1970-01-01T00:00:00Z</time>
      </trkpt>
      <trkpt lat="43.74279" lon="7.27664">
        <ele>233</ele>
        <time>1970-01-01T00:00:00Z</time>
      </trkpt>
      <trkpt lat="43.74272" lon="7.27674">
        <ele>228.9</ele>
        <time>1970-01-01T00:00:00Z</time>
      </trkpt>
      <trkpt lat="43.74265" lon="7.27681">
        <ele>225.6</ele>
        <time>1970-01-01T00:00:00Z</time>
      </trkpt>
      <trkpt lat="43.74257" lon="7.27688">
        <ele>223.6</ele>
        <time>1970-01-01T00:00:00Z</time>
      </trkpt>
      <trkpt lat="43.74251" lon="7.27697">
        <ele>222.8</ele>
        <time>1970-01-01T00:00:00Z</time>
      </trkpt>
      <trkpt lat="43.74246" lon="7.27708">
        <ele>220.4</ele>
        <time>1970-01-01T00:00:00Z</time>
      </trkpt>
      <trkpt lat="43.74244" lon="7.27722">
        <ele>218.5</ele>
        <time>1970-01-01T00:00:00Z</time>
      </trkpt>
      <trkpt lat="43.74242" lon="7.27736">
        <ele>214.8</ele>
        <time>1970-01-01T00:00:00Z</time>
      </trkpt>
      <trkpt lat="43.74242" lon="7.27754">
        <ele>210.9</ele>
        <time>1970-01-01T00:00:00Z</time>
      </trkpt>
      <trkpt lat="43.74243" lon="7.27771">
        <ele>207.1</ele>
        <time>1970-01-01T00:00:00Z</time>
      </trkpt>
      <trkpt lat="43.74244" lon="7.27787">
        <ele>204.5</ele>
        <time>1970-01-01T00:00:00Z</time>
      </trkpt>
      <trkpt lat="43.74249" lon="7.27799">
        <ele>203.7</ele>
        <time>1970-01-01T00:00:00Z</time>
      </trkpt>
      <trkpt lat="43.74253" lon="7.27812">
        <ele>201.9</ele>
        <time>1970-01-01T00:00:00Z</time>
      </trkpt>
      <trkpt lat="43.74256" lon="7.27824">
        <ele>199.6</ele>
        <time>1970-01-01T00:00:00Z</time>
      </trkpt>
      <trkpt lat="43.74259" lon="7.27837">
        <ele>197.1</ele>
        <time>1970-01-01T00:00:00Z</time>
      </trkpt>
      <trkpt lat="43.74263" lon="7.27849">
        <ele>194.9</ele>
        <time>1970-01-01T00:00:00Z</time>
      </trkpt>
      <trkpt lat="43.74267" lon="7.27861">
        <ele>192.5</ele>
        <time>1970-01-01T00:00:00Z</time>
      </trkpt>
      <trkpt lat="43.74271" lon="7.27873">
        <ele>190</ele>
        <time>1970-01-01T00:00:00Z</time>
      </trkpt>
      <trkpt lat="43.74276" lon="7.27883">
        <ele>187.3</ele>
        <time>1970-01-01T00:00:00Z</time>
      </trkpt>
      <trkpt lat="43.7428" lon="7.27894">
        <ele>185.4</ele>
        <time>1970-01-01T00:00:00Z</time>
      </trkpt>
      <trkpt lat="43.74286" lon="7.27905">
        <ele>183.8</ele>
        <time>1970-01-01T00:00:00Z</time>
      </trkpt>
      <trkpt lat="43.74289" lon="7.27917">
        <ele>182.1</ele>
        <time>1970-01-01T00:00:00Z</time>
      </trkpt>
      <trkpt lat="43.74292" lon="7.27931">
        <ele>180.2</ele>
        <time>1970-01-01T00:00:00Z</time>
      </trkpt>
      <trkpt lat="43.74294" lon="7.27945">
        <ele>178.3</ele>
        <time>1970-01-01T00:00:00Z</time>
      </trkpt>
      <trkpt lat="43.74297" lon="7.27959">
        <ele>175</ele>
        <time>1970-01-01T00:00:00Z</time>
      </trkpt>
      <trkpt lat="43.74296" lon="7.27975">
        <ele>172.4</ele>
        <time>1970-01-01T00:00:00Z</time>
      </trkpt>
      <trkpt lat="43.74291" lon="7.27985">
        <ele>172.1</ele>
        <time>1970-01-01T00:00:00Z</time>
      </trkpt>
      <trkpt lat="43.74288" lon="7.27998">
        <ele>169.8</ele>
        <time>1970-01-01T00:00:00Z</time>
      </trkpt>
      <trkpt lat="43.7429" lon="7.28012">
        <ele>167.7</ele>
        <time>1970-01-01T00:00:00Z</time>
      </trkpt>
      <trkpt lat="43.74294" lon="7.28024">
        <ele>166</ele>
        <time>1970-01-01T00:00:00Z</time>
      </trkpt>
      <trkpt lat="43.74296" lon="7.28039">
        <ele>163.4</ele>
        <time>1970-01-01T00:00:00Z</time>
      </trkpt>
      <trkpt lat="43.74296" lon="7.28055">
        <ele>160.2</ele>
        <time>1970-01-01T00:00:00Z</time>
      </trkpt>
      <trkpt lat="43.74297" lon="7.2807">
        <ele>157.4</ele>
        <time>1970-01-01T00:00:00Z</time>
      </trkpt>
      <trkpt lat="43.74296" lon="7.28085">
        <ele>155.2</ele>
        <time>1970-01-01T00:00:00Z</time>
      </trkpt>
      <trkpt lat="43.74294" lon="7.28101">
        <ele>153.7</ele>
        <time>1970-01-01T00:00:00Z</time>
      </trkpt>
      <trkpt lat="43.74292" lon="7.28116">
        <ele>152.5</ele>
        <time>1970-01-01T00:00:00Z</time>
      </trkpt>
      <trkpt lat="43.7429" lon="7.28131">
        <ele>152.2</ele>
        <time>1970-01-01T00:00:00Z</time>
      </trkpt>
      <trkpt lat="43.74288" lon="7.28145">
        <ele>151.5</ele>
        <time>1970-01-01T00:00:00Z</time>
      </trkpt>
      <trkpt lat="43.74286" lon="7.28161">
        <ele>150.9</ele>
        <time>1970-01-01T00:00:00Z</time>
      </trkpt>
      <trkpt lat="43.74285" lon="7.28176">
        <ele>150.1</ele>
        <time>1970-01-01T00:00:00Z</time>
      </trkpt>
      <trkpt lat="43.74283" lon="7.28191">
        <ele>149.4</ele>
        <time>1970-01-01T00:00:00Z</time>
      </trkpt>
      <trkpt lat="43.74281" lon="7.28205">
        <ele>148.9</ele>
        <time>1970-01-01T00:00:00Z</time>
      </trkpt>
      <trkpt lat="43.74278" lon="7.28218">
        <ele>149.1</ele>
        <time>1970-01-01T00:00:00Z</time>
      </trkpt>
      <trkpt lat="43.74273" lon="7.28228">
        <ele>146.6</ele>
        <time>1970-01-01T00:00:00Z</time>
      </trkpt>
      <trkpt lat="43.74266" lon="7.28236">
        <ele>144</ele>
        <time>1970-01-01T00:00:00Z</time>
      </trkpt>
      <trkpt lat="43.74261" lon="7.28246">
        <ele>141.7</ele>
        <time>1970-01-01T00:00:00Z</time>
      </trkpt>
      <trkpt lat="43.74256" lon="7.28256">
        <ele>139.6</ele>
        <time>1970-01-01T00:00:00Z</time>
      </trkpt>
      <trkpt lat="43.74251" lon="7.28267">
        <ele>137.7</ele>
        <time>1970-01-01T00:00:00Z</time>
      </trkpt>
      <trkpt lat="43.74246" lon="7.28276">
        <ele>135.8</ele>
        <time>1970-01-01T00:00:00Z</time>
      </trkpt>
      <trkpt lat="43.7424" lon="7.28286">
        <ele>134.1</ele>
        <time>1970-01-01T00:00:00Z</time>
      </trkpt>
      <trkpt lat="43.74234" lon="7.28294">
        <ele>134.3</ele>
        <time>1970-01-01T00:00:00Z</time>
      </trkpt>
      <trkpt lat="43.74228" lon="7.28304">
        <ele>136.3</ele>
        <time>1970-01-01T00:00:00Z</time>
      </trkpt>
      <trkpt lat="43.74221" lon="7.28313">
        <ele>137.1</ele>
        <time>1970-01-01T00:00:00Z</time>
      </trkpt>
      <trkpt lat="43.74217" lon="7.28324">
        <ele>134.2</ele>
        <time>1970-01-01T00:00:00Z</time>
      </trkpt>
      <trkpt lat="43.74213" lon="7.28336">
        <ele>131.8</ele>
        <time>1970-01-01T00:00:00Z</time>
      </trkpt>
      <trkpt lat="43.74206" lon="7.28344">
        <ele>130.1</ele>
        <time>1970-01-01T00:00:00Z</time>
      </trkpt>
      <trkpt lat="43.742" lon="7.28352">
        <ele>128.8</ele>
        <time>1970-01-01T00:00:00Z</time>
      </trkpt>
      <trkpt lat="43.74198" lon="7.28366">
        <ele>126.9</ele>
        <time>1970-01-01T00:00:00Z</time>
      </trkpt>
      <trkpt lat="43.74193" lon="7.28377">
        <ele>125.4</ele>
        <time>1970-01-01T00:00:00Z</time>
      </trkpt>
      <trkpt lat="43.74189" lon="7.28387">
        <ele>124.4</ele>
        <time>1970-01-01T00:00:00Z</time>
      </trkpt>
      <trkpt lat="43.74183" lon="7.28397">
        <ele>121.9</ele>
        <time>1970-01-01T00:00:00Z</time>
      </trkpt>
      <trkpt lat="43.74177" lon="7.28406">
        <ele>120.1</ele>
        <time>1970-01-01T00:00:00Z</time>
      </trkpt>
      <trkpt lat="43.74171" lon="7.28416">
        <ele>119.2</ele>
        <time>1970-01-01T00:00:00Z</time>
      </trkpt>
      <trkpt lat="43.74165" lon="7.28425">
        <ele>118.2</ele>
        <time>1970-01-01T00:00:00Z</time>
      </trkpt>
      <trkpt lat="43.74159" lon="7.28433">
        <ele>117.6</ele>
        <time>1970-01-01T00:00:00Z</time>
      </trkpt>
      <trkpt lat="43.74153" lon="7.28443">
        <ele>116.5</ele>
        <time>1970-01-01T00:00:00Z</time>
      </trkpt>
      <trkpt lat="43.74149" lon="7.28454">
        <ele>115.9</ele>
        <time>1970-01-01T00:00:00Z</time>
      </trkpt>
      <trkpt lat="43.74144" lon="7.28466">
        <ele>115.5</ele>
        <time>1970-01-01T00:00:00Z</time>
      </trkpt>
      <trkpt lat="43.7414" lon="7.28478">
        <ele>115</ele>
        <time>1970-01-01T00:00:00Z</time>
      </trkpt>
      <trkpt lat="43.74135" lon="7.28488">
        <ele>113.4</ele>
        <time>1970-01-01T00:00:00Z</time>
      </trkpt>
      <trkpt lat="43.7413" lon="7.28498">
        <ele>111.1</ele>
        <time>1970-01-01T00:00:00Z</time>
      </trkpt>
      <trkpt lat="43.74125" lon="7.28509">
        <ele>109.5</ele>
        <time>1970-01-01T00:00:00Z</time>
      </trkpt>
      <trkpt lat="43.7412" lon="7.28521">
        <ele>108.6</ele>
        <time>1970-01-01T00:00:00Z</time>
      </trkpt>
      <trkpt lat="43.74116" lon="7.28533">
        <ele>107.3</ele>
        <time>1970-01-01T00:00:00Z</time>
      </trkpt>
      <trkpt lat="43.74109" lon="7.28541">
        <ele>104.8</ele>
        <time>1970-01-01T00:00:00Z</time>
      </trkpt>
      <trkpt lat="43.74097" lon="7.28541">
        <ele>101.2</ele>
        <time>1970-01-01T00:00:00Z</time>
      </trkpt>
      <trkpt lat="43.74085" lon="7.28544">
        <ele>97.6</ele>
        <time>1970-01-01T00:00:00Z</time>
      </trkpt>
      <trkpt lat="43.74074" lon="7.28546">
        <ele>93</ele>
        <time>1970-01-01T00:00:00Z</time>
      </trkpt>
      <trkpt lat="43.7407" lon="7.28558">
        <ele>89.7</ele>
        <time>1970-01-01T00:00:00Z</time>
      </trkpt>
      <trkpt lat="43.7407" lon="7.28575">
        <ele>83.6</ele>
        <time>1970-01-01T00:00:00Z</time>
      </trkpt>
      <trkpt lat="43.74074" lon="7.28587">
        <ele>79.2</ele>
        <time>1970-01-01T00:00:00Z</time>
      </trkpt>
      <trkpt lat="43.74071" lon="7.286">
        <ele>73.9</ele>
        <time>1970-01-01T00:00:00Z</time>
      </trkpt>
      <trkpt lat="43.74062" lon="7.28607">
        <ele>70.5</ele>
        <time>1970-01-01T00:00:00Z</time>
      </trkpt>
      <trkpt lat="43.74054" lon="7.28612">
        <ele>67.6</ele>
        <time>1970-01-01T00:00:00Z</time>
      </trkpt>
      <trkpt lat="43.74045" lon="7.28617">
        <ele>65.7</ele>
        <time>1970-01-01T00:00:00Z</time>
      </trkpt>
      <trkpt lat="43.74035" lon="7.28621">
        <ele>64.1</ele>
        <time>1970-01-01T00:00:00Z</time>
      </trkpt>
      <trkpt lat="43.74028" lon="7.28628">
        <ele>62.8</ele>
        <time>1970-01-01T00:00:00Z</time>
      </trkpt>
      <trkpt lat="43.74023" lon="7.28639">
        <ele>62</ele>
        <time>1970-01-01T00:00:00Z</time>
      </trkpt>
      <trkpt lat="43.74021" lon="7.28653">
        <ele>61</ele>
        <time>1970-01-01T00:00:00Z</time>
      </trkpt>
      <trkpt lat="43.74013" lon="7.28677">
        <ele>59.5</ele>
        <time>1970-01-01T00:00:00Z</time>
      </trkpt>
      <trkpt lat="43.74006" lon="7.28701">
        <ele>58.4</ele>
        <time>1970-01-01T00:00:00Z</time>
      </trkpt>
      <trkpt lat="43.73996" lon="7.28723">
        <ele>56.7</ele>
        <time>1970-01-01T00:00:00Z</time>
      </trkpt>
      <trkpt lat="43.73986" lon="7.28745">
        <ele>56.8</ele>
        <time>1970-01-01T00:00:00Z</time>
      </trkpt>
      <trkpt lat="43.73982" lon="7.28753">
        <ele>56.8</ele>
        <time>1970-01-01T00:00:00Z</time>
      </trkpt>
      <trkpt lat="43.73974" lon="7.28756">
        <ele>56.6</ele>
        <time>1970-01-01T00:00:00Z</time>
      </trkpt>
      <trkpt lat="43.73966" lon="7.28754">
        <ele>56.7</ele>
        <time>1970-01-01T00:00:00Z</time>
      </trkpt>
      <trkpt lat="43.73957" lon="7.28753">
        <ele>56.8</ele>
        <time>1970-01-01T00:00:00Z</time>
      </trkpt>
      <trkpt lat="43.7395" lon="7.28749">
        <ele>57</ele>
        <time>1970-01-01T00:00:00Z</time>
      </trkpt>
      <trkpt lat="43.73943" lon="7.28744">
        <ele>56.9</ele>
        <time>1970-01-01T00:00:00Z</time>
      </trkpt>
      <trkpt lat="43.73936" lon="7.28741">
        <ele>56.5</ele>
        <time>1970-01-01T00:00:00Z</time>
      </trkpt>
      <trkpt lat="43.73929" lon="7.28737">
        <ele>56.1</ele>
        <time>1970-01-01T00:00:00Z</time>
      </trkpt>
      <trkpt lat="43.73921" lon="7.28734">
        <ele>55.8</ele>
        <time>1970-01-01T00:00:00Z</time>
      </trkpt>
      <trkpt lat="43.73913" lon="7.28731">
        <ele>55.5</ele>
        <time>1970-01-01T00:00:00Z</time>
      </trkpt>
      <trkpt lat="43.73905" lon="7.28727">
        <ele>55.3</ele>
        <time>1970-01-01T00:00:00Z</time>
      </trkpt>
      <trkpt lat="43.73899" lon="7.28723">
        <ele>55.3</ele>
        <time>1970-01-01T00:00:00Z</time>
      </trkpt>
      <trkpt lat="43.73892" lon="7.28718">
        <ele>55</ele>
        <time>1970-01-01T00:00:00Z</time>
      </trkpt>
      <trkpt lat="43.73883" lon="7.28717">
        <ele>54.8</ele>
        <time>1970-01-01T00:00:00Z</time>
      </trkpt>
      <trkpt lat="43.73877" lon="7.28711">
        <ele>54.8</ele>
        <time>1970-01-01T00:00:00Z</time>
      </trkpt>
      <trkpt lat="43.73869" lon="7.28707">
        <ele>54.8</ele>
        <time>1970-01-01T00:00:00Z</time>
      </trkpt>
      <trkpt lat="43.7386" lon="7.28707">
        <ele>55</ele>
        <time>1970-01-01T00:00:00Z</time>
      </trkpt>
      <trkpt lat="43.73852" lon="7.28704">
        <ele>54.8</ele>
        <time>1970-01-01T00:00:00Z</time>
      </trkpt>
      <trkpt lat="43.73843" lon="7.28701">
        <ele>54.7</ele>
        <time>1970-01-01T00:00:00Z</time>
      </trkpt>
      <trkpt lat="43.73834" lon="7.287">
        <ele>54.6</ele>
        <time>1970-01-01T00:00:00Z</time>
      </trkpt>
      <trkpt lat="43.73825" lon="7.28699">
        <ele>54.5</ele>
        <time>1970-01-01T00:00:00Z</time>
      </trkpt>
      <trkpt lat="43.73816" lon="7.28699">
        <ele>54.2</ele>
        <time>1970-01-01T00:00:00Z</time>
      </trkpt>
      <trkpt lat="43.73807" lon="7.287">
        <ele>54</ele>
        <time>1970-01-01T00:00:00Z</time>
      </trkpt>
      <trkpt lat="43.73797" lon="7.287">
        <ele>53.9</ele>
        <time>1970-01-01T00:00:00Z</time>
      </trkpt>
      <trkpt lat="43.73788" lon="7.28702">
        <ele>53.8</ele>
        <time>1970-01-01T00:00:00Z</time>
      </trkpt>
      <trkpt lat="43.73779" lon="7.28702">
        <ele>53.7</ele>
        <time>1970-01-01T00:00:00Z</time>
      </trkpt>
      <trkpt lat="43.73771" lon="7.28705">
        <ele>53.7</ele>
        <time>1970-01-01T00:00:00Z</time>
      </trkpt>
      <trkpt lat="43.73763" lon="7.28708">
        <ele>53.8</ele>
        <time>1970-01-01T00:00:00Z</time>
      </trkpt>
      <trkpt lat="43.73754" lon="7.28709">
        <ele>53.9</ele>
        <time>1970-01-01T00:00:00Z</time>
      </trkpt>
      <trkpt lat="43.73744" lon="7.2871">
        <ele>53.7</ele>
        <time>1970-01-01T00:00:00Z</time>
      </trkpt>
      <trkpt lat="43.73735" lon="7.28711">
        <ele>53.2</ele>
        <time>1970-01-01T00:00:00Z</time>
      </trkpt>
      <trkpt lat="43.73726" lon="7.28711">
        <ele>52.6</ele>
        <time>1970-01-01T00:00:00Z</time>
      </trkpt>
      <trkpt lat="43.73717" lon="7.28713">
        <ele>52.7</ele>
        <time>1970-01-01T00:00:00Z</time>
      </trkpt>
      <trkpt lat="43.73708" lon="7.28715">
        <ele>53.1</ele>
        <time>1970-01-01T00:00:00Z</time>
      </trkpt>
      <trkpt lat="43.737" lon="7.28717">
        <ele>53.3</ele>
        <time>1970-01-01T00:00:00Z</time>
      </trkpt>
      <trkpt lat="43.7369" lon="7.28719">
        <ele>53.4</ele>
        <time>1970-01-01T00:00:00Z</time>
      </trkpt>
      <trkpt lat="43.73683" lon="7.28722">
        <ele>53</ele>
        <time>1970-01-01T00:00:00Z</time>
      </trkpt>
      <trkpt lat="43.73674" lon="7.28724">
        <ele>52.8</ele>
        <time>1970-01-01T00:00:00Z</time>
      </trkpt>
      <trkpt lat="43.73665" lon="7.28726">
        <ele>52.6</ele>
        <time>1970-01-01T00:00:00Z</time>
      </trkpt>
      <trkpt lat="43.73658" lon="7.28729">
        <ele>52.4</ele>
        <time>1970-01-01T00:00:00Z</time>
      </trkpt>
      <trkpt lat="43.73651" lon="7.28735">
        <ele>52.1</ele>
        <time>1970-01-01T00:00:00Z</time>
      </trkpt>
      <trkpt lat="43.73645" lon="7.2874">
        <ele>52.1</ele>
        <time>1970-01-01T00:00:00Z</time>
      </trkpt>
      <trkpt lat="43.73638" lon="7.28744">
        <ele>52.2</ele>
        <time>1970-01-01T00:00:00Z</time>
      </trkpt>
      <trkpt lat="43.73632" lon="7.28749">
        <ele>52.1</ele>
        <time>1970-01-01T00:00:00Z</time>
      </trkpt>
      <trkpt lat="43.73625" lon="7.28753">
        <ele>51.8</ele>
        <time>1970-01-01T00:00:00Z</time>
      </trkpt>
      <trkpt lat="43.73615" lon="7.28757">
        <ele>51.5</ele>
        <time>1970-01-01T00:00:00Z</time>
      </trkpt>
      <trkpt lat="43.73606" lon="7.2876">
        <ele>51.2</ele>
        <time>1970-01-01T00:00:00Z</time>
      </trkpt>
      <trkpt lat="43.73595" lon="7.28762">
        <ele>51</ele>
        <time>1970-01-01T00:00:00Z</time>
      </trkpt>
      <trkpt lat="43.73585" lon="7.28766">
        <ele>51</ele>
        <time>1970-01-01T00:00:00Z</time>
      </trkpt>
      <trkpt lat="43.73576" lon="7.28771">
        <ele>50.9</ele>
        <time>1970-01-01T00:00:00Z</time>
      </trkpt>
      <trkpt lat="43.73566" lon="7.28774">
        <ele>50.9</ele>
        <time>1970-01-01T00:00:00Z</time>
      </trkpt>
      <trkpt lat="43.73556" lon="7.28777">
        <ele>51</ele>
        <time>1970-01-01T00:00:00Z</time>
      </trkpt>
      <trkpt lat="43.73546" lon="7.2878">
        <ele>50.8</ele>
        <time>1970-01-01T00:00:00Z</time>
      </trkpt>
      <trkpt lat="43.73534" lon="7.28781">
        <ele>50.7</ele>
        <time>1970-01-01T00:00:00Z</time>
      </trkpt>
      <trkpt lat="43.73522" lon="7.28781">
        <ele>50.5</ele>
        <time>1970-01-01T00:00:00Z</time>
      </trkpt>
      <trkpt lat="43.7351" lon="7.28781">
        <ele>50.1</ele>
        <time>1970-01-01T00:00:00Z</time>
      </trkpt>
      <trkpt lat="43.73502" lon="7.28776">
        <ele>50.1</ele>
        <time>1970-01-01T00:00:00Z</time>
      </trkpt>
      <trkpt lat="43.73492" lon="7.28773">
        <ele>49.8</ele>
        <time>1970-01-01T00:00:00Z</time>
      </trkpt>
      <trkpt lat="43.73484" lon="7.28766">
        <ele>49.7</ele>
        <time>1970-01-01T00:00:00Z</time>
      </trkpt>
      <trkpt lat="43.73476" lon="7.28761">
        <ele>49.7</ele>
        <time>1970-01-01T00:00:00Z</time>
      </trkpt>
      <trkpt lat="43.73468" lon="7.28756">
        <ele>49.3</ele>
        <time>1970-01-01T00:00:00Z</time>
      </trkpt>
      <trkpt lat="43.73461" lon="7.28748">
        <ele>48.8</ele>
        <time>1970-01-01T00:00:00Z</time>
      </trkpt>
      <trkpt lat="43.73456" lon="7.28738">
        <ele>48.6</ele>
        <time>1970-01-01T00:00:00Z</time>
      </trkpt>
      <trkpt lat="43.73452" lon="7.28725">
        <ele>48.9</ele>
        <time>1970-01-01T00:00:00Z</time>
      </trkpt>
      <trkpt lat="43.73449" lon="7.28713">
        <ele>49</ele>
        <time>1970-01-01T00:00:00Z</time>
      </trkpt>
      <trkpt lat="43.73445" lon="7.28701">
        <ele>49</ele>
        <time>1970-01-01T00:00:00Z</time>
      </trkpt>
      <trkpt lat="43.73441" lon="7.28689">
        <ele>48.6</ele>
        <time>1970-01-01T00:00:00Z</time>
      </trkpt>
      <trkpt lat="43.73438" lon="7.28677">
        <ele>47.9</ele>
        <time>1970-01-01T00:00:00Z</time>
      </trkpt>
      <trkpt lat="43.73434" lon="7.28665">
        <ele>47.3</ele>
        <time>1970-01-01T00:00:00Z</time>
      </trkpt>
      <trkpt lat="43.73432" lon="7.28651">
        <ele>47.3</ele>
        <time>1970-01-01T00:00:00Z</time>
      </trkpt>
      <trkpt lat="43.73429" lon="7.28638">
        <ele>47.4</ele>
        <time>1970-01-01T00:00:00Z</time>
      </trkpt>
      <trkpt lat="43.73427" lon="7.28625">
        <ele>47.3</ele>
        <time>1970-01-01T00:00:00Z</time>
      </trkpt>
      <trkpt lat="43.73424" lon="7.28611">
        <ele>47.5</ele>
        <time>1970-01-01T00:00:00Z</time>
      </trkpt>
      <trkpt lat="43.73421" lon="7.28598">
        <ele>47.8</ele>
        <time>1970-01-01T00:00:00Z</time>
      </trkpt>
      <trkpt lat="43.73418" lon="7.28584">
        <ele>48</ele>
        <time>1970-01-01T00:00:00Z</time>
      </trkpt>
      <trkpt lat="43.73413" lon="7.28573">
        <ele>47.8</ele>
        <time>1970-01-01T00:00:00Z</time>
      </trkpt>
      <trkpt lat="43.73407" lon="7.28565">
        <ele>47.5</ele>
        <time>1970-01-01T00:00:00Z</time>
      </trkpt>
      <trkpt lat="43.73401" lon="7.28555">
        <ele>47.4</ele>
        <time>1970-01-01T00:00:00Z</time>
      </trkpt>
      <trkpt lat="43.73395" lon="7.28543">
        <ele>47.2</ele>
        <time>1970-01-01T00:00:00Z</time>
      </trkpt>
      <trkpt lat="43.73391" lon="7.28533">
        <ele>47.1</ele>
        <time>1970-01-01T00:00:00Z</time>
      </trkpt>
      <trkpt lat="43.73387" lon="7.28522">
        <ele>47.5</ele>
        <time>1970-01-01T00:00:00Z</time>
      </trkpt>
      <trkpt lat="43.73381" lon="7.28512">
        <ele>47.8</ele>
        <time>1970-01-01T00:00:00Z</time>
      </trkpt>
      <trkpt lat="43.73375" lon="7.28505">
        <ele>47.9</ele>
        <time>1970-01-01T00:00:00Z</time>
      </trkpt>
      <trkpt lat="43.73367" lon="7.28498">
        <ele>47.9</ele>
        <time>1970-01-01T00:00:00Z</time>
      </trkpt>
      <trkpt lat="43.7336" lon="7.28492">
        <ele>47.7</ele>
        <time>1970-01-01T00:00:00Z</time>
      </trkpt>
      <trkpt lat="43.73351" lon="7.28488">
        <ele>47</ele>
        <time>1970-01-01T00:00:00Z</time>
      </trkpt>
      <trkpt lat="43.73341" lon="7.28485">
        <ele>46.2</ele>
        <time>1970-01-01T00:00:00Z</time>
      </trkpt>
      <trkpt lat="43.73331" lon="7.28482">
        <ele>45.6</ele>
        <time>1970-01-01T00:00:00Z</time>
      </trkpt>
      <trkpt lat="43.73321" lon="7.28479">
        <ele>46</ele>
        <time>1970-01-01T00:00:00Z</time>
      </trkpt>
      <trkpt lat="43.7331" lon="7.28477">
        <ele>46.4</ele>
        <time>1970-01-01T00:00:00Z</time>
      </trkpt>
      <trkpt lat="43.73298" lon="7.28477">
        <ele>46.1</ele>
        <time>1970-01-01T00:00:00Z</time>
      </trkpt>
      <trkpt lat="43.73287" lon="7.28478">
        <ele>45.7</ele>
        <time>1970-01-01T00:00:00Z</time>
      </trkpt>
      <trkpt lat="43.73276" lon="7.2848">
        <ele>45.1</ele>
        <time>1970-01-01T00:00:00Z</time>
      </trkpt>
      <trkpt lat="43.73264" lon="7.2848">
        <ele>45</ele>
        <time>1970-01-01T00:00:00Z</time>
      </trkpt>
      <trkpt lat="43.73255" lon="7.28477">
        <ele>45.3</ele>
        <time>1970-01-01T00:00:00Z</time>
      </trkpt>
      <trkpt lat="43.73243" lon="7.28475">
        <ele>45.6</ele>
        <time>1970-01-01T00:00:00Z</time>
      </trkpt>
      <trkpt lat="43.73233" lon="7.28472">
        <ele>46</ele>
        <time>1970-01-01T00:00:00Z</time>
      </trkpt>
      <trkpt lat="43.73222" lon="7.2847">
        <ele>46</ele>
        <time>1970-01-01T00:00:00Z</time>
      </trkpt>
      <trkpt lat="43.7321" lon="7.2847">
        <ele>45.5</ele>
        <time>1970-01-01T00:00:00Z</time>
      </trkpt>
      <trkpt lat="43.73201" lon="7.28465">
        <ele>45</ele>
        <time>1970-01-01T00:00:00Z</time>
      </trkpt>
      <trkpt lat="43.73192" lon="7.28461">
        <ele>44.4</ele>
        <time>1970-01-01T00:00:00Z</time>
      </trkpt>
      <trkpt lat="43.73182" lon="7.28459">
        <ele>43.8</ele>
        <time>1970-01-01T00:00:00Z</time>
      </trkpt>
      <trkpt lat="43.73172" lon="7.28455">
        <ele>43.7</ele>
        <time>1970-01-01T00:00:00Z</time>
      </trkpt>
      <trkpt lat="43.73164" lon="7.28449">
        <ele>44.1</ele>
        <time>1970-01-01T00:00:00Z</time>
      </trkpt>
      <trkpt lat="43.73156" lon="7.28444">
        <ele>43.8</ele>
        <time>1970-01-01T00:00:00Z</time>
      </trkpt>
      <trkpt lat="43.73149" lon="7.28437">
        <ele>43.1</ele>
        <time>1970-01-01T00:00:00Z</time>
      </trkpt>
      <trkpt lat="43.73142" lon="7.28429">
        <ele>43.1</ele>
        <time>1970-01-01T00:00:00Z</time>
      </trkpt>
      <trkpt lat="43.73135" lon="7.28422">
        <ele>43</ele>
        <time>1970-01-01T00:00:00Z</time>
      </trkpt>
      <trkpt lat="43.73129" lon="7.28413">
        <ele>42.3</ele>
        <time>1970-01-01T00:00:00Z</time>
      </trkpt>
      <trkpt lat="43.73123" lon="7.28404">
        <ele>42.1</ele>
        <time>1970-01-01T00:00:00Z</time>
      </trkpt>
      <trkpt lat="43.73117" lon="7.28394">
        <ele>42.9</ele>
        <time>1970-01-01T00:00:00Z</time>
      </trkpt>
      <trkpt lat="43.73111" lon="7.28386">
        <ele>44</ele>
        <time>1970-01-01T00:00:00Z</time>
      </trkpt>
      <trkpt lat="43.73105" lon="7.28376">
        <ele>43.1</ele>
        <time>1970-01-01T00:00:00Z</time>
      </trkpt>
      <trkpt lat="43.731" lon="7.28367">
        <ele>42.7</ele>
        <time>1970-01-01T00:00:00Z</time>
      </trkpt>
      <trkpt lat="43.73094" lon="7.28357">
        <ele>42.4</ele>
        <time>1970-01-01T00:00:00Z</time>
      </trkpt>
      <trkpt lat="43.73088" lon="7.28349">
        <ele>42.6</ele>
        <time>1970-01-01T00:00:00Z</time>
      </trkpt>
      <trkpt lat="43.73082" lon="7.2834">
        <ele>43</ele>
        <time>1970-01-01T00:00:00Z</time>
      </trkpt>
      <trkpt lat="43.73076" lon="7.28331">
        <ele>42.7</ele>
        <time>1970-01-01T00:00:00Z</time>
      </trkpt>
      <trkpt lat="43.73071" lon="7.28322">
        <ele>41.9</ele>
        <time>1970-01-01T00:00:00Z</time>
      </trkpt>
      <trkpt lat="43.73067" lon="7.28312">
        <ele>41.8</ele>
        <time>1970-01-01T00:00:00Z</time>
      </trkpt>
      <trkpt lat="43.73061" lon="7.28302">
        <ele>42.1</ele>
        <time>1970-01-01T00:00:00Z</time>
      </trkpt>
      <trkpt lat="43.73056" lon="7.28294">
        <ele>42.4</ele>
        <time>1970-01-01T00:00:00Z</time>
      </trkpt>
      <trkpt lat="43.73049" lon="7.28285">
        <ele>42.3</ele>
        <time>1970-01-01T00:00:00Z</time>
      </trkpt>
      <trkpt lat="43.73043" lon="7.28277">
        <ele>42.5</ele>
        <time>1970-01-01T00:00:00Z</time>
      </trkpt>
      <trkpt lat="43.73035" lon="7.28271">
        <ele>42.4</ele>
        <time>1970-01-01T00:00:00Z</time>
      </trkpt>
      <trkpt lat="43.7303" lon="7.28261">
        <ele>42.6</ele>
        <time>1970-01-01T00:00:00Z</time>
      </trkpt>
      <trkpt lat="43.73023" lon="7.28253">
        <ele>42.6</ele>
        <time>1970-01-01T00:00:00Z</time>
      </trkpt>
      <trkpt lat="43.73016" lon="7.28245">
        <ele>42.6</ele>
        <time>1970-01-01T00:00:00Z</time>
      </trkpt>
      <trkpt lat="43.7301" lon="7.28238">
        <ele>42.3</ele>
        <time>1970-01-01T00:00:00Z</time>
      </trkpt>
      <trkpt lat="43.73003" lon="7.28229">
        <ele>42.1</ele>
        <time>1970-01-01T00:00:00Z</time>
      </trkpt>
      <trkpt lat="43.72996" lon="7.28223">
        <ele>41.8</ele>
        <time>1970-01-01T00:00:00Z</time>
      </trkpt>
      <trkpt lat="43.72986" lon="7.2822">
        <ele>41.7</ele>
        <time>1970-01-01T00:00:00Z</time>
      </trkpt>
      <trkpt lat="43.72976" lon="7.28218">
        <ele>41.5</ele>
        <time>1970-01-01T00:00:00Z</time>
      </trkpt>
      <trkpt lat="43.72965" lon="7.28216">
        <ele>40.8</ele>
        <time>1970-01-01T00:00:00Z</time>
      </trkpt>
      <trkpt lat="43.72954" lon="7.28213">
        <ele>40.1</ele>
        <time>1970-01-01T00:00:00Z</time>
      </trkpt>
      <trkpt lat="43.72944" lon="7.2821">
        <ele>39.7</ele>
        <time>1970-01-01T00:00:00Z</time>
      </trkpt>
      <trkpt lat="43.72933" lon="7.28209">
        <ele>39.7</ele>
        <time>1970-01-01T00:00:00Z</time>
      </trkpt>
      <trkpt lat="43.72921" lon="7.28209">
        <ele>39.4</ele>
        <time>1970-01-01T00:00:00Z</time>
      </trkpt>
      <trkpt lat="43.7291" lon="7.28211">
        <ele>39.2</ele>
        <time>1970-01-01T00:00:00Z</time>
      </trkpt>
      <trkpt lat="43.72899" lon="7.28211">
        <ele>39.4</ele>
        <time>1970-01-01T00:00:00Z</time>
      </trkpt>
      <trkpt lat="43.72887" lon="7.28211">
        <ele>39.7</ele>
        <time>1970-01-01T00:00:00Z</time>
      </trkpt>
      <trkpt lat="43.72876" lon="7.2821">
        <ele>40.1</ele>
        <time>1970-01-01T00:00:00Z</time>
      </trkpt>
      <trkpt lat="43.72864" lon="7.2821">
        <ele>40.3</ele>
        <time>1970-01-01T00:00:00Z</time>
      </trkpt>
      <trkpt lat="43.72853" lon="7.28213">
        <ele>40.4</ele>
        <time>1970-01-01T00:00:00Z</time>
      </trkpt>
      <trkpt lat="43.72841" lon="7.28213">
        <ele>41</ele>
        <time>1970-01-01T00:00:00Z</time>
      </trkpt>
      <trkpt lat="43.72831" lon="7.28214">
        <ele>41.2</ele>
        <time>1970-01-01T00:00:00Z</time>
      </trkpt>
      <trkpt lat="43.7282" lon="7.28217">
        <ele>40.9</ele>
        <time>1970-01-01T00:00:00Z</time>
      </trkpt>
      <trkpt lat="43.72809" lon="7.28219">
        <ele>40.5</ele>
        <time>1970-01-01T00:00:00Z</time>
      </trkpt>
      <trkpt lat="43.728" lon="7.28223">
        <ele>39.9</ele>
        <time>1970-01-01T00:00:00Z</time>
      </trkpt>
      <trkpt lat="43.72791" lon="7.28227">
        <ele>39.3</ele>
        <time>1970-01-01T00:00:00Z</time>
      </trkpt>
      <trkpt lat="43.72783" lon="7.28233">
        <ele>38.7</ele>
        <time>1970-01-01T00:00:00Z</time>
      </trkpt>
      <trkpt lat="43.72772" lon="7.28236">
        <ele>38.8</ele>
        <time>1970-01-01T00:00:00Z</time>
      </trkpt>
      <trkpt lat="43.72761" lon="7.28238">
        <ele>39.3</ele>
        <time>1970-01-01T00:00:00Z</time>
      </trkpt>
      <trkpt lat="43.72752" lon="7.28243">
        <ele>39.8</ele>
        <time>1970-01-01T00:00:00Z</time>
      </trkpt>
      <trkpt lat="43.72745" lon="7.2825">
        <ele>40</ele>
        <time>1970-01-01T00:00:00Z</time>
      </trkpt>
      <trkpt lat="43.72738" lon="7.28257">
        <ele>39.2</ele>
        <time>1970-01-01T00:00:00Z</time>
      </trkpt>
      <trkpt lat="43.72731" lon="7.28265">
        <ele>38.8</ele>
        <time>1970-01-01T00:00:00Z</time>
      </trkpt>
      <trkpt lat="43.72723" lon="7.28271">
        <ele>39.1</ele>
        <time>1970-01-01T00:00:00Z</time>
      </trkpt>
      <trkpt lat="43.72716" lon="7.28278">
        <ele>39.2</ele>
        <time>1970-01-01T00:00:00Z</time>
      </trkpt>
      <trkpt lat="43.72708" lon="7.28285">
        <ele>38.9</ele>
        <time>1970-01-01T00:00:00Z</time>
      </trkpt>
      <trkpt lat="43.72701" lon="7.28292">
        <ele>38.8</ele>
        <time>1970-01-01T00:00:00Z</time>
      </trkpt>
      <trkpt lat="43.72695" lon="7.283">
        <ele>39.2</ele>
        <time>1970-01-01T00:00:00Z</time>
      </trkpt>
      <trkpt lat="43.72688" lon="7.28307">
        <ele>38.8</ele>
        <time>1970-01-01T00:00:00Z</time>
      </trkpt>
      <trkpt lat="43.7268" lon="7.28314">
        <ele>38.4</ele>
        <time>1970-01-01T00:00:00Z</time>
      </trkpt>
      <trkpt lat="43.72673" lon="7.28321">
        <ele>38.5</ele>
        <time>1970-01-01T00:00:00Z</time>
      </trkpt>
      <trkpt lat="43.72668" lon="7.2833">
        <ele>38.9</ele>
        <time>1970-01-01T00:00:00Z</time>
      </trkpt>
      <trkpt lat="43.72662" lon="7.28339">
        <ele>38.3</ele>
        <time>1970-01-01T00:00:00Z</time>
      </trkpt>
      <trkpt lat="43.72656" lon="7.28347">
        <ele>37.8</ele>
        <time>1970-01-01T00:00:00Z</time>
      </trkpt>
      <trkpt lat="43.72648" lon="7.28355">
        <ele>37.9</ele>
        <time>1970-01-01T00:00:00Z</time>
      </trkpt>
      <trkpt lat="43.72642" lon="7.28363">
        <ele>38.4</ele>
        <time>1970-01-01T00:00:00Z</time>
      </trkpt>
      <trkpt lat="43.72637" lon="7.28373">
        <ele>37.8</ele>
        <time>1970-01-01T00:00:00Z</time>
      </trkpt>
      <trkpt lat="43.72632" lon="7.28382">
        <ele>37.1</ele>
        <time>1970-01-01T00:00:00Z</time>
      </trkpt>
      <trkpt lat="43.72627" lon="7.28392">
        <ele>36.7</ele>
        <time>1970-01-01T00:00:00Z</time>
      </trkpt>
      <trkpt lat="43.72621" lon="7.284">
        <ele>36.7</ele>
        <time>1970-01-01T00:00:00Z</time>
      </trkpt>
      <trkpt lat="43.72615" lon="7.28408">
        <ele>37</ele>
        <time>1970-01-01T00:00:00Z</time>
      </trkpt>
      <trkpt lat="43.72608" lon="7.28415">
        <ele>38.1</ele>
        <time>1970-01-01T00:00:00Z</time>
      </trkpt>
      <trkpt lat="43.72601" lon="7.28423">
        <ele>39.3</ele>
        <time>1970-01-01T00:00:00Z</time>
      </trkpt>
      <trkpt lat="43.72595" lon="7.28432">
        <ele>39.5</ele>
        <time>1970-01-01T00:00:00Z</time>
      </trkpt>
      <trkpt lat="43.7259" lon="7.28441">
        <ele>39.6</ele>
        <time>1970-01-01T00:00:00Z</time>
      </trkpt>
      <trkpt lat="43.72585" lon="7.28451">
        <ele>39.3</ele>
        <time>1970-01-01T00:00:00Z</time>
      </trkpt>
      <trkpt lat="43.72579" lon="7.2846">
        <ele>39</ele>
        <time>1970-01-01T00:00:00Z</time>
      </trkpt>
      <trkpt lat="43.72573" lon="7.28469">
        <ele>38.9</ele>
        <time>1970-01-01T00:00:00Z</time>
      </trkpt>
      <trkpt lat="43.72568" lon="7.28478">
        <ele>39.1</ele>
        <time>1970-01-01T00:00:00Z</time>
      </trkpt>
      <trkpt lat="43.72562" lon="7.28488">
        <ele>38.7</ele>
        <time>1970-01-01T00:00:00Z</time>
      </trkpt>
      <trkpt lat="43.72556" lon="7.28496">
        <ele>38</ele>
        <time>1970-01-01T00:00:00Z</time>
      </trkpt>
      <trkpt lat="43.7255" lon="7.28504">
        <ele>36.7</ele>
        <time>1970-01-01T00:00:00Z</time>
      </trkpt>
      <trkpt lat="43.72545" lon="7.28514">
        <ele>36.2</ele>
        <time>1970-01-01T00:00:00Z</time>
      </trkpt>
      <trkpt lat="43.7254" lon="7.28529">
        <ele>35.5</ele>
        <time>1970-01-01T00:00:00Z</time>
      </trkpt>
      <trkpt lat="43.72531" lon="7.28536">
        <ele>35.8</ele>
        <time>1970-01-01T00:00:00Z</time>
      </trkpt>
      <trkpt lat="43.72525" lon="7.28548">
        <ele>36</ele>
        <time>1970-01-01T00:00:00Z</time>
      </trkpt>
      <trkpt lat="43.7252" lon="7.28562">
        <ele>35.8</ele>
        <time>1970-01-01T00:00:00Z</time>
      </trkpt>
      <trkpt lat="43.72516" lon="7.28576">
        <ele>35.6</ele>
        <time>1970-01-01T00:00:00Z</time>
      </trkpt>
      <trkpt lat="43.7251" lon="7.28588">
        <ele>35.5</ele>
        <time>1970-01-01T00:00:00Z</time>
      </trkpt>
      <trkpt lat="43.72503" lon="7.28599">
        <ele>35.7</ele>
        <time>1970-01-01T00:00:00Z</time>
      </trkpt>
      <trkpt lat="43.72497" lon="7.28611">
        <ele>35.9</ele>
        <time>1970-01-01T00:00:00Z</time>
      </trkpt>
      <trkpt lat="43.7249" lon="7.28623">
        <ele>34.7</ele>
        <time>1970-01-01T00:00:00Z</time>
      </trkpt>
      <trkpt lat="43.72482" lon="7.28631">
        <ele>34.8</ele>
        <time>1970-01-01T00:00:00Z</time>
      </trkpt>
      <trkpt lat="43.72472" lon="7.28638">
        <ele>35.9</ele>
        <time>1970-01-01T00:00:00Z</time>
      </trkpt>
      <trkpt lat="43.72463" lon="7.28647">
        <ele>34.4</ele>
        <time>1970-01-01T00:00:00Z</time>
      </trkpt>
      <trkpt lat="43.72454" lon="7.28656">
        <ele>34</ele>
        <time>1970-01-01T00:00:00Z</time>
      </trkpt>
      <trkpt lat="43.72445" lon="7.28664">
        <ele>34.7</ele>
        <time>1970-01-01T00:00:00Z</time>
      </trkpt>
      <trkpt lat="43.72436" lon="7.28671">
        <ele>34.4</ele>
        <time>1970-01-01T00:00:00Z</time>
      </trkpt>
      <trkpt lat="43.72426" lon="7.28679">
        <ele>34.2</ele>
        <time>1970-01-01T00:00:00Z</time>
      </trkpt>
      <trkpt lat="43.72417" lon="7.28686">
        <ele>34.7</ele>
        <time>1970-01-01T00:00:00Z</time>
      </trkpt>
      <trkpt lat="43.72406" lon="7.28693">
        <ele>34.6</ele>
        <time>1970-01-01T00:00:00Z</time>
      </trkpt>
      <trkpt lat="43.72397" lon="7.28699">
        <ele>34.1</ele>
        <time>1970-01-01T00:00:00Z</time>
      </trkpt>
      <trkpt lat="43.72387" lon="7.28707">
        <ele>34</ele>
        <time>1970-01-01T00:00:00Z</time>
      </trkpt>
      <trkpt lat="43.72378" lon="7.28714">
        <ele>34</ele>
        <time>1970-01-01T00:00:00Z</time>
      </trkpt>
      <trkpt lat="43.72367" lon="7.28719">
        <ele>34</ele>
        <time>1970-01-01T00:00:00Z</time>
      </trkpt>
      <trkpt lat="43.72353" lon="7.2872">
        <ele>34</ele>
        <time>1970-01-01T00:00:00Z</time>
      </trkpt>
      <trkpt lat="43.7234" lon="7.28722">
        <ele>34</ele>
        <time>1970-01-01T00:00:00Z</time>
      </trkpt>
      <trkpt lat="43.72326" lon="7.2872">
        <ele>34.2</ele>
        <time>1970-01-01T00:00:00Z</time>
      </trkpt>
      <trkpt lat="43.72312" lon="7.28719">
        <ele>34.6</ele>
        <time>1970-01-01T00:00:00Z</time>
      </trkpt>
      <trkpt lat="43.723" lon="7.28722">
        <ele>34.8</ele>
        <time>1970-01-01T00:00:00Z</time>
      </trkpt>
      <trkpt lat="43.72285" lon="7.28721">
        <ele>34.2</ele>
        <time>1970-01-01T00:00:00Z</time>
      </trkpt>
      <trkpt lat="43.72271" lon="7.2872">
        <ele>33.5</ele>
        <time>1970-01-01T00:00:00Z</time>
      </trkpt>
      <trkpt lat="43.72258" lon="7.28718">
        <ele>32.6</ele>
        <time>1970-01-01T00:00:00Z</time>
      </trkpt>
      <trkpt lat="43.72247" lon="7.28714">
        <ele>32</ele>
        <time>1970-01-01T00:00:00Z</time>
      </trkpt>
      <trkpt lat="43.72235" lon="7.28709">
        <ele>31.7</ele>
        <time>1970-01-01T00:00:00Z</time>
      </trkpt>
      <trkpt lat="43.72223" lon="7.28705">
        <ele>31.5</ele>
        <time>1970-01-01T00:00:00Z</time>
      </trkpt>
      <trkpt lat="43.72211" lon="7.287">
        <ele>31.5</ele>
        <time>1970-01-01T00:00:00Z</time>
      </trkpt>
      <trkpt lat="43.722" lon="7.28694">
        <ele>31.4</ele>
        <time>1970-01-01T00:00:00Z</time>
      </trkpt>
      <trkpt lat="43.72188" lon="7.28689">
        <ele>30.7</ele>
        <time>1970-01-01T00:00:00Z</time>
      </trkpt>
      <trkpt lat="43.72178" lon="7.28681">
        <ele>30.6</ele>
        <time>1970-01-01T00:00:00Z</time>
      </trkpt>
      <trkpt lat="43.7217" lon="7.28672">
        <ele>31.3</ele>
        <time>1970-01-01T00:00:00Z</time>
      </trkpt>
      <trkpt lat="43.72163" lon="7.2866">
        <ele>31.5</ele>
        <time>1970-01-01T00:00:00Z</time>
      </trkpt>
      <trkpt lat="43.72154" lon="7.28651">
        <ele>30.8</ele>
        <time>1970-01-01T00:00:00Z</time>
      </trkpt>
      <trkpt lat="43.72143" lon="7.28643">
        <ele>30.6</ele>
        <time>1970-01-01T00:00:00Z</time>
      </trkpt>
      <trkpt lat="43.72134" lon="7.28636">
        <ele>30.4</ele>
        <time>1970-01-01T00:00:00Z</time>
      </trkpt>
      <trkpt lat="43.72129" lon="7.28622">
        <ele>30.2</ele>
        <time>1970-01-01T00:00:00Z</time>
      </trkpt>
      <trkpt lat="43.72121" lon="7.28612">
        <ele>30.3</ele>
        <time>1970-01-01T00:00:00Z</time>
      </trkpt>
      <trkpt lat="43.72113" lon="7.28603">
        <ele>30.3</ele>
        <time>1970-01-01T00:00:00Z</time>
      </trkpt>
      <trkpt lat="43.72106" lon="7.28593">
        <ele>30</ele>
        <time>1970-01-01T00:00:00Z</time>
      </trkpt>
      <trkpt lat="43.72099" lon="7.28581">
        <ele>29.7</ele>
        <time>1970-01-01T00:00:00Z</time>
      </trkpt>
      <trkpt lat="43.72093" lon="7.2857">
        <ele>29.3</ele>
        <time>1970-01-01T00:00:00Z</time>
      </trkpt>
      <trkpt lat="43.72085" lon="7.28559">
        <ele>29.7</ele>
        <time>1970-01-01T00:00:00Z</time>
      </trkpt>
      <trkpt lat="43.72076" lon="7.28551">
        <ele>29.2</ele>
        <time>1970-01-01T00:00:00Z</time>
      </trkpt>
      <trkpt lat="43.72068" lon="7.28542">
        <ele>28.9</ele>
        <time>1970-01-01T00:00:00Z</time>
      </trkpt>
      <trkpt lat="43.72063" lon="7.28529">
        <ele>29.6</ele>
        <time>1970-01-01T00:00:00Z</time>
      </trkpt>
      <trkpt lat="43.72055" lon="7.2852">
        <ele>29.9</ele>
        <time>1970-01-01T00:00:00Z</time>
      </trkpt>
      <trkpt lat="43.72045" lon="7.28514">
        <ele>29.2</ele>
        <time>1970-01-01T00:00:00Z</time>
      </trkpt>
      <trkpt lat="43.72036" lon="7.28505">
        <ele>29.1</ele>
        <time>1970-01-01T00:00:00Z</time>
      </trkpt>
      <trkpt lat="43.72028" lon="7.28495">
        <ele>29</ele>
        <time>1970-01-01T00:00:00Z</time>
      </trkpt>
      <trkpt lat="43.72023" lon="7.28481">
        <ele>28.5</ele>
        <time>1970-01-01T00:00:00Z</time>
      </trkpt>
      <trkpt lat="43.72016" lon="7.2847">
        <ele>28.2</ele>
        <time>1970-01-01T00:00:00Z</time>
      </trkpt>
      <trkpt lat="43.7201" lon="7.28456">
        <ele>28.5</ele>
        <time>1970-01-01T00:00:00Z</time>
      </trkpt>
      <trkpt lat="43.72003" lon="7.28446">
        <ele>28.9</ele>
        <time>1970-01-01T00:00:00Z</time>
      </trkpt>
      <trkpt lat="43.71992" lon="7.28439">
        <ele>28.1</ele>
        <time>1970-01-01T00:00:00Z</time>
      </trkpt>
      <trkpt lat="43.71981" lon="7.28433">
        <ele>27.4</ele>
        <time>1970-01-01T00:00:00Z</time>
      </trkpt>
      <trkpt lat="43.71973" lon="7.28424">
        <ele>28</ele>
        <time>1970-01-01T00:00:00Z</time>
      </trkpt>
      <trkpt lat="43.71966" lon="7.28415">
        <ele>27.9</ele>
        <time>1970-01-01T00:00:00Z</time>
      </trkpt>
      <trkpt lat="43.71956" lon="7.28407">
        <ele>26.5</ele>
        <time>1970-01-01T00:00:00Z</time>
      </trkpt>
      <trkpt lat="43.7195" lon="7.28396">
        <ele>26.1</ele>
        <time>1970-01-01T00:00:00Z</time>
      </trkpt>
      <trkpt lat="43.71945" lon="7.28382">
        <ele>26.5</ele>
        <time>1970-01-01T00:00:00Z</time>
      </trkpt>
      <trkpt lat="43.71939" lon="7.28368">
        <ele>26.9</ele>
        <time>1970-01-01T00:00:00Z</time>
      </trkpt>
      <trkpt lat="43.71931" lon="7.28358">
        <ele>26.7</ele>
        <time>1970-01-01T00:00:00Z</time>
      </trkpt>
      <trkpt lat="43.71924" lon="7.28349">
        <ele>26.8</ele>
        <time>1970-01-01T00:00:00Z</time>
      </trkpt>
      <trkpt lat="43.71918" lon="7.28336">
        <ele>27.7</ele>
        <time>1970-01-01T00:00:00Z</time>
      </trkpt>
      <trkpt lat="43.71911" lon="7.28325">
        <ele>27.4</ele>
        <time>1970-01-01T00:00:00Z</time>
      </trkpt>
      <trkpt lat="43.71905" lon="7.28314">
        <ele>27.2</ele>
        <time>1970-01-01T00:00:00Z</time>
      </trkpt>
      <trkpt lat="43.71895" lon="7.28307">
        <ele>27.1</ele>
        <time>1970-01-01T00:00:00Z</time>
      </trkpt>
      <trkpt lat="43.71887" lon="7.28297">
        <ele>26.8</ele>
        <time>1970-01-01T00:00:00Z</time>
      </trkpt>
      <trkpt lat="43.7188" lon="7.28288">
        <ele>26.1</ele>
        <time>1970-01-01T00:00:00Z</time>
      </trkpt>
      <trkpt lat="43.71871" lon="7.2828">
        <ele>25.7</ele>
        <time>1970-01-01T00:00:00Z</time>
      </trkpt>
      <trkpt lat="43.71863" lon="7.2827">
        <ele>25.6</ele>
        <time>1970-01-01T00:00:00Z</time>
      </trkpt>
      <trkpt lat="43.71854" lon="7.28262">
        <ele>25.6</ele>
        <time>1970-01-01T00:00:00Z</time>
      </trkpt>
      <trkpt lat="43.71846" lon="7.28252">
        <ele>25.7</ele>
        <time>1970-01-01T00:00:00Z</time>
      </trkpt>
      <trkpt lat="43.71839" lon="7.2824">
        <ele>25.9</ele>
        <time>1970-01-01T00:00:00Z</time>
      </trkpt>
      <trkpt lat="43.71832" lon="7.28229">
        <ele>26.4</ele>
        <time>1970-01-01T00:00:00Z</time>
      </trkpt>
      <trkpt lat="43.71821" lon="7.28224">
        <ele>26</ele>
        <time>1970-01-01T00:00:00Z</time>
      </trkpt>
      <trkpt lat="43.71813" lon="7.2822">
        <ele>25.6</ele>
        <time>1970-01-01T00:00:00Z</time>
      </trkpt>
      <trkpt lat="43.71804" lon="7.28212">
        <ele>25.6</ele>
        <time>1970-01-01T00:00:00Z</time>
      </trkpt>
      <trkpt lat="43.71794" lon="7.28205">
        <ele>25.5</ele>
        <time>1970-01-01T00:00:00Z</time>
      </trkpt>
      <trkpt lat="43.71782" lon="7.28199">
        <ele>25.5</ele>
        <time>1970-01-01T00:00:00Z</time>
      </trkpt>
      <trkpt lat="43.71772" lon="7.28191">
        <ele>25.4</ele>
        <time>1970-01-01T00:00:00Z</time>
      </trkpt>
      <trkpt lat="43.71762" lon="7.28182">
        <ele>25.1</ele>
        <time>1970-01-01T00:00:00Z</time>
      </trkpt>
      <trkpt lat="43.71754" lon="7.28173">
        <ele>25.5</ele>
        <time>1970-01-01T00:00:00Z</time>
      </trkpt>
      <trkpt lat="43.71745" lon="7.28163">
        <ele>25.9</ele>
        <time>1970-01-01T00:00:00Z</time>
      </trkpt>
      <trkpt lat="43.71735" lon="7.28156">
        <ele>25.6</ele>
        <time>1970-01-01T00:00:00Z</time>
      </trkpt>
      <trkpt lat="43.71724" lon="7.28152">
        <ele>25.1</ele>
        <time>1970-01-01T00:00:00Z</time>
      </trkpt>
      <trkpt lat="43.71714" lon="7.28145">
        <ele>25.1</ele>
        <time>1970-01-01T00:00:00Z</time>
      </trkpt>
      <trkpt lat="43.71703" lon="7.28139">
        <ele>25.7</ele>
        <time>1970-01-01T00:00:00Z</time>
      </trkpt>
      <trkpt lat="43.7169" lon="7.28135">
        <ele>25.7</ele>
        <time>1970-01-01T00:00:00Z</time>
      </trkpt>
      <trkpt lat="43.71678" lon="7.28131">
        <ele>25.3</ele>
        <time>1970-01-01T00:00:00Z</time>
      </trkpt>
      <trkpt lat="43.71664" lon="7.28131">
        <ele>25</ele>
        <time>1970-01-01T00:00:00Z</time>
      </trkpt>
      <trkpt lat="43.7165" lon="7.28133">
        <ele>24.9</ele>
        <time>1970-01-01T00:00:00Z</time>
      </trkpt>
      <trkpt lat="43.71636" lon="7.28132">
        <ele>24.8</ele>
        <time>1970-01-01T00:00:00Z</time>
      </trkpt>
      <trkpt lat="43.71624" lon="7.28128">
        <ele>24.6</ele>
        <time>1970-01-01T00:00:00Z</time>
      </trkpt>
      <trkpt lat="43.71611" lon="7.28126">
        <ele>24.5</ele>
        <time>1970-01-01T00:00:00Z</time>
      </trkpt>
      <trkpt lat="43.71598" lon="7.28123">
        <ele>24.2</ele>
        <time>1970-01-01T00:00:00Z</time>
      </trkpt>
      <trkpt lat="43.71586" lon="7.2812">
        <ele>23.7</ele>
        <time>1970-01-01T00:00:00Z</time>
      </trkpt>
      <trkpt lat="43.71571" lon="7.28119">
        <ele>23.6</ele>
        <time>1970-01-01T00:00:00Z</time>
      </trkpt>
      <trkpt lat="43.71558" lon="7.28122">
        <ele>23.8</ele>
        <time>1970-01-01T00:00:00Z</time>
      </trkpt>
      <trkpt lat="43.71546" lon="7.28126">
        <ele>24.1</ele>
        <time>1970-01-01T00:00:00Z</time>
      </trkpt>
      <trkpt lat="43.71534" lon="7.2813">
        <ele>24.1</ele>
        <time>1970-01-01T00:00:00Z</time>
      </trkpt>
      <trkpt lat="43.71523" lon="7.28134">
        <ele>24</ele>
        <time>1970-01-01T00:00:00Z</time>
      </trkpt>
      <trkpt lat="43.71512" lon="7.2814">
        <ele>24</ele>
        <time>1970-01-01T00:00:00Z</time>
      </trkpt>
      <trkpt lat="43.71502" lon="7.28146">
        <ele>24</ele>
        <time>1970-01-01T00:00:00Z</time>
      </trkpt>
      <trkpt lat="43.71493" lon="7.28154">
        <ele>23.9</ele>
        <time>1970-01-01T00:00:00Z</time>
      </trkpt>
      <trkpt lat="43.71483" lon="7.28161">
        <ele>23.9</ele>
        <time>1970-01-01T00:00:00Z</time>
      </trkpt>
      <trkpt lat="43.71473" lon="7.28168">
        <ele>24</ele>
        <time>1970-01-01T00:00:00Z</time>
      </trkpt>
      <trkpt lat="43.71464" lon="7.28175">
        <ele>24</ele>
        <time>1970-01-01T00:00:00Z</time>
      </trkpt>
      <trkpt lat="43.71454" lon="7.28182">
        <ele>23.9</ele>
        <time>1970-01-01T00:00:00Z</time>
      </trkpt>
      <trkpt lat="43.71443" lon="7.28187">
        <ele>23.7</ele>
        <time>1970-01-01T00:00:00Z</time>
      </trkpt>
      <trkpt lat="43.71432" lon="7.28192">
        <ele>23.5</ele>
        <time>1970-01-01T00:00:00Z</time>
      </trkpt>
      <trkpt lat="43.71423" lon="7.28201">
        <ele>23.2</ele>
        <time>1970-01-01T00:00:00Z</time>
      </trkpt>
      <trkpt lat="43.71413" lon="7.28209">
        <ele>23.4</ele>
        <time>1970-01-01T00:00:00Z</time>
      </trkpt>
      <trkpt lat="43.71404" lon="7.28219">
        <ele>23.7</ele>
        <time>1970-01-01T00:00:00Z</time>
      </trkpt>
      <trkpt lat="43.71397" lon="7.28229">
        <ele>22.9</ele>
        <time>1970-01-01T00:00:00Z</time>
      </trkpt>
      <trkpt lat="43.71388" lon="7.28237">
        <ele>22.5</ele>
        <time>1970-01-01T00:00:00Z</time>
      </trkpt>
      <trkpt lat="43.71378" lon="7.28246">
        <ele>22.2</ele>
        <time>1970-01-01T00:00:00Z</time>
      </trkpt>
      <trkpt lat="43.71368" lon="7.28253">
        <ele>22.1</ele>
        <time>1970-01-01T00:00:00Z</time>
      </trkpt>
      <trkpt lat="43.71357" lon="7.28258">
        <ele>21.9</ele>
        <time>1970-01-01T00:00:00Z</time>
      </trkpt>
      <trkpt lat="43.71343" lon="7.2826">
        <ele>21.8</ele>
        <time>1970-01-01T00:00:00Z</time>
      </trkpt>
      <trkpt lat="43.71329" lon="7.28263">
        <ele>21.6</ele>
        <time>1970-01-01T00:00:00Z</time>
      </trkpt>
      <trkpt lat="43.71316" lon="7.28265">
        <ele>21.1</ele>
        <time>1970-01-01T00:00:00Z</time>
      </trkpt>
      <trkpt lat="43.71303" lon="7.28267">
        <ele>20.8</ele>
        <time>1970-01-01T00:00:00Z</time>
      </trkpt>
      <trkpt lat="43.7129" lon="7.28269">
        <ele>21</ele>
        <time>1970-01-01T00:00:00Z</time>
      </trkpt>
      <trkpt lat="43.71275" lon="7.28269">
        <ele>21.4</ele>
        <time>1970-01-01T00:00:00Z</time>
      </trkpt>
      <trkpt lat="43.71249" lon="7.28274">
        <ele>22</ele>
        <time>1970-01-01T00:00:00Z</time>
      </trkpt>
      <trkpt lat="43.71225" lon="7.2828">
        <ele>20.8</ele>
        <time>1970-01-01T00:00:00Z</time>
      </trkpt>
      <trkpt lat="43.71199" lon="7.28284">
        <ele>20.3</ele>
        <time>1970-01-01T00:00:00Z</time>
      </trkpt>
      <trkpt lat="43.71173" lon="7.28288">
        <ele>19.9</ele>
        <time>1970-01-01T00:00:00Z</time>
      </trkpt>
      <trkpt lat="43.71147" lon="7.28291">
        <ele>19.2</ele>
        <time>1970-01-01T00:00:00Z</time>
      </trkpt>
      <trkpt lat="43.71119" lon="7.28291">
        <ele>18.7</ele>
        <time>1970-01-01T00:00:00Z</time>
      </trkpt>
      <trkpt lat="43.71097" lon="7.28283">
        <ele>19.4</ele>
        <time>1970-01-01T00:00:00Z</time>
      </trkpt>
      <trkpt lat="43.71074" lon="7.28274">
        <ele>19.7</ele>
        <time>1970-01-01T00:00:00Z</time>
      </trkpt>
      <trkpt lat="43.71048" lon="7.28269">
        <ele>18.6</ele>
        <time>1970-01-01T00:00:00Z</time>
      </trkpt>
      <trkpt lat="43.71024" lon="7.28262">
        <ele>18</ele>
        <time>1970-01-01T00:00:00Z</time>
      </trkpt>
      <trkpt lat="43.71001" lon="7.28256">
        <ele>17.6</ele>
        <time>1970-01-01T00:00:00Z</time>
      </trkpt>
      <trkpt lat="43.70977" lon="7.2825">
        <ele>18</ele>
        <time>1970-01-01T00:00:00Z</time>
      </trkpt>
      <trkpt lat="43.70956" lon="7.28239">
        <ele>18</ele>
        <time>1970-01-01T00:00:00Z</time>
      </trkpt>
      <trkpt lat="43.70935" lon="7.28228">
        <ele>18.1</ele>
        <time>1970-01-01T00:00:00Z</time>
      </trkpt>
      <trkpt lat="43.70913" lon="7.2822">
        <ele>17.9</ele>
        <time>1970-01-01T00:00:00Z</time>
      </trkpt>
      <trkpt lat="43.70888" lon="7.28215">
        <ele>17.8</ele>
        <time>1970-01-01T00:00:00Z</time>
      </trkpt>
      <trkpt lat="43.70874" lon="7.28214">
        <ele>17.7</ele>
        <time>1970-01-01T00:00:00Z</time>
      </trkpt>
      <trkpt lat="43.70861" lon="7.28212">
        <ele>17.6</ele>
        <time>1970-01-01T00:00:00Z</time>
      </trkpt>
      <trkpt lat="43.70861" lon="7.28192">
        <ele>17</ele>
        <time>1970-01-01T00:00:00Z</time>
      </trkpt>
      <trkpt lat="43.70866" lon="7.28178">
        <ele>17</ele>
        <time>1970-01-01T00:00:00Z</time>
      </trkpt>
      <trkpt lat="43.70871" lon="7.28164">
        <ele>17</ele>
        <time>1970-01-01T00:00:00Z</time>
      </trkpt>
      <trkpt lat="43.70875" lon="7.28151">
        <ele>17</ele>
        <time>1970-01-01T00:00:00Z</time>
      </trkpt>
      <trkpt lat="43.70879" lon="7.28136">
        <ele>16.9</ele>
        <time>1970-01-01T00:00:00Z</time>
      </trkpt>
      <trkpt lat="43.70882" lon="7.28119">
        <ele>16.3</ele>
        <time>1970-01-01T00:00:00Z</time>
      </trkpt>
      <trkpt lat="43.70885" lon="7.28104">
        <ele>16</ele>
        <time>1970-01-01T00:00:00Z</time>
      </trkpt>
      <trkpt lat="43.70889" lon="7.28088">
        <ele>16</ele>
        <time>1970-01-01T00:00:00Z</time>
      </trkpt>
      <trkpt lat="43.7089" lon="7.2807">
        <ele>16</ele>
        <time>1970-01-01T00:00:00Z</time>
      </trkpt>
      <trkpt lat="43.70877" lon="7.28068">
        <ele>16</ele>
        <time>1970-01-01T00:00:00Z</time>
      </trkpt>
      <trkpt lat="43.70862" lon="7.28068">
        <ele>16</ele>
        <time>1970-01-01T00:00:00Z</time>
      </trkpt>
      <trkpt lat="43.70851" lon="7.28064">
        <ele>16</ele>
        <time>1970-01-01T00:00:00Z</time>
      </trkpt>
      <trkpt lat="43.70839" lon="7.28059">
        <ele>16</ele>
        <time>1970-01-01T00:00:00Z</time>
      </trkpt>
      <trkpt lat="43.70828" lon="7.28056">
        <ele>16</ele>
        <time>1970-01-01T00:00:00Z</time>
      </trkpt>
      <trkpt lat="43.70814" lon="7.28054">
        <ele>16</ele>
        <time>1970-01-01T00:00:00Z</time>
      </trkpt>
      <trkpt lat="43.70803" lon="7.28051">
        <ele>16.2</ele>
        <time>1970-01-01T00:00:00Z</time>
      </trkpt>
      <trkpt lat="43.70791" lon="7.28046">
        <ele>16.2</ele>
        <time>1970-01-01T00:00:00Z</time>
      </trkpt>
      <trkpt lat="43.70779" lon="7.28043">
        <ele>16</ele>
        <time>1970-01-01T00:00:00Z</time>
      </trkpt>
      <trkpt lat="43.70765" lon="7.28042">
        <ele>15.8</ele>
        <time>1970-01-01T00:00:00Z</time>
      </trkpt>
      <trkpt lat="43.70751" lon="7.28038">
        <ele>15.4</ele>
        <time>1970-01-01T00:00:00Z</time>
      </trkpt>
      <trkpt lat="43.70741" lon="7.28031">
        <ele>15.1</ele>
        <time>1970-01-01T00:00:00Z</time>
      </trkpt>
      <trkpt lat="43.70729" lon="7.28028">
        <ele>15</ele>
        <time>1970-01-01T00:00:00Z</time>
      </trkpt>
      <trkpt lat="43.70715" lon="7.28026">
        <ele>16.3</ele>
        <time>1970-01-01T00:00:00Z</time>
      </trkpt>
      <trkpt lat="43.70706" lon="7.2802">
        <ele>17.5</ele>
        <time>1970-01-01T00:00:00Z</time>
      </trkpt>
      <trkpt lat="43.70705" lon="7.28001">
        <ele>16.4</ele>
        <time>1970-01-01T00:00:00Z</time>
      </trkpt>
      <trkpt lat="43.70706" lon="7.27981">
        <ele>19.4</ele>
        <time>1970-01-01T00:00:00Z</time>
      </trkpt>
      <trkpt lat="43.70707" lon="7.27964">
        <ele>21.3</ele>
        <time>1970-01-01T00:00:00Z</time>
      </trkpt>
      <trkpt lat="43.70712" lon="7.2795">
        <ele>22.7</ele>
        <time>1970-01-01T00:00:00Z</time>
      </trkpt>
      <trkpt lat="43.70713" lon="7.27932">
        <ele>24.4</ele>
        <time>1970-01-01T00:00:00Z</time>
      </trkpt>
      <trkpt lat="43.70713" lon="7.27912">
        <ele>25.7</ele>
        <time>1970-01-01T00:00:00Z</time>
      </trkpt>
      <trkpt lat="43.70716" lon="7.27895">
        <ele>26.1</ele>
        <time>1970-01-01T00:00:00Z</time>
      </trkpt>
      <trkpt lat="43.70718" lon="7.27877">
        <ele>26.2</ele>
        <time>1970-01-01T00:00:00Z</time>
      </trkpt>
      <trkpt lat="43.70718" lon="7.27858">
        <ele>26.2</ele>
        <time>1970-01-01T00:00:00Z</time>
      </trkpt>
      <trkpt lat="43.70718" lon="7.27838">
        <ele>26.3</ele>
        <time>1970-01-01T00:00:00Z</time>
      </trkpt>
      <trkpt lat="43.70721" lon="7.27821">
        <ele>26.8</ele>
        <time>1970-01-01T00:00:00Z</time>
      </trkpt>
      <trkpt lat="43.70722" lon="7.27803">
        <ele>26.6</ele>
        <time>1970-01-01T00:00:00Z</time>
      </trkpt>
      <trkpt lat="43.70724" lon="7.27785">
        <ele>24.6</ele>
        <time>1970-01-01T00:00:00Z</time>
      </trkpt>
      <trkpt lat="43.70727" lon="7.27769">
        <ele>24.6</ele>
        <time>1970-01-01T00:00:00Z</time>
      </trkpt>
      <trkpt lat="43.70735" lon="7.27758">
        <ele>26.7</ele>
        <time>1970-01-01T00:00:00Z</time>
      </trkpt>
      <trkpt lat="43.70745" lon="7.27753">
        <ele>29.7</ele>
        <time>1970-01-01T00:00:00Z</time>
      </trkpt>
      <trkpt lat="43.70753" lon="7.27744">
        <ele>31.8</ele>
        <time>1970-01-01T00:00:00Z</time>
      </trkpt>
      <trkpt lat="43.7076" lon="7.27734">
        <ele>32.8</ele>
        <time>1970-01-01T00:00:00Z</time>
      </trkpt>
      <trkpt lat="43.70771" lon="7.2773">
        <ele>33</ele>
        <time>1970-01-01T00:00:00Z</time>
      </trkpt>
      <trkpt lat="43.70785" lon="7.2773">
        <ele>33.9</ele>
        <time>1970-01-01T00:00:00Z</time>
      </trkpt>
      <trkpt lat="43.70797" lon="7.27734">
        <ele>35.4</ele>
        <time>1970-01-01T00:00:00Z</time>
      </trkpt>
      <trkpt lat="43.70811" lon="7.27735">
        <ele>37.1</ele>
        <time>1970-01-01T00:00:00Z</time>
      </trkpt>
      <trkpt lat="43.70818" lon="7.27723">
        <ele>37.8</ele>
        <time>1970-01-01T00:00:00Z</time>
      </trkpt>
      <trkpt lat="43.70821" lon="7.27707">
        <ele>37.9</ele>
        <time>1970-01-01T00:00:00Z</time>
      </trkpt>
      <trkpt lat="43.70821" lon="7.27687">
        <ele>38.4</ele>
        <time>1970-01-01T00:00:00Z</time>
      </trkpt>
      <trkpt lat="43.70817" lon="7.27672">
        <ele>39.2</ele>
        <time>1970-01-01T00:00:00Z</time>
      </trkpt>
      <trkpt lat="43.70808" lon="7.27666">
        <ele>38.4</ele>
        <time>1970-01-01T00:00:00Z</time>
      </trkpt>
      <trkpt lat="43.70798" lon="7.27673">
        <ele>37.3</ele>
        <time>1970-01-01T00:00:00Z</time>
      </trkpt>
      <trkpt lat="43.70791" lon="7.27682">
        <ele>36.4</ele>
        <time>1970-01-01T00:00:00Z</time>
      </trkpt>
      <trkpt lat="43.70779" lon="7.27686">
        <ele>35.7</ele>
        <time>1970-01-01T00:00:00Z</time>
      </trkpt>
      <trkpt lat="43.70768" lon="7.27691">
        <ele>35.3</ele>
        <time>1970-01-01T00:00:00Z</time>
      </trkpt>
      <trkpt lat="43.70757" lon="7.27695">
        <ele>35</ele>
        <time>1970-01-01T00:00:00Z</time>
      </trkpt>
      <trkpt lat="43.70744" lon="7.27699">
        <ele>35.5</ele>
        <time>1970-01-01T00:00:00Z</time>
      </trkpt>
      <trkpt lat="43.70731" lon="7.277">
        <ele>36.7</ele>
        <time>1970-01-01T00:00:00Z</time>
      </trkpt>
      <trkpt lat="43.70718" lon="7.27698">
        <ele>38.4</ele>
        <time>1970-01-01T00:00:00Z</time>
      </trkpt>
      <trkpt lat="43.70706" lon="7.27695">
        <ele>40.1</ele>
        <time>1970-01-01T00:00:00Z</time>
      </trkpt>
      <trkpt lat="43.70711" lon="7.2768">
        <ele>42.4</ele>
        <time>1970-01-01T00:00:00Z</time>
      </trkpt>
      <trkpt lat="43.70721" lon="7.27675">
        <ele>41.3</ele>
        <time>1970-01-01T00:00:00Z</time>
      </trkpt>
      <trkpt lat="43.70729" lon="7.27664">
        <ele>41.3</ele>
        <time>1970-01-01T00:00:00Z</time>
      </trkpt>
      <trkpt lat="43.70739" lon="7.27659">
        <ele>40.6</ele>
        <time>1970-01-01T00:00:00Z</time>
      </trkpt>
      <trkpt lat="43.70749" lon="7.27652">
        <ele>40.3</ele>
        <time>1970-01-01T00:00:00Z</time>
      </trkpt>
      <trkpt lat="43.70759" lon="7.27645">
        <ele>41.4</ele>
        <time>1970-01-01T00:00:00Z</time>
      </trkpt>
      <trkpt lat="43.70768" lon="7.27638">
        <ele>42.7</ele>
        <time>1970-01-01T00:00:00Z</time>
      </trkpt>
      <trkpt lat="43.70779" lon="7.27632">
        <ele>43.4</ele>
        <time>1970-01-01T00:00:00Z</time>
      </trkpt>
      <trkpt lat="43.7079" lon="7.27627">
        <ele>44.4</ele>
        <time>1970-01-01T00:00:00Z</time>
      </trkpt>
      <trkpt lat="43.708" lon="7.2762">
        <ele>45.5</ele>
        <time>1970-01-01T00:00:00Z</time>
      </trkpt>
      <trkpt lat="43.70812" lon="7.27617">
        <ele>46.2</ele>
        <time>1970-01-01T00:00:00Z</time>
      </trkpt>
      <trkpt lat="43.70825" lon="7.27615">
        <ele>47.1</ele>
        <time>1970-01-01T00:00:00Z</time>
      </trkpt>
      <trkpt lat="43.70835" lon="7.27612">
        <ele>47.9</ele>
        <time>1970-01-01T00:00:00Z</time>
      </trkpt>
      <trkpt lat="43.70845" lon="7.27606">
        <ele>48.7</ele>
        <time>1970-01-01T00:00:00Z</time>
      </trkpt>
      <trkpt lat="43.70847" lon="7.27588">
        <ele>49.8</ele>
        <time>1970-01-01T00:00:00Z</time>
      </trkpt>
      <trkpt lat="43.70839" lon="7.27579">
        <ele>50.8</ele>
        <time>1970-01-01T00:00:00Z</time>
      </trkpt>
      <trkpt lat="43.70829" lon="7.27585">
        <ele>50.2</ele>
        <time>1970-01-01T00:00:00Z</time>
      </trkpt>
      <trkpt lat="43.70818" lon="7.27589">
        <ele>50.4</ele>
        <time>1970-01-01T00:00:00Z</time>
      </trkpt>
      <trkpt lat="43.70805" lon="7.27591">
        <ele>50.7</ele>
        <time>1970-01-01T00:00:00Z</time>
      </trkpt>
      <trkpt lat="43.70793" lon="7.27595">
        <ele>50.5</ele>
        <time>1970-01-01T00:00:00Z</time>
      </trkpt>
      <trkpt lat="43.70781" lon="7.27599">
        <ele>50.5</ele>
        <time>1970-01-01T00:00:00Z</time>
      </trkpt>
      <trkpt lat="43.70768" lon="7.27601">
        <ele>51.5</ele>
        <time>1970-01-01T00:00:00Z</time>
      </trkpt>
      <trkpt lat="43.70757" lon="7.27604">
        <ele>52.5</ele>
        <time>1970-01-01T00:00:00Z</time>
      </trkpt>
      <trkpt lat="43.70745" lon="7.27601">
        <ele>54.7</ele>
        <time>1970-01-01T00:00:00Z</time>
      </trkpt>
      <trkpt lat="43.70748" lon="7.27586">
        <ele>55.2</ele>
        <time>1970-01-01T00:00:00Z</time>
      </trkpt>
      <trkpt lat="43.70757" lon="7.27578">
        <ele>56.4</ele>
        <time>1970-01-01T00:00:00Z</time>
      </trkpt>
      <trkpt lat="43.70767" lon="7.27571">
        <ele>57.9</ele>
        <time>1970-01-01T00:00:00Z</time>
      </trkpt>
      <trkpt lat="43.70779" lon="7.27568">
        <ele>58.3</ele>
        <time>1970-01-01T00:00:00Z</time>
      </trkpt>
      <trkpt lat="43.70792" lon="7.27565">
        <ele>58.3</ele>
        <time>1970-01-01T00:00:00Z</time>
      </trkpt>
      <trkpt lat="43.70801" lon="7.27559">
        <ele>59.4</ele>
        <time>1970-01-01T00:00:00Z</time>
      </trkpt>
      <trkpt lat="43.70813" lon="7.27554">
        <ele>58.9</ele>
        <time>1970-01-01T00:00:00Z</time>
      </trkpt>
      <trkpt lat="43.70823" lon="7.27549">
        <ele>58.3</ele>
        <time>1970-01-01T00:00:00Z</time>
      </trkpt>
      <trkpt lat="43.70833" lon="7.27543">
        <ele>58.2</ele>
        <time>1970-01-01T00:00:00Z</time>
      </trkpt>
      <trkpt lat="43.70844" lon="7.27537">
        <ele>59.2</ele>
        <time>1970-01-01T00:00:00Z</time>
      </trkpt>
      <trkpt lat="43.70853" lon="7.2753">
        <ele>60.1</ele>
        <time>1970-01-01T00:00:00Z</time>
      </trkpt>
      <trkpt lat="43.70853" lon="7.27511">
        <ele>60.6</ele>
        <time>1970-01-01T00:00:00Z</time>
      </trkpt>
      <trkpt lat="43.70852" lon="7.27492">
        <ele>60.6</ele>
        <time>1970-01-01T00:00:00Z</time>
      </trkpt>
      <trkpt lat="43.70852" lon="7.27472">
        <ele>60.3</ele>
        <time>1970-01-01T00:00:00Z</time>
      </trkpt>
      <trkpt lat="43.70852" lon="7.27452">
        <ele>58.6</ele>
        <time>1970-01-01T00:00:00Z</time>
      </trkpt>
      <trkpt lat="43.70854" lon="7.27435">
        <ele>56.6</ele>
        <time>1970-01-01T00:00:00Z</time>
      </trkpt>
      <trkpt lat="43.70856" lon="7.27418">
        <ele>54.6</ele>
        <time>1970-01-01T00:00:00Z</time>
      </trkpt>
      <trkpt lat="43.70859" lon="7.27401">
        <ele>54.8</ele>
        <time>1970-01-01T00:00:00Z</time>
      </trkpt>
      <trkpt lat="43.70862" lon="7.27385">
        <ele>54.8</ele>
        <time>1970-01-01T00:00:00Z</time>
      </trkpt>
      <trkpt lat="43.70868" lon="7.27373">
        <ele>53.9</ele>
        <time>1970-01-01T00:00:00Z</time>
      </trkpt>
      <trkpt lat="43.70873" lon="7.2736">
        <ele>53.1</ele>
        <time>1970-01-01T00:00:00Z</time>
      </trkpt>
      <trkpt lat="43.70877" lon="7.27345">
        <ele>52.6</ele>
        <time>1970-01-01T00:00:00Z</time>
      </trkpt>
      <trkpt lat="43.70879" lon="7.27328">
        <ele>52.1</ele>
        <time>1970-01-01T00:00:00Z</time>
      </trkpt>
      <trkpt lat="43.70869" lon="7.27321">
        <ele>51.4</ele>
        <time>1970-01-01T00:00:00Z</time>
      </trkpt>
      <trkpt lat="43.70858" lon="7.27316">
        <ele>50.5</ele>
        <time>1970-01-01T00:00:00Z</time>
      </trkpt>
      <trkpt lat="43.70848" lon="7.2731">
        <ele>50</ele>
        <time>1970-01-01T00:00:00Z</time>
      </trkpt>
      <trkpt lat="43.70839" lon="7.27303">
        <ele>49.3</ele>
        <time>1970-01-01T00:00:00Z</time>
      </trkpt>
      <trkpt lat="43.70827" lon="7.27294">
        <ele>48.6</ele>
        <time>1970-01-01T00:00:00Z</time>
      </trkpt>
      <trkpt lat="43.70813" lon="7.27288">
        <ele>49.1</ele>
        <time>1970-01-01T00:00:00Z</time>
      </trkpt>
      <trkpt lat="43.70799" lon="7.27283">
        <ele>50</ele>
        <time>1970-01-01T00:00:00Z</time>
      </trkpt>
      <trkpt lat="43.70785" lon="7.27278">
        <ele>50.5</ele>
        <time>1970-01-01T00:00:00Z</time>
      </trkpt>
      <trkpt lat="43.70768" lon="7.27278">
        <ele>51.7</ele>
        <time>1970-01-01T00:00:00Z</time>
      </trkpt>
      <trkpt lat="43.70752" lon="7.27281">
        <ele>53.1</ele>
        <time>1970-01-01T00:00:00Z</time>
      </trkpt>
      <trkpt lat="43.70743" lon="7.27292">
        <ele>54.1</ele>
        <time>1970-01-01T00:00:00Z</time>
      </trkpt>
      <trkpt lat="43.70735" lon="7.27306">
        <ele>55</ele>
        <time>1970-01-01T00:00:00Z</time>
      </trkpt>
      <trkpt lat="43.70729" lon="7.27321">
        <ele>56.1</ele>
        <time>1970-01-01T00:00:00Z</time>
      </trkpt>
      <trkpt lat="43.70723" lon="7.27338">
        <ele>57.3</ele>
        <time>1970-01-01T00:00:00Z</time>
      </trkpt>
      <trkpt lat="43.70708" lon="7.27341">
        <ele>57.6</ele>
        <time>1970-01-01T00:00:00Z</time>
      </trkpt>
      <trkpt lat="43.70696" lon="7.27332">
        <ele>56.9</ele>
        <time>1970-01-01T00:00:00Z</time>
      </trkpt>
      <trkpt lat="43.70687" lon="7.27318">
        <ele>55.1</ele>
        <time>1970-01-01T00:00:00Z</time>
      </trkpt>
      <trkpt lat="43.70683" lon="7.27297">
        <ele>52.3</ele>
        <time>1970-01-01T00:00:00Z</time>
      </trkpt>
      <trkpt lat="43.7068" lon="7.27276">
        <ele>49.8</ele>
        <time>1970-01-01T00:00:00Z</time>
      </trkpt>
      <trkpt lat="43.7068" lon="7.27252">
        <ele>47.2</ele>
        <time>1970-01-01T00:00:00Z</time>
      </trkpt>
      <trkpt lat="43.70683" lon="7.27231">
        <ele>45.7</ele>
        <time>1970-01-01T00:00:00Z</time>
      </trkpt>
      <trkpt lat="43.70692" lon="7.2722">
        <ele>47.2</ele>
        <time>1970-01-01T00:00:00Z</time>
      </trkpt>
      <trkpt lat="43.70704" lon="7.27212">
        <ele>46.7</ele>
        <time>1970-01-01T00:00:00Z</time>
      </trkpt>
      <trkpt lat="43.70717" lon="7.27204">
        <ele>45.6</ele>
        <time>1970-01-01T00:00:00Z</time>
      </trkpt>
      <trkpt lat="43.7073" lon="7.27196">
        <ele>44.5</ele>
        <time>1970-01-01T00:00:00Z</time>
      </trkpt>
      <trkpt lat="43.70744" lon="7.27192">
        <ele>43.4</ele>
        <time>1970-01-01T00:00:00Z</time>
      </trkpt>
      <trkpt lat="43.7076" lon="7.27188">
        <ele>42.8</ele>
        <time>1970-01-01T00:00:00Z</time>
      </trkpt>
      <trkpt lat="43.70775" lon="7.27192">
        <ele>42.8</ele>
        <time>1970-01-01T00:00:00Z</time>
      </trkpt>
      <trkpt lat="43.7079" lon="7.27195">
        <ele>41.2</ele>
        <time>1970-01-01T00:00:00Z</time>
      </trkpt>
      <trkpt lat="43.70804" lon="7.27199">
        <ele>39.9</ele>
        <time>1970-01-01T00:00:00Z</time>
      </trkpt>
      <trkpt lat="43.70819" lon="7.27206">
        <ele>39.8</ele>
        <time>1970-01-01T00:00:00Z</time>
      </trkpt>
      <trkpt lat="43.70825" lon="7.27191">
        <ele>37.4</ele>
        <time>1970-01-01T00:00:00Z</time>
      </trkpt>
      <trkpt lat="43.70821" lon="7.27172">
        <ele>37</ele>
        <time>1970-01-01T00:00:00Z</time>
      </trkpt>
      <trkpt lat="43.70811" lon="7.27162">
        <ele>36.7</ele>
        <time>1970-01-01T00:00:00Z</time>
      </trkpt>
      <trkpt lat="43.70799" lon="7.27155">
        <ele>37.2</ele>
        <time>1970-01-01T00:00:00Z</time>
      </trkpt>
      <trkpt lat="43.70793" lon="7.27137">
        <ele>36.1</ele>
        <time>1970-01-01T00:00:00Z</time>
      </trkpt>
      <trkpt lat="43.70791" lon="7.27116">
        <ele>34.8</ele>
        <time>1970-01-01T00:00:00Z</time>
      </trkpt>
      <trkpt lat="43.7079" lon="7.27094">
        <ele>34.8</ele>
        <time>1970-01-01T00:00:00Z</time>
      </trkpt>
      <trkpt lat="43.70786" lon="7.27074">
        <ele>34.6</ele>
        <time>1970-01-01T00:00:00Z</time>
      </trkpt>
      <trkpt lat="43.70782" lon="7.27055">
        <ele>33.4</ele>
        <time>1970-01-01T00:00:00Z</time>
      </trkpt>
      <trkpt lat="43.7077" lon="7.27046">
        <ele>33.2</ele>
        <time>1970-01-01T00:00:00Z</time>
      </trkpt>
      <trkpt lat="43.7076" lon="7.27036">
        <ele>31.8</ele>
        <time>1970-01-01T00:00:00Z</time>
      </trkpt>
      <trkpt lat="43.70747" lon="7.27029">
        <ele>30.5</ele>
        <time>1970-01-01T00:00:00Z</time>
      </trkpt>
      <trkpt lat="43.7073" lon="7.27029">
        <ele>31.7</ele>
        <time>1970-01-01T00:00:00Z</time>
      </trkpt>
      <trkpt lat="43.70714" lon="7.27026">
        <ele>31.7</ele>
        <time>1970-01-01T00:00:00Z</time>
      </trkpt>
      <trkpt lat="43.70697" lon="7.27025">
        <ele>32</ele>
        <time>1970-01-01T00:00:00Z</time>
      </trkpt>
      <trkpt lat="43.70687" lon="7.27035">
        <ele>31.3</ele>
        <time>1970-01-01T00:00:00Z</time>
      </trkpt>
      <trkpt lat="43.70678" lon="7.27047">
        <ele>29.6</ele>
        <time>1970-01-01T00:00:00Z</time>
      </trkpt>
      <trkpt lat="43.70673" lon="7.27065">
        <ele>31.6</ele>
        <time>1970-01-01T00:00:00Z</time>
      </trkpt>
      <trkpt lat="43.70671" lon="7.27086">
        <ele>37.3</ele>
        <time>1970-01-01T00:00:00Z</time>
      </trkpt>
      <trkpt lat="43.70664" lon="7.27101">
        <ele>36.5</ele>
        <time>1970-01-01T00:00:00Z</time>
      </trkpt>
      <trkpt lat="43.70656" lon="7.27116">
        <ele>35.6</ele>
        <time>1970-01-01T00:00:00Z</time>
      </trkpt>
      <trkpt lat="43.70641" lon="7.27119">
        <ele>33.6</ele>
        <time>1970-01-01T00:00:00Z</time>
      </trkpt>
      <trkpt lat="43.70626" lon="7.27116">
        <ele>28.9</ele>
        <time>1970-01-01T00:00:00Z</time>
      </trkpt>
      <trkpt lat="43.70614" lon="7.27127">
        <ele>27.8</ele>
        <time>1970-01-01T00:00:00Z</time>
      </trkpt>
      <trkpt lat="43.70604" lon="7.27137">
        <ele>28.1</ele>
        <time>1970-01-01T00:00:00Z</time>
      </trkpt>
      <trkpt lat="43.70595" lon="7.2715">
        <ele>26.5</ele>
        <time>1970-01-01T00:00:00Z</time>
      </trkpt>
      <trkpt lat="43.70588" lon="7.27166">
        <ele>26.1</ele>
        <time>1970-01-01T00:00:00Z</time>
      </trkpt>
      <trkpt lat="43.70583" lon="7.27183">
        <ele>25.2</ele>
        <time>1970-01-01T00:00:00Z</time>
      </trkpt>
      <trkpt lat="43.70578" lon="7.27201">
        <ele>23.4</ele>
        <time>1970-01-01T00:00:00Z</time>
      </trkpt>
      <trkpt lat="43.70574" lon="7.2722">
        <ele>22</ele>
        <time>1970-01-01T00:00:00Z</time>
      </trkpt>
      <trkpt lat="43.70566" lon="7.27232">
        <ele>20</ele>
        <time>1970-01-01T00:00:00Z</time>
      </trkpt>
      <trkpt lat="43.70568" lon="7.27213">
        <ele>20.3</ele>
        <time>1970-01-01T00:00:00Z</time>
      </trkpt>
      <trkpt lat="43.70572" lon="7.27193">
        <ele>21.7</ele>
        <time>1970-01-01T00:00:00Z</time>
      </trkpt>
      <trkpt lat="43.70564" lon="7.27179">
        <ele>19.3</ele>
        <time>1970-01-01T00:00:00Z</time>
      </trkpt>
      <trkpt lat="43.70559" lon="7.27197">
        <ele>17.9</ele>
        <time>1970-01-01T00:00:00Z</time>
      </trkpt>
      <trkpt lat="43.70557" lon="7.27219">
        <ele>16.4</ele>
        <time>1970-01-01T00:00:00Z</time>
      </trkpt>
      <trkpt lat="43.70553" lon="7.27238">
        <ele>17.7</ele>
        <time>1970-01-01T00:00:00Z</time>
      </trkpt>
      <trkpt lat="43.70539" lon="7.2723">
        <ele>14.4</ele>
        <time>1970-01-01T00:00:00Z</time>
      </trkpt>
      <trkpt lat="43.70538" lon="7.27207">
        <ele>13.3</ele>
        <time>1970-01-01T00:00:00Z</time>
      </trkpt>
      <trkpt lat="43.7053" lon="7.27193">
        <ele>11.5</ele>
        <time>1970-01-01T00:00:00Z</time>
      </trkpt>
      <trkpt lat="43.70523" lon="7.27177">
        <ele>11</ele>
        <time>1970-01-01T00:00:00Z</time>
      </trkpt>
      <trkpt lat="43.70517" lon="7.27161">
        <ele>11</ele>
        <time>1970-01-01T00:00:00Z</time>
      </trkpt>
      <trkpt lat="43.70514" lon="7.27141">
        <ele>10.5</ele>
        <time>1970-01-01T00:00:00Z</time>
      </trkpt>
      <trkpt lat="43.70515" lon="7.27118">
        <ele>11.7</ele>
        <time>1970-01-01T00:00:00Z</time>
      </trkpt>
      <trkpt lat="43.70517" lon="7.27097">
        <ele>11.9</ele>
        <time>1970-01-01T00:00:00Z</time>
      </trkpt>
      <trkpt lat="43.70521" lon="7.27079">
        <ele>11.6</ele>
        <time>1970-01-01T00:00:00Z</time>
      </trkpt>
      <trkpt lat="43.70526" lon="7.27062">
        <ele>11.2</ele>
        <time>1970-01-01T00:00:00Z</time>
      </trkpt>
      <trkpt lat="43.70536" lon="7.27051">
        <ele>11.7</ele>
        <time>1970-01-01T00:00:00Z</time>
      </trkpt>
      <trkpt lat="43.70546" lon="7.27042">
        <ele>12</ele>
        <time>1970-01-01T00:00:00Z</time>
      </trkpt>
      <trkpt lat="43.70562" lon="7.2704">
        <ele>13.3</ele>
        <time>1970-01-01T00:00:00Z</time>
      </trkpt>
      <trkpt lat="43.70571" lon="7.27029">
        <ele>12.8</ele>
        <time>1970-01-01T00:00:00Z</time>
      </trkpt>
      <trkpt lat="43.70578" lon="7.27015">
        <ele>12.3</ele>
        <time>1970-01-01T00:00:00Z</time>
      </trkpt>
      <trkpt lat="43.70595" lon="7.27014">
        <ele>13.9</ele>
        <time>1970-01-01T00:00:00Z</time>
      </trkpt>
      <trkpt lat="43.70603" lon="7.27002">
        <ele>12.7</ele>
        <time>1970-01-01T00:00:00Z</time>
      </trkpt>
      <trkpt lat="43.70615" lon="7.26995">
        <ele>13.5</ele>
        <time>1970-01-01T00:00:00Z</time>
      </trkpt>
      <trkpt lat="43.70628" lon="7.26989">
        <ele>15.2</ele>
        <time>1970-01-01T00:00:00Z</time>
      </trkpt>
      <trkpt lat="43.70623" lon="7.26973">
        <ele>11.9</ele>
        <time>1970-01-01T00:00:00Z</time>
      </trkpt>
      <trkpt lat="43.70618" lon="7.26953">
        <ele>11.3</ele>
        <time>1970-01-01T00:00:00Z</time>
      </trkpt>
      <trkpt lat="43.70613" lon="7.26937">
        <ele>11.1</ele>
        <time>1970-01-01T00:00:00Z</time>
      </trkpt>
      <trkpt lat="43.70609" lon="7.2692">
        <ele>10.8</ele>
        <time>1970-01-01T00:00:00Z</time>
      </trkpt>
      <trkpt lat="43.70603" lon="7.26903">
        <ele>10.7</ele>
        <time>1970-01-01T00:00:00Z</time>
      </trkpt>
      <trkpt lat="43.70597" lon="7.26887">
        <ele>11</ele>
        <time>1970-01-01T00:00:00Z</time>
      </trkpt>
      <trkpt lat="43.70591" lon="7.26872">
        <ele>10.6</ele>
        <time>1970-01-01T00:00:00Z</time>
      </trkpt>
      <trkpt lat="43.70585" lon="7.26857">
        <ele>10.2</ele>
        <time>1970-01-01T00:00:00Z</time>
      </trkpt>
      <trkpt lat="43.7058" lon="7.2684">
        <ele>10.8</ele>
        <time>1970-01-01T00:00:00Z</time>
      </trkpt>
      <trkpt lat="43.70575" lon="7.26821">
        <ele>11</ele>
        <time>1970-01-01T00:00:00Z</time>
      </trkpt>
      <trkpt lat="43.70568" lon="7.26808">
        <ele>11</ele>
        <time>1970-01-01T00:00:00Z</time>
      </trkpt>
      <trkpt lat="43.70561" lon="7.26793">
        <ele>11</ele>
        <time>1970-01-01T00:00:00Z</time>
      </trkpt>
      <trkpt lat="43.70555" lon="7.26778">
        <ele>11</ele>
        <time>1970-01-01T00:00:00Z</time>
      </trkpt>
      <trkpt lat="43.7055" lon="7.26759">
        <ele>10.8</ele>
        <time>1970-01-01T00:00:00Z</time>
      </trkpt>
      <trkpt lat="43.70545" lon="7.2674">
        <ele>10.4</ele>
        <time>1970-01-01T00:00:00Z</time>
      </trkpt>
      <trkpt lat="43.70541" lon="7.26721">
        <ele>10</ele>
        <time>1970-01-01T00:00:00Z</time>
      </trkpt>
      <trkpt lat="43.70535" lon="7.26701">
        <ele>10.2</ele>
        <time>1970-01-01T00:00:00Z</time>
      </trkpt>
      <trkpt lat="43.7053" lon="7.26684">
        <ele>10.1</ele>
        <time>1970-01-01T00:00:00Z</time>
      </trkpt>
      <trkpt lat="43.70523" lon="7.26669">
        <ele>10</ele>
        <time>1970-01-01T00:00:00Z</time>
      </trkpt>
      <trkpt lat="43.70517" lon="7.26654">
        <ele>10</ele>
        <time>1970-01-01T00:00:00Z</time>
      </trkpt>
      <trkpt lat="43.7051" lon="7.26637">
        <ele>10</ele>
        <time>1970-01-01T00:00:00Z</time>
      </trkpt>
      <trkpt lat="43.70504" lon="7.26622">
        <ele>10</ele>
        <time>1970-01-01T00:00:00Z</time>
      </trkpt>
      <trkpt lat="43.70497" lon="7.26607">
        <ele>10</ele>
        <time>1970-01-01T00:00:00Z</time>
      </trkpt>
      <trkpt lat="43.70491" lon="7.26591">
        <ele>10</ele>
        <time>1970-01-01T00:00:00Z</time>
      </trkpt>
      <trkpt lat="43.70485" lon="7.26576">
        <ele>10</ele>
        <time>1970-01-01T00:00:00Z</time>
      </trkpt>
      <trkpt lat="43.7048" lon="7.2656">
        <ele>10</ele>
        <time>1970-01-01T00:00:00Z</time>
      </trkpt>
      <trkpt lat="43.70473" lon="7.26545">
        <ele>10</ele>
        <time>1970-01-01T00:00:00Z</time>
      </trkpt>
      <trkpt lat="43.70469" lon="7.26526">
        <ele>9.9</ele>
        <time>1970-01-01T00:00:00Z</time>
      </trkpt>
      <trkpt lat="43.70467" lon="7.26506">
        <ele>9.8</ele>
        <time>1970-01-01T00:00:00Z</time>
      </trkpt>
      <trkpt lat="43.70463" lon="7.26487">
        <ele>9.8</ele>
        <time>1970-01-01T00:00:00Z</time>
      </trkpt>
      <trkpt lat="43.70459" lon="7.26469">
        <ele>10</ele>
        <time>1970-01-01T00:00:00Z</time>
      </trkpt>
      <trkpt lat="43.70457" lon="7.2645">
        <ele>10</ele>
        <time>1970-01-01T00:00:00Z</time>
      </trkpt>
      <trkpt lat="43.70453" lon="7.26432">
        <ele>10.5</ele>
        <time>1970-01-01T00:00:00Z</time>
      </trkpt>
      <trkpt lat="43.70449" lon="7.26414">
        <ele>11</ele>
        <time>1970-01-01T00:00:00Z</time>
      </trkpt>
      <trkpt lat="43.70446" lon="7.26394">
        <ele>11.1</ele>
        <time>1970-01-01T00:00:00Z</time>
      </trkpt>
      <trkpt lat="43.70445" lon="7.26373">
        <ele>11.6</ele>
        <time>1970-01-01T00:00:00Z</time>
      </trkpt>
      <trkpt lat="43.70443" lon="7.26352">
        <ele>11.9</ele>
        <time>1970-01-01T00:00:00Z</time>
      </trkpt>
      <trkpt lat="43.70439" lon="7.26333">
        <ele>11.8</ele>
        <time>1970-01-01T00:00:00Z</time>
      </trkpt>
      <trkpt lat="43.70434" lon="7.26316">
        <ele>12.4</ele>
        <time>1970-01-01T00:00:00Z</time>
      </trkpt>
      <trkpt lat="43.70432" lon="7.26296">
        <ele>12.6</ele>
        <time>1970-01-01T00:00:00Z</time>
      </trkpt>
      <trkpt lat="43.70426" lon="7.26279">
        <ele>11.6</ele>
        <time>1970-01-01T00:00:00Z</time>
      </trkpt>
      <trkpt lat="43.7042" lon="7.26263">
        <ele>10.7</ele>
        <time>1970-01-01T00:00:00Z</time>
      </trkpt>
      <trkpt lat="43.70415" lon="7.26246">
        <ele>10.4</ele>
        <time>1970-01-01T00:00:00Z</time>
      </trkpt>
      <trkpt lat="43.7041" lon="7.26228">
        <ele>12.2</ele>
        <time>1970-01-01T00:00:00Z</time>
      </trkpt>
      <trkpt lat="43.70405" lon="7.26213">
        <ele>12.8</ele>
        <time>1970-01-01T00:00:00Z</time>
      </trkpt>
      <trkpt lat="43.70399" lon="7.26197">
        <ele>14.1</ele>
        <time>1970-01-01T00:00:00Z</time>
      </trkpt>
      <trkpt lat="43.70395" lon="7.26179">
        <ele>14.7</ele>
        <time>1970-01-01T00:00:00Z</time>
      </trkpt>
      <trkpt lat="43.70389" lon="7.26164">
        <ele>15</ele>
        <time>1970-01-01T00:00:00Z</time>
      </trkpt>
      <trkpt lat="43.70395" lon="7.26148">
        <ele>15.2</ele>
        <time>1970-01-01T00:00:00Z</time>
      </trkpt>
      <trkpt lat="43.70412" lon="7.26148">
        <ele>15.8</ele>
        <time>1970-01-01T00:00:00Z</time>
      </trkpt>
      <trkpt lat="43.70421" lon="7.2616">
        <ele>16</ele>
        <time>1970-01-01T00:00:00Z</time>
      </trkpt>
      <trkpt lat="43.70432" lon="7.26169">
        <ele>16</ele>
        <time>1970-01-01T00:00:00Z</time>
      </trkpt>
    </trkseg>
  </trk>
</gpx>